<?xml version="1.0" encoding="UTF-8" standalone="no" ?>
<gpx xmlns="http://www.topografix.com/GPX/1/1" xmlns:xsi="http://www.w3.org/2001/XMLSchema-instance" xsi:schemaLocation="http://www.topografix.com/GPX/1/1 http://www.topografix.com/GPX/1/1/gpx.xsd" version="1.1" creator="VisuGPX - https://www.visugpx.com">
  <metadata>
    <name>Granada</name>
  </metadata>
  <trk>
    <name><![CDATA[Granada]]></name>
    <extensions>
      <line xmlns="http://www.topografix.com/GPX/gpx_style/0/2">
        <color>0000FF</color>
        <width>4</width>
      </line>
    </extensions>
    <trkseg>
      <trkpt lat="37.16338" lon="-3.57157">
        <ele>703.514412</ele>
        <time>2022-04-19T08:49:07.000Z</time>
      </trkpt>
      <trkpt lat="37.16336" lon="-3.57158">
        <ele>703.514412</ele>
        <time>2022-04-19T08:49:08.000Z</time>
      </trkpt>
      <trkpt lat="37.16336" lon="-3.5716">
        <ele>703.514412</ele>
        <time>2022-04-19T08:49:12.000Z</time>
      </trkpt>
      <trkpt lat="37.16335" lon="-3.57159">
        <ele>703.514412</ele>
        <time>2022-04-19T08:49:16.000Z</time>
      </trkpt>
      <trkpt lat="37.16328" lon="-3.5716">
        <ele>703.514412</ele>
        <time>2022-04-19T08:49:19.000Z</time>
      </trkpt>
      <trkpt lat="37.16326" lon="-3.57159">
        <ele>703.514412</ele>
        <time>2022-04-19T08:49:20.000Z</time>
      </trkpt>
      <trkpt lat="37.16321" lon="-3.57146">
        <ele>703.514412</ele>
        <time>2022-04-19T08:49:23.000Z</time>
      </trkpt>
      <trkpt lat="37.16316" lon="-3.57148">
        <ele>703.514412</ele>
        <time>2022-04-19T08:49:25.000Z</time>
      </trkpt>
      <trkpt lat="37.16312" lon="-3.57155">
        <ele>703.514412</ele>
        <time>2022-04-19T08:49:27.000Z</time>
      </trkpt>
      <trkpt lat="37.16311" lon="-3.5716">
        <ele>703.514412</ele>
        <time>2022-04-19T08:49:28.000Z</time>
      </trkpt>
      <trkpt lat="37.16309" lon="-3.57166">
        <ele>703.514412</ele>
        <time>2022-04-19T08:49:29.000Z</time>
      </trkpt>
      <trkpt lat="37.16311" lon="-3.57177">
        <ele>703.514412</ele>
        <time>2022-04-19T08:49:31.000Z</time>
      </trkpt>
      <trkpt lat="37.16315" lon="-3.57191">
        <ele>703.514412</ele>
        <time>2022-04-19T08:49:33.000Z</time>
      </trkpt>
      <trkpt lat="37.1632" lon="-3.57214">
        <ele>703.514412</ele>
        <time>2022-04-19T08:49:36.000Z</time>
      </trkpt>
      <trkpt lat="37.16327" lon="-3.57239">
        <ele>702.65204</ele>
        <time>2022-04-19T08:49:39.000Z</time>
      </trkpt>
      <trkpt lat="37.16331" lon="-3.57256">
        <ele>701.913264</ele>
        <time>2022-04-19T08:49:41.000Z</time>
      </trkpt>
      <trkpt lat="37.16333" lon="-3.57265">
        <ele>701.528561</ele>
        <time>2022-04-19T08:49:42.000Z</time>
      </trkpt>
      <trkpt lat="37.16336" lon="-3.57275">
        <ele>701.117943</ele>
        <time>2022-04-19T08:49:43.000Z</time>
      </trkpt>
      <trkpt lat="37.16343" lon="-3.57305">
        <ele>699.891845</ele>
        <time>2022-04-19T08:49:46.000Z</time>
      </trkpt>
      <trkpt lat="37.16344" lon="-3.57315">
        <ele>699.479412</ele>
        <time>2022-04-19T08:49:47.000Z</time>
      </trkpt>
      <trkpt lat="37.16346" lon="-3.57325">
        <ele>699.06698</ele>
        <time>2022-04-19T08:49:48.000Z</time>
      </trkpt>
      <trkpt lat="37.1635" lon="-3.57356">
        <ele>697.807989</ele>
        <time>2022-04-19T08:49:51.000Z</time>
      </trkpt>
      <trkpt lat="37.16353" lon="-3.57375">
        <ele>697.025317</ele>
        <time>2022-04-19T08:49:53.000Z</time>
      </trkpt>
      <trkpt lat="37.16355" lon="-3.57395">
        <ele>696.231696</ele>
        <time>2022-04-19T08:49:55.000Z</time>
      </trkpt>
      <trkpt lat="37.16358" lon="-3.57414">
        <ele>695.443792</ele>
        <time>2022-04-19T08:49:57.000Z</time>
      </trkpt>
      <trkpt lat="37.16363" lon="-3.57458">
        <ele>693.997034</ele>
        <time>2022-04-19T08:50:02.000Z</time>
      </trkpt>
      <trkpt lat="37.16364" lon="-3.57467">
        <ele>693.793443</ele>
        <time>2022-04-19T08:50:04.000Z</time>
      </trkpt>
      <trkpt lat="37.16369" lon="-3.57495">
        <ele>693.127917</ele>
        <time>2022-04-19T08:50:07.000Z</time>
      </trkpt>
      <trkpt lat="37.16376" lon="-3.57539">
        <ele>692.092177</ele>
        <time>2022-04-19T08:50:12.000Z</time>
      </trkpt>
      <trkpt lat="37.16378" lon="-3.57549">
        <ele>691.866601</ele>
        <time>2022-04-19T08:50:13.000Z</time>
      </trkpt>
      <trkpt lat="37.16381" lon="-3.57569">
        <ele>691.384181</ele>
        <time>2022-04-19T08:50:15.000Z</time>
      </trkpt>
      <trkpt lat="37.16389" lon="-3.57606">
        <ele>690.512671</ele>
        <time>2022-04-19T08:50:19.000Z</time>
      </trkpt>
      <trkpt lat="37.1639" lon="-3.57616">
        <ele>690.288778</ele>
        <time>2022-04-19T08:50:20.000Z</time>
      </trkpt>
      <trkpt lat="37.16399" lon="-3.5765">
        <ele>689.453387</ele>
        <time>2022-04-19T08:50:24.000Z</time>
      </trkpt>
      <trkpt lat="37.16401" lon="-3.57658">
        <ele>689.267286</ele>
        <time>2022-04-19T08:50:25.000Z</time>
      </trkpt>
      <trkpt lat="37.16415" lon="-3.57713">
        <ele>688.513817</ele>
        <time>2022-04-19T08:50:32.000Z</time>
      </trkpt>
      <trkpt lat="37.16428" lon="-3.57763">
        <ele>687.841081</ele>
        <time>2022-04-19T08:50:38.000Z</time>
      </trkpt>
      <trkpt lat="37.16432" lon="-3.57775">
        <ele>687.667337</ele>
        <time>2022-04-19T08:50:40.000Z</time>
      </trkpt>
      <trkpt lat="37.16435" lon="-3.57784">
        <ele>687.544689</ele>
        <time>2022-04-19T08:50:43.000Z</time>
      </trkpt>
      <trkpt lat="37.16437" lon="-3.57794">
        <ele>687.410319</ele>
        <time>2022-04-19T08:50:47.000Z</time>
      </trkpt>
      <trkpt lat="37.16439" lon="-3.57803">
        <ele>687.293453</ele>
        <time>2022-04-19T08:50:50.000Z</time>
      </trkpt>
      <trkpt lat="37.16443" lon="-3.57809">
        <ele>687.19044</ele>
        <time>2022-04-19T08:50:52.000Z</time>
      </trkpt>
      <trkpt lat="37.16447" lon="-3.57814">
        <ele>687.100681</ele>
        <time>2022-04-19T08:50:54.000Z</time>
      </trkpt>
      <trkpt lat="37.16449" lon="-3.57816">
        <ele>687.065146</ele>
        <time>2022-04-19T08:50:55.000Z</time>
      </trkpt>
      <trkpt lat="37.1645" lon="-3.5782">
        <ele>686.99884</ele>
        <time>2022-04-19T08:50:58.000Z</time>
      </trkpt>
      <trkpt lat="37.1645" lon="-3.57823">
        <ele>686.961178</ele>
        <time>2022-04-19T08:51:03.000Z</time>
      </trkpt>
      <trkpt lat="37.1645" lon="-3.57824">
        <ele>686.951556</ele>
        <time>2022-04-19T08:51:13.000Z</time>
      </trkpt>
      <trkpt lat="37.1645" lon="-3.57824">
        <ele>686.951556</ele>
        <time>2022-04-19T08:51:38.000Z</time>
      </trkpt>
      <trkpt lat="37.1645" lon="-3.57824">
        <ele>686.951556</ele>
        <time>2022-04-19T08:51:41.000Z</time>
      </trkpt>
      <trkpt lat="37.1645" lon="-3.57824">
        <ele>686.951556</ele>
        <time>2022-04-19T08:52:02.000Z</time>
      </trkpt>
      <trkpt lat="37.1645" lon="-3.57824">
        <ele>686.951556</ele>
        <time>2022-04-19T08:52:07.000Z</time>
      </trkpt>
      <trkpt lat="37.1645" lon="-3.57824">
        <ele>686.951556</ele>
        <time>2022-04-19T08:52:10.000Z</time>
      </trkpt>
      <trkpt lat="37.1645" lon="-3.57824">
        <ele>686.949933</ele>
        <time>2022-04-19T08:52:13.000Z</time>
      </trkpt>
      <trkpt lat="37.16445" lon="-3.57826">
        <ele>686.855806</ele>
        <time>2022-04-19T08:52:16.000Z</time>
      </trkpt>
      <trkpt lat="37.16443" lon="-3.57826">
        <ele>686.821685</ele>
        <time>2022-04-19T08:52:17.000Z</time>
      </trkpt>
      <trkpt lat="37.1644" lon="-3.57823">
        <ele>686.760417</ele>
        <time>2022-04-19T08:52:19.000Z</time>
      </trkpt>
      <trkpt lat="37.16439" lon="-3.57821">
        <ele>686.733738</ele>
        <time>2022-04-19T08:52:20.000Z</time>
      </trkpt>
      <trkpt lat="37.16439" lon="-3.57819">
        <ele>686.701193</ele>
        <time>2022-04-19T08:52:21.000Z</time>
      </trkpt>
      <trkpt lat="37.16436" lon="-3.57814">
        <ele>686.618451</ele>
        <time>2022-04-19T08:52:24.000Z</time>
      </trkpt>
      <trkpt lat="37.16432" lon="-3.57809">
        <ele>686.527926</ele>
        <time>2022-04-19T08:52:29.000Z</time>
      </trkpt>
      <trkpt lat="37.16428" lon="-3.57808">
        <ele>686.462162</ele>
        <time>2022-04-19T08:52:33.000Z</time>
      </trkpt>
      <trkpt lat="37.16424" lon="-3.57808">
        <ele>686.388688</ele>
        <time>2022-04-19T08:52:35.000Z</time>
      </trkpt>
      <trkpt lat="37.16402" lon="-3.57811">
        <ele>686.260369</ele>
        <time>2022-04-19T08:52:41.000Z</time>
      </trkpt>
      <trkpt lat="37.16393" lon="-3.57811">
        <ele>686.218761</ele>
        <time>2022-04-19T08:52:43.000Z</time>
      </trkpt>
      <trkpt lat="37.16388" lon="-3.57811">
        <ele>686.195862</ele>
        <time>2022-04-19T08:52:44.000Z</time>
      </trkpt>
      <trkpt lat="37.16373" lon="-3.5781">
        <ele>686.124356</ele>
        <time>2022-04-19T08:52:48.000Z</time>
      </trkpt>
      <trkpt lat="37.16368" lon="-3.57811">
        <ele>686.10219</ele>
        <time>2022-04-19T08:52:50.000Z</time>
      </trkpt>
      <trkpt lat="37.16364" lon="-3.57812">
        <ele>686.080999</ele>
        <time>2022-04-19T08:52:52.000Z</time>
      </trkpt>
      <trkpt lat="37.16361" lon="-3.57811">
        <ele>686.069028</ele>
        <time>2022-04-19T08:52:53.000Z</time>
      </trkpt>
      <trkpt lat="37.16355" lon="-3.57809">
        <ele>686.036301</ele>
        <time>2022-04-19T08:52:57.000Z</time>
      </trkpt>
      <trkpt lat="37.16353" lon="-3.57809">
        <ele>686.029135</ele>
        <time>2022-04-19T08:52:58.000Z</time>
      </trkpt>
      <trkpt lat="37.16343" lon="-3.57811">
        <ele>685.981974</ele>
        <time>2022-04-19T08:53:04.000Z</time>
      </trkpt>
      <trkpt lat="37.16337" lon="-3.57812">
        <ele>685.953735</ele>
        <time>2022-04-19T08:53:07.000Z</time>
      </trkpt>
      <trkpt lat="37.16334" lon="-3.57815">
        <ele>685.936119</ele>
        <time>2022-04-19T08:53:09.000Z</time>
      </trkpt>
      <trkpt lat="37.16332" lon="-3.57819">
        <ele>685.916929</ele>
        <time>2022-04-19T08:53:11.000Z</time>
      </trkpt>
      <trkpt lat="37.16335" lon="-3.57835">
        <ele>685.854294</ele>
        <time>2022-04-19T08:53:15.000Z</time>
      </trkpt>
      <trkpt lat="37.16345" lon="-3.57866">
        <ele>685.732165</ele>
        <time>2022-04-19T08:53:22.000Z</time>
      </trkpt>
      <trkpt lat="37.16353" lon="-3.57899">
        <ele>685.601372</ele>
        <time>2022-04-19T08:53:30.000Z</time>
      </trkpt>
      <trkpt lat="37.16362" lon="-3.57917">
        <ele>685.523922</ele>
        <time>2022-04-19T08:53:36.000Z</time>
      </trkpt>
      <trkpt lat="37.16367" lon="-3.57942">
        <ele>685.37556</ele>
        <time>2022-04-19T08:53:42.000Z</time>
      </trkpt>
      <trkpt lat="37.16376" lon="-3.57971">
        <ele>685.180196</ele>
        <time>2022-04-19T08:53:48.000Z</time>
      </trkpt>
      <trkpt lat="37.16381" lon="-3.5799">
        <ele>685.053726</ele>
        <time>2022-04-19T08:53:52.000Z</time>
      </trkpt>
      <trkpt lat="37.16385" lon="-3.57999">
        <ele>684.990442</ele>
        <time>2022-04-19T08:53:54.000Z</time>
      </trkpt>
      <trkpt lat="37.16391" lon="-3.58016">
        <ele>684.874675</ele>
        <time>2022-04-19T08:53:58.000Z</time>
      </trkpt>
      <trkpt lat="37.16396" lon="-3.5804">
        <ele>684.720867</ele>
        <time>2022-04-19T08:54:04.000Z</time>
      </trkpt>
      <trkpt lat="37.16402" lon="-3.58062">
        <ele>684.576845</ele>
        <time>2022-04-19T08:54:09.000Z</time>
      </trkpt>
      <trkpt lat="37.16412" lon="-3.58094">
        <ele>684.358529</ele>
        <time>2022-04-19T08:54:15.000Z</time>
      </trkpt>
      <trkpt lat="37.16416" lon="-3.58105">
        <ele>684.287224</ele>
        <time>2022-04-19T08:54:17.000Z</time>
      </trkpt>
      <trkpt lat="37.1642" lon="-3.58121">
        <ele>684.180492</ele>
        <time>2022-04-19T08:54:20.000Z</time>
      </trkpt>
      <trkpt lat="37.16429" lon="-3.58144">
        <ele>684.064842</ele>
        <time>2022-04-19T08:54:24.000Z</time>
      </trkpt>
      <trkpt lat="37.16439" lon="-3.58174">
        <ele>683.974089</ele>
        <time>2022-04-19T08:54:29.000Z</time>
      </trkpt>
      <trkpt lat="37.16452" lon="-3.58217">
        <ele>683.846182</ele>
        <time>2022-04-19T08:54:36.000Z</time>
      </trkpt>
      <trkpt lat="37.16457" lon="-3.58235">
        <ele>683.792563</ele>
        <time>2022-04-19T08:54:39.000Z</time>
      </trkpt>
      <trkpt lat="37.16457" lon="-3.58243">
        <ele>683.768579</ele>
        <time>2022-04-19T08:54:41.000Z</time>
      </trkpt>
      <trkpt lat="37.16458" lon="-3.58246">
        <ele>683.76065</ele>
        <time>2022-04-19T08:54:42.000Z</time>
      </trkpt>
      <trkpt lat="37.16458" lon="-3.58249">
        <ele>683.751081</ele>
        <time>2022-04-19T08:54:44.000Z</time>
      </trkpt>
      <trkpt lat="37.16463" lon="-3.58262">
        <ele>683.711916</ele>
        <time>2022-04-19T08:54:50.000Z</time>
      </trkpt>
      <trkpt lat="37.16469" lon="-3.58282">
        <ele>683.64985</ele>
        <time>2022-04-19T08:54:56.000Z</time>
      </trkpt>
      <trkpt lat="37.16474" lon="-3.58293">
        <ele>683.616293</ele>
        <time>2022-04-19T08:55:00.000Z</time>
      </trkpt>
      <trkpt lat="37.16476" lon="-3.58294">
        <ele>683.607031</ele>
        <time>2022-04-19T08:55:01.000Z</time>
      </trkpt>
      <trkpt lat="37.16483" lon="-3.58311">
        <ele>683.554567</ele>
        <time>2022-04-19T08:55:06.000Z</time>
      </trkpt>
      <trkpt lat="37.16493" lon="-3.5835">
        <ele>683.405818</ele>
        <time>2022-04-19T08:55:15.000Z</time>
      </trkpt>
      <trkpt lat="37.16498" lon="-3.58371">
        <ele>683.27839</ele>
        <time>2022-04-19T08:55:19.000Z</time>
      </trkpt>
      <trkpt lat="37.16502" lon="-3.58387">
        <ele>683.180332</ele>
        <time>2022-04-19T08:55:22.000Z</time>
      </trkpt>
      <trkpt lat="37.16507" lon="-3.58409">
        <ele>683.043075</ele>
        <time>2022-04-19T08:55:26.000Z</time>
      </trkpt>
      <trkpt lat="37.16509" lon="-3.58421">
        <ele>682.972659</ele>
        <time>2022-04-19T08:55:28.000Z</time>
      </trkpt>
      <trkpt lat="37.16514" lon="-3.5844">
        <ele>682.855808</ele>
        <time>2022-04-19T08:55:31.000Z</time>
      </trkpt>
      <trkpt lat="37.16522" lon="-3.5849">
        <ele>682.553743</ele>
        <time>2022-04-19T08:55:40.000Z</time>
      </trkpt>
      <trkpt lat="37.16525" lon="-3.58507">
        <ele>682.45001</ele>
        <time>2022-04-19T08:55:43.000Z</time>
      </trkpt>
      <trkpt lat="37.16531" lon="-3.58547">
        <ele>682.21132</ele>
        <time>2022-04-19T08:55:50.000Z</time>
      </trkpt>
      <trkpt lat="37.16536" lon="-3.58574">
        <ele>682.045952</ele>
        <time>2022-04-19T08:55:55.000Z</time>
      </trkpt>
      <trkpt lat="37.16539" lon="-3.58596">
        <ele>681.918212</ele>
        <time>2022-04-19T08:55:59.000Z</time>
      </trkpt>
      <trkpt lat="37.1654" lon="-3.58602">
        <ele>681.886116</ele>
        <time>2022-04-19T08:56:00.000Z</time>
      </trkpt>
      <trkpt lat="37.16541" lon="-3.58607">
        <ele>681.854359</ele>
        <time>2022-04-19T08:56:01.000Z</time>
      </trkpt>
      <trkpt lat="37.16545" lon="-3.58628">
        <ele>681.731769</ele>
        <time>2022-04-19T08:56:05.000Z</time>
      </trkpt>
      <trkpt lat="37.16547" lon="-3.58638">
        <ele>681.668617</ele>
        <time>2022-04-19T08:56:07.000Z</time>
      </trkpt>
      <trkpt lat="37.16556" lon="-3.58694">
        <ele>681.33704</ele>
        <time>2022-04-19T08:56:18.000Z</time>
      </trkpt>
      <trkpt lat="37.16561" lon="-3.58723">
        <ele>681.165898</ele>
        <time>2022-04-19T08:56:24.000Z</time>
      </trkpt>
      <trkpt lat="37.1657" lon="-3.58758">
        <ele>680.954911</ele>
        <time>2022-04-19T08:56:31.000Z</time>
      </trkpt>
      <trkpt lat="37.16579" lon="-3.58782">
        <ele>680.822156</ele>
        <time>2022-04-19T08:56:36.000Z</time>
      </trkpt>
      <trkpt lat="37.16586" lon="-3.588">
        <ele>680.793799</ele>
        <time>2022-04-19T08:56:40.000Z</time>
      </trkpt>
      <trkpt lat="37.16595" lon="-3.58817">
        <ele>680.763329</ele>
        <time>2022-04-19T08:56:44.000Z</time>
      </trkpt>
      <trkpt lat="37.16606" lon="-3.58833">
        <ele>680.733029</ele>
        <time>2022-04-19T08:56:48.000Z</time>
      </trkpt>
      <trkpt lat="37.16624" lon="-3.58858">
        <ele>680.684279</ele>
        <time>2022-04-19T08:56:55.000Z</time>
      </trkpt>
      <trkpt lat="37.16644" lon="-3.58882">
        <ele>680.632917</ele>
        <time>2022-04-19T08:57:03.000Z</time>
      </trkpt>
      <trkpt lat="37.16656" lon="-3.58895">
        <ele>680.604284</ele>
        <time>2022-04-19T08:57:07.000Z</time>
      </trkpt>
      <trkpt lat="37.16675" lon="-3.58919">
        <ele>680.554566</ele>
        <time>2022-04-19T08:57:14.000Z</time>
      </trkpt>
      <trkpt lat="37.16688" lon="-3.58934">
        <ele>680.522539</ele>
        <time>2022-04-19T08:57:19.000Z</time>
      </trkpt>
      <trkpt lat="37.167" lon="-3.5895">
        <ele>680.424346</ele>
        <time>2022-04-19T08:57:24.000Z</time>
      </trkpt>
      <trkpt lat="37.16704" lon="-3.58954">
        <ele>680.361908</ele>
        <time>2022-04-19T08:57:28.000Z</time>
      </trkpt>
      <trkpt lat="37.16706" lon="-3.58951">
        <ele>680.324507</ele>
        <time>2022-04-19T08:57:30.000Z</time>
      </trkpt>
      <trkpt lat="37.16709" lon="-3.58948">
        <ele>680.266548</ele>
        <time>2022-04-19T08:57:33.000Z</time>
      </trkpt>
      <trkpt lat="37.16709" lon="-3.58947">
        <ele>680.259856</ele>
        <time>2022-04-19T08:57:37.000Z</time>
      </trkpt>
      <trkpt lat="37.1671" lon="-3.58948">
        <ele>680.239934</ele>
        <time>2022-04-19T08:57:44.000Z</time>
      </trkpt>
      <trkpt lat="37.16711" lon="-3.5895">
        <ele>680.2163</ele>
        <time>2022-04-19T08:57:45.000Z</time>
      </trkpt>
      <trkpt lat="37.16712" lon="-3.58956">
        <ele>680.144704</ele>
        <time>2022-04-19T08:57:49.000Z</time>
      </trkpt>
      <trkpt lat="37.16713" lon="-3.5896">
        <ele>680.107853</ele>
        <time>2022-04-19T08:57:51.000Z</time>
      </trkpt>
      <trkpt lat="37.16717" lon="-3.5896">
        <ele>680.062232</ele>
        <time>2022-04-19T08:57:54.000Z</time>
      </trkpt>
      <trkpt lat="37.16718" lon="-3.58959">
        <ele>680.051029</ele>
        <time>2022-04-19T08:57:55.000Z</time>
      </trkpt>
      <trkpt lat="37.16718" lon="-3.58959">
        <ele>680.045662</ele>
        <time>2022-04-19T08:57:56.000Z</time>
      </trkpt>
      <trkpt lat="37.1672" lon="-3.58964">
        <ele>679.989212</ele>
        <time>2022-04-19T08:57:59.000Z</time>
      </trkpt>
      <trkpt lat="37.16727" lon="-3.58977">
        <ele>679.822337</ele>
        <time>2022-04-19T08:58:03.000Z</time>
      </trkpt>
      <trkpt lat="37.16733" lon="-3.58987">
        <ele>679.687088</ele>
        <time>2022-04-19T08:58:06.000Z</time>
      </trkpt>
      <trkpt lat="37.16741" lon="-3.59">
        <ele>679.513882</ele>
        <time>2022-04-19T08:58:10.000Z</time>
      </trkpt>
      <trkpt lat="37.16744" lon="-3.59003">
        <ele>679.462558</ele>
        <time>2022-04-19T08:58:11.000Z</time>
      </trkpt>
      <trkpt lat="37.16756" lon="-3.59019">
        <ele>679.226961</ele>
        <time>2022-04-19T08:58:15.000Z</time>
      </trkpt>
      <trkpt lat="37.16761" lon="-3.59026">
        <ele>679.124062</ele>
        <time>2022-04-19T08:58:17.000Z</time>
      </trkpt>
      <trkpt lat="37.16776" lon="-3.59049">
        <ele>678.806983</ele>
        <time>2022-04-19T08:58:23.000Z</time>
      </trkpt>
      <trkpt lat="37.16788" lon="-3.59065">
        <ele>678.573095</ele>
        <time>2022-04-19T08:58:27.000Z</time>
      </trkpt>
      <trkpt lat="37.16791" lon="-3.5907">
        <ele>678.504497</ele>
        <time>2022-04-19T08:58:28.000Z</time>
      </trkpt>
      <trkpt lat="37.16811" lon="-3.59098">
        <ele>678.103131</ele>
        <time>2022-04-19T08:58:36.000Z</time>
      </trkpt>
      <trkpt lat="37.16823" lon="-3.59117">
        <ele>677.825299</ele>
        <time>2022-04-19T08:58:41.000Z</time>
      </trkpt>
      <trkpt lat="37.16826" lon="-3.59121">
        <ele>677.768473</ele>
        <time>2022-04-19T08:58:42.000Z</time>
      </trkpt>
      <trkpt lat="37.16828" lon="-3.59125">
        <ele>677.708043</ele>
        <time>2022-04-19T08:58:43.000Z</time>
      </trkpt>
      <trkpt lat="37.16832" lon="-3.5913">
        <ele>677.63255</ele>
        <time>2022-04-19T08:58:44.000Z</time>
      </trkpt>
      <trkpt lat="37.16843" lon="-3.59148">
        <ele>677.36795</ele>
        <time>2022-04-19T08:58:49.000Z</time>
      </trkpt>
      <trkpt lat="37.16856" lon="-3.59173">
        <ele>677.032667</ele>
        <time>2022-04-19T08:58:55.000Z</time>
      </trkpt>
      <trkpt lat="37.1686" lon="-3.59179">
        <ele>676.942848</ele>
        <time>2022-04-19T08:58:58.000Z</time>
      </trkpt>
      <trkpt lat="37.16862" lon="-3.59182">
        <ele>676.909428</ele>
        <time>2022-04-19T08:58:59.000Z</time>
      </trkpt>
      <trkpt lat="37.16869" lon="-3.592">
        <ele>676.677815</ele>
        <time>2022-04-19T08:59:04.000Z</time>
      </trkpt>
      <trkpt lat="37.16875" lon="-3.59216">
        <ele>676.475726</ele>
        <time>2022-04-19T08:59:08.000Z</time>
      </trkpt>
      <trkpt lat="37.16878" lon="-3.59224">
        <ele>676.370629</ele>
        <time>2022-04-19T08:59:10.000Z</time>
      </trkpt>
      <trkpt lat="37.16881" lon="-3.59233">
        <ele>676.265158</ele>
        <time>2022-04-19T08:59:12.000Z</time>
      </trkpt>
      <trkpt lat="37.16888" lon="-3.59259">
        <ele>675.951121</ele>
        <time>2022-04-19T08:59:18.000Z</time>
      </trkpt>
      <trkpt lat="37.16894" lon="-3.59283">
        <ele>675.662719</ele>
        <time>2022-04-19T08:59:24.000Z</time>
      </trkpt>
      <trkpt lat="37.16895" lon="-3.59286">
        <ele>675.631988</ele>
        <time>2022-04-19T08:59:25.000Z</time>
      </trkpt>
      <trkpt lat="37.16896" lon="-3.5929">
        <ele>675.583465</ele>
        <time>2022-04-19T08:59:27.000Z</time>
      </trkpt>
      <trkpt lat="37.16897" lon="-3.5929">
        <ele>675.573236</ele>
        <time>2022-04-19T08:59:28.000Z</time>
      </trkpt>
      <trkpt lat="37.16898" lon="-3.5929">
        <ele>675.55468</ele>
        <time>2022-04-19T08:59:29.000Z</time>
      </trkpt>
      <trkpt lat="37.16904" lon="-3.59288">
        <ele>675.481419</ele>
        <time>2022-04-19T08:59:33.000Z</time>
      </trkpt>
      <trkpt lat="37.16912" lon="-3.59285">
        <ele>675.384232</ele>
        <time>2022-04-19T08:59:41.000Z</time>
      </trkpt>
      <trkpt lat="37.16913" lon="-3.59285">
        <ele>675.375355</ele>
        <time>2022-04-19T08:59:42.000Z</time>
      </trkpt>
      <trkpt lat="37.16914" lon="-3.59284">
        <ele>675.359369</ele>
        <time>2022-04-19T08:59:44.000Z</time>
      </trkpt>
      <trkpt lat="37.16916" lon="-3.59283">
        <ele>675.333759</ele>
        <time>2022-04-19T08:59:47.000Z</time>
      </trkpt>
      <trkpt lat="37.16918" lon="-3.59283">
        <ele>675.306</ele>
        <time>2022-04-19T08:59:49.000Z</time>
      </trkpt>
      <trkpt lat="37.1692" lon="-3.59286">
        <ele>675.278646</ele>
        <time>2022-04-19T08:59:51.000Z</time>
      </trkpt>
      <trkpt lat="37.16921" lon="-3.59292">
        <ele>675.21888</ele>
        <time>2022-04-19T08:59:54.000Z</time>
      </trkpt>
      <trkpt lat="37.16921" lon="-3.59294">
        <ele>675.199916</ele>
        <time>2022-04-19T08:59:55.000Z</time>
      </trkpt>
      <trkpt lat="37.16921" lon="-3.59301">
        <ele>675.139044</ele>
        <time>2022-04-19T08:59:57.000Z</time>
      </trkpt>
      <trkpt lat="37.16922" lon="-3.5931">
        <ele>675.054714</ele>
        <time>2022-04-19T09:00:00.000Z</time>
      </trkpt>
      <trkpt lat="37.16923" lon="-3.59323">
        <ele>674.931045</ele>
        <time>2022-04-19T09:00:04.000Z</time>
      </trkpt>
      <trkpt lat="37.16923" lon="-3.59334">
        <ele>674.834455</ele>
        <time>2022-04-19T09:00:07.000Z</time>
      </trkpt>
      <trkpt lat="37.16923" lon="-3.59343">
        <ele>674.751687</ele>
        <time>2022-04-19T09:00:10.000Z</time>
      </trkpt>
      <trkpt lat="37.16924" lon="-3.59348">
        <ele>674.702079</ele>
        <time>2022-04-19T09:00:12.000Z</time>
      </trkpt>
      <trkpt lat="37.16925" lon="-3.59352">
        <ele>674.6576</ele>
        <time>2022-04-19T09:00:14.000Z</time>
      </trkpt>
      <trkpt lat="37.16927" lon="-3.59355">
        <ele>674.622325</ele>
        <time>2022-04-19T09:00:16.000Z</time>
      </trkpt>
      <trkpt lat="37.1693" lon="-3.59357">
        <ele>674.584705</ele>
        <time>2022-04-19T09:00:18.000Z</time>
      </trkpt>
      <trkpt lat="37.16931" lon="-3.5936">
        <ele>674.556818</ele>
        <time>2022-04-19T09:00:20.000Z</time>
      </trkpt>
      <trkpt lat="37.1693" lon="-3.59364">
        <ele>674.51415</ele>
        <time>2022-04-19T09:00:23.000Z</time>
      </trkpt>
      <trkpt lat="37.16931" lon="-3.59365">
        <ele>674.502584</ele>
        <time>2022-04-19T09:00:24.000Z</time>
      </trkpt>
      <trkpt lat="37.16931" lon="-3.59366">
        <ele>674.491727</ele>
        <time>2022-04-19T09:00:26.000Z</time>
      </trkpt>
      <trkpt lat="37.16933" lon="-3.59368">
        <ele>674.46973</ele>
        <time>2022-04-19T09:00:28.000Z</time>
      </trkpt>
      <trkpt lat="37.16934" lon="-3.59368">
        <ele>674.45751</ele>
        <time>2022-04-19T09:00:29.000Z</time>
      </trkpt>
      <trkpt lat="37.16936" lon="-3.59381">
        <ele>674.342288</ele>
        <time>2022-04-19T09:00:33.000Z</time>
      </trkpt>
      <trkpt lat="37.16934" lon="-3.59398">
        <ele>674.178821</ele>
        <time>2022-04-19T09:00:37.000Z</time>
      </trkpt>
      <trkpt lat="37.16933" lon="-3.59412">
        <ele>674.056766</ele>
        <time>2022-04-19T09:00:40.000Z</time>
      </trkpt>
      <trkpt lat="37.1693" lon="-3.59433">
        <ele>673.855128</ele>
        <time>2022-04-19T09:00:44.000Z</time>
      </trkpt>
      <trkpt lat="37.1693" lon="-3.59439">
        <ele>673.800429</ele>
        <time>2022-04-19T09:00:45.000Z</time>
      </trkpt>
      <trkpt lat="37.16926" lon="-3.59474">
        <ele>673.477243</ele>
        <time>2022-04-19T09:00:51.000Z</time>
      </trkpt>
      <trkpt lat="37.16925" lon="-3.5948">
        <ele>673.447518</ele>
        <time>2022-04-19T09:00:52.000Z</time>
      </trkpt>
      <trkpt lat="37.16925" lon="-3.59484">
        <ele>673.444803</ele>
        <time>2022-04-19T09:00:53.000Z</time>
      </trkpt>
      <trkpt lat="37.16924" lon="-3.59498">
        <ele>673.4362</ele>
        <time>2022-04-19T09:00:56.000Z</time>
      </trkpt>
      <trkpt lat="37.16923" lon="-3.59502">
        <ele>673.433396</ele>
        <time>2022-04-19T09:00:57.000Z</time>
      </trkpt>
      <trkpt lat="37.1692" lon="-3.59527">
        <ele>673.417999</ele>
        <time>2022-04-19T09:01:03.000Z</time>
      </trkpt>
      <trkpt lat="37.16919" lon="-3.59544">
        <ele>673.407921</ele>
        <time>2022-04-19T09:01:07.000Z</time>
      </trkpt>
      <trkpt lat="37.16917" lon="-3.59552">
        <ele>673.402257</ele>
        <time>2022-04-19T09:01:10.000Z</time>
      </trkpt>
      <trkpt lat="37.16917" lon="-3.59566">
        <ele>673.39383</ele>
        <time>2022-04-19T09:01:15.000Z</time>
      </trkpt>
      <trkpt lat="37.16919" lon="-3.59576">
        <ele>673.387528</ele>
        <time>2022-04-19T09:01:20.000Z</time>
      </trkpt>
      <trkpt lat="37.16919" lon="-3.59576">
        <ele>673.387528</ele>
        <time>2022-04-19T09:01:26.000Z</time>
      </trkpt>
      <trkpt lat="37.16919" lon="-3.59576">
        <ele>673.387528</ele>
        <time>2022-04-19T09:01:31.000Z</time>
      </trkpt>
      <trkpt lat="37.16919" lon="-3.59576">
        <ele>673.387528</ele>
        <time>2022-04-19T09:01:34.000Z</time>
      </trkpt>
      <trkpt lat="37.16919" lon="-3.59576">
        <ele>673.38743</ele>
        <time>2022-04-19T09:01:47.000Z</time>
      </trkpt>
      <trkpt lat="37.16919" lon="-3.59576">
        <ele>673.38743</ele>
        <time>2022-04-19T09:01:52.000Z</time>
      </trkpt>
      <trkpt lat="37.1692" lon="-3.59577">
        <ele>673.38661</ele>
        <time>2022-04-19T09:02:14.000Z</time>
      </trkpt>
      <trkpt lat="37.1692" lon="-3.59577">
        <ele>673.38661</ele>
        <time>2022-04-19T09:02:17.000Z</time>
      </trkpt>
      <trkpt lat="37.1692" lon="-3.59577">
        <ele>673.38661</ele>
        <time>2022-04-19T09:02:23.000Z</time>
      </trkpt>
      <trkpt lat="37.1692" lon="-3.59578">
        <ele>673.386293</ele>
        <time>2022-04-19T09:02:40.000Z</time>
      </trkpt>
      <trkpt lat="37.1692" lon="-3.59578">
        <ele>673.386054</ele>
        <time>2022-04-19T09:02:51.000Z</time>
      </trkpt>
      <trkpt lat="37.1692" lon="-3.59578">
        <ele>673.386054</ele>
        <time>2022-04-19T09:02:53.000Z</time>
      </trkpt>
      <trkpt lat="37.1692" lon="-3.59578">
        <ele>673.386054</ele>
        <time>2022-04-19T09:03:07.000Z</time>
      </trkpt>
      <trkpt lat="37.1692" lon="-3.59578">
        <ele>673.385909</ele>
        <time>2022-04-19T09:03:24.000Z</time>
      </trkpt>
      <trkpt lat="37.16918" lon="-3.59582">
        <ele>673.38287</ele>
        <time>2022-04-19T09:03:27.000Z</time>
      </trkpt>
      <trkpt lat="37.16916" lon="-3.59586">
        <ele>673.380113</ele>
        <time>2022-04-19T09:03:32.000Z</time>
      </trkpt>
      <trkpt lat="37.16916" lon="-3.59588">
        <ele>673.378964</ele>
        <time>2022-04-19T09:03:33.000Z</time>
      </trkpt>
      <trkpt lat="37.16912" lon="-3.59602">
        <ele>673.369592</ele>
        <time>2022-04-19T09:03:38.000Z</time>
      </trkpt>
      <trkpt lat="37.16906" lon="-3.59622">
        <ele>673.356742</ele>
        <time>2022-04-19T09:03:44.000Z</time>
      </trkpt>
      <trkpt lat="37.16895" lon="-3.59629">
        <ele>673.347227</ele>
        <time>2022-04-19T09:03:48.000Z</time>
      </trkpt>
      <trkpt lat="37.16886" lon="-3.59631">
        <ele>673.340328</ele>
        <time>2022-04-19T09:03:51.000Z</time>
      </trkpt>
      <trkpt lat="37.16867" lon="-3.59631">
        <ele>673.325665</ele>
        <time>2022-04-19T09:03:58.000Z</time>
      </trkpt>
      <trkpt lat="37.16861" lon="-3.59632">
        <ele>673.321041</ele>
        <time>2022-04-19T09:04:02.000Z</time>
      </trkpt>
      <trkpt lat="37.16859" lon="-3.59635">
        <ele>673.318398</ele>
        <time>2022-04-19T09:04:04.000Z</time>
      </trkpt>
      <trkpt lat="37.16859" lon="-3.59639">
        <ele>673.31592</ele>
        <time>2022-04-19T09:04:06.000Z</time>
      </trkpt>
      <trkpt lat="37.16861" lon="-3.59642">
        <ele>673.313414</ele>
        <time>2022-04-19T09:04:08.000Z</time>
      </trkpt>
      <trkpt lat="37.16865" lon="-3.59646">
        <ele>673.31629</ele>
        <time>2022-04-19T09:04:11.000Z</time>
      </trkpt>
      <trkpt lat="37.16867" lon="-3.59649">
        <ele>673.341298</ele>
        <time>2022-04-19T09:04:13.000Z</time>
      </trkpt>
      <trkpt lat="37.16869" lon="-3.5965">
        <ele>673.359465</ele>
        <time>2022-04-19T09:04:14.000Z</time>
      </trkpt>
      <trkpt lat="37.16879" lon="-3.59658">
        <ele>673.445263</ele>
        <time>2022-04-19T09:04:18.000Z</time>
      </trkpt>
      <trkpt lat="37.16889" lon="-3.59668">
        <ele>673.550268</ele>
        <time>2022-04-19T09:04:23.000Z</time>
      </trkpt>
      <trkpt lat="37.16905" lon="-3.59678">
        <ele>673.689381</ele>
        <time>2022-04-19T09:04:29.000Z</time>
      </trkpt>
      <trkpt lat="37.16909" lon="-3.59678">
        <ele>673.71634</ele>
        <time>2022-04-19T09:04:30.000Z</time>
      </trkpt>
      <trkpt lat="37.16917" lon="-3.59681">
        <ele>673.782806</ele>
        <time>2022-04-19T09:04:34.000Z</time>
      </trkpt>
      <trkpt lat="37.16918" lon="-3.59683">
        <ele>673.800239</ele>
        <time>2022-04-19T09:04:35.000Z</time>
      </trkpt>
      <trkpt lat="37.16921" lon="-3.5969">
        <ele>673.845419</ele>
        <time>2022-04-19T09:04:38.000Z</time>
      </trkpt>
      <trkpt lat="37.16922" lon="-3.5969">
        <ele>673.855675</ele>
        <time>2022-04-19T09:04:39.000Z</time>
      </trkpt>
      <trkpt lat="37.16923" lon="-3.59693">
        <ele>673.871873</ele>
        <time>2022-04-19T09:04:41.000Z</time>
      </trkpt>
      <trkpt lat="37.16926" lon="-3.59696">
        <ele>673.904328</ele>
        <time>2022-04-19T09:04:43.000Z</time>
      </trkpt>
      <trkpt lat="37.16929" lon="-3.59702">
        <ele>673.944018</ele>
        <time>2022-04-19T09:04:45.000Z</time>
      </trkpt>
      <trkpt lat="37.16944" lon="-3.5972">
        <ele>674.112521</ele>
        <time>2022-04-19T09:04:52.000Z</time>
      </trkpt>
      <trkpt lat="37.16953" lon="-3.59727">
        <ele>674.191401</ele>
        <time>2022-04-19T09:04:55.000Z</time>
      </trkpt>
      <trkpt lat="37.16957" lon="-3.5973">
        <ele>674.224924</ele>
        <time>2022-04-19T09:04:56.000Z</time>
      </trkpt>
      <trkpt lat="37.1696" lon="-3.59735">
        <ele>674.262659</ele>
        <time>2022-04-19T09:04:57.000Z</time>
      </trkpt>
      <trkpt lat="37.16963" lon="-3.59729">
        <ele>674.305767</ele>
        <time>2022-04-19T09:04:58.000Z</time>
      </trkpt>
      <trkpt lat="37.16972" lon="-3.5973">
        <ele>674.375638</ele>
        <time>2022-04-19T09:05:01.000Z</time>
      </trkpt>
      <trkpt lat="37.16981" lon="-3.59739">
        <ele>674.469354</ele>
        <time>2022-04-19T09:05:05.000Z</time>
      </trkpt>
      <trkpt lat="37.16994" lon="-3.59751">
        <ele>674.593834</ele>
        <time>2022-04-19T09:05:11.000Z</time>
      </trkpt>
      <trkpt lat="37.17001" lon="-3.59756">
        <ele>674.654632</ele>
        <time>2022-04-19T09:05:18.000Z</time>
      </trkpt>
      <trkpt lat="37.17007" lon="-3.59765">
        <ele>674.753481</ele>
        <time>2022-04-19T09:05:23.000Z</time>
      </trkpt>
      <trkpt lat="37.17009" lon="-3.59767">
        <ele>674.796387</ele>
        <time>2022-04-19T09:05:24.000Z</time>
      </trkpt>
      <trkpt lat="37.17016" lon="-3.59774">
        <ele>674.943289</ele>
        <time>2022-04-19T09:05:27.000Z</time>
      </trkpt>
      <trkpt lat="37.17021" lon="-3.59778">
        <ele>675.042478</ele>
        <time>2022-04-19T09:05:29.000Z</time>
      </trkpt>
      <trkpt lat="37.17036" lon="-3.59791">
        <ele>675.343245</ele>
        <time>2022-04-19T09:05:35.000Z</time>
      </trkpt>
      <trkpt lat="37.17041" lon="-3.59798">
        <ele>675.470538</ele>
        <time>2022-04-19T09:05:38.000Z</time>
      </trkpt>
      <trkpt lat="37.17042" lon="-3.598">
        <ele>675.502696</ele>
        <time>2022-04-19T09:05:39.000Z</time>
      </trkpt>
      <trkpt lat="37.17045" lon="-3.59803">
        <ele>675.564276</ele>
        <time>2022-04-19T09:05:41.000Z</time>
      </trkpt>
      <trkpt lat="37.17046" lon="-3.59803">
        <ele>675.569258</ele>
        <time>2022-04-19T09:05:43.000Z</time>
      </trkpt>
      <trkpt lat="37.17044" lon="-3.59803">
        <ele>675.597521</ele>
        <time>2022-04-19T09:05:53.000Z</time>
      </trkpt>
      <trkpt lat="37.17042" lon="-3.59803">
        <ele>675.633288</ele>
        <time>2022-04-19T09:05:56.000Z</time>
      </trkpt>
      <trkpt lat="37.17042" lon="-3.59803">
        <ele>675.637592</ele>
        <time>2022-04-19T09:05:58.000Z</time>
      </trkpt>
      <trkpt lat="37.17042" lon="-3.59803">
        <ele>675.637592</ele>
        <time>2022-04-19T09:06:13.000Z</time>
      </trkpt>
      <trkpt lat="37.17042" lon="-3.59803">
        <ele>675.640716</ele>
        <time>2022-04-19T09:06:29.000Z</time>
      </trkpt>
      <trkpt lat="37.17042" lon="-3.59805">
        <ele>675.659538</ele>
        <time>2022-04-19T09:06:32.000Z</time>
      </trkpt>
      <trkpt lat="37.17046" lon="-3.59812">
        <ele>675.778808</ele>
        <time>2022-04-19T09:06:37.000Z</time>
      </trkpt>
      <trkpt lat="37.17048" lon="-3.59814">
        <ele>675.819361</ele>
        <time>2022-04-19T09:06:38.000Z</time>
      </trkpt>
      <trkpt lat="37.17059" lon="-3.59823">
        <ele>676.034658</ele>
        <time>2022-04-19T09:06:44.000Z</time>
      </trkpt>
      <trkpt lat="37.1706" lon="-3.59827">
        <ele>676.091964</ele>
        <time>2022-04-19T09:06:49.000Z</time>
      </trkpt>
      <trkpt lat="37.17067" lon="-3.59833">
        <ele>676.228355</ele>
        <time>2022-04-19T09:06:54.000Z</time>
      </trkpt>
      <trkpt lat="37.17076" lon="-3.59842">
        <ele>676.415413</ele>
        <time>2022-04-19T09:06:59.000Z</time>
      </trkpt>
      <trkpt lat="37.17078" lon="-3.59843">
        <ele>676.462935</ele>
        <time>2022-04-19T09:07:00.000Z</time>
      </trkpt>
      <trkpt lat="37.17094" lon="-3.59852">
        <ele>676.751089</ele>
        <time>2022-04-19T09:07:06.000Z</time>
      </trkpt>
      <trkpt lat="37.17097" lon="-3.59854">
        <ele>676.810115</ele>
        <time>2022-04-19T09:07:08.000Z</time>
      </trkpt>
      <trkpt lat="37.17101" lon="-3.59855">
        <ele>676.86578</ele>
        <time>2022-04-19T09:07:10.000Z</time>
      </trkpt>
      <trkpt lat="37.17105" lon="-3.59856">
        <ele>676.93392</ele>
        <time>2022-04-19T09:07:12.000Z</time>
      </trkpt>
      <trkpt lat="37.17112" lon="-3.59861">
        <ele>677.077044</ele>
        <time>2022-04-19T09:07:15.000Z</time>
      </trkpt>
      <trkpt lat="37.17115" lon="-3.59862">
        <ele>677.125768</ele>
        <time>2022-04-19T09:07:16.000Z</time>
      </trkpt>
      <trkpt lat="37.1712" lon="-3.59865">
        <ele>677.218977</ele>
        <time>2022-04-19T09:07:18.000Z</time>
      </trkpt>
      <trkpt lat="37.17122" lon="-3.59866">
        <ele>677.25799</ele>
        <time>2022-04-19T09:07:19.000Z</time>
      </trkpt>
      <trkpt lat="37.17124" lon="-3.59867">
        <ele>677.291838</ele>
        <time>2022-04-19T09:07:20.000Z</time>
      </trkpt>
      <trkpt lat="37.17132" lon="-3.59874">
        <ele>677.453798</ele>
        <time>2022-04-19T09:07:24.000Z</time>
      </trkpt>
      <trkpt lat="37.17145" lon="-3.59881">
        <ele>677.692526</ele>
        <time>2022-04-19T09:07:30.000Z</time>
      </trkpt>
      <trkpt lat="37.17149" lon="-3.59879">
        <ele>677.759904</ele>
        <time>2022-04-19T09:07:32.000Z</time>
      </trkpt>
      <trkpt lat="37.1715" lon="-3.59878">
        <ele>677.787452</ele>
        <time>2022-04-19T09:07:34.000Z</time>
      </trkpt>
      <trkpt lat="37.1715" lon="-3.59878">
        <ele>677.79611</ele>
        <time>2022-04-19T09:07:39.000Z</time>
      </trkpt>
      <trkpt lat="37.1715" lon="-3.59878">
        <ele>677.79611</ele>
        <time>2022-04-19T09:07:42.000Z</time>
      </trkpt>
      <trkpt lat="37.17151" lon="-3.59876">
        <ele>677.816377</ele>
        <time>2022-04-19T09:07:50.000Z</time>
      </trkpt>
      <trkpt lat="37.17151" lon="-3.59876">
        <ele>677.816377</ele>
        <time>2022-04-19T09:08:00.000Z</time>
      </trkpt>
      <trkpt lat="37.17151" lon="-3.59876">
        <ele>677.816377</ele>
        <time>2022-04-19T09:08:05.000Z</time>
      </trkpt>
      <trkpt lat="37.17151" lon="-3.59876">
        <ele>677.819595</ele>
        <time>2022-04-19T09:08:13.000Z</time>
      </trkpt>
      <trkpt lat="37.17153" lon="-3.59873">
        <ele>677.868787</ele>
        <time>2022-04-19T09:08:14.000Z</time>
      </trkpt>
      <trkpt lat="37.17161" lon="-3.59855">
        <ele>678.153038</ele>
        <time>2022-04-19T09:08:20.000Z</time>
      </trkpt>
      <trkpt lat="37.17163" lon="-3.59845">
        <ele>678.300557</ele>
        <time>2022-04-19T09:08:25.000Z</time>
      </trkpt>
      <trkpt lat="37.17166" lon="-3.59843">
        <ele>678.357051</ele>
        <time>2022-04-19T09:08:27.000Z</time>
      </trkpt>
      <trkpt lat="37.17171" lon="-3.59843">
        <ele>678.440891</ele>
        <time>2022-04-19T09:08:30.000Z</time>
      </trkpt>
      <trkpt lat="37.17178" lon="-3.5984">
        <ele>678.577987</ele>
        <time>2022-04-19T09:08:36.000Z</time>
      </trkpt>
      <trkpt lat="37.17195" lon="-3.59845">
        <ele>678.870972</ele>
        <time>2022-04-19T09:08:43.000Z</time>
      </trkpt>
      <trkpt lat="37.17198" lon="-3.59846">
        <ele>678.91545</ele>
        <time>2022-04-19T09:08:44.000Z</time>
      </trkpt>
      <trkpt lat="37.17209" lon="-3.59846">
        <ele>679.101858</ele>
        <time>2022-04-19T09:08:48.000Z</time>
      </trkpt>
      <trkpt lat="37.17223" lon="-3.59857">
        <ele>679.390209</ele>
        <time>2022-04-19T09:08:54.000Z</time>
      </trkpt>
      <trkpt lat="37.17232" lon="-3.59876">
        <ele>679.694286</ele>
        <time>2022-04-19T09:09:00.000Z</time>
      </trkpt>
      <trkpt lat="37.17241" lon="-3.59894">
        <ele>679.987355</ele>
        <time>2022-04-19T09:09:06.000Z</time>
      </trkpt>
      <trkpt lat="37.17242" lon="-3.59895">
        <ele>680.014167</ele>
        <time>2022-04-19T09:09:07.000Z</time>
      </trkpt>
      <trkpt lat="37.17249" lon="-3.59899">
        <ele>680.136163</ele>
        <time>2022-04-19T09:09:10.000Z</time>
      </trkpt>
      <trkpt lat="37.17256" lon="-3.59906">
        <ele>680.290824</ele>
        <time>2022-04-19T09:09:14.000Z</time>
      </trkpt>
      <trkpt lat="37.17262" lon="-3.59912">
        <ele>680.413276</ele>
        <time>2022-04-19T09:09:17.000Z</time>
      </trkpt>
      <trkpt lat="37.17262" lon="-3.59914">
        <ele>680.446228</ele>
        <time>2022-04-19T09:09:18.000Z</time>
      </trkpt>
      <trkpt lat="37.17265" lon="-3.59919">
        <ele>680.536316</ele>
        <time>2022-04-19T09:09:20.000Z</time>
      </trkpt>
      <trkpt lat="37.17266" lon="-3.5992">
        <ele>680.560004</ele>
        <time>2022-04-19T09:09:21.000Z</time>
      </trkpt>
      <trkpt lat="37.17273" lon="-3.5992">
        <ele>680.667776</ele>
        <time>2022-04-19T09:09:24.000Z</time>
      </trkpt>
      <trkpt lat="37.17278" lon="-3.59921">
        <ele>680.75585</ele>
        <time>2022-04-19T09:09:27.000Z</time>
      </trkpt>
      <trkpt lat="37.17282" lon="-3.59922">
        <ele>680.883746</ele>
        <time>2022-04-19T09:09:31.000Z</time>
      </trkpt>
      <trkpt lat="37.17283" lon="-3.59924">
        <ele>680.930224</ele>
        <time>2022-04-19T09:09:33.000Z</time>
      </trkpt>
      <trkpt lat="37.17289" lon="-3.59928">
        <ele>681.163368</ele>
        <time>2022-04-19T09:09:40.000Z</time>
      </trkpt>
      <trkpt lat="37.17301" lon="-3.59934">
        <ele>681.581318</ele>
        <time>2022-04-19T09:09:45.000Z</time>
      </trkpt>
      <trkpt lat="37.17314" lon="-3.5994">
        <ele>682.019381</ele>
        <time>2022-04-19T09:09:51.000Z</time>
      </trkpt>
      <trkpt lat="37.17317" lon="-3.59942">
        <ele>682.136586</ele>
        <time>2022-04-19T09:09:53.000Z</time>
      </trkpt>
      <trkpt lat="37.17323" lon="-3.59943">
        <ele>682.306818</ele>
        <time>2022-04-19T09:09:55.000Z</time>
      </trkpt>
      <trkpt lat="37.17324" lon="-3.59944">
        <ele>682.372457</ele>
        <time>2022-04-19T09:09:56.000Z</time>
      </trkpt>
      <trkpt lat="37.17336" lon="-3.59945">
        <ele>682.740476</ele>
        <time>2022-04-19T09:10:01.000Z</time>
      </trkpt>
      <trkpt lat="37.17337" lon="-3.59943">
        <ele>682.799369</ele>
        <time>2022-04-19T09:10:02.000Z</time>
      </trkpt>
      <trkpt lat="37.17338" lon="-3.59943">
        <ele>682.834972</ele>
        <time>2022-04-19T09:10:03.000Z</time>
      </trkpt>
      <trkpt lat="37.1734" lon="-3.59943">
        <ele>682.887637</ele>
        <time>2022-04-19T09:10:04.000Z</time>
      </trkpt>
      <trkpt lat="37.17341" lon="-3.59942">
        <ele>682.935565</ele>
        <time>2022-04-19T09:10:05.000Z</time>
      </trkpt>
      <trkpt lat="37.17353" lon="-3.5994">
        <ele>683.303606</ele>
        <time>2022-04-19T09:10:11.000Z</time>
      </trkpt>
      <trkpt lat="37.17355" lon="-3.59941">
        <ele>683.378959</ele>
        <time>2022-04-19T09:10:12.000Z</time>
      </trkpt>
      <trkpt lat="37.17357" lon="-3.59941">
        <ele>683.459704</ele>
        <time>2022-04-19T09:10:13.000Z</time>
      </trkpt>
      <trkpt lat="37.17361" lon="-3.59939">
        <ele>683.586038</ele>
        <time>2022-04-19T09:10:15.000Z</time>
      </trkpt>
      <trkpt lat="37.17363" lon="-3.59938">
        <ele>683.648586</ele>
        <time>2022-04-19T09:10:16.000Z</time>
      </trkpt>
      <trkpt lat="37.17368" lon="-3.59935">
        <ele>683.843219</ele>
        <time>2022-04-19T09:10:19.000Z</time>
      </trkpt>
      <trkpt lat="37.1737" lon="-3.5993">
        <ele>683.975039</ele>
        <time>2022-04-19T09:10:21.000Z</time>
      </trkpt>
      <trkpt lat="37.17375" lon="-3.59927">
        <ele>684.160982</ele>
        <time>2022-04-19T09:10:24.000Z</time>
      </trkpt>
      <trkpt lat="37.1738" lon="-3.59925">
        <ele>684.310646</ele>
        <time>2022-04-19T09:10:27.000Z</time>
      </trkpt>
      <trkpt lat="37.17383" lon="-3.59926">
        <ele>684.431847</ele>
        <time>2022-04-19T09:10:32.000Z</time>
      </trkpt>
      <trkpt lat="37.17384" lon="-3.59926">
        <ele>684.468186</ele>
        <time>2022-04-19T09:10:33.000Z</time>
      </trkpt>
      <trkpt lat="37.17395" lon="-3.5992">
        <ele>684.836622</ele>
        <time>2022-04-19T09:10:37.000Z</time>
      </trkpt>
      <trkpt lat="37.17409" lon="-3.59915">
        <ele>685.301336</ele>
        <time>2022-04-19T09:10:41.000Z</time>
      </trkpt>
      <trkpt lat="37.17411" lon="-3.59914">
        <ele>685.395642</ele>
        <time>2022-04-19T09:10:42.000Z</time>
      </trkpt>
      <trkpt lat="37.17425" lon="-3.59899">
        <ele>685.977</ele>
        <time>2022-04-19T09:10:51.000Z</time>
      </trkpt>
      <trkpt lat="37.17427" lon="-3.59893">
        <ele>686.120475</ele>
        <time>2022-04-19T09:10:56.000Z</time>
      </trkpt>
      <trkpt lat="37.17431" lon="-3.59894">
        <ele>686.25166</ele>
        <time>2022-04-19T09:11:02.000Z</time>
      </trkpt>
      <trkpt lat="37.17434" lon="-3.59897">
        <ele>686.369242</ele>
        <time>2022-04-19T09:11:04.000Z</time>
      </trkpt>
      <trkpt lat="37.17439" lon="-3.59898">
        <ele>686.549031</ele>
        <time>2022-04-19T09:11:06.000Z</time>
      </trkpt>
      <trkpt lat="37.17442" lon="-3.59896">
        <ele>686.607785</ele>
        <time>2022-04-19T09:11:07.000Z</time>
      </trkpt>
      <trkpt lat="37.17453" lon="-3.59889">
        <ele>686.754287</ele>
        <time>2022-04-19T09:11:10.000Z</time>
      </trkpt>
      <trkpt lat="37.17461" lon="-3.5989">
        <ele>686.845685</ele>
        <time>2022-04-19T09:11:14.000Z</time>
      </trkpt>
      <trkpt lat="37.17466" lon="-3.59882">
        <ele>686.941124</ele>
        <time>2022-04-19T09:11:19.000Z</time>
      </trkpt>
      <trkpt lat="37.17472" lon="-3.59879">
        <ele>687.027295</ele>
        <time>2022-04-19T09:11:23.000Z</time>
      </trkpt>
      <trkpt lat="37.17474" lon="-3.59878">
        <ele>687.042745</ele>
        <time>2022-04-19T09:11:24.000Z</time>
      </trkpt>
      <trkpt lat="37.17474" lon="-3.59877">
        <ele>687.055595</ele>
        <time>2022-04-19T09:11:25.000Z</time>
      </trkpt>
      <trkpt lat="37.17475" lon="-3.59876">
        <ele>687.075023</ele>
        <time>2022-04-19T09:11:26.000Z</time>
      </trkpt>
      <trkpt lat="37.17482" lon="-3.59871">
        <ele>687.166207</ele>
        <time>2022-04-19T09:11:30.000Z</time>
      </trkpt>
      <trkpt lat="37.1749" lon="-3.59864">
        <ele>687.284276</ele>
        <time>2022-04-19T09:11:37.000Z</time>
      </trkpt>
      <trkpt lat="37.17492" lon="-3.59863">
        <ele>687.306731</ele>
        <time>2022-04-19T09:11:38.000Z</time>
      </trkpt>
      <trkpt lat="37.17494" lon="-3.5986">
        <ele>687.348335</ele>
        <time>2022-04-19T09:11:40.000Z</time>
      </trkpt>
      <trkpt lat="37.17499" lon="-3.59857">
        <ele>687.409787</ele>
        <time>2022-04-19T09:11:42.000Z</time>
      </trkpt>
      <trkpt lat="37.17511" lon="-3.59852">
        <ele>687.557925</ele>
        <time>2022-04-19T09:11:46.000Z</time>
      </trkpt>
      <trkpt lat="37.17518" lon="-3.59849">
        <ele>687.655084</ele>
        <time>2022-04-19T09:11:51.000Z</time>
      </trkpt>
      <trkpt lat="37.17519" lon="-3.59848">
        <ele>687.660234</ele>
        <time>2022-04-19T09:11:56.000Z</time>
      </trkpt>
      <trkpt lat="37.17519" lon="-3.59848">
        <ele>687.660234</ele>
        <time>2022-04-19T09:12:02.000Z</time>
      </trkpt>
      <trkpt lat="37.17519" lon="-3.59848">
        <ele>687.660234</ele>
        <time>2022-04-19T09:12:04.000Z</time>
      </trkpt>
      <trkpt lat="37.17519" lon="-3.59848">
        <ele>687.660234</ele>
        <time>2022-04-19T09:12:11.000Z</time>
      </trkpt>
      <trkpt lat="37.17519" lon="-3.59848">
        <ele>687.660234</ele>
        <time>2022-04-19T09:12:13.000Z</time>
      </trkpt>
      <trkpt lat="37.17518" lon="-3.59847">
        <ele>687.678585</ele>
        <time>2022-04-19T09:12:26.000Z</time>
      </trkpt>
      <trkpt lat="37.17517" lon="-3.59847">
        <ele>687.68116</ele>
        <time>2022-04-19T09:12:29.000Z</time>
      </trkpt>
      <trkpt lat="37.17514" lon="-3.59846">
        <ele>687.721693</ele>
        <time>2022-04-19T09:12:31.000Z</time>
      </trkpt>
      <trkpt lat="37.17511" lon="-3.59842">
        <ele>687.768959</ele>
        <time>2022-04-19T09:12:33.000Z</time>
      </trkpt>
      <trkpt lat="37.17511" lon="-3.5984">
        <ele>687.789439</ele>
        <time>2022-04-19T09:12:34.000Z</time>
      </trkpt>
      <trkpt lat="37.17509" lon="-3.59835">
        <ele>687.845372</ele>
        <time>2022-04-19T09:12:36.000Z</time>
      </trkpt>
      <trkpt lat="37.17501" lon="-3.59831">
        <ele>687.954077</ele>
        <time>2022-04-19T09:12:38.000Z</time>
      </trkpt>
      <trkpt lat="37.175" lon="-3.59831">
        <ele>687.960133</ele>
        <time>2022-04-19T09:12:39.000Z</time>
      </trkpt>
      <trkpt lat="37.175" lon="-3.59829">
        <ele>687.980182</ele>
        <time>2022-04-19T09:12:40.000Z</time>
      </trkpt>
      <trkpt lat="37.175" lon="-3.59826">
        <ele>688.013729</ele>
        <time>2022-04-19T09:12:43.000Z</time>
      </trkpt>
      <trkpt lat="37.17503" lon="-3.59821">
        <ele>688.067414</ele>
        <time>2022-04-19T09:12:51.000Z</time>
      </trkpt>
      <trkpt lat="37.17509" lon="-3.59816">
        <ele>688.1576</ele>
        <time>2022-04-19T09:12:56.000Z</time>
      </trkpt>
      <trkpt lat="37.17512" lon="-3.59813">
        <ele>688.201691</ele>
        <time>2022-04-19T09:13:01.000Z</time>
      </trkpt>
      <trkpt lat="37.17512" lon="-3.59813">
        <ele>688.201691</ele>
        <time>2022-04-19T09:13:04.000Z</time>
      </trkpt>
      <trkpt lat="37.17512" lon="-3.59813">
        <ele>688.201691</ele>
        <time>2022-04-19T09:13:07.000Z</time>
      </trkpt>
      <trkpt lat="37.17512" lon="-3.59813">
        <ele>688.201691</ele>
        <time>2022-04-19T09:13:15.000Z</time>
      </trkpt>
      <trkpt lat="37.17512" lon="-3.59812">
        <ele>688.206279</ele>
        <time>2022-04-19T09:13:21.000Z</time>
      </trkpt>
      <trkpt lat="37.1751" lon="-3.59811">
        <ele>688.231607</ele>
        <time>2022-04-19T09:13:22.000Z</time>
      </trkpt>
      <trkpt lat="37.17508" lon="-3.5981">
        <ele>688.254404</ele>
        <time>2022-04-19T09:13:23.000Z</time>
      </trkpt>
      <trkpt lat="37.17504" lon="-3.59811">
        <ele>688.304914</ele>
        <time>2022-04-19T09:13:26.000Z</time>
      </trkpt>
      <trkpt lat="37.17501" lon="-3.59812">
        <ele>688.34243</ele>
        <time>2022-04-19T09:13:28.000Z</time>
      </trkpt>
      <trkpt lat="37.175" lon="-3.59815">
        <ele>688.369944</ele>
        <time>2022-04-19T09:13:30.000Z</time>
      </trkpt>
      <trkpt lat="37.175" lon="-3.59819">
        <ele>688.410255</ele>
        <time>2022-04-19T09:13:32.000Z</time>
      </trkpt>
      <trkpt lat="37.175" lon="-3.5982">
        <ele>688.421008</ele>
        <time>2022-04-19T09:13:33.000Z</time>
      </trkpt>
      <trkpt lat="37.17496" lon="-3.59821">
        <ele>688.45868</ele>
        <time>2022-04-19T09:13:38.000Z</time>
      </trkpt>
      <trkpt lat="37.17495" lon="-3.5982">
        <ele>688.476705</ele>
        <time>2022-04-19T09:13:39.000Z</time>
      </trkpt>
      <trkpt lat="37.17492" lon="-3.5982">
        <ele>688.512637</ele>
        <time>2022-04-19T09:13:41.000Z</time>
      </trkpt>
      <trkpt lat="37.17491" lon="-3.59822">
        <ele>688.539653</ele>
        <time>2022-04-19T09:13:42.000Z</time>
      </trkpt>
      <trkpt lat="37.17489" lon="-3.59835">
        <ele>688.667754</ele>
        <time>2022-04-19T09:13:46.000Z</time>
      </trkpt>
      <trkpt lat="37.17482" lon="-3.59838">
        <ele>688.712777</ele>
        <time>2022-04-19T09:13:48.000Z</time>
      </trkpt>
      <trkpt lat="37.17477" lon="-3.59838">
        <ele>688.6715</ele>
        <time>2022-04-19T09:13:50.000Z</time>
      </trkpt>
      <trkpt lat="37.17467" lon="-3.59829">
        <ele>688.567316</ele>
        <time>2022-04-19T09:13:53.000Z</time>
      </trkpt>
      <trkpt lat="37.17464" lon="-3.59828">
        <ele>688.5424</ele>
        <time>2022-04-19T09:13:54.000Z</time>
      </trkpt>
      <trkpt lat="37.1746" lon="-3.59829">
        <ele>688.508779</ele>
        <time>2022-04-19T09:13:56.000Z</time>
      </trkpt>
      <trkpt lat="37.17456" lon="-3.5983">
        <ele>688.47737</ele>
        <time>2022-04-19T09:13:58.000Z</time>
      </trkpt>
      <trkpt lat="37.17453" lon="-3.59827">
        <ele>688.448451</ele>
        <time>2022-04-19T09:14:00.000Z</time>
      </trkpt>
      <trkpt lat="37.17449" lon="-3.59823">
        <ele>688.400699</ele>
        <time>2022-04-19T09:14:03.000Z</time>
      </trkpt>
      <trkpt lat="37.17442" lon="-3.59817">
        <ele>688.335137</ele>
        <time>2022-04-19T09:14:07.000Z</time>
      </trkpt>
      <trkpt lat="37.17441" lon="-3.59815">
        <ele>688.321306</ele>
        <time>2022-04-19T09:14:08.000Z</time>
      </trkpt>
      <trkpt lat="37.17441" lon="-3.59813">
        <ele>688.307409</ele>
        <time>2022-04-19T09:14:09.000Z</time>
      </trkpt>
      <trkpt lat="37.17441" lon="-3.59808">
        <ele>688.278042</ele>
        <time>2022-04-19T09:14:11.000Z</time>
      </trkpt>
      <trkpt lat="37.17442" lon="-3.59803">
        <ele>688.245677</ele>
        <time>2022-04-19T09:14:15.000Z</time>
      </trkpt>
      <trkpt lat="37.17442" lon="-3.59804">
        <ele>688.239986</ele>
        <time>2022-04-19T09:14:19.000Z</time>
      </trkpt>
      <trkpt lat="37.17442" lon="-3.59804">
        <ele>688.239986</ele>
        <time>2022-04-19T09:14:22.000Z</time>
      </trkpt>
      <trkpt lat="37.17442" lon="-3.59804">
        <ele>688.239986</ele>
        <time>2022-04-19T09:14:23.000Z</time>
      </trkpt>
      <trkpt lat="37.17442" lon="-3.59803">
        <ele>688.237412</ele>
        <time>2022-04-19T09:14:40.000Z</time>
      </trkpt>
      <trkpt lat="37.17441" lon="-3.59797">
        <ele>688.194314</ele>
        <time>2022-04-19T09:14:45.000Z</time>
      </trkpt>
      <trkpt lat="37.17441" lon="-3.59795">
        <ele>688.183107</ele>
        <time>2022-04-19T09:14:52.000Z</time>
      </trkpt>
      <trkpt lat="37.17441" lon="-3.59795">
        <ele>688.183107</ele>
        <time>2022-04-19T09:15:00.000Z</time>
      </trkpt>
      <trkpt lat="37.17441" lon="-3.59795">
        <ele>688.183107</ele>
        <time>2022-04-19T09:15:05.000Z</time>
      </trkpt>
      <trkpt lat="37.17441" lon="-3.59795">
        <ele>688.182299</ele>
        <time>2022-04-19T09:15:17.000Z</time>
      </trkpt>
      <trkpt lat="37.17441" lon="-3.59795">
        <ele>688.181656</ele>
        <time>2022-04-19T09:15:23.000Z</time>
      </trkpt>
      <trkpt lat="37.1744" lon="-3.59795">
        <ele>688.176766</ele>
        <time>2022-04-19T09:15:31.000Z</time>
      </trkpt>
      <trkpt lat="37.1744" lon="-3.59795">
        <ele>688.176766</ele>
        <time>2022-04-19T09:15:39.000Z</time>
      </trkpt>
      <trkpt lat="37.1744" lon="-3.59795">
        <ele>688.175151</ele>
        <time>2022-04-19T09:15:52.000Z</time>
      </trkpt>
      <trkpt lat="37.1744" lon="-3.59798">
        <ele>688.151336</ele>
        <time>2022-04-19T09:15:55.000Z</time>
      </trkpt>
      <trkpt lat="37.17442" lon="-3.59802">
        <ele>688.125553</ele>
        <time>2022-04-19T09:15:57.000Z</time>
      </trkpt>
      <trkpt lat="37.17442" lon="-3.59803">
        <ele>688.116542</ele>
        <time>2022-04-19T09:15:58.000Z</time>
      </trkpt>
      <trkpt lat="37.1744" lon="-3.59805">
        <ele>688.100937</ele>
        <time>2022-04-19T09:16:00.000Z</time>
      </trkpt>
      <trkpt lat="37.1744" lon="-3.59807">
        <ele>688.090706</ele>
        <time>2022-04-19T09:16:01.000Z</time>
      </trkpt>
      <trkpt lat="37.17437" lon="-3.5981">
        <ele>688.059085</ele>
        <time>2022-04-19T09:16:03.000Z</time>
      </trkpt>
      <trkpt lat="37.1743" lon="-3.59815">
        <ele>687.993386</ele>
        <time>2022-04-19T09:16:06.000Z</time>
      </trkpt>
      <trkpt lat="37.17421" lon="-3.59827">
        <ele>687.886847</ele>
        <time>2022-04-19T09:16:11.000Z</time>
      </trkpt>
      <trkpt lat="37.17418" lon="-3.59829">
        <ele>687.865732</ele>
        <time>2022-04-19T09:16:12.000Z</time>
      </trkpt>
      <trkpt lat="37.17413" lon="-3.59832">
        <ele>687.813746</ele>
        <time>2022-04-19T09:16:15.000Z</time>
      </trkpt>
      <trkpt lat="37.17403" lon="-3.59848">
        <ele>687.683318</ele>
        <time>2022-04-19T09:16:22.000Z</time>
      </trkpt>
      <trkpt lat="37.17402" lon="-3.5985">
        <ele>687.668449</ele>
        <time>2022-04-19T09:16:23.000Z</time>
      </trkpt>
      <trkpt lat="37.174" lon="-3.59852">
        <ele>687.649812</ele>
        <time>2022-04-19T09:16:24.000Z</time>
      </trkpt>
      <trkpt lat="37.174" lon="-3.59855">
        <ele>687.628557</ele>
        <time>2022-04-19T09:16:25.000Z</time>
      </trkpt>
      <trkpt lat="37.17408" lon="-3.59867">
        <ele>687.533415</ele>
        <time>2022-04-19T09:16:29.000Z</time>
      </trkpt>
      <trkpt lat="37.17411" lon="-3.59874">
        <ele>687.479789</ele>
        <time>2022-04-19T09:16:33.000Z</time>
      </trkpt>
      <trkpt lat="37.17411" lon="-3.59876">
        <ele>687.466634</ele>
        <time>2022-04-19T09:16:34.000Z</time>
      </trkpt>
      <trkpt lat="37.17415" lon="-3.59878">
        <ele>687.431548</ele>
        <time>2022-04-19T09:16:37.000Z</time>
      </trkpt>
      <trkpt lat="37.1742" lon="-3.59882">
        <ele>687.383994</ele>
        <time>2022-04-19T09:16:41.000Z</time>
      </trkpt>
      <trkpt lat="37.17421" lon="-3.59884">
        <ele>687.371189</ele>
        <time>2022-04-19T09:16:42.000Z</time>
      </trkpt>
      <trkpt lat="37.17423" lon="-3.59886">
        <ele>687.350455</ele>
        <time>2022-04-19T09:16:48.000Z</time>
      </trkpt>
      <trkpt lat="37.17423" lon="-3.59886">
        <ele>687.350455</ele>
        <time>2022-04-19T09:16:53.000Z</time>
      </trkpt>
      <trkpt lat="37.17423" lon="-3.59886">
        <ele>687.350455</ele>
        <time>2022-04-19T09:16:54.000Z</time>
      </trkpt>
      <trkpt lat="37.17423" lon="-3.59886">
        <ele>687.350455</ele>
        <time>2022-04-19T09:16:56.000Z</time>
      </trkpt>
      <trkpt lat="37.17423" lon="-3.59886">
        <ele>687.350455</ele>
        <time>2022-04-19T09:16:57.000Z</time>
      </trkpt>
      <trkpt lat="37.17423" lon="-3.59886">
        <ele>687.350455</ele>
        <time>2022-04-19T09:16:58.000Z</time>
      </trkpt>
      <trkpt lat="37.17423" lon="-3.59886">
        <ele>687.350455</ele>
        <time>2022-04-19T09:16:59.000Z</time>
      </trkpt>
      <trkpt lat="37.17423" lon="-3.59887">
        <ele>687.348389</ele>
        <time>2022-04-19T09:17:01.000Z</time>
      </trkpt>
      <trkpt lat="37.17424" lon="-3.59888">
        <ele>687.334789</ele>
        <time>2022-04-19T09:17:03.000Z</time>
      </trkpt>
      <trkpt lat="37.17424" lon="-3.59888">
        <ele>687.334789</ele>
        <time>2022-04-19T09:17:11.000Z</time>
      </trkpt>
      <trkpt lat="37.17425" lon="-3.5989">
        <ele>687.321523</ele>
        <time>2022-04-19T09:17:47.000Z</time>
      </trkpt>
      <trkpt lat="37.17431" lon="-3.59896">
        <ele>687.260829</ele>
        <time>2022-04-19T09:18:15.000Z</time>
      </trkpt>
      <trkpt lat="37.17437" lon="-3.59902">
        <ele>687.202846</ele>
        <time>2022-04-19T09:18:18.000Z</time>
      </trkpt>
      <trkpt lat="37.17442" lon="-3.59907">
        <ele>687.158919</ele>
        <time>2022-04-19T09:18:20.000Z</time>
      </trkpt>
      <trkpt lat="37.17454" lon="-3.59917">
        <ele>687.062431</ele>
        <time>2022-04-19T09:18:24.000Z</time>
      </trkpt>
      <trkpt lat="37.17455" lon="-3.59921">
        <ele>687.036934</ele>
        <time>2022-04-19T09:18:25.000Z</time>
      </trkpt>
      <trkpt lat="37.17457" lon="-3.59927">
        <ele>686.997189</ele>
        <time>2022-04-19T09:18:27.000Z</time>
      </trkpt>
      <trkpt lat="37.1746" lon="-3.59929">
        <ele>686.976767</ele>
        <time>2022-04-19T09:18:28.000Z</time>
      </trkpt>
      <trkpt lat="37.17467" lon="-3.59935">
        <ele>686.916541</ele>
        <time>2022-04-19T09:18:31.000Z</time>
      </trkpt>
      <trkpt lat="37.17471" lon="-3.59939">
        <ele>686.88076</ele>
        <time>2022-04-19T09:18:33.000Z</time>
      </trkpt>
      <trkpt lat="37.17473" lon="-3.59944">
        <ele>686.852643</ele>
        <time>2022-04-19T09:18:35.000Z</time>
      </trkpt>
      <trkpt lat="37.17478" lon="-3.59948">
        <ele>686.80838</ele>
        <time>2022-04-19T09:18:38.000Z</time>
      </trkpt>
      <trkpt lat="37.17483" lon="-3.59954">
        <ele>686.753855</ele>
        <time>2022-04-19T09:18:41.000Z</time>
      </trkpt>
      <trkpt lat="37.17491" lon="-3.5996">
        <ele>686.693526</ele>
        <time>2022-04-19T09:18:44.000Z</time>
      </trkpt>
      <trkpt lat="37.17498" lon="-3.59964">
        <ele>686.636003</ele>
        <time>2022-04-19T09:18:49.000Z</time>
      </trkpt>
      <trkpt lat="37.17498" lon="-3.59965">
        <ele>686.627417</ele>
        <time>2022-04-19T09:18:51.000Z</time>
      </trkpt>
      <trkpt lat="37.17502" lon="-3.59967">
        <ele>686.598832</ele>
        <time>2022-04-19T09:18:56.000Z</time>
      </trkpt>
      <trkpt lat="37.17505" lon="-3.59967">
        <ele>686.579693</ele>
        <time>2022-04-19T09:18:58.000Z</time>
      </trkpt>
      <trkpt lat="37.17507" lon="-3.5997">
        <ele>686.556674</ele>
        <time>2022-04-19T09:19:00.000Z</time>
      </trkpt>
      <trkpt lat="37.17507" lon="-3.59972">
        <ele>686.542774</ele>
        <time>2022-04-19T09:19:01.000Z</time>
      </trkpt>
      <trkpt lat="37.17508" lon="-3.59987">
        <ele>686.46309</ele>
        <time>2022-04-19T09:19:08.000Z</time>
      </trkpt>
      <trkpt lat="37.17506" lon="-3.5999">
        <ele>686.441434</ele>
        <time>2022-04-19T09:19:11.000Z</time>
      </trkpt>
      <trkpt lat="37.17506" lon="-3.5999">
        <ele>686.436863</ele>
        <time>2022-04-19T09:19:13.000Z</time>
      </trkpt>
      <trkpt lat="37.17506" lon="-3.5999">
        <ele>686.434028</ele>
        <time>2022-04-19T09:19:15.000Z</time>
      </trkpt>
      <trkpt lat="37.17506" lon="-3.5999">
        <ele>686.434028</ele>
        <time>2022-04-19T09:19:19.000Z</time>
      </trkpt>
      <trkpt lat="37.17506" lon="-3.5999">
        <ele>686.434028</ele>
        <time>2022-04-19T09:19:28.000Z</time>
      </trkpt>
      <trkpt lat="37.17507" lon="-3.5999">
        <ele>686.431662</ele>
        <time>2022-04-19T09:19:40.000Z</time>
      </trkpt>
      <trkpt lat="37.17508" lon="-3.59984">
        <ele>686.393456</ele>
        <time>2022-04-19T09:19:43.000Z</time>
      </trkpt>
      <trkpt lat="37.17504" lon="-3.59978">
        <ele>686.352242</ele>
        <time>2022-04-19T09:19:47.000Z</time>
      </trkpt>
      <trkpt lat="37.17503" lon="-3.59974">
        <ele>686.325247</ele>
        <time>2022-04-19T09:19:49.000Z</time>
      </trkpt>
      <trkpt lat="37.17509" lon="-3.5997">
        <ele>686.283072</ele>
        <time>2022-04-19T09:19:54.000Z</time>
      </trkpt>
      <trkpt lat="37.17509" lon="-3.5997">
        <ele>686.283072</ele>
        <time>2022-04-19T09:20:01.000Z</time>
      </trkpt>
      <trkpt lat="37.17509" lon="-3.5997">
        <ele>686.282166</ele>
        <time>2022-04-19T09:20:07.000Z</time>
      </trkpt>
      <trkpt lat="37.17511" lon="-3.59966">
        <ele>686.254743</ele>
        <time>2022-04-19T09:20:10.000Z</time>
      </trkpt>
      <trkpt lat="37.17513" lon="-3.59963">
        <ele>686.2313</ele>
        <time>2022-04-19T09:20:12.000Z</time>
      </trkpt>
      <trkpt lat="37.17517" lon="-3.59963">
        <ele>686.202052</ele>
        <time>2022-04-19T09:20:15.000Z</time>
      </trkpt>
      <trkpt lat="37.17518" lon="-3.59963">
        <ele>686.19875</ele>
        <time>2022-04-19T09:20:20.000Z</time>
      </trkpt>
      <trkpt lat="37.17518" lon="-3.59964">
        <ele>686.191411</ele>
        <time>2022-04-19T09:20:28.000Z</time>
      </trkpt>
      <trkpt lat="37.17517" lon="-3.59964">
        <ele>686.187484</ele>
        <time>2022-04-19T09:20:33.000Z</time>
      </trkpt>
      <trkpt lat="37.17517" lon="-3.59964">
        <ele>686.186775</ele>
        <time>2022-04-19T09:20:43.000Z</time>
      </trkpt>
      <trkpt lat="37.17517" lon="-3.59964">
        <ele>686.182524</ele>
        <time>2022-04-19T09:20:46.000Z</time>
      </trkpt>
      <trkpt lat="37.17517" lon="-3.59964">
        <ele>686.182524</ele>
        <time>2022-04-19T09:20:47.000Z</time>
      </trkpt>
      <trkpt lat="37.17516" lon="-3.59965">
        <ele>686.178107</ele>
        <time>2022-04-19T09:21:03.000Z</time>
      </trkpt>
      <trkpt lat="37.17516" lon="-3.59965">
        <ele>686.178107</ele>
        <time>2022-04-19T09:21:12.000Z</time>
      </trkpt>
      <trkpt lat="37.17516" lon="-3.59965">
        <ele>686.178107</ele>
        <time>2022-04-19T09:21:13.000Z</time>
      </trkpt>
      <trkpt lat="37.17516" lon="-3.59965">
        <ele>686.178107</ele>
        <time>2022-04-19T09:21:22.000Z</time>
      </trkpt>
      <trkpt lat="37.17516" lon="-3.59965">
        <ele>686.178107</ele>
        <time>2022-04-19T09:21:25.000Z</time>
      </trkpt>
      <trkpt lat="37.17516" lon="-3.59965">
        <ele>686.176774</ele>
        <time>2022-04-19T09:21:35.000Z</time>
      </trkpt>
      <trkpt lat="37.17516" lon="-3.59966">
        <ele>686.171644</ele>
        <time>2022-04-19T09:21:45.000Z</time>
      </trkpt>
      <trkpt lat="37.17516" lon="-3.59966">
        <ele>686.167972</ele>
        <time>2022-04-19T09:21:49.000Z</time>
      </trkpt>
      <trkpt lat="37.17516" lon="-3.59966">
        <ele>686.167972</ele>
        <time>2022-04-19T09:22:02.000Z</time>
      </trkpt>
      <trkpt lat="37.17516" lon="-3.59966">
        <ele>686.167972</ele>
        <time>2022-04-19T09:22:07.000Z</time>
      </trkpt>
      <trkpt lat="37.17516" lon="-3.59966">
        <ele>686.167972</ele>
        <time>2022-04-19T09:22:10.000Z</time>
      </trkpt>
      <trkpt lat="37.17516" lon="-3.59966">
        <ele>686.163238</ele>
        <time>2022-04-19T09:22:19.000Z</time>
      </trkpt>
      <trkpt lat="37.17516" lon="-3.59965">
        <ele>686.162109</ele>
        <time>2022-04-19T09:22:22.000Z</time>
      </trkpt>
      <trkpt lat="37.17516" lon="-3.59965">
        <ele>686.162109</ele>
        <time>2022-04-19T09:22:23.000Z</time>
      </trkpt>
      <trkpt lat="37.17516" lon="-3.59965">
        <ele>686.157593</ele>
        <time>2022-04-19T09:22:36.000Z</time>
      </trkpt>
      <trkpt lat="37.17516" lon="-3.59965">
        <ele>686.157593</ele>
        <time>2022-04-19T09:22:41.000Z</time>
      </trkpt>
      <trkpt lat="37.17516" lon="-3.59965">
        <ele>686.157593</ele>
        <time>2022-04-19T09:22:51.000Z</time>
      </trkpt>
      <trkpt lat="37.17516" lon="-3.59965">
        <ele>686.157593</ele>
        <time>2022-04-19T09:23:03.000Z</time>
      </trkpt>
      <trkpt lat="37.17516" lon="-3.59965">
        <ele>686.157593</ele>
        <time>2022-04-19T09:23:05.000Z</time>
      </trkpt>
      <trkpt lat="37.17516" lon="-3.59965">
        <ele>686.157593</ele>
        <time>2022-04-19T09:23:09.000Z</time>
      </trkpt>
      <trkpt lat="37.17516" lon="-3.59965">
        <ele>686.157593</ele>
        <time>2022-04-19T09:23:12.000Z</time>
      </trkpt>
      <trkpt lat="37.17516" lon="-3.59965">
        <ele>686.157593</ele>
        <time>2022-04-19T09:23:16.000Z</time>
      </trkpt>
      <trkpt lat="37.17516" lon="-3.59965">
        <ele>686.157593</ele>
        <time>2022-04-19T09:23:24.000Z</time>
      </trkpt>
      <trkpt lat="37.17516" lon="-3.59965">
        <ele>686.157593</ele>
        <time>2022-04-19T09:23:31.000Z</time>
      </trkpt>
      <trkpt lat="37.17516" lon="-3.59965">
        <ele>686.157593</ele>
        <time>2022-04-19T09:23:34.000Z</time>
      </trkpt>
      <trkpt lat="37.17516" lon="-3.59965">
        <ele>686.157593</ele>
        <time>2022-04-19T09:23:37.000Z</time>
      </trkpt>
      <trkpt lat="37.17516" lon="-3.59965">
        <ele>686.157593</ele>
        <time>2022-04-19T09:23:40.000Z</time>
      </trkpt>
      <trkpt lat="37.17516" lon="-3.59965">
        <ele>686.157593</ele>
        <time>2022-04-19T09:23:47.000Z</time>
      </trkpt>
      <trkpt lat="37.17516" lon="-3.59965">
        <ele>686.157028</ele>
        <time>2022-04-19T09:23:55.000Z</time>
      </trkpt>
      <trkpt lat="37.17516" lon="-3.59965">
        <ele>686.157028</ele>
        <time>2022-04-19T09:24:02.000Z</time>
      </trkpt>
      <trkpt lat="37.17516" lon="-3.59966">
        <ele>686.150777</ele>
        <time>2022-04-19T09:24:07.000Z</time>
      </trkpt>
      <trkpt lat="37.17515" lon="-3.59966">
        <ele>686.145876</ele>
        <time>2022-04-19T09:24:10.000Z</time>
      </trkpt>
      <trkpt lat="37.17515" lon="-3.59966">
        <ele>686.144459</ele>
        <time>2022-04-19T09:24:19.000Z</time>
      </trkpt>
      <trkpt lat="37.17512" lon="-3.59964">
        <ele>686.118493</ele>
        <time>2022-04-19T09:24:21.000Z</time>
      </trkpt>
      <trkpt lat="37.17506" lon="-3.59962">
        <ele>686.079235</ele>
        <time>2022-04-19T09:24:25.000Z</time>
      </trkpt>
      <trkpt lat="37.17505" lon="-3.59963">
        <ele>686.067403</ele>
        <time>2022-04-19T09:24:26.000Z</time>
      </trkpt>
      <trkpt lat="37.17504" lon="-3.59964">
        <ele>686.061086</ele>
        <time>2022-04-19T09:24:28.000Z</time>
      </trkpt>
      <trkpt lat="37.17506" lon="-3.59966">
        <ele>686.045565</ele>
        <time>2022-04-19T09:24:30.000Z</time>
      </trkpt>
      <trkpt lat="37.17507" lon="-3.59967">
        <ele>686.036188</ele>
        <time>2022-04-19T09:24:31.000Z</time>
      </trkpt>
      <trkpt lat="37.17509" lon="-3.59968">
        <ele>686.022003</ele>
        <time>2022-04-19T09:24:34.000Z</time>
      </trkpt>
      <trkpt lat="37.1751" lon="-3.5997">
        <ele>686.008282</ele>
        <time>2022-04-19T09:24:35.000Z</time>
      </trkpt>
      <trkpt lat="37.17511" lon="-3.59971">
        <ele>686.00655</ele>
        <time>2022-04-19T09:24:36.000Z</time>
      </trkpt>
      <trkpt lat="37.17511" lon="-3.59971">
        <ele>686.012704</ele>
        <time>2022-04-19T09:24:38.000Z</time>
      </trkpt>
      <trkpt lat="37.17511" lon="-3.59971">
        <ele>686.013825</ele>
        <time>2022-04-19T09:24:44.000Z</time>
      </trkpt>
      <trkpt lat="37.17511" lon="-3.59971">
        <ele>686.013825</ele>
        <time>2022-04-19T09:24:51.000Z</time>
      </trkpt>
      <trkpt lat="37.17511" lon="-3.59972">
        <ele>686.033126</ele>
        <time>2022-04-19T09:24:58.000Z</time>
      </trkpt>
      <trkpt lat="37.1751" lon="-3.59974">
        <ele>686.053428</ele>
        <time>2022-04-19T09:25:01.000Z</time>
      </trkpt>
      <trkpt lat="37.1751" lon="-3.59974">
        <ele>686.053428</ele>
        <time>2022-04-19T09:25:03.000Z</time>
      </trkpt>
      <trkpt lat="37.1751" lon="-3.59974">
        <ele>686.053428</ele>
        <time>2022-04-19T09:25:10.000Z</time>
      </trkpt>
      <trkpt lat="37.1751" lon="-3.59974">
        <ele>686.054834</ele>
        <time>2022-04-19T09:25:13.000Z</time>
      </trkpt>
      <trkpt lat="37.1751" lon="-3.59975">
        <ele>686.071006</ele>
        <time>2022-04-19T09:25:16.000Z</time>
      </trkpt>
      <trkpt lat="37.17509" lon="-3.59976">
        <ele>686.07465</ele>
        <time>2022-04-19T09:25:22.000Z</time>
      </trkpt>
      <trkpt lat="37.17509" lon="-3.59976">
        <ele>686.07465</ele>
        <time>2022-04-19T09:25:24.000Z</time>
      </trkpt>
      <trkpt lat="37.1751" lon="-3.59975">
        <ele>686.076447</ele>
        <time>2022-04-19T09:25:29.000Z</time>
      </trkpt>
      <trkpt lat="37.17509" lon="-3.59975">
        <ele>686.080091</ele>
        <time>2022-04-19T09:25:32.000Z</time>
      </trkpt>
      <trkpt lat="37.17508" lon="-3.59974">
        <ele>686.10526</ele>
        <time>2022-04-19T09:25:33.000Z</time>
      </trkpt>
      <trkpt lat="37.17507" lon="-3.59972">
        <ele>686.124554</ele>
        <time>2022-04-19T09:25:34.000Z</time>
      </trkpt>
      <trkpt lat="37.17505" lon="-3.5997">
        <ele>686.169873</ele>
        <time>2022-04-19T09:25:37.000Z</time>
      </trkpt>
      <trkpt lat="37.17504" lon="-3.5997">
        <ele>686.175927</ele>
        <time>2022-04-19T09:25:38.000Z</time>
      </trkpt>
      <trkpt lat="37.17503" lon="-3.59969">
        <ele>686.194343</ele>
        <time>2022-04-19T09:25:40.000Z</time>
      </trkpt>
      <trkpt lat="37.17503" lon="-3.59969">
        <ele>686.197938</ele>
        <time>2022-04-19T09:25:43.000Z</time>
      </trkpt>
      <trkpt lat="37.17503" lon="-3.59969">
        <ele>686.197938</ele>
        <time>2022-04-19T09:25:46.000Z</time>
      </trkpt>
      <trkpt lat="37.17502" lon="-3.59968">
        <ele>686.212126</ele>
        <time>2022-04-19T09:25:48.000Z</time>
      </trkpt>
      <trkpt lat="37.17501" lon="-3.59967">
        <ele>686.234965</ele>
        <time>2022-04-19T09:25:49.000Z</time>
      </trkpt>
      <trkpt lat="37.175" lon="-3.59962">
        <ele>686.290133</ele>
        <time>2022-04-19T09:25:51.000Z</time>
      </trkpt>
      <trkpt lat="37.17498" lon="-3.59958">
        <ele>686.336022</ele>
        <time>2022-04-19T09:25:53.000Z</time>
      </trkpt>
      <trkpt lat="37.175" lon="-3.59951">
        <ele>686.420357</ele>
        <time>2022-04-19T09:25:55.000Z</time>
      </trkpt>
      <trkpt lat="37.17501" lon="-3.59944">
        <ele>686.505564</ele>
        <time>2022-04-19T09:25:57.000Z</time>
      </trkpt>
      <trkpt lat="37.17503" lon="-3.59936">
        <ele>686.599088</ele>
        <time>2022-04-19T09:26:00.000Z</time>
      </trkpt>
      <trkpt lat="37.17505" lon="-3.59934">
        <ele>686.630102</ele>
        <time>2022-04-19T09:26:04.000Z</time>
      </trkpt>
      <trkpt lat="37.17508" lon="-3.59932">
        <ele>686.681404</ele>
        <time>2022-04-19T09:26:06.000Z</time>
      </trkpt>
      <trkpt lat="37.17511" lon="-3.59923">
        <ele>686.78455</ele>
        <time>2022-04-19T09:26:09.000Z</time>
      </trkpt>
      <trkpt lat="37.17512" lon="-3.59921">
        <ele>686.814428</ele>
        <time>2022-04-19T09:26:11.000Z</time>
      </trkpt>
      <trkpt lat="37.17514" lon="-3.59917">
        <ele>686.87066</ele>
        <time>2022-04-19T09:26:13.000Z</time>
      </trkpt>
      <trkpt lat="37.17514" lon="-3.59909">
        <ele>686.96369</ele>
        <time>2022-04-19T09:26:16.000Z</time>
      </trkpt>
      <trkpt lat="37.17515" lon="-3.59903">
        <ele>687.032454</ele>
        <time>2022-04-19T09:26:19.000Z</time>
      </trkpt>
      <trkpt lat="37.17518" lon="-3.59896">
        <ele>687.112715</ele>
        <time>2022-04-19T09:26:22.000Z</time>
      </trkpt>
      <trkpt lat="37.17518" lon="-3.59896">
        <ele>687.118769</ele>
        <time>2022-04-19T09:26:23.000Z</time>
      </trkpt>
      <trkpt lat="37.17522" lon="-3.59894">
        <ele>687.174565</ele>
        <time>2022-04-19T09:26:25.000Z</time>
      </trkpt>
      <trkpt lat="37.17524" lon="-3.59892">
        <ele>687.220217</ele>
        <time>2022-04-19T09:26:27.000Z</time>
      </trkpt>
      <trkpt lat="37.17525" lon="-3.5989">
        <ele>687.24071</ele>
        <time>2022-04-19T09:26:28.000Z</time>
      </trkpt>
      <trkpt lat="37.17527" lon="-3.59887">
        <ele>687.284533</ele>
        <time>2022-04-19T09:26:30.000Z</time>
      </trkpt>
      <trkpt lat="37.1753" lon="-3.5988">
        <ele>687.374582</ele>
        <time>2022-04-19T09:26:33.000Z</time>
      </trkpt>
      <trkpt lat="37.1753" lon="-3.59878">
        <ele>687.394884</ele>
        <time>2022-04-19T09:26:36.000Z</time>
      </trkpt>
      <trkpt lat="37.17531" lon="-3.59878">
        <ele>687.412226</ele>
        <time>2022-04-19T09:26:38.000Z</time>
      </trkpt>
      <trkpt lat="37.17533" lon="-3.59877">
        <ele>687.435142</ele>
        <time>2022-04-19T09:26:40.000Z</time>
      </trkpt>
      <trkpt lat="37.17535" lon="-3.59876">
        <ele>687.458081</ele>
        <time>2022-04-19T09:26:41.000Z</time>
      </trkpt>
      <trkpt lat="37.17535" lon="-3.59877">
        <ele>687.463816</ele>
        <time>2022-04-19T09:26:43.000Z</time>
      </trkpt>
      <trkpt lat="37.17535" lon="-3.59877">
        <ele>687.463816</ele>
        <time>2022-04-19T09:26:44.000Z</time>
      </trkpt>
      <trkpt lat="37.17535" lon="-3.59877">
        <ele>687.463816</ele>
        <time>2022-04-19T09:26:49.000Z</time>
      </trkpt>
      <trkpt lat="37.17534" lon="-3.59873">
        <ele>687.507849</ele>
        <time>2022-04-19T09:26:54.000Z</time>
      </trkpt>
      <trkpt lat="37.17534" lon="-3.59873">
        <ele>687.51009</ele>
        <time>2022-04-19T09:26:57.000Z</time>
      </trkpt>
      <trkpt lat="37.17532" lon="-3.59869">
        <ele>687.560181</ele>
        <time>2022-04-19T09:26:59.000Z</time>
      </trkpt>
      <trkpt lat="37.17529" lon="-3.59862">
        <ele>687.647696</ele>
        <time>2022-04-19T09:27:02.000Z</time>
      </trkpt>
      <trkpt lat="37.17524" lon="-3.59857">
        <ele>687.736125</ele>
        <time>2022-04-19T09:27:05.000Z</time>
      </trkpt>
      <trkpt lat="37.17521" lon="-3.59853">
        <ele>687.799448</ele>
        <time>2022-04-19T09:27:10.000Z</time>
      </trkpt>
      <trkpt lat="37.17518" lon="-3.5985">
        <ele>687.853665</ele>
        <time>2022-04-19T09:27:15.000Z</time>
      </trkpt>
      <trkpt lat="37.17517" lon="-3.59849">
        <ele>687.873476</ele>
        <time>2022-04-19T09:27:16.000Z</time>
      </trkpt>
      <trkpt lat="37.17515" lon="-3.59844">
        <ele>687.932521</ele>
        <time>2022-04-19T09:27:20.000Z</time>
      </trkpt>
      <trkpt lat="37.17514" lon="-3.59843">
        <ele>687.953415</ele>
        <time>2022-04-19T09:27:21.000Z</time>
      </trkpt>
      <trkpt lat="37.17511" lon="-3.59841">
        <ele>687.998078</ele>
        <time>2022-04-19T09:27:23.000Z</time>
      </trkpt>
      <trkpt lat="37.17511" lon="-3.5984">
        <ele>688.00463</ele>
        <time>2022-04-19T09:27:25.000Z</time>
      </trkpt>
      <trkpt lat="37.1751" lon="-3.59838">
        <ele>688.038198</ele>
        <time>2022-04-19T09:27:27.000Z</time>
      </trkpt>
      <trkpt lat="37.1751" lon="-3.59833">
        <ele>688.093166</ele>
        <time>2022-04-19T09:27:31.000Z</time>
      </trkpt>
      <trkpt lat="37.17502" lon="-3.59828">
        <ele>688.226432</ele>
        <time>2022-04-19T09:27:38.000Z</time>
      </trkpt>
      <trkpt lat="37.17501" lon="-3.59827">
        <ele>688.231826</ele>
        <time>2022-04-19T09:27:39.000Z</time>
      </trkpt>
      <trkpt lat="37.17502" lon="-3.59809">
        <ele>688.440683</ele>
        <time>2022-04-19T09:28:02.000Z</time>
      </trkpt>
      <trkpt lat="37.17494" lon="-3.59813">
        <ele>688.529457</ele>
        <time>2022-04-19T09:28:08.000Z</time>
      </trkpt>
      <trkpt lat="37.17494" lon="-3.59811">
        <ele>688.530445</ele>
        <time>2022-04-19T09:28:10.000Z</time>
      </trkpt>
      <trkpt lat="37.17494" lon="-3.59806">
        <ele>688.531927</ele>
        <time>2022-04-19T09:28:19.000Z</time>
      </trkpt>
      <trkpt lat="37.17493" lon="-3.59805">
        <ele>688.532493</ele>
        <time>2022-04-19T09:28:24.000Z</time>
      </trkpt>
      <trkpt lat="37.17493" lon="-3.598">
        <ele>688.534066</ele>
        <time>2022-04-19T09:28:30.000Z</time>
      </trkpt>
      <trkpt lat="37.17493" lon="-3.59798">
        <ele>688.534892</ele>
        <time>2022-04-19T09:28:33.000Z</time>
      </trkpt>
      <trkpt lat="37.17492" lon="-3.59797">
        <ele>688.535466</ele>
        <time>2022-04-19T09:28:35.000Z</time>
      </trkpt>
      <trkpt lat="37.17491" lon="-3.59795">
        <ele>688.536038</ele>
        <time>2022-04-19T09:28:36.000Z</time>
      </trkpt>
      <trkpt lat="37.17492" lon="-3.59795">
        <ele>688.53631</ele>
        <time>2022-04-19T09:28:39.000Z</time>
      </trkpt>
      <trkpt lat="37.17493" lon="-3.59797">
        <ele>688.536882</ele>
        <time>2022-04-19T09:28:40.000Z</time>
      </trkpt>
      <trkpt lat="37.17493" lon="-3.598">
        <ele>688.538163</ele>
        <time>2022-04-19T09:28:42.000Z</time>
      </trkpt>
      <trkpt lat="37.17494" lon="-3.59804">
        <ele>688.539494</ele>
        <time>2022-04-19T09:28:43.000Z</time>
      </trkpt>
      <trkpt lat="37.17497" lon="-3.59808">
        <ele>688.541483</ele>
        <time>2022-04-19T09:28:46.000Z</time>
      </trkpt>
      <trkpt lat="37.17497" lon="-3.59808">
        <ele>688.541518</ele>
        <time>2022-04-19T09:28:49.000Z</time>
      </trkpt>
      <trkpt lat="37.17497" lon="-3.59807">
        <ele>688.541869</ele>
        <time>2022-04-19T09:28:50.000Z</time>
      </trkpt>
      <trkpt lat="37.17496" lon="-3.59808">
        <ele>688.54209</ele>
        <time>2022-04-19T09:28:55.000Z</time>
      </trkpt>
      <trkpt lat="37.17496" lon="-3.59808">
        <ele>688.542173</ele>
        <time>2022-04-19T09:29:00.000Z</time>
      </trkpt>
      <trkpt lat="37.17489" lon="-3.59804">
        <ele>688.545709</ele>
        <time>2022-04-19T09:31:03.000Z</time>
      </trkpt>
      <trkpt lat="37.1749" lon="-3.59798">
        <ele>688.547696</ele>
        <time>2022-04-19T09:31:56.000Z</time>
      </trkpt>
      <trkpt lat="37.17489" lon="-3.59792">
        <ele>688.549908</ele>
        <time>2022-04-19T09:31:59.000Z</time>
      </trkpt>
      <trkpt lat="37.1749" lon="-3.59792">
        <ele>688.550545</ele>
        <time>2022-04-19T09:32:01.000Z</time>
      </trkpt>
      <trkpt lat="37.17494" lon="-3.59796">
        <ele>688.552657</ele>
        <time>2022-04-19T09:32:07.000Z</time>
      </trkpt>
      <trkpt lat="37.17496" lon="-3.59798">
        <ele>688.553901</ele>
        <time>2022-04-19T09:32:10.000Z</time>
      </trkpt>
      <trkpt lat="37.17497" lon="-3.59799">
        <ele>688.55423</ele>
        <time>2022-04-19T09:32:12.000Z</time>
      </trkpt>
      <trkpt lat="37.17496" lon="-3.59801">
        <ele>688.55504</ele>
        <time>2022-04-19T09:32:13.000Z</time>
      </trkpt>
      <trkpt lat="37.17498" lon="-3.59804">
        <ele>688.556473</ele>
        <time>2022-04-19T09:32:16.000Z</time>
      </trkpt>
      <trkpt lat="37.17499" lon="-3.59804">
        <ele>688.556781</ele>
        <time>2022-04-19T09:32:17.000Z</time>
      </trkpt>
      <trkpt lat="37.17499" lon="-3.59803">
        <ele>688.556894</ele>
        <time>2022-04-19T09:32:18.000Z</time>
      </trkpt>
      <trkpt lat="37.17494" lon="-3.59808">
        <ele>688.559709</ele>
        <time>2022-04-19T09:32:22.000Z</time>
      </trkpt>
      <trkpt lat="37.17492" lon="-3.59807">
        <ele>688.560678</ele>
        <time>2022-04-19T09:32:24.000Z</time>
      </trkpt>
      <trkpt lat="37.17486" lon="-3.598">
        <ele>688.564144</ele>
        <time>2022-04-19T09:32:27.000Z</time>
      </trkpt>
      <trkpt lat="37.17485" lon="-3.59801">
        <ele>688.564391</ele>
        <time>2022-04-19T09:32:32.000Z</time>
      </trkpt>
      <trkpt lat="37.1749" lon="-3.598">
        <ele>688.566282</ele>
        <time>2022-04-19T09:32:38.000Z</time>
      </trkpt>
      <trkpt lat="37.1749" lon="-3.59806">
        <ele>688.568238</ele>
        <time>2022-04-19T09:32:39.000Z</time>
      </trkpt>
      <trkpt lat="37.17487" lon="-3.59811">
        <ele>688.570531</ele>
        <time>2022-04-19T09:32:43.000Z</time>
      </trkpt>
      <trkpt lat="37.17487" lon="-3.59814">
        <ele>688.571565</ele>
        <time>2022-04-19T09:32:45.000Z</time>
      </trkpt>
      <trkpt lat="37.17487" lon="-3.59814">
        <ele>688.5716</ele>
        <time>2022-04-19T09:32:46.000Z</time>
      </trkpt>
      <trkpt lat="37.17487" lon="-3.59812">
        <ele>688.572397</ele>
        <time>2022-04-19T09:32:48.000Z</time>
      </trkpt>
      <trkpt lat="37.17487" lon="-3.5981">
        <ele>688.572989</ele>
        <time>2022-04-19T09:32:49.000Z</time>
      </trkpt>
      <trkpt lat="37.17487" lon="-3.59807">
        <ele>688.573955</ele>
        <time>2022-04-19T09:32:53.000Z</time>
      </trkpt>
      <trkpt lat="37.17489" lon="-3.59801">
        <ele>688.576447</ele>
        <time>2022-04-19T09:32:59.000Z</time>
      </trkpt>
      <trkpt lat="37.1749" lon="-3.59799">
        <ele>688.577077</ele>
        <time>2022-04-19T09:33:00.000Z</time>
      </trkpt>
      <trkpt lat="37.1749" lon="-3.59797">
        <ele>688.577821</ele>
        <time>2022-04-19T09:33:05.000Z</time>
      </trkpt>
      <trkpt lat="37.17489" lon="-3.59799">
        <ele>688.578437</ele>
        <time>2022-04-19T09:33:10.000Z</time>
      </trkpt>
      <trkpt lat="37.1749" lon="-3.59798">
        <ele>688.578901</ele>
        <time>2022-04-19T09:33:16.000Z</time>
      </trkpt>
      <trkpt lat="37.17494" lon="-3.598">
        <ele>688.580761</ele>
        <time>2022-04-19T09:33:23.000Z</time>
      </trkpt>
      <trkpt lat="37.17492" lon="-3.59797">
        <ele>688.582249</ele>
        <time>2022-04-19T09:33:25.000Z</time>
      </trkpt>
      <trkpt lat="37.17491" lon="-3.59797">
        <ele>688.582656</ele>
        <time>2022-04-19T09:33:26.000Z</time>
      </trkpt>
      <trkpt lat="37.17492" lon="-3.59796">
        <ele>688.58307</ele>
        <time>2022-04-19T09:33:29.000Z</time>
      </trkpt>
      <trkpt lat="37.1749" lon="-3.59794">
        <ele>688.583942</ele>
        <time>2022-04-19T09:33:30.000Z</time>
      </trkpt>
      <trkpt lat="37.17486" lon="-3.5979">
        <ele>688.58635</ele>
        <time>2022-04-19T09:33:33.000Z</time>
      </trkpt>
      <trkpt lat="37.17481" lon="-3.59793">
        <ele>688.588434</ele>
        <time>2022-04-19T09:33:38.000Z</time>
      </trkpt>
      <trkpt lat="37.17482" lon="-3.59793">
        <ele>688.588622</ele>
        <time>2022-04-19T09:33:39.000Z</time>
      </trkpt>
      <trkpt lat="37.17483" lon="-3.59793">
        <ele>688.589259</ele>
        <time>2022-04-19T09:33:41.000Z</time>
      </trkpt>
      <trkpt lat="37.17485" lon="-3.59792">
        <ele>688.590335</ele>
        <time>2022-04-19T09:33:48.000Z</time>
      </trkpt>
      <trkpt lat="37.17488" lon="-3.59795">
        <ele>688.591978</ele>
        <time>2022-04-19T09:33:53.000Z</time>
      </trkpt>
      <trkpt lat="37.17484" lon="-3.59795">
        <ele>688.593787</ele>
        <time>2022-04-19T09:33:57.000Z</time>
      </trkpt>
      <trkpt lat="37.17519" lon="-3.59845">
        <ele>688.634134</ele>
        <time>2022-04-19T09:35:26.000Z</time>
      </trkpt>
      <trkpt lat="37.17521" lon="-3.59839">
        <ele>688.640538</ele>
        <time>2022-04-19T09:35:29.000Z</time>
      </trkpt>
      <trkpt lat="37.17513" lon="-3.59845">
        <ele>688.651846</ele>
        <time>2022-04-19T09:35:30.000Z</time>
      </trkpt>
      <trkpt lat="37.17507" lon="-3.59834">
        <ele>688.664812</ele>
        <time>2022-04-19T09:35:32.000Z</time>
      </trkpt>
      <trkpt lat="37.17511" lon="-3.59833">
        <ele>688.670502</ele>
        <time>2022-04-19T09:35:34.000Z</time>
      </trkpt>
      <trkpt lat="37.17514" lon="-3.59832">
        <ele>688.673336</ele>
        <time>2022-04-19T09:35:36.000Z</time>
      </trkpt>
      <trkpt lat="37.17521" lon="-3.59847">
        <ele>688.689719</ele>
        <time>2022-04-19T09:35:40.000Z</time>
      </trkpt>
      <trkpt lat="37.17522" lon="-3.59853">
        <ele>688.695489</ele>
        <time>2022-04-19T09:35:42.000Z</time>
      </trkpt>
      <trkpt lat="37.17524" lon="-3.59856">
        <ele>688.699244</ele>
        <time>2022-04-19T09:35:44.000Z</time>
      </trkpt>
      <trkpt lat="37.17522" lon="-3.59852">
        <ele>688.703922</ele>
        <time>2022-04-19T09:35:48.000Z</time>
      </trkpt>
      <trkpt lat="37.17499" lon="-3.59825">
        <ele>688.741695</ele>
        <time>2022-04-19T09:35:50.000Z</time>
      </trkpt>
      <trkpt lat="37.17495" lon="-3.59816">
        <ele>688.751258</ele>
        <time>2022-04-19T09:35:51.000Z</time>
      </trkpt>
      <trkpt lat="37.17491" lon="-3.59813">
        <ele>688.756462</ele>
        <time>2022-04-19T09:35:52.000Z</time>
      </trkpt>
      <trkpt lat="37.17493" lon="-3.59801">
        <ele>688.767633</ele>
        <time>2022-04-19T09:35:53.000Z</time>
      </trkpt>
      <trkpt lat="37.17497" lon="-3.598">
        <ele>688.771758</ele>
        <time>2022-04-19T09:35:54.000Z</time>
      </trkpt>
      <trkpt lat="37.17498" lon="-3.59802">
        <ele>688.774268</ele>
        <time>2022-04-19T09:35:56.000Z</time>
      </trkpt>
      <trkpt lat="37.17494" lon="-3.59802">
        <ele>688.779849</ele>
        <time>2022-04-19T09:35:57.000Z</time>
      </trkpt>
      <trkpt lat="37.17491" lon="-3.59802">
        <ele>688.782943</ele>
        <time>2022-04-19T09:35:58.000Z</time>
      </trkpt>
      <trkpt lat="37.17494" lon="-3.59801">
        <ele>688.786798</ele>
        <time>2022-04-19T09:36:00.000Z</time>
      </trkpt>
      <trkpt lat="37.17496" lon="-3.59801">
        <ele>688.78906</ele>
        <time>2022-04-19T09:36:01.000Z</time>
      </trkpt>
      <trkpt lat="37.17497" lon="-3.59797">
        <ele>688.792592</ele>
        <time>2022-04-19T09:36:02.000Z</time>
      </trkpt>
      <trkpt lat="37.17499" lon="-3.59798">
        <ele>688.794991</ele>
        <time>2022-04-19T09:36:03.000Z</time>
      </trkpt>
      <trkpt lat="37.17504" lon="-3.59812">
        <ele>688.809801</ele>
        <time>2022-04-19T09:36:07.000Z</time>
      </trkpt>
      <trkpt lat="37.17505" lon="-3.59828">
        <ele>688.816664</ele>
        <time>2022-04-19T09:36:12.000Z</time>
      </trkpt>
      <trkpt lat="37.17506" lon="-3.59831">
        <ele>688.815431</ele>
        <time>2022-04-19T09:36:13.000Z</time>
      </trkpt>
      <trkpt lat="37.1751" lon="-3.5983">
        <ele>688.813101</ele>
        <time>2022-04-19T09:36:16.000Z</time>
      </trkpt>
      <trkpt lat="37.17511" lon="-3.59833">
        <ele>688.8119</ele>
        <time>2022-04-19T09:36:19.000Z</time>
      </trkpt>
      <trkpt lat="37.17511" lon="-3.59831">
        <ele>688.811275</ele>
        <time>2022-04-19T09:36:20.000Z</time>
      </trkpt>
      <trkpt lat="37.17512" lon="-3.5983">
        <ele>688.81052</ele>
        <time>2022-04-19T09:36:21.000Z</time>
      </trkpt>
      <trkpt lat="37.17509" lon="-3.598">
        <ele>688.797792</ele>
        <time>2022-04-19T09:36:23.000Z</time>
      </trkpt>
      <trkpt lat="37.17508" lon="-3.59797">
        <ele>688.796232</ele>
        <time>2022-04-19T09:36:24.000Z</time>
      </trkpt>
      <trkpt lat="37.17512" lon="-3.59807">
        <ele>688.791343</ele>
        <time>2022-04-19T09:36:29.000Z</time>
      </trkpt>
      <trkpt lat="37.17521" lon="-3.5981">
        <ele>688.786285</ele>
        <time>2022-04-19T09:36:33.000Z</time>
      </trkpt>
      <trkpt lat="37.17521" lon="-3.59812">
        <ele>688.78536</ele>
        <time>2022-04-19T09:36:35.000Z</time>
      </trkpt>
      <trkpt lat="37.17519" lon="-3.59814">
        <ele>688.784209</ele>
        <time>2022-04-19T09:36:37.000Z</time>
      </trkpt>
      <trkpt lat="37.1752" lon="-3.59815">
        <ele>688.78332</ele>
        <time>2022-04-19T09:36:39.000Z</time>
      </trkpt>
      <trkpt lat="37.1752" lon="-3.59815">
        <ele>688.783075</ele>
        <time>2022-04-19T09:36:40.000Z</time>
      </trkpt>
      <trkpt lat="37.1752" lon="-3.59817">
        <ele>688.782586</ele>
        <time>2022-04-19T09:36:41.000Z</time>
      </trkpt>
      <trkpt lat="37.17519" lon="-3.59817">
        <ele>688.782371</ele>
        <time>2022-04-19T09:36:43.000Z</time>
      </trkpt>
      <trkpt lat="37.17519" lon="-3.59818">
        <ele>688.781712</ele>
        <time>2022-04-19T09:36:46.000Z</time>
      </trkpt>
      <trkpt lat="37.17518" lon="-3.59819">
        <ele>688.781079</ele>
        <time>2022-04-19T09:36:47.000Z</time>
      </trkpt>
      <trkpt lat="37.17516" lon="-3.5982">
        <ele>688.780074</ele>
        <time>2022-04-19T09:36:49.000Z</time>
      </trkpt>
      <trkpt lat="37.17515" lon="-3.59821">
        <ele>688.779642</ele>
        <time>2022-04-19T09:36:50.000Z</time>
      </trkpt>
      <trkpt lat="37.17513" lon="-3.59819">
        <ele>688.778368</ele>
        <time>2022-04-19T09:36:52.000Z</time>
      </trkpt>
      <trkpt lat="37.17513" lon="-3.59813">
        <ele>688.776093</ele>
        <time>2022-04-19T09:36:55.000Z</time>
      </trkpt>
      <trkpt lat="37.17512" lon="-3.59811">
        <ele>688.775076</ele>
        <time>2022-04-19T09:36:56.000Z</time>
      </trkpt>
      <trkpt lat="37.17502" lon="-3.59801">
        <ele>688.768384</ele>
        <time>2022-04-19T09:37:01.000Z</time>
      </trkpt>
      <trkpt lat="37.17498" lon="-3.59797">
        <ele>688.765686</ele>
        <time>2022-04-19T09:37:03.000Z</time>
      </trkpt>
      <trkpt lat="37.17496" lon="-3.59798">
        <ele>688.764239</ele>
        <time>2022-04-19T09:37:06.000Z</time>
      </trkpt>
      <trkpt lat="37.17497" lon="-3.59802">
        <ele>688.762501</ele>
        <time>2022-04-19T09:37:07.000Z</time>
      </trkpt>
      <trkpt lat="37.17498" lon="-3.59806">
        <ele>688.760817</ele>
        <time>2022-04-19T09:37:09.000Z</time>
      </trkpt>
      <trkpt lat="37.17498" lon="-3.59807">
        <ele>688.760352</ele>
        <time>2022-04-19T09:37:11.000Z</time>
      </trkpt>
      <trkpt lat="37.17499" lon="-3.59806">
        <ele>688.759928</ele>
        <time>2022-04-19T09:37:15.000Z</time>
      </trkpt>
      <trkpt lat="37.17503" lon="-3.59808">
        <ele>688.757371</ele>
        <time>2022-04-19T09:37:20.000Z</time>
      </trkpt>
      <trkpt lat="37.17507" lon="-3.59807">
        <ele>688.755359</ele>
        <time>2022-04-19T09:37:24.000Z</time>
      </trkpt>
      <trkpt lat="37.17506" lon="-3.59807">
        <ele>688.754642</ele>
        <time>2022-04-19T09:37:26.000Z</time>
      </trkpt>
      <trkpt lat="37.17502" lon="-3.59808">
        <ele>688.752749</ele>
        <time>2022-04-19T09:37:29.000Z</time>
      </trkpt>
      <trkpt lat="37.17502" lon="-3.5981">
        <ele>688.751753</ele>
        <time>2022-04-19T09:37:30.000Z</time>
      </trkpt>
      <trkpt lat="37.175" lon="-3.59813">
        <ele>688.750256</ele>
        <time>2022-04-19T09:37:32.000Z</time>
      </trkpt>
      <trkpt lat="37.17499" lon="-3.59816">
        <ele>688.748858</ele>
        <time>2022-04-19T09:37:35.000Z</time>
      </trkpt>
      <trkpt lat="37.17498" lon="-3.59819">
        <ele>688.747606</ele>
        <time>2022-04-19T09:37:39.000Z</time>
      </trkpt>
      <trkpt lat="37.17498" lon="-3.59823">
        <ele>688.745586</ele>
        <time>2022-04-19T09:37:45.000Z</time>
      </trkpt>
      <trkpt lat="37.17497" lon="-3.59823">
        <ele>688.744829</ele>
        <time>2022-04-19T09:37:46.000Z</time>
      </trkpt>
      <trkpt lat="37.17497" lon="-3.59822">
        <ele>688.744336</ele>
        <time>2022-04-19T09:37:48.000Z</time>
      </trkpt>
      <trkpt lat="37.17498" lon="-3.59822">
        <ele>688.744121</ele>
        <time>2022-04-19T09:37:49.000Z</time>
      </trkpt>
      <trkpt lat="37.175" lon="-3.59821">
        <ele>688.743034</ele>
        <time>2022-04-19T09:37:51.000Z</time>
      </trkpt>
      <trkpt lat="37.17501" lon="-3.59821">
        <ele>688.742137</ele>
        <time>2022-04-19T09:37:52.000Z</time>
      </trkpt>
      <trkpt lat="37.17504" lon="-3.59819">
        <ele>688.740418</ele>
        <time>2022-04-19T09:37:55.000Z</time>
      </trkpt>
      <trkpt lat="37.17503" lon="-3.5982">
        <ele>688.739658</ele>
        <time>2022-04-19T09:37:57.000Z</time>
      </trkpt>
      <trkpt lat="37.17501" lon="-3.59821">
        <ele>688.7386</ele>
        <time>2022-04-19T09:37:59.000Z</time>
      </trkpt>
      <trkpt lat="37.17505" lon="-3.5981">
        <ele>688.733694</ele>
        <time>2022-04-19T09:38:02.000Z</time>
      </trkpt>
      <trkpt lat="37.17508" lon="-3.59808">
        <ele>688.731682</ele>
        <time>2022-04-19T09:38:03.000Z</time>
      </trkpt>
      <trkpt lat="37.17508" lon="-3.59806">
        <ele>688.731208</ele>
        <time>2022-04-19T09:38:04.000Z</time>
      </trkpt>
      <trkpt lat="37.17507" lon="-3.59808">
        <ele>688.730411</ele>
        <time>2022-04-19T09:38:06.000Z</time>
      </trkpt>
      <trkpt lat="37.17509" lon="-3.59816">
        <ele>688.727013</ele>
        <time>2022-04-19T09:38:09.000Z</time>
      </trkpt>
      <trkpt lat="37.17508" lon="-3.59815">
        <ele>688.726797</ele>
        <time>2022-04-19T09:38:11.000Z</time>
      </trkpt>
      <trkpt lat="37.17506" lon="-3.59817">
        <ele>688.725344</ele>
        <time>2022-04-19T09:38:13.000Z</time>
      </trkpt>
      <trkpt lat="37.17505" lon="-3.59819">
        <ele>688.724323</ele>
        <time>2022-04-19T09:38:15.000Z</time>
      </trkpt>
      <trkpt lat="37.17514" lon="-3.59823">
        <ele>688.672292</ele>
        <time>2022-04-19T09:38:19.000Z</time>
      </trkpt>
      <trkpt lat="37.17516" lon="-3.59825">
        <ele>688.659175</ele>
        <time>2022-04-19T09:38:20.000Z</time>
      </trkpt>
      <trkpt lat="37.17517" lon="-3.59827">
        <ele>688.649726</ele>
        <time>2022-04-19T09:38:23.000Z</time>
      </trkpt>
      <trkpt lat="37.17513" lon="-3.59828">
        <ele>688.626158</ele>
        <time>2022-04-19T09:38:24.000Z</time>
      </trkpt>
      <trkpt lat="37.17512" lon="-3.59837">
        <ele>688.58914</ele>
        <time>2022-04-19T09:38:30.000Z</time>
      </trkpt>
      <trkpt lat="37.17509" lon="-3.59834">
        <ele>688.566265</ele>
        <time>2022-04-19T09:38:31.000Z</time>
      </trkpt>
      <trkpt lat="37.17509" lon="-3.59825">
        <ele>688.530106</ele>
        <time>2022-04-19T09:38:34.000Z</time>
      </trkpt>
      <trkpt lat="37.17511" lon="-3.59824">
        <ele>688.515998</ele>
        <time>2022-04-19T09:38:35.000Z</time>
      </trkpt>
      <trkpt lat="37.17513" lon="-3.59824">
        <ele>688.506574</ele>
        <time>2022-04-19T09:38:36.000Z</time>
      </trkpt>
      <trkpt lat="37.17513" lon="-3.59831">
        <ele>688.47382</ele>
        <time>2022-04-19T09:38:38.000Z</time>
      </trkpt>
      <trkpt lat="37.17512" lon="-3.59834">
        <ele>688.459398</ele>
        <time>2022-04-19T09:38:39.000Z</time>
      </trkpt>
      <trkpt lat="37.17507" lon="-3.5984">
        <ele>688.422663</ele>
        <time>2022-04-19T09:38:43.000Z</time>
      </trkpt>
      <trkpt lat="37.17506" lon="-3.5984">
        <ele>688.418088</ele>
        <time>2022-04-19T09:38:46.000Z</time>
      </trkpt>
      <trkpt lat="37.17508" lon="-3.59838">
        <ele>688.406357</ele>
        <time>2022-04-19T09:38:49.000Z</time>
      </trkpt>
      <trkpt lat="37.17506" lon="-3.59841">
        <ele>688.394892</ele>
        <time>2022-04-19T09:38:51.000Z</time>
      </trkpt>
      <trkpt lat="37.17508" lon="-3.59842">
        <ele>688.38247</ele>
        <time>2022-04-19T09:38:55.000Z</time>
      </trkpt>
      <trkpt lat="37.17507" lon="-3.5984">
        <ele>688.36933</ele>
        <time>2022-04-19T09:38:58.000Z</time>
      </trkpt>
      <trkpt lat="37.17504" lon="-3.59837">
        <ele>688.348519</ele>
        <time>2022-04-19T09:39:01.000Z</time>
      </trkpt>
      <trkpt lat="37.17504" lon="-3.59832">
        <ele>688.32744</ele>
        <time>2022-04-19T09:39:08.000Z</time>
      </trkpt>
      <trkpt lat="37.17505" lon="-3.59827">
        <ele>688.301921</ele>
        <time>2022-04-19T09:39:11.000Z</time>
      </trkpt>
      <trkpt lat="37.17506" lon="-3.59823">
        <ele>688.283724</ele>
        <time>2022-04-19T09:39:13.000Z</time>
      </trkpt>
      <trkpt lat="37.17505" lon="-3.59824">
        <ele>688.274935</ele>
        <time>2022-04-19T09:39:16.000Z</time>
      </trkpt>
      <trkpt lat="37.17506" lon="-3.59823">
        <ele>688.264835</ele>
        <time>2022-04-19T09:39:20.000Z</time>
      </trkpt>
      <trkpt lat="37.17504" lon="-3.59822">
        <ele>688.251854</ele>
        <time>2022-04-19T09:39:26.000Z</time>
      </trkpt>
      <trkpt lat="37.17501" lon="-3.59824">
        <ele>688.233263</ele>
        <time>2022-04-19T09:39:32.000Z</time>
      </trkpt>
      <trkpt lat="37.175" lon="-3.59828">
        <ele>688.21727</ele>
        <time>2022-04-19T09:39:39.000Z</time>
      </trkpt>
      <trkpt lat="37.175" lon="-3.59829">
        <ele>688.211225</ele>
        <time>2022-04-19T09:39:43.000Z</time>
      </trkpt>
      <trkpt lat="37.17498" lon="-3.5983">
        <ele>688.196274</ele>
        <time>2022-04-19T09:39:49.000Z</time>
      </trkpt>
      <trkpt lat="37.17497" lon="-3.59828">
        <ele>688.184244</ele>
        <time>2022-04-19T09:39:54.000Z</time>
      </trkpt>
      <trkpt lat="37.17498" lon="-3.59824">
        <ele>688.167859</ele>
        <time>2022-04-19T09:39:58.000Z</time>
      </trkpt>
      <trkpt lat="37.17499" lon="-3.59824">
        <ele>688.160717</ele>
        <time>2022-04-19T09:39:59.000Z</time>
      </trkpt>
      <trkpt lat="37.175" lon="-3.59812">
        <ele>688.110786</ele>
        <time>2022-04-19T09:41:42.000Z</time>
      </trkpt>
      <trkpt lat="37.17492" lon="-3.5981">
        <ele>688.066675</ele>
        <time>2022-04-19T09:41:48.000Z</time>
      </trkpt>
      <trkpt lat="37.17491" lon="-3.5981">
        <ele>688.064474</ele>
        <time>2022-04-19T09:41:50.000Z</time>
      </trkpt>
      <trkpt lat="37.17491" lon="-3.59811">
        <ele>688.061034</ele>
        <time>2022-04-19T09:41:51.000Z</time>
      </trkpt>
      <trkpt lat="37.17486" lon="-3.59813">
        <ele>688.033996</ele>
        <time>2022-04-19T09:41:54.000Z</time>
      </trkpt>
      <trkpt lat="37.1749" lon="-3.5981">
        <ele>688.01287</ele>
        <time>2022-04-19T09:41:56.000Z</time>
      </trkpt>
      <trkpt lat="37.17491" lon="-3.59811">
        <ele>688.006465</ele>
        <time>2022-04-19T09:41:57.000Z</time>
      </trkpt>
      <trkpt lat="37.175" lon="-3.59808">
        <ele>687.953679</ele>
        <time>2022-04-19T09:41:59.000Z</time>
      </trkpt>
      <trkpt lat="37.17513" lon="-3.59814">
        <ele>687.87617</ele>
        <time>2022-04-19T09:42:32.000Z</time>
      </trkpt>
      <trkpt lat="37.17508" lon="-3.59828">
        <ele>687.812376</ele>
        <time>2022-04-19T09:42:34.000Z</time>
      </trkpt>
      <trkpt lat="37.17506" lon="-3.59835">
        <ele>687.780397</ele>
        <time>2022-04-19T09:42:38.000Z</time>
      </trkpt>
      <trkpt lat="37.17507" lon="-3.59836">
        <ele>687.773617</ele>
        <time>2022-04-19T09:42:39.000Z</time>
      </trkpt>
      <trkpt lat="37.17511" lon="-3.59839">
        <ele>687.746117</ele>
        <time>2022-04-19T09:42:42.000Z</time>
      </trkpt>
      <trkpt lat="37.17515" lon="-3.59843">
        <ele>687.699786</ele>
        <time>2022-04-19T09:42:47.000Z</time>
      </trkpt>
      <trkpt lat="37.17518" lon="-3.59841">
        <ele>687.665133</ele>
        <time>2022-04-19T09:42:53.000Z</time>
      </trkpt>
      <trkpt lat="37.17518" lon="-3.59844">
        <ele>687.640639</ele>
        <time>2022-04-19T09:42:56.000Z</time>
      </trkpt>
      <trkpt lat="37.17519" lon="-3.59844">
        <ele>687.626377</ele>
        <time>2022-04-19T09:42:59.000Z</time>
      </trkpt>
      <trkpt lat="37.1752" lon="-3.59845">
        <ele>687.61486</ele>
        <time>2022-04-19T09:43:05.000Z</time>
      </trkpt>
      <trkpt lat="37.1752" lon="-3.59845">
        <ele>687.61486</ele>
        <time>2022-04-19T09:43:09.000Z</time>
      </trkpt>
      <trkpt lat="37.1752" lon="-3.59846">
        <ele>687.607148</ele>
        <time>2022-04-19T09:43:16.000Z</time>
      </trkpt>
      <trkpt lat="37.17521" lon="-3.59845">
        <ele>687.600447</ele>
        <time>2022-04-19T09:43:18.000Z</time>
      </trkpt>
      <trkpt lat="37.1752" lon="-3.59845">
        <ele>687.593943</ele>
        <time>2022-04-19T09:43:29.000Z</time>
      </trkpt>
      <trkpt lat="37.17521" lon="-3.59845">
        <ele>687.590249</ele>
        <time>2022-04-19T09:43:33.000Z</time>
      </trkpt>
      <trkpt lat="37.17522" lon="-3.59846">
        <ele>687.581969</ele>
        <time>2022-04-19T09:43:35.000Z</time>
      </trkpt>
      <trkpt lat="37.17521" lon="-3.59845">
        <ele>687.574579</ele>
        <time>2022-04-19T09:43:37.000Z</time>
      </trkpt>
      <trkpt lat="37.17521" lon="-3.59845">
        <ele>687.573421</ele>
        <time>2022-04-19T09:43:38.000Z</time>
      </trkpt>
      <trkpt lat="37.17521" lon="-3.59847">
        <ele>687.561317</ele>
        <time>2022-04-19T09:43:42.000Z</time>
      </trkpt>
      <trkpt lat="37.17525" lon="-3.59848">
        <ele>687.526511</ele>
        <time>2022-04-19T09:43:45.000Z</time>
      </trkpt>
      <trkpt lat="37.17527" lon="-3.5985">
        <ele>687.505403</ele>
        <time>2022-04-19T09:43:48.000Z</time>
      </trkpt>
      <trkpt lat="37.17526" lon="-3.59852">
        <ele>687.493713</ele>
        <time>2022-04-19T09:43:51.000Z</time>
      </trkpt>
      <trkpt lat="37.1753" lon="-3.59862">
        <ele>687.412529</ele>
        <time>2022-04-19T09:43:58.000Z</time>
      </trkpt>
      <trkpt lat="37.17531" lon="-3.59864">
        <ele>687.393782</ele>
        <time>2022-04-19T09:43:59.000Z</time>
      </trkpt>
      <trkpt lat="37.17532" lon="-3.59866">
        <ele>687.377629</ele>
        <time>2022-04-19T09:44:00.000Z</time>
      </trkpt>
      <trkpt lat="37.17531" lon="-3.59869">
        <ele>687.35782</ele>
        <time>2022-04-19T09:44:01.000Z</time>
      </trkpt>
      <trkpt lat="37.17529" lon="-3.59871">
        <ele>687.335356</ele>
        <time>2022-04-19T09:44:03.000Z</time>
      </trkpt>
      <trkpt lat="37.17528" lon="-3.59872">
        <ele>687.324491</ele>
        <time>2022-04-19T09:44:04.000Z</time>
      </trkpt>
      <trkpt lat="37.17526" lon="-3.59872">
        <ele>687.302558</ele>
        <time>2022-04-19T09:44:08.000Z</time>
      </trkpt>
      <trkpt lat="37.17526" lon="-3.59872">
        <ele>687.298593</ele>
        <time>2022-04-19T09:44:09.000Z</time>
      </trkpt>
      <trkpt lat="37.17527" lon="-3.59871">
        <ele>687.291808</ele>
        <time>2022-04-19T09:44:13.000Z</time>
      </trkpt>
      <trkpt lat="37.17528" lon="-3.59869">
        <ele>687.276554</ele>
        <time>2022-04-19T09:44:19.000Z</time>
      </trkpt>
      <trkpt lat="37.17535" lon="-3.59871">
        <ele>687.20986</ele>
        <time>2022-04-19T09:44:26.000Z</time>
      </trkpt>
      <trkpt lat="37.17533" lon="-3.59874">
        <ele>687.181069</ele>
        <time>2022-04-19T09:44:33.000Z</time>
      </trkpt>
      <trkpt lat="37.17532" lon="-3.59873">
        <ele>687.169204</ele>
        <time>2022-04-19T09:44:34.000Z</time>
      </trkpt>
      <trkpt lat="37.17528" lon="-3.59875">
        <ele>687.132035</ele>
        <time>2022-04-19T09:44:38.000Z</time>
      </trkpt>
      <trkpt lat="37.17522" lon="-3.59877">
        <ele>687.080823</ele>
        <time>2022-04-19T09:44:42.000Z</time>
      </trkpt>
      <trkpt lat="37.17521" lon="-3.59879">
        <ele>687.066108</ele>
        <time>2022-04-19T09:44:44.000Z</time>
      </trkpt>
      <trkpt lat="37.17521" lon="-3.5988">
        <ele>687.056376</ele>
        <time>2022-04-19T09:44:45.000Z</time>
      </trkpt>
      <trkpt lat="37.17519" lon="-3.59882">
        <ele>687.035128</ele>
        <time>2022-04-19T09:44:48.000Z</time>
      </trkpt>
      <trkpt lat="37.17518" lon="-3.59882">
        <ele>687.023674</ele>
        <time>2022-04-19T09:44:50.000Z</time>
      </trkpt>
      <trkpt lat="37.17519" lon="-3.59885">
        <ele>686.998265</ele>
        <time>2022-04-19T09:44:52.000Z</time>
      </trkpt>
      <trkpt lat="37.17518" lon="-3.59887">
        <ele>686.982497</ele>
        <time>2022-04-19T09:44:53.000Z</time>
      </trkpt>
      <trkpt lat="37.17514" lon="-3.5989">
        <ele>686.941691</ele>
        <time>2022-04-19T09:44:55.000Z</time>
      </trkpt>
      <trkpt lat="37.17511" lon="-3.5989">
        <ele>686.916851</ele>
        <time>2022-04-19T09:44:58.000Z</time>
      </trkpt>
      <trkpt lat="37.17511" lon="-3.59894">
        <ele>686.890851</ele>
        <time>2022-04-19T09:45:00.000Z</time>
      </trkpt>
      <trkpt lat="37.17511" lon="-3.59898">
        <ele>686.85904</ele>
        <time>2022-04-19T09:45:02.000Z</time>
      </trkpt>
      <trkpt lat="37.17509" lon="-3.599">
        <ele>686.829064</ele>
        <time>2022-04-19T09:45:04.000Z</time>
      </trkpt>
      <trkpt lat="37.17505" lon="-3.59904">
        <ele>686.786912</ele>
        <time>2022-04-19T09:45:07.000Z</time>
      </trkpt>
      <trkpt lat="37.17503" lon="-3.59904">
        <ele>686.76946</ele>
        <time>2022-04-19T09:45:08.000Z</time>
      </trkpt>
      <trkpt lat="37.17501" lon="-3.5991">
        <ele>686.726325</ele>
        <time>2022-04-19T09:45:11.000Z</time>
      </trkpt>
      <trkpt lat="37.17501" lon="-3.59912">
        <ele>686.709699</ele>
        <time>2022-04-19T09:45:12.000Z</time>
      </trkpt>
      <trkpt lat="37.17501" lon="-3.59917">
        <ele>686.67433</ele>
        <time>2022-04-19T09:45:14.000Z</time>
      </trkpt>
      <trkpt lat="37.17499" lon="-3.59922">
        <ele>686.632001</ele>
        <time>2022-04-19T09:45:17.000Z</time>
      </trkpt>
      <trkpt lat="37.175" lon="-3.59924">
        <ele>686.613469</ele>
        <time>2022-04-19T09:45:18.000Z</time>
      </trkpt>
      <trkpt lat="37.17504" lon="-3.59927">
        <ele>686.570498</ele>
        <time>2022-04-19T09:45:21.000Z</time>
      </trkpt>
      <trkpt lat="37.17504" lon="-3.5993">
        <ele>686.548104</ele>
        <time>2022-04-19T09:45:22.000Z</time>
      </trkpt>
      <trkpt lat="37.17505" lon="-3.59935">
        <ele>686.513878</ele>
        <time>2022-04-19T09:45:24.000Z</time>
      </trkpt>
      <trkpt lat="37.17508" lon="-3.59941">
        <ele>686.463549</ele>
        <time>2022-04-19T09:45:27.000Z</time>
      </trkpt>
      <trkpt lat="37.17509" lon="-3.59942">
        <ele>686.446873</ele>
        <time>2022-04-19T09:45:28.000Z</time>
      </trkpt>
      <trkpt lat="37.1751" lon="-3.59945">
        <ele>686.426865</ele>
        <time>2022-04-19T09:45:30.000Z</time>
      </trkpt>
      <trkpt lat="37.1751" lon="-3.59947">
        <ele>686.408617</ele>
        <time>2022-04-19T09:45:32.000Z</time>
      </trkpt>
      <trkpt lat="37.17509" lon="-3.59951">
        <ele>686.383289</ele>
        <time>2022-04-19T09:45:34.000Z</time>
      </trkpt>
      <trkpt lat="37.17515" lon="-3.59952">
        <ele>686.334225</ele>
        <time>2022-04-19T09:45:36.000Z</time>
      </trkpt>
      <trkpt lat="37.17521" lon="-3.59958">
        <ele>686.262055</ele>
        <time>2022-04-19T09:45:41.000Z</time>
      </trkpt>
      <trkpt lat="37.17523" lon="-3.59963">
        <ele>686.221673</ele>
        <time>2022-04-19T09:45:46.000Z</time>
      </trkpt>
      <trkpt lat="37.17522" lon="-3.59963">
        <ele>686.206546</ele>
        <time>2022-04-19T09:45:52.000Z</time>
      </trkpt>
      <trkpt lat="37.17523" lon="-3.59963">
        <ele>686.198361</ele>
        <time>2022-04-19T09:45:57.000Z</time>
      </trkpt>
      <trkpt lat="37.17524" lon="-3.59966">
        <ele>686.178999</ele>
        <time>2022-04-19T09:46:04.000Z</time>
      </trkpt>
      <trkpt lat="37.17522" lon="-3.59972">
        <ele>686.131387</ele>
        <time>2022-04-19T09:46:14.000Z</time>
      </trkpt>
      <trkpt lat="37.1752" lon="-3.59969">
        <ele>686.131175</ele>
        <time>2022-04-19T09:46:22.000Z</time>
      </trkpt>
      <trkpt lat="37.17519" lon="-3.59968">
        <ele>686.13915</ele>
        <time>2022-04-19T09:46:37.000Z</time>
      </trkpt>
      <trkpt lat="37.17518" lon="-3.59967">
        <ele>686.14436</ele>
        <time>2022-04-19T09:46:44.000Z</time>
      </trkpt>
      <trkpt lat="37.17518" lon="-3.59966">
        <ele>686.147994</ele>
        <time>2022-04-19T09:47:00.000Z</time>
      </trkpt>
      <trkpt lat="37.17518" lon="-3.59965">
        <ele>686.151747</ele>
        <time>2022-04-19T09:47:01.000Z</time>
      </trkpt>
      <trkpt lat="37.17519" lon="-3.59964">
        <ele>686.1596</ele>
        <time>2022-04-19T09:47:06.000Z</time>
      </trkpt>
      <trkpt lat="37.17519" lon="-3.59963">
        <ele>686.161105</ele>
        <time>2022-04-19T09:47:14.000Z</time>
      </trkpt>
      <trkpt lat="37.17519" lon="-3.59964">
        <ele>686.164115</ele>
        <time>2022-04-19T09:47:16.000Z</time>
      </trkpt>
      <trkpt lat="37.17518" lon="-3.59963">
        <ele>686.167173</ele>
        <time>2022-04-19T09:47:23.000Z</time>
      </trkpt>
      <trkpt lat="37.17519" lon="-3.59961">
        <ele>686.174733</ele>
        <time>2022-04-19T09:47:41.000Z</time>
      </trkpt>
      <trkpt lat="37.17519" lon="-3.59961">
        <ele>686.174733</ele>
        <time>2022-04-19T09:47:44.000Z</time>
      </trkpt>
      <trkpt lat="37.17518" lon="-3.59963">
        <ele>686.181346</ele>
        <time>2022-04-19T09:47:48.000Z</time>
      </trkpt>
      <trkpt lat="37.17518" lon="-3.59964">
        <ele>686.184461</ele>
        <time>2022-04-19T09:47:55.000Z</time>
      </trkpt>
      <trkpt lat="37.17518" lon="-3.59964">
        <ele>686.186995</ele>
        <time>2022-04-19T09:48:00.000Z</time>
      </trkpt>
      <trkpt lat="37.17517" lon="-3.59966">
        <ele>686.193447</ele>
        <time>2022-04-19T09:48:04.000Z</time>
      </trkpt>
      <trkpt lat="37.1752" lon="-3.59969">
        <ele>686.212506</ele>
        <time>2022-04-19T09:48:35.000Z</time>
      </trkpt>
      <trkpt lat="37.17526" lon="-3.59965">
        <ele>686.242502</ele>
        <time>2022-04-19T09:48:45.000Z</time>
      </trkpt>
      <trkpt lat="37.17527" lon="-3.59965">
        <ele>686.248443</ele>
        <time>2022-04-19T09:49:00.000Z</time>
      </trkpt>
      <trkpt lat="37.17527" lon="-3.59963">
        <ele>686.252703</ele>
        <time>2022-04-19T09:49:28.000Z</time>
      </trkpt>
      <trkpt lat="37.17525" lon="-3.59963">
        <ele>686.26043</ele>
        <time>2022-04-19T09:49:34.000Z</time>
      </trkpt>
      <trkpt lat="37.17524" lon="-3.59962">
        <ele>686.266569</ele>
        <time>2022-04-19T09:49:38.000Z</time>
      </trkpt>
      <trkpt lat="37.17524" lon="-3.59962">
        <ele>686.268682</ele>
        <time>2022-04-19T09:49:40.000Z</time>
      </trkpt>
      <trkpt lat="37.17524" lon="-3.59961">
        <ele>686.270761</ele>
        <time>2022-04-19T09:49:42.000Z</time>
      </trkpt>
      <trkpt lat="37.17523" lon="-3.59961">
        <ele>686.273487</ele>
        <time>2022-04-19T09:49:45.000Z</time>
      </trkpt>
      <trkpt lat="37.17523" lon="-3.5996">
        <ele>686.2751</ele>
        <time>2022-04-19T09:49:49.000Z</time>
      </trkpt>
      <trkpt lat="37.17522" lon="-3.59961">
        <ele>686.280288</ele>
        <time>2022-04-19T09:49:57.000Z</time>
      </trkpt>
      <trkpt lat="37.17521" lon="-3.59963">
        <ele>686.28808</ele>
        <time>2022-04-19T09:50:13.000Z</time>
      </trkpt>
      <trkpt lat="37.17521" lon="-3.59964">
        <ele>686.292385</ele>
        <time>2022-04-19T09:50:21.000Z</time>
      </trkpt>
      <trkpt lat="37.17518" lon="-3.5997">
        <ele>686.320587</ele>
        <time>2022-04-19T09:50:36.000Z</time>
      </trkpt>
      <trkpt lat="37.17518" lon="-3.59971">
        <ele>686.324083</ele>
        <time>2022-04-19T09:50:39.000Z</time>
      </trkpt>
      <trkpt lat="37.17518" lon="-3.59971">
        <ele>686.3259</ele>
        <time>2022-04-19T09:50:42.000Z</time>
      </trkpt>
      <trkpt lat="37.17517" lon="-3.59972">
        <ele>686.328626</ele>
        <time>2022-04-19T09:50:44.000Z</time>
      </trkpt>
      <trkpt lat="37.17517" lon="-3.59973">
        <ele>686.334742</ele>
        <time>2022-04-19T09:50:48.000Z</time>
      </trkpt>
      <trkpt lat="37.17513" lon="-3.59977">
        <ele>686.355975</ele>
        <time>2022-04-19T09:50:57.000Z</time>
      </trkpt>
      <trkpt lat="37.1751" lon="-3.59981">
        <ele>686.379306</ele>
        <time>2022-04-19T09:51:09.000Z</time>
      </trkpt>
      <trkpt lat="37.17505" lon="-3.59987">
        <ele>686.411008</ele>
        <time>2022-04-19T09:51:21.000Z</time>
      </trkpt>
      <trkpt lat="37.17505" lon="-3.59987">
        <ele>686.414095</ele>
        <time>2022-04-19T09:51:22.000Z</time>
      </trkpt>
      <trkpt lat="37.17504" lon="-3.59988">
        <ele>686.417573</ele>
        <time>2022-04-19T09:51:23.000Z</time>
      </trkpt>
      <trkpt lat="37.17502" lon="-3.59989">
        <ele>686.426776</ele>
        <time>2022-04-19T09:51:26.000Z</time>
      </trkpt>
      <trkpt lat="37.17496" lon="-3.59989">
        <ele>686.458703</ele>
        <time>2022-04-19T09:51:33.000Z</time>
      </trkpt>
      <trkpt lat="37.17497" lon="-3.59987">
        <ele>686.467877</ele>
        <time>2022-04-19T09:51:39.000Z</time>
      </trkpt>
      <trkpt lat="37.17505" lon="-3.59989">
        <ele>686.509437</ele>
        <time>2022-04-19T09:51:52.000Z</time>
      </trkpt>
      <trkpt lat="37.17505" lon="-3.59988">
        <ele>686.512839</ele>
        <time>2022-04-19T09:51:59.000Z</time>
      </trkpt>
      <trkpt lat="37.17505" lon="-3.59983">
        <ele>686.534197</ele>
        <time>2022-04-19T09:52:06.000Z</time>
      </trkpt>
      <trkpt lat="37.17506" lon="-3.59979">
        <ele>686.550057</ele>
        <time>2022-04-19T09:52:14.000Z</time>
      </trkpt>
      <trkpt lat="37.17506" lon="-3.59979">
        <ele>686.550057</ele>
        <time>2022-04-19T09:52:22.000Z</time>
      </trkpt>
      <trkpt lat="37.17508" lon="-3.59979">
        <ele>686.555382</ele>
        <time>2022-04-19T09:52:27.000Z</time>
      </trkpt>
      <trkpt lat="37.1751" lon="-3.59977">
        <ele>686.569732</ele>
        <time>2022-04-19T09:52:34.000Z</time>
      </trkpt>
      <trkpt lat="37.1752" lon="-3.59965">
        <ele>686.634515</ele>
        <time>2022-04-19T09:52:47.000Z</time>
      </trkpt>
      <trkpt lat="37.17522" lon="-3.59963">
        <ele>686.646863</ele>
        <time>2022-04-19T09:52:53.000Z</time>
      </trkpt>
      <trkpt lat="37.17523" lon="-3.59962">
        <ele>686.652419</ele>
        <time>2022-04-19T09:52:54.000Z</time>
      </trkpt>
      <trkpt lat="37.17522" lon="-3.59964">
        <ele>686.659644</ele>
        <time>2022-04-19T09:52:58.000Z</time>
      </trkpt>
      <trkpt lat="37.17522" lon="-3.59964">
        <ele>686.66237</ele>
        <time>2022-04-19T09:53:00.000Z</time>
      </trkpt>
      <trkpt lat="37.17522" lon="-3.59965">
        <ele>686.665964</ele>
        <time>2022-04-19T09:53:01.000Z</time>
      </trkpt>
      <trkpt lat="37.17521" lon="-3.59966">
        <ele>686.669305</ele>
        <time>2022-04-19T09:53:02.000Z</time>
      </trkpt>
      <trkpt lat="37.17519" lon="-3.59968">
        <ele>686.682146</ele>
        <time>2022-04-19T09:53:06.000Z</time>
      </trkpt>
      <trkpt lat="37.17516" lon="-3.59971">
        <ele>686.701048</ele>
        <time>2022-04-19T09:53:11.000Z</time>
      </trkpt>
      <trkpt lat="37.17516" lon="-3.59971">
        <ele>686.703356</ele>
        <time>2022-04-19T09:53:12.000Z</time>
      </trkpt>
      <trkpt lat="37.17515" lon="-3.59967">
        <ele>686.71731</ele>
        <time>2022-04-19T09:53:18.000Z</time>
      </trkpt>
      <trkpt lat="37.17515" lon="-3.59968">
        <ele>686.718809</ele>
        <time>2022-04-19T09:53:19.000Z</time>
      </trkpt>
      <trkpt lat="37.17514" lon="-3.59969">
        <ele>686.726939</ele>
        <time>2022-04-19T09:53:25.000Z</time>
      </trkpt>
      <trkpt lat="37.17513" lon="-3.5997">
        <ele>686.730828</ele>
        <time>2022-04-19T09:53:31.000Z</time>
      </trkpt>
      <trkpt lat="37.17514" lon="-3.5997">
        <ele>686.735174</ele>
        <time>2022-04-19T09:53:43.000Z</time>
      </trkpt>
      <trkpt lat="37.17514" lon="-3.5997">
        <ele>686.736083</ele>
        <time>2022-04-19T09:53:50.000Z</time>
      </trkpt>
      <trkpt lat="37.17515" lon="-3.59973">
        <ele>686.749105</ele>
        <time>2022-04-19T09:53:58.000Z</time>
      </trkpt>
      <trkpt lat="37.17515" lon="-3.59973">
        <ele>686.749105</ele>
        <time>2022-04-19T09:54:01.000Z</time>
      </trkpt>
      <trkpt lat="37.17515" lon="-3.59973">
        <ele>686.749105</ele>
        <time>2022-04-19T09:54:04.000Z</time>
      </trkpt>
      <trkpt lat="37.17515" lon="-3.59972">
        <ele>686.755055</ele>
        <time>2022-04-19T09:54:09.000Z</time>
      </trkpt>
      <trkpt lat="37.17516" lon="-3.59971">
        <ele>686.760472</ele>
        <time>2022-04-19T09:54:13.000Z</time>
      </trkpt>
      <trkpt lat="37.17516" lon="-3.59971">
        <ele>686.762084</ele>
        <time>2022-04-19T09:54:17.000Z</time>
      </trkpt>
      <trkpt lat="37.17517" lon="-3.5997">
        <ele>686.767282</ele>
        <time>2022-04-19T09:54:30.000Z</time>
      </trkpt>
      <trkpt lat="37.17517" lon="-3.5997">
        <ele>686.769361</ele>
        <time>2022-04-19T09:54:36.000Z</time>
      </trkpt>
      <trkpt lat="37.17517" lon="-3.5997">
        <ele>686.769844</ele>
        <time>2022-04-19T09:54:38.000Z</time>
      </trkpt>
      <trkpt lat="37.17518" lon="-3.5997">
        <ele>686.77081</ele>
        <time>2022-04-19T09:54:41.000Z</time>
      </trkpt>
      <trkpt lat="37.17522" lon="-3.5997">
        <ele>686.793034</ele>
        <time>2022-04-19T09:55:00.000Z</time>
      </trkpt>
      <trkpt lat="37.17523" lon="-3.59969">
        <ele>686.799826</ele>
        <time>2022-04-19T09:55:03.000Z</time>
      </trkpt>
      <trkpt lat="37.17524" lon="-3.59973">
        <ele>686.814831</ele>
        <time>2022-04-19T09:55:09.000Z</time>
      </trkpt>
      <trkpt lat="37.17523" lon="-3.59978">
        <ele>686.831931</ele>
        <time>2022-04-19T09:55:16.000Z</time>
      </trkpt>
      <trkpt lat="37.17521" lon="-3.59977">
        <ele>686.845939</ele>
        <time>2022-04-19T09:55:22.000Z</time>
      </trkpt>
      <trkpt lat="37.17521" lon="-3.59978">
        <ele>686.849556</ele>
        <time>2022-04-19T09:55:23.000Z</time>
      </trkpt>
      <trkpt lat="37.17521" lon="-3.59979">
        <ele>686.852672</ele>
        <time>2022-04-19T09:55:27.000Z</time>
      </trkpt>
      <trkpt lat="37.17521" lon="-3.59979">
        <ele>686.852672</ele>
        <time>2022-04-19T09:55:32.000Z</time>
      </trkpt>
      <trkpt lat="37.17519" lon="-3.5998">
        <ele>686.861907</ele>
        <time>2022-04-19T09:55:39.000Z</time>
      </trkpt>
      <trkpt lat="37.17517" lon="-3.59983">
        <ele>686.878961</ele>
        <time>2022-04-19T09:55:44.000Z</time>
      </trkpt>
      <trkpt lat="37.17517" lon="-3.59986">
        <ele>686.889733</ele>
        <time>2022-04-19T09:55:49.000Z</time>
      </trkpt>
      <trkpt lat="37.17521" lon="-3.59983">
        <ele>686.912458</ele>
        <time>2022-04-19T09:55:54.000Z</time>
      </trkpt>
      <trkpt lat="37.17521" lon="-3.59983">
        <ele>686.913498</ele>
        <time>2022-04-19T09:55:55.000Z</time>
      </trkpt>
      <trkpt lat="37.17521" lon="-3.59983">
        <ele>686.913498</ele>
        <time>2022-04-19T09:56:00.000Z</time>
      </trkpt>
      <trkpt lat="37.17523" lon="-3.59983">
        <ele>686.921233</ele>
        <time>2022-04-19T09:56:05.000Z</time>
      </trkpt>
      <trkpt lat="37.17523" lon="-3.59983">
        <ele>686.923202</ele>
        <time>2022-04-19T09:56:06.000Z</time>
      </trkpt>
      <trkpt lat="37.17523" lon="-3.59983">
        <ele>686.924242</ele>
        <time>2022-04-19T09:56:07.000Z</time>
      </trkpt>
      <trkpt lat="37.17524" lon="-3.59983">
        <ele>686.930347</ele>
        <time>2022-04-19T09:56:11.000Z</time>
      </trkpt>
      <trkpt lat="37.17527" lon="-3.5998">
        <ele>686.949865</ele>
        <time>2022-04-19T09:56:17.000Z</time>
      </trkpt>
      <trkpt lat="37.17527" lon="-3.5998">
        <ele>686.9511</ele>
        <time>2022-04-19T09:56:19.000Z</time>
      </trkpt>
      <trkpt lat="37.17527" lon="-3.5998">
        <ele>686.9511</ele>
        <time>2022-04-19T09:56:28.000Z</time>
      </trkpt>
      <trkpt lat="37.17529" lon="-3.59979">
        <ele>686.958383</ele>
        <time>2022-04-19T09:56:39.000Z</time>
      </trkpt>
      <trkpt lat="37.17529" lon="-3.59979">
        <ele>686.959001</ele>
        <time>2022-04-19T09:56:40.000Z</time>
      </trkpt>
      <trkpt lat="37.17531" lon="-3.59979">
        <ele>686.971458</ele>
        <time>2022-04-19T09:56:57.000Z</time>
      </trkpt>
      <trkpt lat="37.17531" lon="-3.59979">
        <ele>686.971458</ele>
        <time>2022-04-19T09:57:02.000Z</time>
      </trkpt>
      <trkpt lat="37.17532" lon="-3.59979">
        <ele>686.974468</ele>
        <time>2022-04-19T09:57:10.000Z</time>
      </trkpt>
      <trkpt lat="37.1753" lon="-3.59979">
        <ele>686.980376</ele>
        <time>2022-04-19T09:57:17.000Z</time>
      </trkpt>
      <trkpt lat="37.1753" lon="-3.59979">
        <ele>686.980376</ele>
        <time>2022-04-19T09:57:18.000Z</time>
      </trkpt>
      <trkpt lat="37.1753" lon="-3.59979">
        <ele>686.980376</ele>
        <time>2022-04-19T09:57:23.000Z</time>
      </trkpt>
      <trkpt lat="37.17531" lon="-3.59979">
        <ele>686.980859</ele>
        <time>2022-04-19T09:57:36.000Z</time>
      </trkpt>
      <trkpt lat="37.1753" lon="-3.59979">
        <ele>686.983109</ele>
        <time>2022-04-19T09:57:44.000Z</time>
      </trkpt>
      <trkpt lat="37.1753" lon="-3.59979">
        <ele>686.984961</ele>
        <time>2022-04-19T09:57:51.000Z</time>
      </trkpt>
      <trkpt lat="37.17529" lon="-3.59979">
        <ele>686.988824</ele>
        <time>2022-04-19T09:58:03.000Z</time>
      </trkpt>
      <trkpt lat="37.17537" lon="-3.59973">
        <ele>686.983805</ele>
        <time>2022-04-19T09:58:16.000Z</time>
      </trkpt>
      <trkpt lat="37.17541" lon="-3.59965">
        <ele>686.976997</ele>
        <time>2022-04-19T09:58:20.000Z</time>
      </trkpt>
      <trkpt lat="37.17536" lon="-3.59963">
        <ele>686.971649</ele>
        <time>2022-04-19T09:58:22.000Z</time>
      </trkpt>
      <trkpt lat="37.17534" lon="-3.59961">
        <ele>686.969028</ele>
        <time>2022-04-19T09:58:26.000Z</time>
      </trkpt>
      <trkpt lat="37.17534" lon="-3.59961">
        <ele>686.968527</ele>
        <time>2022-04-19T09:58:28.000Z</time>
      </trkpt>
      <trkpt lat="37.1754" lon="-3.59953">
        <ele>686.959744</ele>
        <time>2022-04-19T09:58:34.000Z</time>
      </trkpt>
      <trkpt lat="37.17539" lon="-3.59961">
        <ele>686.953084</ele>
        <time>2022-04-19T09:58:38.000Z</time>
      </trkpt>
      <trkpt lat="37.1754" lon="-3.5996">
        <ele>686.951423</ele>
        <time>2022-04-19T09:58:44.000Z</time>
      </trkpt>
      <trkpt lat="37.17537" lon="-3.59962">
        <ele>686.948239</ele>
        <time>2022-04-19T09:58:49.000Z</time>
      </trkpt>
      <trkpt lat="37.17536" lon="-3.59961">
        <ele>686.946319</ele>
        <time>2022-04-19T09:58:52.000Z</time>
      </trkpt>
      <trkpt lat="37.17532" lon="-3.5996">
        <ele>686.942644</ele>
        <time>2022-04-19T09:58:59.000Z</time>
      </trkpt>
      <trkpt lat="37.17528" lon="-3.59959">
        <ele>686.938395</ele>
        <time>2022-04-19T09:59:04.000Z</time>
      </trkpt>
      <trkpt lat="37.17528" lon="-3.5996">
        <ele>686.937894</ele>
        <time>2022-04-19T09:59:05.000Z</time>
      </trkpt>
      <trkpt lat="37.17528" lon="-3.59963">
        <ele>686.935651</ele>
        <time>2022-04-19T09:59:08.000Z</time>
      </trkpt>
      <trkpt lat="37.17528" lon="-3.59967">
        <ele>686.932104</ele>
        <time>2022-04-19T09:59:09.000Z</time>
      </trkpt>
      <trkpt lat="37.17528" lon="-3.59975">
        <ele>686.925615</ele>
        <time>2022-04-19T09:59:11.000Z</time>
      </trkpt>
      <trkpt lat="37.17523" lon="-3.59959">
        <ele>686.911991</ele>
        <time>2022-04-19T10:01:49.000Z</time>
      </trkpt>
      <trkpt lat="37.17532" lon="-3.59987">
        <ele>686.888329</ele>
        <time>2022-04-19T10:01:57.000Z</time>
      </trkpt>
      <trkpt lat="37.17529" lon="-3.59985">
        <ele>686.88526</ele>
        <time>2022-04-19T10:02:02.000Z</time>
      </trkpt>
      <trkpt lat="37.17528" lon="-3.59988">
        <ele>686.883001</ele>
        <time>2022-04-19T10:02:10.000Z</time>
      </trkpt>
      <trkpt lat="37.17528" lon="-3.59988">
        <ele>686.882615</ele>
        <time>2022-04-19T10:02:17.000Z</time>
      </trkpt>
      <trkpt lat="37.17528" lon="-3.59988">
        <ele>686.882147</ele>
        <time>2022-04-19T10:02:26.000Z</time>
      </trkpt>
      <trkpt lat="37.17528" lon="-3.59988">
        <ele>686.881577</ele>
        <time>2022-04-19T10:02:30.000Z</time>
      </trkpt>
      <trkpt lat="37.17526" lon="-3.59986">
        <ele>686.878867</ele>
        <time>2022-04-19T10:02:38.000Z</time>
      </trkpt>
      <trkpt lat="37.17526" lon="-3.59986">
        <ele>686.878532</ele>
        <time>2022-04-19T10:02:44.000Z</time>
      </trkpt>
      <trkpt lat="37.17527" lon="-3.59986">
        <ele>686.877728</ele>
        <time>2022-04-19T10:02:55.000Z</time>
      </trkpt>
      <trkpt lat="37.17527" lon="-3.59982">
        <ele>686.874842</ele>
        <time>2022-04-19T10:03:01.000Z</time>
      </trkpt>
      <trkpt lat="37.17526" lon="-3.59982">
        <ele>686.87434</ele>
        <time>2022-04-19T10:03:05.000Z</time>
      </trkpt>
      <trkpt lat="37.17526" lon="-3.59982">
        <ele>686.873837</ele>
        <time>2022-04-19T10:03:09.000Z</time>
      </trkpt>
      <trkpt lat="37.17527" lon="-3.59982">
        <ele>686.872877</ele>
        <time>2022-04-19T10:03:11.000Z</time>
      </trkpt>
      <trkpt lat="37.17526" lon="-3.59978">
        <ele>686.869974</ele>
        <time>2022-04-19T10:03:15.000Z</time>
      </trkpt>
      <trkpt lat="37.17521" lon="-3.59979">
        <ele>686.865306</ele>
        <time>2022-04-19T10:03:17.000Z</time>
      </trkpt>
      <trkpt lat="37.17514" lon="-3.59981">
        <ele>686.857935</ele>
        <time>2022-04-19T10:03:20.000Z</time>
      </trkpt>
      <trkpt lat="37.17512" lon="-3.59981">
        <ele>686.856023</ele>
        <time>2022-04-19T10:03:25.000Z</time>
      </trkpt>
      <trkpt lat="37.17512" lon="-3.5998">
        <ele>686.854818</ele>
        <time>2022-04-19T10:03:26.000Z</time>
      </trkpt>
      <trkpt lat="37.17517" lon="-3.59973">
        <ele>686.847986</ele>
        <time>2022-04-19T10:03:29.000Z</time>
      </trkpt>
      <trkpt lat="37.17519" lon="-3.5997">
        <ele>686.844326</ele>
        <time>2022-04-19T10:03:30.000Z</time>
      </trkpt>
      <trkpt lat="37.17527" lon="-3.5997">
        <ele>686.836866</ele>
        <time>2022-04-19T10:03:32.000Z</time>
      </trkpt>
      <trkpt lat="37.17529" lon="-3.59974">
        <ele>686.832229</ele>
        <time>2022-04-19T10:03:35.000Z</time>
      </trkpt>
      <trkpt lat="37.17528" lon="-3.59975">
        <ele>686.830433</ele>
        <time>2022-04-19T10:03:43.000Z</time>
      </trkpt>
      <trkpt lat="37.17526" lon="-3.59977">
        <ele>686.828454</ele>
        <time>2022-04-19T10:03:49.000Z</time>
      </trkpt>
      <trkpt lat="37.17528" lon="-3.59976">
        <ele>686.826517</ele>
        <time>2022-04-19T10:03:51.000Z</time>
      </trkpt>
      <trkpt lat="37.17528" lon="-3.59976">
        <ele>686.825996</ele>
        <time>2022-04-19T10:03:52.000Z</time>
      </trkpt>
      <trkpt lat="37.1752" lon="-3.59977">
        <ele>686.818236</ele>
        <time>2022-04-19T10:03:55.000Z</time>
      </trkpt>
      <trkpt lat="37.1752" lon="-3.59978">
        <ele>686.817416</ele>
        <time>2022-04-19T10:03:56.000Z</time>
      </trkpt>
      <trkpt lat="37.1752" lon="-3.59976">
        <ele>686.815975</ele>
        <time>2022-04-19T10:03:58.000Z</time>
      </trkpt>
      <trkpt lat="37.17522" lon="-3.59964">
        <ele>686.808455</ele>
        <time>2022-04-19T10:04:03.000Z</time>
      </trkpt>
      <trkpt lat="37.17517" lon="-3.59966">
        <ele>686.805322</ele>
        <time>2022-04-19T10:04:09.000Z</time>
      </trkpt>
      <trkpt lat="37.17519" lon="-3.59961">
        <ele>686.802943</ele>
        <time>2022-04-19T10:04:16.000Z</time>
      </trkpt>
      <trkpt lat="37.17516" lon="-3.59964">
        <ele>686.800619</ele>
        <time>2022-04-19T10:04:23.000Z</time>
      </trkpt>
      <trkpt lat="37.17516" lon="-3.59964">
        <ele>686.800619</ele>
        <time>2022-04-19T10:04:27.000Z</time>
      </trkpt>
      <trkpt lat="37.17516" lon="-3.59966">
        <ele>686.799807</ele>
        <time>2022-04-19T10:04:45.000Z</time>
      </trkpt>
      <trkpt lat="37.17516" lon="-3.59966">
        <ele>686.799807</ele>
        <time>2022-04-19T10:04:48.000Z</time>
      </trkpt>
      <trkpt lat="37.17515" lon="-3.59968">
        <ele>686.798782</ele>
        <time>2022-04-19T10:04:56.000Z</time>
      </trkpt>
      <trkpt lat="37.17518" lon="-3.59969">
        <ele>686.796992</ele>
        <time>2022-04-19T10:04:59.000Z</time>
      </trkpt>
      <trkpt lat="37.17518" lon="-3.59967">
        <ele>686.795832</ele>
        <time>2022-04-19T10:05:03.000Z</time>
      </trkpt>
      <trkpt lat="37.17525" lon="-3.59963">
        <ele>686.791051</ele>
        <time>2022-04-19T10:05:08.000Z</time>
      </trkpt>
      <trkpt lat="37.17531" lon="-3.59959">
        <ele>686.786835</ele>
        <time>2022-04-19T10:05:10.000Z</time>
      </trkpt>
      <trkpt lat="37.17532" lon="-3.59955">
        <ele>686.784852</ele>
        <time>2022-04-19T10:05:13.000Z</time>
      </trkpt>
      <trkpt lat="37.17531" lon="-3.59956">
        <ele>686.784066</ele>
        <time>2022-04-19T10:05:15.000Z</time>
      </trkpt>
      <trkpt lat="37.17532" lon="-3.59954">
        <ele>686.782752</ele>
        <time>2022-04-19T10:05:19.000Z</time>
      </trkpt>
      <trkpt lat="37.17534" lon="-3.59952">
        <ele>686.781418</ele>
        <time>2022-04-19T10:05:20.000Z</time>
      </trkpt>
      <trkpt lat="37.17526" lon="-3.59967">
        <ele>686.772461</ele>
        <time>2022-04-19T10:05:24.000Z</time>
      </trkpt>
      <trkpt lat="37.17518" lon="-3.59974">
        <ele>686.766425</ele>
        <time>2022-04-19T10:05:30.000Z</time>
      </trkpt>
      <trkpt lat="37.17512" lon="-3.59984">
        <ele>686.760066</ele>
        <time>2022-04-19T10:05:35.000Z</time>
      </trkpt>
      <trkpt lat="37.17513" lon="-3.59989">
        <ele>686.757549</ele>
        <time>2022-04-19T10:05:40.000Z</time>
      </trkpt>
      <trkpt lat="37.17512" lon="-3.59989">
        <ele>686.756558</ele>
        <time>2022-04-19T10:05:47.000Z</time>
      </trkpt>
      <trkpt lat="37.17515" lon="-3.59995">
        <ele>686.752949</ele>
        <time>2022-04-19T10:05:57.000Z</time>
      </trkpt>
      <trkpt lat="37.17517" lon="-3.59998">
        <ele>686.751025</ele>
        <time>2022-04-19T10:06:04.000Z</time>
      </trkpt>
      <trkpt lat="37.17517" lon="-3.6">
        <ele>686.750271</ele>
        <time>2022-04-19T10:06:08.000Z</time>
      </trkpt>
      <trkpt lat="37.17519" lon="-3.6">
        <ele>686.748949</ele>
        <time>2022-04-19T10:06:11.000Z</time>
      </trkpt>
      <trkpt lat="37.17522" lon="-3.60002">
        <ele>686.747042</ele>
        <time>2022-04-19T10:06:20.000Z</time>
      </trkpt>
      <trkpt lat="37.17524" lon="-3.60002">
        <ele>686.745976</ele>
        <time>2022-04-19T10:06:21.000Z</time>
      </trkpt>
      <trkpt lat="37.17534" lon="-3.60001">
        <ele>686.739724</ele>
        <time>2022-04-19T10:06:28.000Z</time>
      </trkpt>
      <trkpt lat="37.17534" lon="-3.60001">
        <ele>686.739343</ele>
        <time>2022-04-19T10:06:29.000Z</time>
      </trkpt>
      <trkpt lat="37.17531" lon="-3.59998">
        <ele>686.736811</ele>
        <time>2022-04-19T10:06:32.000Z</time>
      </trkpt>
      <trkpt lat="37.17531" lon="-3.6">
        <ele>686.736196</ele>
        <time>2022-04-19T10:06:38.000Z</time>
      </trkpt>
      <trkpt lat="37.17533" lon="-3.6">
        <ele>686.734841</ele>
        <time>2022-04-19T10:06:43.000Z</time>
      </trkpt>
      <trkpt lat="37.17537" lon="-3.59998">
        <ele>686.731868</ele>
        <time>2022-04-19T10:06:49.000Z</time>
      </trkpt>
      <trkpt lat="37.17542" lon="-3.6">
        <ele>686.728858</ele>
        <time>2022-04-19T10:06:55.000Z</time>
      </trkpt>
      <trkpt lat="37.17545" lon="-3.59998">
        <ele>686.726831</ele>
        <time>2022-04-19T10:06:58.000Z</time>
      </trkpt>
      <trkpt lat="37.17541" lon="-3.59998">
        <ele>686.724113</ele>
        <time>2022-04-19T10:07:04.000Z</time>
      </trkpt>
      <trkpt lat="37.17535" lon="-3.59997">
        <ele>686.720324</ele>
        <time>2022-04-19T10:07:10.000Z</time>
      </trkpt>
      <trkpt lat="37.17532" lon="-3.59996">
        <ele>686.718272</ele>
        <time>2022-04-19T10:07:17.000Z</time>
      </trkpt>
      <trkpt lat="37.17531" lon="-3.59994">
        <ele>686.717153</ele>
        <time>2022-04-19T10:07:18.000Z</time>
      </trkpt>
      <trkpt lat="37.17529" lon="-3.5999">
        <ele>686.714483</ele>
        <time>2022-04-19T10:07:25.000Z</time>
      </trkpt>
      <trkpt lat="37.17526" lon="-3.59989">
        <ele>686.712966</ele>
        <time>2022-04-19T10:07:30.000Z</time>
      </trkpt>
      <trkpt lat="37.17527" lon="-3.59988">
        <ele>686.712611</ele>
        <time>2022-04-19T10:07:31.000Z</time>
      </trkpt>
      <trkpt lat="37.17527" lon="-3.59987">
        <ele>686.712219</ele>
        <time>2022-04-19T10:07:32.000Z</time>
      </trkpt>
      <trkpt lat="37.17526" lon="-3.59985">
        <ele>686.711096</ele>
        <time>2022-04-19T10:07:38.000Z</time>
      </trkpt>
      <trkpt lat="37.17524" lon="-3.59981">
        <ele>686.70822</ele>
        <time>2022-04-19T10:07:43.000Z</time>
      </trkpt>
      <trkpt lat="37.17523" lon="-3.59978">
        <ele>686.706892</ele>
        <time>2022-04-19T10:07:45.000Z</time>
      </trkpt>
      <trkpt lat="37.17527" lon="-3.59974">
        <ele>686.703577</ele>
        <time>2022-04-19T10:07:49.000Z</time>
      </trkpt>
      <trkpt lat="37.17526" lon="-3.59969">
        <ele>686.701234</ele>
        <time>2022-04-19T10:07:52.000Z</time>
      </trkpt>
      <trkpt lat="37.17528" lon="-3.5997">
        <ele>686.699938</ele>
        <time>2022-04-19T10:07:54.000Z</time>
      </trkpt>
      <trkpt lat="37.17526" lon="-3.5997">
        <ele>686.699411</ele>
        <time>2022-04-19T10:07:57.000Z</time>
      </trkpt>
      <trkpt lat="37.17526" lon="-3.5997">
        <ele>686.701268</ele>
        <time>2022-04-19T10:07:59.000Z</time>
      </trkpt>
      <trkpt lat="37.17526" lon="-3.5997">
        <ele>686.701908</ele>
        <time>2022-04-19T10:08:01.000Z</time>
      </trkpt>
      <trkpt lat="37.17525" lon="-3.59969">
        <ele>686.705259</ele>
        <time>2022-04-19T10:08:05.000Z</time>
      </trkpt>
      <trkpt lat="37.17525" lon="-3.59968">
        <ele>686.707286</ele>
        <time>2022-04-19T10:08:09.000Z</time>
      </trkpt>
      <trkpt lat="37.17524" lon="-3.59969">
        <ele>686.711167</ele>
        <time>2022-04-19T10:08:12.000Z</time>
      </trkpt>
      <trkpt lat="37.17523" lon="-3.59969">
        <ele>686.712154</ele>
        <time>2022-04-19T10:08:15.000Z</time>
      </trkpt>
      <trkpt lat="37.17524" lon="-3.59969">
        <ele>686.713416</ele>
        <time>2022-04-19T10:08:16.000Z</time>
      </trkpt>
      <trkpt lat="37.17525" lon="-3.59966">
        <ele>686.719915</ele>
        <time>2022-04-19T10:08:25.000Z</time>
      </trkpt>
      <trkpt lat="37.17526" lon="-3.59965">
        <ele>686.723512</ele>
        <time>2022-04-19T10:08:31.000Z</time>
      </trkpt>
      <trkpt lat="37.17527" lon="-3.59962">
        <ele>686.728332</ele>
        <time>2022-04-19T10:08:36.000Z</time>
      </trkpt>
      <trkpt lat="37.17526" lon="-3.59963">
        <ele>686.729412</ele>
        <time>2022-04-19T10:08:41.000Z</time>
      </trkpt>
      <trkpt lat="37.17525" lon="-3.59963">
        <ele>686.732917</ele>
        <time>2022-04-19T10:08:47.000Z</time>
      </trkpt>
      <trkpt lat="37.17524" lon="-3.59961">
        <ele>686.736026</ele>
        <time>2022-04-19T10:08:56.000Z</time>
      </trkpt>
      <trkpt lat="37.17523" lon="-3.59959">
        <ele>686.742179</ele>
        <time>2022-04-19T10:09:01.000Z</time>
      </trkpt>
      <trkpt lat="37.17521" lon="-3.59957">
        <ele>686.748064</ele>
        <time>2022-04-19T10:09:07.000Z</time>
      </trkpt>
      <trkpt lat="37.1752" lon="-3.59957">
        <ele>686.750125</ele>
        <time>2022-04-19T10:09:09.000Z</time>
      </trkpt>
      <trkpt lat="37.1752" lon="-3.59955">
        <ele>686.753872</ele>
        <time>2022-04-19T10:09:11.000Z</time>
      </trkpt>
      <trkpt lat="37.17519" lon="-3.59953">
        <ele>686.758309</ele>
        <time>2022-04-19T10:09:14.000Z</time>
      </trkpt>
      <trkpt lat="37.1752" lon="-3.59954">
        <ele>686.759847</ele>
        <time>2022-04-19T10:09:16.000Z</time>
      </trkpt>
      <trkpt lat="37.1752" lon="-3.59955">
        <ele>686.762415</ele>
        <time>2022-04-19T10:09:20.000Z</time>
      </trkpt>
      <trkpt lat="37.1752" lon="-3.59955">
        <ele>686.762415</ele>
        <time>2022-04-19T10:09:21.000Z</time>
      </trkpt>
      <trkpt lat="37.17518" lon="-3.59957">
        <ele>686.767987</ele>
        <time>2022-04-19T10:09:31.000Z</time>
      </trkpt>
      <trkpt lat="37.1752" lon="-3.59958">
        <ele>686.771816</ele>
        <time>2022-04-19T10:09:33.000Z</time>
      </trkpt>
      <trkpt lat="37.17522" lon="-3.5996">
        <ele>686.779234</ele>
        <time>2022-04-19T10:09:35.000Z</time>
      </trkpt>
      <trkpt lat="37.17522" lon="-3.59963">
        <ele>686.784156</ele>
        <time>2022-04-19T10:09:39.000Z</time>
      </trkpt>
      <trkpt lat="37.17525" lon="-3.59964">
        <ele>686.792751</ele>
        <time>2022-04-19T10:09:43.000Z</time>
      </trkpt>
      <trkpt lat="37.17529" lon="-3.59967">
        <ele>686.802376</ele>
        <time>2022-04-19T10:09:48.000Z</time>
      </trkpt>
      <trkpt lat="37.17532" lon="-3.59969">
        <ele>686.810947</ele>
        <time>2022-04-19T10:09:51.000Z</time>
      </trkpt>
      <trkpt lat="37.17537" lon="-3.59971">
        <ele>686.823856</ele>
        <time>2022-04-19T10:09:55.000Z</time>
      </trkpt>
      <trkpt lat="37.17541" lon="-3.59974">
        <ele>686.835941</ele>
        <time>2022-04-19T10:09:59.000Z</time>
      </trkpt>
      <trkpt lat="37.17541" lon="-3.59975">
        <ele>686.837479</ele>
        <time>2022-04-19T10:10:00.000Z</time>
      </trkpt>
      <trkpt lat="37.17543" lon="-3.59976">
        <ele>686.841461</ele>
        <time>2022-04-19T10:10:02.000Z</time>
      </trkpt>
      <trkpt lat="37.17544" lon="-3.59977">
        <ele>686.845781</ele>
        <time>2022-04-19T10:10:07.000Z</time>
      </trkpt>
      <trkpt lat="37.17546" lon="-3.5998">
        <ele>686.852846</ele>
        <time>2022-04-19T10:10:12.000Z</time>
      </trkpt>
      <trkpt lat="37.17545" lon="-3.5998">
        <ele>686.855623</ele>
        <time>2022-04-19T10:10:15.000Z</time>
      </trkpt>
      <trkpt lat="37.17545" lon="-3.59982">
        <ele>686.859359</ele>
        <time>2022-04-19T10:10:18.000Z</time>
      </trkpt>
      <trkpt lat="37.17546" lon="-3.5999">
        <ele>686.875352</ele>
        <time>2022-04-19T10:10:24.000Z</time>
      </trkpt>
      <trkpt lat="37.17539" lon="-3.59993">
        <ele>686.892972</ele>
        <time>2022-04-19T10:10:31.000Z</time>
      </trkpt>
      <trkpt lat="37.17537" lon="-3.59997">
        <ele>686.901792</ele>
        <time>2022-04-19T10:10:35.000Z</time>
      </trkpt>
      <trkpt lat="37.17537" lon="-3.59999">
        <ele>686.906613</ele>
        <time>2022-04-19T10:10:36.000Z</time>
      </trkpt>
      <trkpt lat="37.17537" lon="-3.59997">
        <ele>686.911135</ele>
        <time>2022-04-19T10:10:41.000Z</time>
      </trkpt>
      <trkpt lat="37.17538" lon="-3.59997">
        <ele>686.911904</ele>
        <time>2022-04-19T10:10:44.000Z</time>
      </trkpt>
      <trkpt lat="37.17536" lon="-3.59996">
        <ele>686.916901</ele>
        <time>2022-04-19T10:10:46.000Z</time>
      </trkpt>
      <trkpt lat="37.17533" lon="-3.59995">
        <ele>686.923671</ele>
        <time>2022-04-19T10:10:51.000Z</time>
      </trkpt>
      <trkpt lat="37.17533" lon="-3.59995">
        <ele>686.924495</ele>
        <time>2022-04-19T10:10:52.000Z</time>
      </trkpt>
      <trkpt lat="37.17532" lon="-3.59995">
        <ele>686.926793</ele>
        <time>2022-04-19T10:10:55.000Z</time>
      </trkpt>
      <trkpt lat="37.17531" lon="-3.59994">
        <ele>686.930984</ele>
        <time>2022-04-19T10:10:57.000Z</time>
      </trkpt>
      <trkpt lat="37.17531" lon="-3.59993">
        <ele>686.932516</ele>
        <time>2022-04-19T10:10:58.000Z</time>
      </trkpt>
      <trkpt lat="37.1753" lon="-3.59993">
        <ele>686.936107</ele>
        <time>2022-04-19T10:11:01.000Z</time>
      </trkpt>
      <trkpt lat="37.17529" lon="-3.59992">
        <ele>686.938842</ele>
        <time>2022-04-19T10:11:03.000Z</time>
      </trkpt>
      <trkpt lat="37.17524" lon="-3.59988">
        <ele>686.95254</ele>
        <time>2022-04-19T10:11:10.000Z</time>
      </trkpt>
      <trkpt lat="37.17522" lon="-3.59987">
        <ele>686.957788</ele>
        <time>2022-04-19T10:11:16.000Z</time>
      </trkpt>
      <trkpt lat="37.17522" lon="-3.59988">
        <ele>686.960312</ele>
        <time>2022-04-19T10:11:18.000Z</time>
      </trkpt>
      <trkpt lat="37.17523" lon="-3.59989">
        <ele>686.963866</ele>
        <time>2022-04-19T10:11:23.000Z</time>
      </trkpt>
      <trkpt lat="37.17521" lon="-3.59987">
        <ele>686.969168</ele>
        <time>2022-04-19T10:11:30.000Z</time>
      </trkpt>
      <trkpt lat="37.17522" lon="-3.59988">
        <ele>686.971155</ele>
        <time>2022-04-19T10:11:33.000Z</time>
      </trkpt>
      <trkpt lat="37.17523" lon="-3.59987">
        <ele>686.97328</ele>
        <time>2022-04-19T10:11:35.000Z</time>
      </trkpt>
      <trkpt lat="37.17523" lon="-3.59987">
        <ele>686.975128</ele>
        <time>2022-04-19T10:11:37.000Z</time>
      </trkpt>
      <trkpt lat="37.17523" lon="-3.59986">
        <ele>686.976278</ele>
        <time>2022-04-19T10:11:38.000Z</time>
      </trkpt>
      <trkpt lat="37.17521" lon="-3.59985">
        <ele>686.981223</ele>
        <time>2022-04-19T10:11:41.000Z</time>
      </trkpt>
      <trkpt lat="37.1752" lon="-3.59985">
        <ele>686.982817</ele>
        <time>2022-04-19T10:11:42.000Z</time>
      </trkpt>
      <trkpt lat="37.17519" lon="-3.59984">
        <ele>686.987729</ele>
        <time>2022-04-19T10:11:44.000Z</time>
      </trkpt>
      <trkpt lat="37.17517" lon="-3.59983">
        <ele>686.993199</ele>
        <time>2022-04-19T10:11:46.000Z</time>
      </trkpt>
      <trkpt lat="37.17514" lon="-3.59982">
        <ele>686.998741</ele>
        <time>2022-04-19T10:11:49.000Z</time>
      </trkpt>
      <trkpt lat="37.17512" lon="-3.59981">
        <ele>687.005302</ele>
        <time>2022-04-19T10:11:52.000Z</time>
      </trkpt>
      <trkpt lat="37.17511" lon="-3.5998">
        <ele>687.008657</ele>
        <time>2022-04-19T10:11:53.000Z</time>
      </trkpt>
      <trkpt lat="37.17509" lon="-3.5998">
        <ele>687.012965</ele>
        <time>2022-04-19T10:11:57.000Z</time>
      </trkpt>
      <trkpt lat="37.17506" lon="-3.59981">
        <ele>687.020026</ele>
        <time>2022-04-19T10:12:03.000Z</time>
      </trkpt>
      <trkpt lat="37.1751" lon="-3.59987">
        <ele>687.033754</ele>
        <time>2022-04-19T10:12:09.000Z</time>
      </trkpt>
      <trkpt lat="37.17517" lon="-3.59994">
        <ele>687.056536</ele>
        <time>2022-04-19T10:12:17.000Z</time>
      </trkpt>
      <trkpt lat="37.17517" lon="-3.59995">
        <ele>687.057742</ele>
        <time>2022-04-19T10:12:18.000Z</time>
      </trkpt>
      <trkpt lat="37.17517" lon="-3.59995">
        <ele>687.057938</ele>
        <time>2022-04-19T10:12:21.000Z</time>
      </trkpt>
      <trkpt lat="37.17517" lon="-3.59994">
        <ele>687.059645</ele>
        <time>2022-04-19T10:12:27.000Z</time>
      </trkpt>
      <trkpt lat="37.17517" lon="-3.59994">
        <ele>687.060139</ele>
        <time>2022-04-19T10:12:28.000Z</time>
      </trkpt>
      <trkpt lat="37.17518" lon="-3.59995">
        <ele>687.064375</ele>
        <time>2022-04-19T10:12:43.000Z</time>
      </trkpt>
      <trkpt lat="37.17522" lon="-3.59995">
        <ele>687.072517</ele>
        <time>2022-04-19T10:12:47.000Z</time>
      </trkpt>
      <trkpt lat="37.17522" lon="-3.59994">
        <ele>687.073156</ele>
        <time>2022-04-19T10:12:53.000Z</time>
      </trkpt>
      <trkpt lat="37.17525" lon="-3.59996">
        <ele>687.082262</ele>
        <time>2022-04-19T10:12:58.000Z</time>
      </trkpt>
      <trkpt lat="37.17536" lon="-3.60004">
        <ele>687.114143</ele>
        <time>2022-04-19T10:13:03.000Z</time>
      </trkpt>
      <trkpt lat="37.17553" lon="-3.60012">
        <ele>687.202909</ele>
        <time>2022-04-19T10:13:09.000Z</time>
      </trkpt>
      <trkpt lat="37.17564" lon="-3.60009">
        <ele>687.309737</ele>
        <time>2022-04-19T10:13:14.000Z</time>
      </trkpt>
      <trkpt lat="37.17564" lon="-3.60008">
        <ele>687.314943</ele>
        <time>2022-04-19T10:13:15.000Z</time>
      </trkpt>
      <trkpt lat="37.17567" lon="-3.60009">
        <ele>687.343076</ele>
        <time>2022-04-19T10:13:18.000Z</time>
      </trkpt>
      <trkpt lat="37.17581" lon="-3.60019">
        <ele>687.486729</ele>
        <time>2022-04-19T10:13:22.000Z</time>
      </trkpt>
      <trkpt lat="37.1759" lon="-3.6002">
        <ele>687.579997</ele>
        <time>2022-04-19T10:13:25.000Z</time>
      </trkpt>
      <trkpt lat="37.17605" lon="-3.60007">
        <ele>687.749407</ele>
        <time>2022-04-19T10:13:30.000Z</time>
      </trkpt>
      <trkpt lat="37.17606" lon="-3.60006">
        <ele>687.756311</ele>
        <time>2022-04-19T10:13:31.000Z</time>
      </trkpt>
      <trkpt lat="37.17604" lon="-3.60004">
        <ele>687.777895</ele>
        <time>2022-04-19T10:13:36.000Z</time>
      </trkpt>
      <trkpt lat="37.17601" lon="-3.59999">
        <ele>687.822105</ele>
        <time>2022-04-19T10:13:41.000Z</time>
      </trkpt>
      <trkpt lat="37.17605" lon="-3.60004">
        <ele>687.867045</ele>
        <time>2022-04-19T10:13:53.000Z</time>
      </trkpt>
      <trkpt lat="37.17605" lon="-3.60004">
        <ele>687.869276</ele>
        <time>2022-04-19T10:14:01.000Z</time>
      </trkpt>
      <trkpt lat="37.17605" lon="-3.60004">
        <ele>687.869276</ele>
        <time>2022-04-19T10:14:03.000Z</time>
      </trkpt>
      <trkpt lat="37.17604" lon="-3.60003">
        <ele>687.871286</ele>
        <time>2022-04-19T10:14:06.000Z</time>
      </trkpt>
      <trkpt lat="37.17607" lon="-3.60006">
        <ele>687.900007</ele>
        <time>2022-04-19T10:14:09.000Z</time>
      </trkpt>
      <trkpt lat="37.17608" lon="-3.60006">
        <ele>687.909459</ele>
        <time>2022-04-19T10:14:11.000Z</time>
      </trkpt>
      <trkpt lat="37.17607" lon="-3.60005">
        <ele>687.916408</ele>
        <time>2022-04-19T10:14:13.000Z</time>
      </trkpt>
      <trkpt lat="37.17606" lon="-3.60004">
        <ele>687.933792</ele>
        <time>2022-04-19T10:14:18.000Z</time>
      </trkpt>
      <trkpt lat="37.17598" lon="-3.60009">
        <ele>688.015396</ele>
        <time>2022-04-19T10:14:21.000Z</time>
      </trkpt>
      <trkpt lat="37.17587" lon="-3.60006">
        <ele>688.121225</ele>
        <time>2022-04-19T10:14:23.000Z</time>
      </trkpt>
      <trkpt lat="37.17586" lon="-3.60008">
        <ele>688.135841</ele>
        <time>2022-04-19T10:14:25.000Z</time>
      </trkpt>
      <trkpt lat="37.17599" lon="-3.60014">
        <ele>688.261298</ele>
        <time>2022-04-19T10:14:28.000Z</time>
      </trkpt>
      <trkpt lat="37.17593" lon="-3.60044">
        <ele>688.491111</ele>
        <time>2022-04-19T10:14:34.000Z</time>
      </trkpt>
      <trkpt lat="37.17589" lon="-3.60054">
        <ele>688.574969</ele>
        <time>2022-04-19T10:14:36.000Z</time>
      </trkpt>
      <trkpt lat="37.17608" lon="-3.60035">
        <ele>688.801538</ele>
        <time>2022-04-19T10:14:41.000Z</time>
      </trkpt>
      <trkpt lat="37.17631" lon="-3.60033">
        <ele>689.307337</ele>
        <time>2022-04-19T10:14:48.000Z</time>
      </trkpt>
      <trkpt lat="37.17634" lon="-3.6003">
        <ele>689.39478</ele>
        <time>2022-04-19T10:14:51.000Z</time>
      </trkpt>
      <trkpt lat="37.17635" lon="-3.60027">
        <ele>689.458904</ele>
        <time>2022-04-19T10:14:52.000Z</time>
      </trkpt>
      <trkpt lat="37.17638" lon="-3.60019">
        <ele>689.623024</ele>
        <time>2022-04-19T10:14:55.000Z</time>
      </trkpt>
      <trkpt lat="37.17641" lon="-3.60012">
        <ele>689.769825</ele>
        <time>2022-04-19T10:14:57.000Z</time>
      </trkpt>
      <trkpt lat="37.17643" lon="-3.60004">
        <ele>689.923944</ele>
        <time>2022-04-19T10:14:59.000Z</time>
      </trkpt>
      <trkpt lat="37.17644" lon="-3.59999">
        <ele>690.027361</ele>
        <time>2022-04-19T10:15:01.000Z</time>
      </trkpt>
      <trkpt lat="37.17646" lon="-3.59996">
        <ele>690.082089</ele>
        <time>2022-04-19T10:15:02.000Z</time>
      </trkpt>
      <trkpt lat="37.17649" lon="-3.59992">
        <ele>690.197351</ele>
        <time>2022-04-19T10:15:04.000Z</time>
      </trkpt>
      <trkpt lat="37.17651" lon="-3.59987">
        <ele>690.29572</ele>
        <time>2022-04-19T10:15:06.000Z</time>
      </trkpt>
      <trkpt lat="37.17654" lon="-3.59984">
        <ele>690.37394</ele>
        <time>2022-04-19T10:15:08.000Z</time>
      </trkpt>
      <trkpt lat="37.17657" lon="-3.59981">
        <ele>690.467829</ele>
        <time>2022-04-19T10:15:10.000Z</time>
      </trkpt>
      <trkpt lat="37.17654" lon="-3.59973">
        <ele>690.626917</ele>
        <time>2022-04-19T10:15:13.000Z</time>
      </trkpt>
      <trkpt lat="37.17652" lon="-3.59967">
        <ele>690.745712</ele>
        <time>2022-04-19T10:15:15.000Z</time>
      </trkpt>
      <trkpt lat="37.17654" lon="-3.59963">
        <ele>690.831048</ele>
        <time>2022-04-19T10:15:17.000Z</time>
      </trkpt>
      <trkpt lat="37.1766" lon="-3.59954">
        <ele>691.035461</ele>
        <time>2022-04-19T10:15:22.000Z</time>
      </trkpt>
      <trkpt lat="37.17663" lon="-3.59953">
        <ele>691.115331</ele>
        <time>2022-04-19T10:15:24.000Z</time>
      </trkpt>
      <trkpt lat="37.17665" lon="-3.59953">
        <ele>691.159552</ele>
        <time>2022-04-19T10:15:25.000Z</time>
      </trkpt>
      <trkpt lat="37.17668" lon="-3.59952">
        <ele>691.243414</ele>
        <time>2022-04-19T10:15:27.000Z</time>
      </trkpt>
      <trkpt lat="37.17671" lon="-3.59951">
        <ele>691.308043</ele>
        <time>2022-04-19T10:15:29.000Z</time>
      </trkpt>
      <trkpt lat="37.17672" lon="-3.59949">
        <ele>691.344896</ele>
        <time>2022-04-19T10:15:30.000Z</time>
      </trkpt>
      <trkpt lat="37.17672" lon="-3.59945">
        <ele>691.424047</ele>
        <time>2022-04-19T10:15:32.000Z</time>
      </trkpt>
      <trkpt lat="37.17672" lon="-3.59944">
        <ele>691.444635</ele>
        <time>2022-04-19T10:15:33.000Z</time>
      </trkpt>
      <trkpt lat="37.17675" lon="-3.59942">
        <ele>691.518139</ele>
        <time>2022-04-19T10:15:36.000Z</time>
      </trkpt>
      <trkpt lat="37.17683" lon="-3.59942">
        <ele>691.700604</ele>
        <time>2022-04-19T10:15:40.000Z</time>
      </trkpt>
      <trkpt lat="37.17687" lon="-3.5994">
        <ele>691.788852</ele>
        <time>2022-04-19T10:15:42.000Z</time>
      </trkpt>
      <trkpt lat="37.1769" lon="-3.5993">
        <ele>692.006078</ele>
        <time>2022-04-19T10:15:47.000Z</time>
      </trkpt>
      <trkpt lat="37.1769" lon="-3.59928">
        <ele>692.030994</ele>
        <time>2022-04-19T10:15:48.000Z</time>
      </trkpt>
      <trkpt lat="37.17689" lon="-3.59927">
        <ele>692.054295</ele>
        <time>2022-04-19T10:15:49.000Z</time>
      </trkpt>
      <trkpt lat="37.17693" lon="-3.59927">
        <ele>692.133581</ele>
        <time>2022-04-19T10:15:53.000Z</time>
      </trkpt>
      <trkpt lat="37.17697" lon="-3.59921">
        <ele>692.271471</ele>
        <time>2022-04-19T10:15:57.000Z</time>
      </trkpt>
      <trkpt lat="37.17698" lon="-3.59917">
        <ele>692.348606</ele>
        <time>2022-04-19T10:15:59.000Z</time>
      </trkpt>
      <trkpt lat="37.17701" lon="-3.59915">
        <ele>692.425921</ele>
        <time>2022-04-19T10:16:01.000Z</time>
      </trkpt>
      <trkpt lat="37.17703" lon="-3.5991">
        <ele>692.522502</ele>
        <time>2022-04-19T10:16:03.000Z</time>
      </trkpt>
      <trkpt lat="37.17704" lon="-3.59908">
        <ele>692.575048</ele>
        <time>2022-04-19T10:16:04.000Z</time>
      </trkpt>
      <trkpt lat="37.17706" lon="-3.59903">
        <ele>692.679043</ele>
        <time>2022-04-19T10:16:06.000Z</time>
      </trkpt>
      <trkpt lat="37.17709" lon="-3.59896">
        <ele>692.830795</ele>
        <time>2022-04-19T10:16:09.000Z</time>
      </trkpt>
      <trkpt lat="37.1771" lon="-3.59894">
        <ele>692.879599</ele>
        <time>2022-04-19T10:16:10.000Z</time>
      </trkpt>
      <trkpt lat="37.17714" lon="-3.59887">
        <ele>693.002647</ele>
        <time>2022-04-19T10:16:14.000Z</time>
      </trkpt>
      <trkpt lat="37.17714" lon="-3.59887">
        <ele>693.008133</ele>
        <time>2022-04-19T10:16:16.000Z</time>
      </trkpt>
      <trkpt lat="37.17715" lon="-3.59888">
        <ele>693.025686</ele>
        <time>2022-04-19T10:16:23.000Z</time>
      </trkpt>
      <trkpt lat="37.17714" lon="-3.59888">
        <ele>693.037057</ele>
        <time>2022-04-19T10:16:33.000Z</time>
      </trkpt>
      <trkpt lat="37.17714" lon="-3.59887">
        <ele>693.046528</ele>
        <time>2022-04-19T10:16:44.000Z</time>
      </trkpt>
      <trkpt lat="37.17706" lon="-3.59877">
        <ele>693.164115</ele>
        <time>2022-04-19T10:16:49.000Z</time>
      </trkpt>
      <trkpt lat="37.17703" lon="-3.59873">
        <ele>693.210293</ele>
        <time>2022-04-19T10:16:52.000Z</time>
      </trkpt>
      <trkpt lat="37.17701" lon="-3.59873">
        <ele>693.234881</ele>
        <time>2022-04-19T10:16:53.000Z</time>
      </trkpt>
      <trkpt lat="37.1769" lon="-3.59869">
        <ele>693.355052</ele>
        <time>2022-04-19T10:16:57.000Z</time>
      </trkpt>
      <trkpt lat="37.17688" lon="-3.59864">
        <ele>693.403035</ele>
        <time>2022-04-19T10:16:59.000Z</time>
      </trkpt>
      <trkpt lat="37.17685" lon="-3.59859">
        <ele>693.45824</ele>
        <time>2022-04-19T10:17:01.000Z</time>
      </trkpt>
      <trkpt lat="37.17685" lon="-3.59853">
        <ele>693.507492</ele>
        <time>2022-04-19T10:17:02.000Z</time>
      </trkpt>
      <trkpt lat="37.17687" lon="-3.59844">
        <ele>693.586944</ele>
        <time>2022-04-19T10:17:04.000Z</time>
      </trkpt>
      <trkpt lat="37.17682" lon="-3.59843">
        <ele>693.6369</ele>
        <time>2022-04-19T10:17:06.000Z</time>
      </trkpt>
      <trkpt lat="37.17676" lon="-3.5984">
        <ele>693.702579</ele>
        <time>2022-04-19T10:17:08.000Z</time>
      </trkpt>
      <trkpt lat="37.17674" lon="-3.59837">
        <ele>693.745393</ele>
        <time>2022-04-19T10:17:11.000Z</time>
      </trkpt>
      <trkpt lat="37.17673" lon="-3.59836">
        <ele>693.753704</ele>
        <time>2022-04-19T10:17:12.000Z</time>
      </trkpt>
      <trkpt lat="37.17671" lon="-3.59835">
        <ele>693.781252</ele>
        <time>2022-04-19T10:17:14.000Z</time>
      </trkpt>
      <trkpt lat="37.17668" lon="-3.59832">
        <ele>693.822573</ele>
        <time>2022-04-19T10:17:16.000Z</time>
      </trkpt>
      <trkpt lat="37.17668" lon="-3.59828">
        <ele>693.858974</ele>
        <time>2022-04-19T10:17:18.000Z</time>
      </trkpt>
      <trkpt lat="37.17672" lon="-3.59824">
        <ele>693.91595</ele>
        <time>2022-04-19T10:17:20.000Z</time>
      </trkpt>
      <trkpt lat="37.17674" lon="-3.59823">
        <ele>693.939967</ele>
        <time>2022-04-19T10:17:21.000Z</time>
      </trkpt>
      <trkpt lat="37.17676" lon="-3.5982">
        <ele>693.975816</ele>
        <time>2022-04-19T10:17:25.000Z</time>
      </trkpt>
      <trkpt lat="37.17672" lon="-3.59813">
        <ele>694.046031</ele>
        <time>2022-04-19T10:17:32.000Z</time>
      </trkpt>
      <trkpt lat="37.1767" lon="-3.59809">
        <ele>694.084406</ele>
        <time>2022-04-19T10:17:35.000Z</time>
      </trkpt>
      <trkpt lat="37.17667" lon="-3.59806">
        <ele>694.129581</ele>
        <time>2022-04-19T10:17:38.000Z</time>
      </trkpt>
      <trkpt lat="37.17664" lon="-3.59798">
        <ele>694.20482</ele>
        <time>2022-04-19T10:17:44.000Z</time>
      </trkpt>
      <trkpt lat="37.17664" lon="-3.59796">
        <ele>694.22729</ele>
        <time>2022-04-19T10:17:45.000Z</time>
      </trkpt>
      <trkpt lat="37.17667" lon="-3.59793">
        <ele>694.268171</ele>
        <time>2022-04-19T10:17:48.000Z</time>
      </trkpt>
      <trkpt lat="37.17666" lon="-3.59793">
        <ele>694.277217</ele>
        <time>2022-04-19T10:17:49.000Z</time>
      </trkpt>
      <trkpt lat="37.17664" lon="-3.59783">
        <ele>694.365107</ele>
        <time>2022-04-19T10:17:53.000Z</time>
      </trkpt>
      <trkpt lat="37.17668" lon="-3.5977">
        <ele>694.480623</ele>
        <time>2022-04-19T10:17:58.000Z</time>
      </trkpt>
      <trkpt lat="37.1767" lon="-3.59763">
        <ele>694.546809</ele>
        <time>2022-04-19T10:18:02.000Z</time>
      </trkpt>
      <trkpt lat="37.1767" lon="-3.59761">
        <ele>694.566558</ele>
        <time>2022-04-19T10:18:03.000Z</time>
      </trkpt>
      <trkpt lat="37.17671" lon="-3.59754">
        <ele>694.626913</ele>
        <time>2022-04-19T10:18:07.000Z</time>
      </trkpt>
      <trkpt lat="37.17674" lon="-3.59753">
        <ele>694.658968</ele>
        <time>2022-04-19T10:18:08.000Z</time>
      </trkpt>
      <trkpt lat="37.17674" lon="-3.59751">
        <ele>694.678082</ele>
        <time>2022-04-19T10:18:09.000Z</time>
      </trkpt>
      <trkpt lat="37.17675" lon="-3.59749">
        <ele>694.701039</ele>
        <time>2022-04-19T10:18:10.000Z</time>
      </trkpt>
      <trkpt lat="37.17676" lon="-3.59743">
        <ele>694.751097</ele>
        <time>2022-04-19T10:18:13.000Z</time>
      </trkpt>
      <trkpt lat="37.17676" lon="-3.59742">
        <ele>694.764091</ele>
        <time>2022-04-19T10:18:14.000Z</time>
      </trkpt>
      <trkpt lat="37.1767" lon="-3.5974">
        <ele>694.835545</ele>
        <time>2022-04-19T10:18:20.000Z</time>
      </trkpt>
      <trkpt lat="37.1767" lon="-3.59737">
        <ele>694.853962</ele>
        <time>2022-04-19T10:18:24.000Z</time>
      </trkpt>
      <trkpt lat="37.1767" lon="-3.59739">
        <ele>694.864819</ele>
        <time>2022-04-19T10:18:25.000Z</time>
      </trkpt>
      <trkpt lat="37.17669" lon="-3.59741">
        <ele>694.890495</ele>
        <time>2022-04-19T10:18:31.000Z</time>
      </trkpt>
      <trkpt lat="37.17668" lon="-3.59738">
        <ele>694.915265</ele>
        <time>2022-04-19T10:18:36.000Z</time>
      </trkpt>
      <trkpt lat="37.17668" lon="-3.59736">
        <ele>694.930414</ele>
        <time>2022-04-19T10:18:39.000Z</time>
      </trkpt>
      <trkpt lat="37.17667" lon="-3.59735">
        <ele>694.942935</ele>
        <time>2022-04-19T10:18:42.000Z</time>
      </trkpt>
      <trkpt lat="37.17667" lon="-3.59734">
        <ele>694.944626</ele>
        <time>2022-04-19T10:18:43.000Z</time>
      </trkpt>
      <trkpt lat="37.17666" lon="-3.59734">
        <ele>694.948602</ele>
        <time>2022-04-19T10:18:44.000Z</time>
      </trkpt>
      <trkpt lat="37.17667" lon="-3.59733">
        <ele>694.959479</ele>
        <time>2022-04-19T10:18:45.000Z</time>
      </trkpt>
      <trkpt lat="37.17668" lon="-3.59732">
        <ele>694.967404</ele>
        <time>2022-04-19T10:18:46.000Z</time>
      </trkpt>
      <trkpt lat="37.17668" lon="-3.59731">
        <ele>694.971158</ele>
        <time>2022-04-19T10:18:47.000Z</time>
      </trkpt>
      <trkpt lat="37.17668" lon="-3.59731">
        <ele>694.975279</ele>
        <time>2022-04-19T10:18:49.000Z</time>
      </trkpt>
      <trkpt lat="37.17667" lon="-3.5973">
        <ele>694.985557</ele>
        <time>2022-04-19T10:18:50.000Z</time>
      </trkpt>
      <trkpt lat="37.17665" lon="-3.59727">
        <ele>695.011665</ele>
        <time>2022-04-19T10:18:53.000Z</time>
      </trkpt>
      <trkpt lat="37.17659" lon="-3.59728">
        <ele>695.05912</ele>
        <time>2022-04-19T10:18:56.000Z</time>
      </trkpt>
      <trkpt lat="37.17652" lon="-3.59728">
        <ele>695.109397</ele>
        <time>2022-04-19T10:19:00.000Z</time>
      </trkpt>
      <trkpt lat="37.17649" lon="-3.5973">
        <ele>695.138246</ele>
        <time>2022-04-19T10:19:02.000Z</time>
      </trkpt>
      <trkpt lat="37.17641" lon="-3.59731">
        <ele>695.19918</ele>
        <time>2022-04-19T10:19:07.000Z</time>
      </trkpt>
      <trkpt lat="37.17638" lon="-3.59729">
        <ele>695.224797</ele>
        <time>2022-04-19T10:19:08.000Z</time>
      </trkpt>
      <trkpt lat="37.17637" lon="-3.59726">
        <ele>695.244378</ele>
        <time>2022-04-19T10:19:09.000Z</time>
      </trkpt>
      <trkpt lat="37.1763" lon="-3.59726">
        <ele>695.296995</ele>
        <time>2022-04-19T10:19:12.000Z</time>
      </trkpt>
      <trkpt lat="37.17628" lon="-3.59723">
        <ele>695.323589</ele>
        <time>2022-04-19T10:19:14.000Z</time>
      </trkpt>
      <trkpt lat="37.17628" lon="-3.59717">
        <ele>695.359566</ele>
        <time>2022-04-19T10:19:16.000Z</time>
      </trkpt>
      <trkpt lat="37.17628" lon="-3.59715">
        <ele>695.374584</ele>
        <time>2022-04-19T10:19:17.000Z</time>
      </trkpt>
      <trkpt lat="37.17627" lon="-3.59709">
        <ele>695.408519</ele>
        <time>2022-04-19T10:19:20.000Z</time>
      </trkpt>
      <trkpt lat="37.17628" lon="-3.59704">
        <ele>695.438438</ele>
        <time>2022-04-19T10:19:22.000Z</time>
      </trkpt>
      <trkpt lat="37.17618" lon="-3.59692">
        <ele>695.545629</ele>
        <time>2022-04-19T10:19:28.000Z</time>
      </trkpt>
      <trkpt lat="37.17617" lon="-3.59686">
        <ele>695.583785</ele>
        <time>2022-04-19T10:19:33.000Z</time>
      </trkpt>
      <trkpt lat="37.17611" lon="-3.59681">
        <ele>695.63876</ele>
        <time>2022-04-19T10:19:40.000Z</time>
      </trkpt>
      <trkpt lat="37.17613" lon="-3.59681">
        <ele>695.656048</ele>
        <time>2022-04-19T10:19:46.000Z</time>
      </trkpt>
      <trkpt lat="37.17611" lon="-3.59681">
        <ele>695.674208</ele>
        <time>2022-04-19T10:19:48.000Z</time>
      </trkpt>
      <trkpt lat="37.17612" lon="-3.59684">
        <ele>695.696592</ele>
        <time>2022-04-19T10:19:53.000Z</time>
      </trkpt>
      <trkpt lat="37.17615" lon="-3.59678">
        <ele>695.738601</ele>
        <time>2022-04-19T10:19:58.000Z</time>
      </trkpt>
      <trkpt lat="37.17614" lon="-3.59676">
        <ele>695.753522</ele>
        <time>2022-04-19T10:20:05.000Z</time>
      </trkpt>
      <trkpt lat="37.17614" lon="-3.59672">
        <ele>695.779189</ele>
        <time>2022-04-19T10:20:10.000Z</time>
      </trkpt>
      <trkpt lat="37.17615" lon="-3.59671">
        <ele>695.787519</ele>
        <time>2022-04-19T10:20:11.000Z</time>
      </trkpt>
      <trkpt lat="37.17621" lon="-3.59665">
        <ele>695.855027</ele>
        <time>2022-04-19T10:20:19.000Z</time>
      </trkpt>
      <trkpt lat="37.17623" lon="-3.59664">
        <ele>695.867732</ele>
        <time>2022-04-19T10:20:20.000Z</time>
      </trkpt>
      <trkpt lat="37.17626" lon="-3.59664">
        <ele>695.89072</ele>
        <time>2022-04-19T10:20:22.000Z</time>
      </trkpt>
      <trkpt lat="37.1763" lon="-3.5966">
        <ele>695.92866</ele>
        <time>2022-04-19T10:20:26.000Z</time>
      </trkpt>
      <trkpt lat="37.17631" lon="-3.59658">
        <ele>695.947461</ele>
        <time>2022-04-19T10:20:29.000Z</time>
      </trkpt>
      <trkpt lat="37.17635" lon="-3.59654">
        <ele>695.989248</ele>
        <time>2022-04-19T10:20:32.000Z</time>
      </trkpt>
      <trkpt lat="37.17641" lon="-3.59644">
        <ele>696.06388</ele>
        <time>2022-04-19T10:20:36.000Z</time>
      </trkpt>
      <trkpt lat="37.17643" lon="-3.59638">
        <ele>696.104594</ele>
        <time>2022-04-19T10:20:38.000Z</time>
      </trkpt>
      <trkpt lat="37.17656" lon="-3.59625">
        <ele>696.235978</ele>
        <time>2022-04-19T10:20:45.000Z</time>
      </trkpt>
      <trkpt lat="37.1766" lon="-3.59621">
        <ele>696.278942</ele>
        <time>2022-04-19T10:20:48.000Z</time>
      </trkpt>
      <trkpt lat="37.17666" lon="-3.59612">
        <ele>696.353085</ele>
        <time>2022-04-19T10:20:52.000Z</time>
      </trkpt>
      <trkpt lat="37.17674" lon="-3.59602">
        <ele>696.449086</ele>
        <time>2022-04-19T10:20:58.000Z</time>
      </trkpt>
      <trkpt lat="37.17676" lon="-3.59601">
        <ele>696.470454</ele>
        <time>2022-04-19T10:20:59.000Z</time>
      </trkpt>
      <trkpt lat="37.17681" lon="-3.59592">
        <ele>696.549164</ele>
        <time>2022-04-19T10:21:03.000Z</time>
      </trkpt>
      <trkpt lat="37.17683" lon="-3.5959">
        <ele>696.570593</ele>
        <time>2022-04-19T10:21:04.000Z</time>
      </trkpt>
      <trkpt lat="37.17689" lon="-3.59586">
        <ele>696.631947</ele>
        <time>2022-04-19T10:21:07.000Z</time>
      </trkpt>
      <trkpt lat="37.17693" lon="-3.59586">
        <ele>696.671595</ele>
        <time>2022-04-19T10:21:10.000Z</time>
      </trkpt>
      <trkpt lat="37.17695" lon="-3.59581">
        <ele>696.708647</ele>
        <time>2022-04-19T10:21:12.000Z</time>
      </trkpt>
      <trkpt lat="37.177" lon="-3.59573">
        <ele>696.78107</ele>
        <time>2022-04-19T10:21:15.000Z</time>
      </trkpt>
      <trkpt lat="37.17706" lon="-3.59563">
        <ele>696.872585</ele>
        <time>2022-04-19T10:21:19.000Z</time>
      </trkpt>
      <trkpt lat="37.17712" lon="-3.59551">
        <ele>696.974281</ele>
        <time>2022-04-19T10:21:25.000Z</time>
      </trkpt>
      <trkpt lat="37.1772" lon="-3.59539">
        <ele>697.086644</ele>
        <time>2022-04-19T10:21:32.000Z</time>
      </trkpt>
      <trkpt lat="37.17721" lon="-3.59537">
        <ele>697.102947</ele>
        <time>2022-04-19T10:21:33.000Z</time>
      </trkpt>
      <trkpt lat="37.17729" lon="-3.59527">
        <ele>697.201874</ele>
        <time>2022-04-19T10:21:39.000Z</time>
      </trkpt>
      <trkpt lat="37.17734" lon="-3.59518">
        <ele>697.286099</ele>
        <time>2022-04-19T10:21:44.000Z</time>
      </trkpt>
      <trkpt lat="37.17735" lon="-3.59516">
        <ele>697.306179</ele>
        <time>2022-04-19T10:21:45.000Z</time>
      </trkpt>
      <trkpt lat="37.17738" lon="-3.59505">
        <ele>697.384015</ele>
        <time>2022-04-19T10:21:49.000Z</time>
      </trkpt>
      <trkpt lat="37.17747" lon="-3.5949">
        <ele>697.521015</ele>
        <time>2022-04-19T10:21:56.000Z</time>
      </trkpt>
      <trkpt lat="37.17757" lon="-3.59476">
        <ele>697.652393</ele>
        <time>2022-04-19T10:22:03.000Z</time>
      </trkpt>
      <trkpt lat="37.17759" lon="-3.5947">
        <ele>697.697857</ele>
        <time>2022-04-19T10:22:07.000Z</time>
      </trkpt>
      <trkpt lat="37.17762" lon="-3.5947">
        <ele>697.723729</ele>
        <time>2022-04-19T10:22:09.000Z</time>
      </trkpt>
      <trkpt lat="37.17766" lon="-3.59459">
        <ele>697.813757</ele>
        <time>2022-04-19T10:22:13.000Z</time>
      </trkpt>
      <trkpt lat="37.17775" lon="-3.59444">
        <ele>697.944261</ele>
        <time>2022-04-19T10:22:19.000Z</time>
      </trkpt>
      <trkpt lat="37.17779" lon="-3.59429">
        <ele>698.042935</ele>
        <time>2022-04-19T10:22:25.000Z</time>
      </trkpt>
      <trkpt lat="37.17786" lon="-3.59414">
        <ele>698.157288</ele>
        <time>2022-04-19T10:22:31.000Z</time>
      </trkpt>
      <trkpt lat="37.17791" lon="-3.59399">
        <ele>698.264981</ele>
        <time>2022-04-19T10:22:37.000Z</time>
      </trkpt>
      <trkpt lat="37.17796" lon="-3.59384">
        <ele>698.369234</ele>
        <time>2022-04-19T10:22:43.000Z</time>
      </trkpt>
      <trkpt lat="37.17799" lon="-3.59374">
        <ele>698.435258</ele>
        <time>2022-04-19T10:22:47.000Z</time>
      </trkpt>
      <trkpt lat="37.17799" lon="-3.59365">
        <ele>698.492544</ele>
        <time>2022-04-19T10:22:51.000Z</time>
      </trkpt>
      <trkpt lat="37.17797" lon="-3.59359">
        <ele>698.534454</ele>
        <time>2022-04-19T10:22:53.000Z</time>
      </trkpt>
      <trkpt lat="37.17797" lon="-3.59357">
        <ele>698.547934</ele>
        <time>2022-04-19T10:22:54.000Z</time>
      </trkpt>
      <trkpt lat="37.17799" lon="-3.59349">
        <ele>698.598241</ele>
        <time>2022-04-19T10:22:58.000Z</time>
      </trkpt>
      <trkpt lat="37.178" lon="-3.5933">
        <ele>698.723113</ele>
        <time>2022-04-19T10:23:04.000Z</time>
      </trkpt>
      <trkpt lat="37.178" lon="-3.59323">
        <ele>698.764983</ele>
        <time>2022-04-19T10:23:06.000Z</time>
      </trkpt>
      <trkpt lat="37.17801" lon="-3.59315">
        <ele>698.820497</ele>
        <time>2022-04-19T10:23:09.000Z</time>
      </trkpt>
      <trkpt lat="37.17804" lon="-3.59304">
        <ele>698.892675</ele>
        <time>2022-04-19T10:23:13.000Z</time>
      </trkpt>
      <trkpt lat="37.17804" lon="-3.59298">
        <ele>698.930192</ele>
        <time>2022-04-19T10:23:15.000Z</time>
      </trkpt>
      <trkpt lat="37.17809" lon="-3.5929">
        <ele>698.991267</ele>
        <time>2022-04-19T10:23:20.000Z</time>
      </trkpt>
      <trkpt lat="37.17809" lon="-3.5929">
        <ele>698.994582</ele>
        <time>2022-04-19T10:23:21.000Z</time>
      </trkpt>
      <trkpt lat="37.17809" lon="-3.59289">
        <ele>699.000268</ele>
        <time>2022-04-19T10:23:25.000Z</time>
      </trkpt>
      <trkpt lat="37.17809" lon="-3.59289">
        <ele>699.004824</ele>
        <time>2022-04-19T10:23:26.000Z</time>
      </trkpt>
      <trkpt lat="37.17811" lon="-3.5929">
        <ele>699.024017</ele>
        <time>2022-04-19T10:23:31.000Z</time>
      </trkpt>
      <trkpt lat="37.17815" lon="-3.59292">
        <ele>699.059075</ele>
        <time>2022-04-19T10:23:39.000Z</time>
      </trkpt>
      <trkpt lat="37.17818" lon="-3.59294">
        <ele>699.090457</ele>
        <time>2022-04-19T10:23:45.000Z</time>
      </trkpt>
      <trkpt lat="37.1782" lon="-3.59294">
        <ele>699.101757</ele>
        <time>2022-04-19T10:23:47.000Z</time>
      </trkpt>
      <trkpt lat="37.1782" lon="-3.59294">
        <ele>699.10897</ele>
        <time>2022-04-19T10:23:49.000Z</time>
      </trkpt>
      <trkpt lat="37.17821" lon="-3.59295">
        <ele>699.116036</ele>
        <time>2022-04-19T10:23:54.000Z</time>
      </trkpt>
      <trkpt lat="37.17821" lon="-3.59294">
        <ele>699.125039</ele>
        <time>2022-04-19T10:23:59.000Z</time>
      </trkpt>
      <trkpt lat="37.17825" lon="-3.59288">
        <ele>699.173341</ele>
        <time>2022-04-19T10:24:04.000Z</time>
      </trkpt>
      <trkpt lat="37.17826" lon="-3.59286">
        <ele>699.193049</ele>
        <time>2022-04-19T10:24:06.000Z</time>
      </trkpt>
      <trkpt lat="37.17829" lon="-3.59283">
        <ele>699.223185</ele>
        <time>2022-04-19T10:24:10.000Z</time>
      </trkpt>
      <trkpt lat="37.17831" lon="-3.59279">
        <ele>699.250365</ele>
        <time>2022-04-19T10:24:14.000Z</time>
      </trkpt>
      <trkpt lat="37.17832" lon="-3.59278">
        <ele>699.263476</ele>
        <time>2022-04-19T10:24:16.000Z</time>
      </trkpt>
      <trkpt lat="37.17835" lon="-3.59277">
        <ele>699.287356</ele>
        <time>2022-04-19T10:24:23.000Z</time>
      </trkpt>
      <trkpt lat="37.17835" lon="-3.59277">
        <ele>699.289447</ele>
        <time>2022-04-19T10:24:24.000Z</time>
      </trkpt>
      <trkpt lat="37.17836" lon="-3.59276">
        <ele>699.297319</ele>
        <time>2022-04-19T10:24:30.000Z</time>
      </trkpt>
      <trkpt lat="37.17836" lon="-3.59277">
        <ele>699.300015</ele>
        <time>2022-04-19T10:24:35.000Z</time>
      </trkpt>
      <trkpt lat="37.17836" lon="-3.59276">
        <ele>699.306023</ele>
        <time>2022-04-19T10:24:38.000Z</time>
      </trkpt>
      <trkpt lat="37.17837" lon="-3.59276">
        <ele>699.312865</ele>
        <time>2022-04-19T10:24:44.000Z</time>
      </trkpt>
      <trkpt lat="37.17837" lon="-3.59276">
        <ele>699.312865</ele>
        <time>2022-04-19T10:24:48.000Z</time>
      </trkpt>
      <trkpt lat="37.17837" lon="-3.59278">
        <ele>699.325828</ele>
        <time>2022-04-19T10:24:52.000Z</time>
      </trkpt>
      <trkpt lat="37.17836" lon="-3.59278">
        <ele>699.338757</ele>
        <time>2022-04-19T10:24:54.000Z</time>
      </trkpt>
      <trkpt lat="37.17838" lon="-3.59281">
        <ele>699.364963</ele>
        <time>2022-04-19T10:24:57.000Z</time>
      </trkpt>
      <trkpt lat="37.17853" lon="-3.59286">
        <ele>699.564112</ele>
        <time>2022-04-19T10:25:05.000Z</time>
      </trkpt>
      <trkpt lat="37.17811" lon="-3.59271">
        <ele>700.232373</ele>
        <time>2022-04-19T10:34:53.000Z</time>
      </trkpt>
      <trkpt lat="37.17832" lon="-3.59275">
        <ele>700.557928</ele>
        <time>2022-04-19T10:34:57.000Z</time>
      </trkpt>
      <trkpt lat="37.17825" lon="-3.59269">
        <ele>700.695343</ele>
        <time>2022-04-19T10:35:03.000Z</time>
      </trkpt>
      <trkpt lat="37.17826" lon="-3.5927">
        <ele>700.715777</ele>
        <time>2022-04-19T10:35:05.000Z</time>
      </trkpt>
      <trkpt lat="37.17833" lon="-3.59274">
        <ele>700.835076</ele>
        <time>2022-04-19T10:35:14.000Z</time>
      </trkpt>
      <trkpt lat="37.17835" lon="-3.59279">
        <ele>700.903126</ele>
        <time>2022-04-19T10:35:23.000Z</time>
      </trkpt>
      <trkpt lat="37.17833" lon="-3.59279">
        <ele>700.943991</ele>
        <time>2022-04-19T10:35:32.000Z</time>
      </trkpt>
      <trkpt lat="37.17829" lon="-3.59278">
        <ele>701.000402</ele>
        <time>2022-04-19T10:35:39.000Z</time>
      </trkpt>
      <trkpt lat="37.17829" lon="-3.59278">
        <ele>701.000402</ele>
        <time>2022-04-19T10:35:42.000Z</time>
      </trkpt>
      <trkpt lat="37.1783" lon="-3.59279">
        <ele>701.017701</ele>
        <time>2022-04-19T10:35:51.000Z</time>
      </trkpt>
      <trkpt lat="37.17832" lon="-3.59279">
        <ele>701.042289</ele>
        <time>2022-04-19T10:35:59.000Z</time>
      </trkpt>
      <trkpt lat="37.17832" lon="-3.59278">
        <ele>701.049635</ele>
        <time>2022-04-19T10:36:13.000Z</time>
      </trkpt>
      <trkpt lat="37.17832" lon="-3.59277">
        <ele>701.059215</ele>
        <time>2022-04-19T10:36:48.000Z</time>
      </trkpt>
      <trkpt lat="37.17832" lon="-3.59277">
        <ele>701.069481</ele>
        <time>2022-04-19T10:36:57.000Z</time>
      </trkpt>
      <trkpt lat="37.17832" lon="-3.59276">
        <ele>701.077145</ele>
        <time>2022-04-19T10:37:09.000Z</time>
      </trkpt>
      <trkpt lat="37.17832" lon="-3.59276">
        <ele>701.077145</ele>
        <time>2022-04-19T10:37:16.000Z</time>
      </trkpt>
      <trkpt lat="37.17832" lon="-3.59276">
        <ele>701.078369</ele>
        <time>2022-04-19T10:37:17.000Z</time>
      </trkpt>
      <trkpt lat="37.17833" lon="-3.59277">
        <ele>701.091603</ele>
        <time>2022-04-19T10:37:22.000Z</time>
      </trkpt>
      <trkpt lat="37.17834" lon="-3.59277">
        <ele>701.115454</ele>
        <time>2022-04-19T10:37:48.000Z</time>
      </trkpt>
      <trkpt lat="37.17832" lon="-3.59276">
        <ele>701.146252</ele>
        <time>2022-04-19T10:38:40.000Z</time>
      </trkpt>
      <trkpt lat="37.17832" lon="-3.59277">
        <ele>701.149143</ele>
        <time>2022-04-19T10:38:43.000Z</time>
      </trkpt>
      <trkpt lat="37.17833" lon="-3.59277">
        <ele>701.156304</ele>
        <time>2022-04-19T10:38:44.000Z</time>
      </trkpt>
      <trkpt lat="37.17833" lon="-3.59277">
        <ele>701.156304</ele>
        <time>2022-04-19T10:38:45.000Z</time>
      </trkpt>
      <trkpt lat="37.17835" lon="-3.59278">
        <ele>701.191466</ele>
        <time>2022-04-19T10:38:51.000Z</time>
      </trkpt>
      <trkpt lat="37.17835" lon="-3.59279">
        <ele>701.195448</ele>
        <time>2022-04-19T10:38:58.000Z</time>
      </trkpt>
      <trkpt lat="37.17836" lon="-3.59278">
        <ele>701.219014</ele>
        <time>2022-04-19T10:39:10.000Z</time>
      </trkpt>
      <trkpt lat="37.17836" lon="-3.59278">
        <ele>701.219014</ele>
        <time>2022-04-19T10:39:27.000Z</time>
      </trkpt>
      <trkpt lat="37.17834" lon="-3.59278">
        <ele>701.249773</ele>
        <time>2022-04-19T10:40:06.000Z</time>
      </trkpt>
      <trkpt lat="37.17834" lon="-3.59278">
        <ele>701.258886</ele>
        <time>2022-04-19T10:40:13.000Z</time>
      </trkpt>
      <trkpt lat="37.17833" lon="-3.59277">
        <ele>701.2805</ele>
        <time>2022-04-19T10:40:25.000Z</time>
      </trkpt>
      <trkpt lat="37.17831" lon="-3.59276">
        <ele>701.31547</ele>
        <time>2022-04-19T10:40:35.000Z</time>
      </trkpt>
      <trkpt lat="37.17831" lon="-3.59276">
        <ele>701.31547</ele>
        <time>2022-04-19T10:40:39.000Z</time>
      </trkpt>
      <trkpt lat="37.17832" lon="-3.59276">
        <ele>701.332418</ele>
        <time>2022-04-19T10:40:55.000Z</time>
      </trkpt>
      <trkpt lat="37.1783" lon="-3.59275">
        <ele>701.364333</ele>
        <time>2022-04-19T10:41:21.000Z</time>
      </trkpt>
      <trkpt lat="37.17831" lon="-3.59275">
        <ele>701.387492</ele>
        <time>2022-04-19T10:41:25.000Z</time>
      </trkpt>
      <trkpt lat="37.17833" lon="-3.59275">
        <ele>701.418446</ele>
        <time>2022-04-19T10:41:27.000Z</time>
      </trkpt>
      <trkpt lat="37.17836" lon="-3.59272">
        <ele>701.473863</ele>
        <time>2022-04-19T10:41:30.000Z</time>
      </trkpt>
      <trkpt lat="37.17837" lon="-3.5927">
        <ele>701.498038</ele>
        <time>2022-04-19T10:41:32.000Z</time>
      </trkpt>
      <trkpt lat="37.17837" lon="-3.5927">
        <ele>701.499574</ele>
        <time>2022-04-19T10:41:34.000Z</time>
      </trkpt>
      <trkpt lat="37.17837" lon="-3.5927">
        <ele>701.499574</ele>
        <time>2022-04-19T10:41:37.000Z</time>
      </trkpt>
      <trkpt lat="37.17837" lon="-3.5927">
        <ele>701.499574</ele>
        <time>2022-04-19T10:41:38.000Z</time>
      </trkpt>
      <trkpt lat="37.17836" lon="-3.5927">
        <ele>701.507434</ele>
        <time>2022-04-19T10:41:46.000Z</time>
      </trkpt>
      <trkpt lat="37.17838" lon="-3.59265">
        <ele>701.57739</ele>
        <time>2022-04-19T10:41:49.000Z</time>
      </trkpt>
      <trkpt lat="37.1784" lon="-3.59252">
        <ele>701.734408</ele>
        <time>2022-04-19T10:41:55.000Z</time>
      </trkpt>
      <trkpt lat="37.17842" lon="-3.59247">
        <ele>701.802911</ele>
        <time>2022-04-19T10:41:58.000Z</time>
      </trkpt>
      <trkpt lat="37.17843" lon="-3.59246">
        <ele>701.822217</ele>
        <time>2022-04-19T10:41:59.000Z</time>
      </trkpt>
      <trkpt lat="37.17844" lon="-3.59245">
        <ele>701.844243</ele>
        <time>2022-04-19T10:42:02.000Z</time>
      </trkpt>
      <trkpt lat="37.17841" lon="-3.59241">
        <ele>701.899795</ele>
        <time>2022-04-19T10:42:05.000Z</time>
      </trkpt>
      <trkpt lat="37.1784" lon="-3.5924">
        <ele>701.921931</ele>
        <time>2022-04-19T10:42:06.000Z</time>
      </trkpt>
      <trkpt lat="37.1784" lon="-3.59241">
        <ele>701.934555</ele>
        <time>2022-04-19T10:42:09.000Z</time>
      </trkpt>
      <trkpt lat="37.17841" lon="-3.59242">
        <ele>701.958728</ele>
        <time>2022-04-19T10:42:11.000Z</time>
      </trkpt>
      <trkpt lat="37.17841" lon="-3.59242">
        <ele>701.969761</ele>
        <time>2022-04-19T10:42:13.000Z</time>
      </trkpt>
      <trkpt lat="37.17844" lon="-3.59245">
        <ele>702.029102</ele>
        <time>2022-04-19T10:42:18.000Z</time>
      </trkpt>
      <trkpt lat="37.17845" lon="-3.59247">
        <ele>702.062629</ele>
        <time>2022-04-19T10:42:19.000Z</time>
      </trkpt>
      <trkpt lat="37.17849" lon="-3.59252">
        <ele>702.141806</ele>
        <time>2022-04-19T10:42:21.000Z</time>
      </trkpt>
      <trkpt lat="37.17849" lon="-3.59255">
        <ele>702.18579</ele>
        <time>2022-04-19T10:42:22.000Z</time>
      </trkpt>
      <trkpt lat="37.17851" lon="-3.59257">
        <ele>702.268532</ele>
        <time>2022-04-19T10:42:23.000Z</time>
      </trkpt>
      <trkpt lat="37.17853" lon="-3.59259">
        <ele>702.350984</ele>
        <time>2022-04-19T10:42:24.000Z</time>
      </trkpt>
      <trkpt lat="37.17855" lon="-3.5926">
        <ele>702.415216</ele>
        <time>2022-04-19T10:42:25.000Z</time>
      </trkpt>
      <trkpt lat="37.17859" lon="-3.59263">
        <ele>702.571509</ele>
        <time>2022-04-19T10:42:27.000Z</time>
      </trkpt>
      <trkpt lat="37.17864" lon="-3.59265">
        <ele>702.739648</ele>
        <time>2022-04-19T10:42:29.000Z</time>
      </trkpt>
      <trkpt lat="37.17866" lon="-3.59267">
        <ele>702.847068</ele>
        <time>2022-04-19T10:42:30.000Z</time>
      </trkpt>
      <trkpt lat="37.17868" lon="-3.59269">
        <ele>702.919607</ele>
        <time>2022-04-19T10:42:31.000Z</time>
      </trkpt>
      <trkpt lat="37.17869" lon="-3.59271">
        <ele>702.989564</ele>
        <time>2022-04-19T10:42:32.000Z</time>
      </trkpt>
      <trkpt lat="37.17872" lon="-3.59272">
        <ele>703.09189</ele>
        <time>2022-04-19T10:42:33.000Z</time>
      </trkpt>
      <trkpt lat="37.17878" lon="-3.59273">
        <ele>703.28181</ele>
        <time>2022-04-19T10:42:35.000Z</time>
      </trkpt>
      <trkpt lat="37.17883" lon="-3.59271">
        <ele>703.475361</ele>
        <time>2022-04-19T10:42:37.000Z</time>
      </trkpt>
      <trkpt lat="37.17888" lon="-3.59268">
        <ele>703.644565</ele>
        <time>2022-04-19T10:42:39.000Z</time>
      </trkpt>
      <trkpt lat="37.17888" lon="-3.59268">
        <ele>703.649812</ele>
        <time>2022-04-19T10:42:40.000Z</time>
      </trkpt>
      <trkpt lat="37.17889" lon="-3.59268">
        <ele>703.675077</ele>
        <time>2022-04-19T10:42:41.000Z</time>
      </trkpt>
      <trkpt lat="37.1789" lon="-3.59266">
        <ele>703.735156</ele>
        <time>2022-04-19T10:42:42.000Z</time>
      </trkpt>
      <trkpt lat="37.17886" lon="-3.59267">
        <ele>703.891355</ele>
        <time>2022-04-19T10:42:46.000Z</time>
      </trkpt>
      <trkpt lat="37.17883" lon="-3.59269">
        <ele>703.974426</ele>
        <time>2022-04-19T10:42:48.000Z</time>
      </trkpt>
      <trkpt lat="37.17879" lon="-3.5927">
        <ele>704.116887</ele>
        <time>2022-04-19T10:42:50.000Z</time>
      </trkpt>
      <trkpt lat="37.17878" lon="-3.59272">
        <ele>704.183346</ele>
        <time>2022-04-19T10:42:52.000Z</time>
      </trkpt>
      <trkpt lat="37.1788" lon="-3.59275">
        <ele>704.269547</ele>
        <time>2022-04-19T10:42:54.000Z</time>
      </trkpt>
      <trkpt lat="37.17882" lon="-3.59279">
        <ele>704.407304</ele>
        <time>2022-04-19T10:42:57.000Z</time>
      </trkpt>
      <trkpt lat="37.17885" lon="-3.59281">
        <ele>704.516093</ele>
        <time>2022-04-19T10:42:58.000Z</time>
      </trkpt>
      <trkpt lat="37.17889" lon="-3.59282">
        <ele>704.661849</ele>
        <time>2022-04-19T10:42:59.000Z</time>
      </trkpt>
      <trkpt lat="37.17896" lon="-3.59283">
        <ele>704.889222</ele>
        <time>2022-04-19T10:43:01.000Z</time>
      </trkpt>
      <trkpt lat="37.17906" lon="-3.59283">
        <ele>705.23197</ele>
        <time>2022-04-19T10:43:03.000Z</time>
      </trkpt>
      <trkpt lat="37.17907" lon="-3.59282">
        <ele>705.244361</ele>
        <time>2022-04-19T10:43:04.000Z</time>
      </trkpt>
      <trkpt lat="37.179" lon="-3.59285">
        <ele>705.480874</ele>
        <time>2022-04-19T10:43:05.000Z</time>
      </trkpt>
      <trkpt lat="37.17894" lon="-3.59287">
        <ele>705.681995</ele>
        <time>2022-04-19T10:43:06.000Z</time>
      </trkpt>
      <trkpt lat="37.17894" lon="-3.59285">
        <ele>705.73356</ele>
        <time>2022-04-19T10:43:07.000Z</time>
      </trkpt>
      <trkpt lat="37.17886" lon="-3.59278">
        <ele>706.071535</ele>
        <time>2022-04-19T10:43:09.000Z</time>
      </trkpt>
      <trkpt lat="37.17885" lon="-3.59278">
        <ele>706.118307</ele>
        <time>2022-04-19T10:43:10.000Z</time>
      </trkpt>
      <trkpt lat="37.17882" lon="-3.59275">
        <ele>706.234079</ele>
        <time>2022-04-19T10:43:12.000Z</time>
      </trkpt>
      <trkpt lat="37.17884" lon="-3.59273">
        <ele>706.340091</ele>
        <time>2022-04-19T10:43:16.000Z</time>
      </trkpt>
      <trkpt lat="37.17886" lon="-3.59274">
        <ele>706.410061</ele>
        <time>2022-04-19T10:43:20.000Z</time>
      </trkpt>
      <trkpt lat="37.17887" lon="-3.59276">
        <ele>706.470331</ele>
        <time>2022-04-19T10:43:24.000Z</time>
      </trkpt>
      <trkpt lat="37.1789" lon="-3.59276">
        <ele>706.56641</ele>
        <time>2022-04-19T10:43:28.000Z</time>
      </trkpt>
      <trkpt lat="37.17891" lon="-3.59277">
        <ele>706.591739</ele>
        <time>2022-04-19T10:43:29.000Z</time>
      </trkpt>
      <trkpt lat="37.17891" lon="-3.59277">
        <ele>706.611672</ele>
        <time>2022-04-19T10:43:30.000Z</time>
      </trkpt>
      <trkpt lat="37.17894" lon="-3.59274">
        <ele>706.739646</ele>
        <time>2022-04-19T10:43:33.000Z</time>
      </trkpt>
      <trkpt lat="37.17897" lon="-3.5927">
        <ele>706.865603</ele>
        <time>2022-04-19T10:43:34.000Z</time>
      </trkpt>
      <trkpt lat="37.17904" lon="-3.59262">
        <ele>707.176741</ele>
        <time>2022-04-19T10:43:37.000Z</time>
      </trkpt>
      <trkpt lat="37.17905" lon="-3.5926">
        <ele>707.25908</ele>
        <time>2022-04-19T10:43:38.000Z</time>
      </trkpt>
      <trkpt lat="37.17906" lon="-3.59258">
        <ele>707.309904</ele>
        <time>2022-04-19T10:43:39.000Z</time>
      </trkpt>
      <trkpt lat="37.17906" lon="-3.59253">
        <ele>707.449942</ele>
        <time>2022-04-19T10:43:41.000Z</time>
      </trkpt>
      <trkpt lat="37.17906" lon="-3.59251">
        <ele>707.503342</ele>
        <time>2022-04-19T10:43:42.000Z</time>
      </trkpt>
      <trkpt lat="37.17907" lon="-3.59241">
        <ele>707.752699</ele>
        <time>2022-04-19T10:43:45.000Z</time>
      </trkpt>
      <trkpt lat="37.17906" lon="-3.59235">
        <ele>707.921252</ele>
        <time>2022-04-19T10:43:47.000Z</time>
      </trkpt>
      <trkpt lat="37.17905" lon="-3.59232">
        <ele>708.000475</ele>
        <time>2022-04-19T10:43:48.000Z</time>
      </trkpt>
      <trkpt lat="37.17904" lon="-3.59229">
        <ele>708.100499</ele>
        <time>2022-04-19T10:43:49.000Z</time>
      </trkpt>
      <trkpt lat="37.17903" lon="-3.59223">
        <ele>708.417373</ele>
        <time>2022-04-19T10:43:51.000Z</time>
      </trkpt>
      <trkpt lat="37.17903" lon="-3.59216">
        <ele>708.784399</ele>
        <time>2022-04-19T10:43:54.000Z</time>
      </trkpt>
      <trkpt lat="37.17903" lon="-3.59213">
        <ele>708.932305</ele>
        <time>2022-04-19T10:43:55.000Z</time>
      </trkpt>
      <trkpt lat="37.17905" lon="-3.59206">
        <ele>709.313401</ele>
        <time>2022-04-19T10:43:58.000Z</time>
      </trkpt>
      <trkpt lat="37.17907" lon="-3.59193">
        <ele>710.013931</ele>
        <time>2022-04-19T10:44:04.000Z</time>
      </trkpt>
      <trkpt lat="37.17909" lon="-3.59189">
        <ele>710.25866</ele>
        <time>2022-04-19T10:44:06.000Z</time>
      </trkpt>
      <trkpt lat="37.17909" lon="-3.59186">
        <ele>710.438553</ele>
        <time>2022-04-19T10:44:08.000Z</time>
      </trkpt>
      <trkpt lat="37.17909" lon="-3.59182">
        <ele>710.644767</ele>
        <time>2022-04-19T10:44:11.000Z</time>
      </trkpt>
      <trkpt lat="37.17911" lon="-3.59182">
        <ele>710.76686</ele>
        <time>2022-04-19T10:44:13.000Z</time>
      </trkpt>
      <trkpt lat="37.17913" lon="-3.59185">
        <ele>710.975305</ele>
        <time>2022-04-19T10:44:16.000Z</time>
      </trkpt>
      <trkpt lat="37.17915" lon="-3.59185">
        <ele>711.088384</ele>
        <time>2022-04-19T10:44:17.000Z</time>
      </trkpt>
      <trkpt lat="37.17918" lon="-3.59185">
        <ele>711.260654</ele>
        <time>2022-04-19T10:44:22.000Z</time>
      </trkpt>
      <trkpt lat="37.17916" lon="-3.59187">
        <ele>711.38256</ele>
        <time>2022-04-19T10:44:27.000Z</time>
      </trkpt>
      <trkpt lat="37.17915" lon="-3.59187">
        <ele>711.442397</ele>
        <time>2022-04-19T10:44:28.000Z</time>
      </trkpt>
      <trkpt lat="37.17913" lon="-3.59184">
        <ele>711.659403</ele>
        <time>2022-04-19T10:44:32.000Z</time>
      </trkpt>
      <trkpt lat="37.17911" lon="-3.59185">
        <ele>711.776356</ele>
        <time>2022-04-19T10:44:33.000Z</time>
      </trkpt>
      <trkpt lat="37.17914" lon="-3.59189">
        <ele>712.086279</ele>
        <time>2022-04-19T10:44:37.000Z</time>
      </trkpt>
      <trkpt lat="37.17917" lon="-3.59187">
        <ele>712.263839</ele>
        <time>2022-04-19T10:44:38.000Z</time>
      </trkpt>
      <trkpt lat="37.17916" lon="-3.59188">
        <ele>712.331931</ele>
        <time>2022-04-19T10:44:40.000Z</time>
      </trkpt>
      <trkpt lat="37.17915" lon="-3.59195">
        <ele>712.703425</ele>
        <time>2022-04-19T10:44:45.000Z</time>
      </trkpt>
      <trkpt lat="37.17917" lon="-3.59196">
        <ele>712.818479</ele>
        <time>2022-04-19T10:44:46.000Z</time>
      </trkpt>
      <trkpt lat="37.17924" lon="-3.59194">
        <ele>713.326266</ele>
        <time>2022-04-19T10:44:51.000Z</time>
      </trkpt>
      <trkpt lat="37.17925" lon="-3.59195">
        <ele>713.433138</ele>
        <time>2022-04-19T10:44:52.000Z</time>
      </trkpt>
      <trkpt lat="37.17929" lon="-3.59196">
        <ele>713.677323</ele>
        <time>2022-04-19T10:44:54.000Z</time>
      </trkpt>
      <trkpt lat="37.17932" lon="-3.59197">
        <ele>713.884308</ele>
        <time>2022-04-19T10:44:56.000Z</time>
      </trkpt>
      <trkpt lat="37.17932" lon="-3.59197">
        <ele>713.910798</ele>
        <time>2022-04-19T10:44:57.000Z</time>
      </trkpt>
      <trkpt lat="37.17934" lon="-3.59197">
        <ele>713.997537</ele>
        <time>2022-04-19T10:44:58.000Z</time>
      </trkpt>
      <trkpt lat="37.17938" lon="-3.59197">
        <ele>714.269885</ele>
        <time>2022-04-19T10:45:01.000Z</time>
      </trkpt>
      <trkpt lat="37.17939" lon="-3.59198">
        <ele>714.384939</ele>
        <time>2022-04-19T10:45:02.000Z</time>
      </trkpt>
      <trkpt lat="37.17939" lon="-3.59195">
        <ele>714.548513</ele>
        <time>2022-04-19T10:45:03.000Z</time>
      </trkpt>
      <trkpt lat="37.1794" lon="-3.59191">
        <ele>714.727575</ele>
        <time>2022-04-19T10:45:04.000Z</time>
      </trkpt>
      <trkpt lat="37.1794" lon="-3.59186">
        <ele>715.005847</ele>
        <time>2022-04-19T10:45:07.000Z</time>
      </trkpt>
      <trkpt lat="37.17941" lon="-3.59186">
        <ele>715.125171</ele>
        <time>2022-04-19T10:45:08.000Z</time>
      </trkpt>
      <trkpt lat="37.17946" lon="-3.59191">
        <ele>715.510355</ele>
        <time>2022-04-19T10:45:11.000Z</time>
      </trkpt>
      <trkpt lat="37.17948" lon="-3.59192">
        <ele>715.676164</ele>
        <time>2022-04-19T10:45:12.000Z</time>
      </trkpt>
      <trkpt lat="37.17952" lon="-3.59194">
        <ele>715.92871</ele>
        <time>2022-04-19T10:45:14.000Z</time>
      </trkpt>
      <trkpt lat="37.17953" lon="-3.59198">
        <ele>716.155497</ele>
        <time>2022-04-19T10:45:16.000Z</time>
      </trkpt>
      <trkpt lat="37.17952" lon="-3.59199">
        <ele>716.287756</ele>
        <time>2022-04-19T10:45:17.000Z</time>
      </trkpt>
      <trkpt lat="37.17952" lon="-3.59198">
        <ele>716.379482</ele>
        <time>2022-04-19T10:45:21.000Z</time>
      </trkpt>
      <trkpt lat="37.17956" lon="-3.59198">
        <ele>716.611515</ele>
        <time>2022-04-19T10:45:26.000Z</time>
      </trkpt>
      <trkpt lat="37.17956" lon="-3.59199">
        <ele>716.672864</ele>
        <time>2022-04-19T10:45:27.000Z</time>
      </trkpt>
      <trkpt lat="37.17957" lon="-3.592">
        <ele>716.727115</ele>
        <time>2022-04-19T10:45:29.000Z</time>
      </trkpt>
      <trkpt lat="37.17959" lon="-3.59201">
        <ele>716.863562</ele>
        <time>2022-04-19T10:45:31.000Z</time>
      </trkpt>
      <trkpt lat="37.1796" lon="-3.59202">
        <ele>716.985467</ele>
        <time>2022-04-19T10:45:32.000Z</time>
      </trkpt>
      <trkpt lat="37.17963" lon="-3.59204">
        <ele>717.209898</ele>
        <time>2022-04-19T10:45:35.000Z</time>
      </trkpt>
      <trkpt lat="37.17964" lon="-3.59204">
        <ele>717.249166</ele>
        <time>2022-04-19T10:45:36.000Z</time>
      </trkpt>
      <trkpt lat="37.17964" lon="-3.59203">
        <ele>717.297115</ele>
        <time>2022-04-19T10:45:38.000Z</time>
      </trkpt>
      <trkpt lat="37.17964" lon="-3.59202">
        <ele>717.33464</ele>
        <time>2022-04-19T10:45:39.000Z</time>
      </trkpt>
      <trkpt lat="37.17971" lon="-3.59199">
        <ele>717.858025</ele>
        <time>2022-04-19T10:45:43.000Z</time>
      </trkpt>
      <trkpt lat="37.17971" lon="-3.59198">
        <ele>717.916068</ele>
        <time>2022-04-19T10:45:44.000Z</time>
      </trkpt>
      <trkpt lat="37.17975" lon="-3.59197">
        <ele>718.171245</ele>
        <time>2022-04-19T10:45:48.000Z</time>
      </trkpt>
      <trkpt lat="37.17983" lon="-3.592">
        <ele>718.713092</ele>
        <time>2022-04-19T10:45:52.000Z</time>
      </trkpt>
      <trkpt lat="37.17984" lon="-3.59202">
        <ele>718.894838</ele>
        <time>2022-04-19T10:45:53.000Z</time>
      </trkpt>
      <trkpt lat="37.17984" lon="-3.59202">
        <ele>718.917335</ele>
        <time>2022-04-19T10:45:54.000Z</time>
      </trkpt>
      <trkpt lat="37.17985" lon="-3.59202">
        <ele>718.993165</ele>
        <time>2022-04-19T10:45:57.000Z</time>
      </trkpt>
      <trkpt lat="37.17984" lon="-3.59202">
        <ele>719.086849</ele>
        <time>2022-04-19T10:46:05.000Z</time>
      </trkpt>
      <trkpt lat="37.17983" lon="-3.59202">
        <ele>719.115364</ele>
        <time>2022-04-19T10:46:06.000Z</time>
      </trkpt>
      <trkpt lat="37.17985" lon="-3.59204">
        <ele>719.26266</ele>
        <time>2022-04-19T10:46:10.000Z</time>
      </trkpt>
      <trkpt lat="37.17986" lon="-3.59205">
        <ele>719.361071</ele>
        <time>2022-04-19T10:46:12.000Z</time>
      </trkpt>
      <trkpt lat="37.17982" lon="-3.59206">
        <ele>719.615428</ele>
        <time>2022-04-19T10:46:20.000Z</time>
      </trkpt>
      <trkpt lat="37.17982" lon="-3.59206">
        <ele>719.615428</ele>
        <time>2022-04-19T10:46:22.000Z</time>
      </trkpt>
      <trkpt lat="37.17981" lon="-3.59204">
        <ele>719.731216</ele>
        <time>2022-04-19T10:46:31.000Z</time>
      </trkpt>
      <trkpt lat="37.17978" lon="-3.59201">
        <ele>720.006461</ele>
        <time>2022-04-19T10:46:39.000Z</time>
      </trkpt>
      <trkpt lat="37.17982" lon="-3.59203">
        <ele>720.130007</ele>
        <time>2022-04-19T10:46:48.000Z</time>
      </trkpt>
      <trkpt lat="37.17984" lon="-3.59205">
        <ele>720.240863</ele>
        <time>2022-04-19T10:47:05.000Z</time>
      </trkpt>
      <trkpt lat="37.17984" lon="-3.59204">
        <ele>720.254209</ele>
        <time>2022-04-19T10:47:11.000Z</time>
      </trkpt>
      <trkpt lat="37.17985" lon="-3.59203">
        <ele>720.292174</ele>
        <time>2022-04-19T10:47:12.000Z</time>
      </trkpt>
      <trkpt lat="37.17985" lon="-3.592">
        <ele>720.369871</ele>
        <time>2022-04-19T10:47:14.000Z</time>
      </trkpt>
      <trkpt lat="37.17986" lon="-3.59198">
        <ele>720.42661</ele>
        <time>2022-04-19T10:47:16.000Z</time>
      </trkpt>
      <trkpt lat="37.17986" lon="-3.59197">
        <ele>720.455132</ele>
        <time>2022-04-19T10:47:17.000Z</time>
      </trkpt>
      <trkpt lat="37.17987" lon="-3.59194">
        <ele>720.544653</ele>
        <time>2022-04-19T10:47:19.000Z</time>
      </trkpt>
      <trkpt lat="37.17988" lon="-3.59191">
        <ele>720.635806</ele>
        <time>2022-04-19T10:47:21.000Z</time>
      </trkpt>
      <trkpt lat="37.17988" lon="-3.59189">
        <ele>720.697198</ele>
        <time>2022-04-19T10:47:22.000Z</time>
      </trkpt>
      <trkpt lat="37.17986" lon="-3.59178">
        <ele>720.988428</ele>
        <time>2022-04-19T10:47:26.000Z</time>
      </trkpt>
      <trkpt lat="37.17984" lon="-3.5917">
        <ele>721.207928</ele>
        <time>2022-04-19T10:47:29.000Z</time>
      </trkpt>
      <trkpt lat="37.17981" lon="-3.59158">
        <ele>721.545201</ele>
        <time>2022-04-19T10:47:33.000Z</time>
      </trkpt>
      <trkpt lat="37.17981" lon="-3.59155">
        <ele>721.636509</ele>
        <time>2022-04-19T10:47:34.000Z</time>
      </trkpt>
      <trkpt lat="37.17981" lon="-3.59151">
        <ele>721.729992</ele>
        <time>2022-04-19T10:47:35.000Z</time>
      </trkpt>
      <trkpt lat="37.17984" lon="-3.5912">
        <ele>722.563076</ele>
        <time>2022-04-19T10:47:44.000Z</time>
      </trkpt>
      <trkpt lat="37.17985" lon="-3.59106">
        <ele>722.957179</ele>
        <time>2022-04-19T10:47:49.000Z</time>
      </trkpt>
      <trkpt lat="37.17986" lon="-3.59103">
        <ele>723.029946</ele>
        <time>2022-04-19T10:47:50.000Z</time>
      </trkpt>
      <trkpt lat="37.17986" lon="-3.591">
        <ele>723.100627</ele>
        <time>2022-04-19T10:47:51.000Z</time>
      </trkpt>
      <trkpt lat="37.17984" lon="-3.59095">
        <ele>723.248192</ele>
        <time>2022-04-19T10:47:54.000Z</time>
      </trkpt>
      <trkpt lat="37.17987" lon="-3.59093">
        <ele>723.345071</ele>
        <time>2022-04-19T10:47:56.000Z</time>
      </trkpt>
      <trkpt lat="37.17987" lon="-3.59092">
        <ele>723.376788</ele>
        <time>2022-04-19T10:47:58.000Z</time>
      </trkpt>
      <trkpt lat="37.17986" lon="-3.5909">
        <ele>723.435789</ele>
        <time>2022-04-19T10:48:01.000Z</time>
      </trkpt>
      <trkpt lat="37.17987" lon="-3.59086">
        <ele>723.543864</ele>
        <time>2022-04-19T10:48:03.000Z</time>
      </trkpt>
      <trkpt lat="37.17987" lon="-3.59084">
        <ele>723.602968</ele>
        <time>2022-04-19T10:48:04.000Z</time>
      </trkpt>
      <trkpt lat="37.17986" lon="-3.5908">
        <ele>723.708786</ele>
        <time>2022-04-19T10:48:06.000Z</time>
      </trkpt>
      <trkpt lat="37.17986" lon="-3.59078">
        <ele>723.774504</ele>
        <time>2022-04-19T10:48:07.000Z</time>
      </trkpt>
      <trkpt lat="37.17986" lon="-3.59076">
        <ele>723.834081</ele>
        <time>2022-04-19T10:48:08.000Z</time>
      </trkpt>
      <trkpt lat="37.17986" lon="-3.59074">
        <ele>723.890534</ele>
        <time>2022-04-19T10:48:09.000Z</time>
      </trkpt>
      <trkpt lat="37.17986" lon="-3.59068">
        <ele>724.048054</ele>
        <time>2022-04-19T10:48:12.000Z</time>
      </trkpt>
      <trkpt lat="37.17986" lon="-3.59065">
        <ele>724.113502</ele>
        <time>2022-04-19T10:48:14.000Z</time>
      </trkpt>
      <trkpt lat="37.17988" lon="-3.59063">
        <ele>724.218469</ele>
        <time>2022-04-19T10:48:17.000Z</time>
      </trkpt>
      <trkpt lat="37.17988" lon="-3.5906">
        <ele>724.28288</ele>
        <time>2022-04-19T10:48:19.000Z</time>
      </trkpt>
      <trkpt lat="37.17989" lon="-3.59058">
        <ele>724.339603</ele>
        <time>2022-04-19T10:48:20.000Z</time>
      </trkpt>
      <trkpt lat="37.17989" lon="-3.59056">
        <ele>724.409084</ele>
        <time>2022-04-19T10:48:21.000Z</time>
      </trkpt>
      <trkpt lat="37.17991" lon="-3.59047">
        <ele>724.653345</ele>
        <time>2022-04-19T10:48:24.000Z</time>
      </trkpt>
      <trkpt lat="37.17991" lon="-3.59038">
        <ele>724.896614</ele>
        <time>2022-04-19T10:48:27.000Z</time>
      </trkpt>
      <trkpt lat="37.1799" lon="-3.59033">
        <ele>725.038122</ele>
        <time>2022-04-19T10:48:29.000Z</time>
      </trkpt>
      <trkpt lat="37.17991" lon="-3.59031">
        <ele>725.082923</ele>
        <time>2022-04-19T10:48:30.000Z</time>
      </trkpt>
      <trkpt lat="37.17994" lon="-3.5903">
        <ele>725.19111</ele>
        <time>2022-04-19T10:48:33.000Z</time>
      </trkpt>
      <trkpt lat="37.17993" lon="-3.59027">
        <ele>725.270508</ele>
        <time>2022-04-19T10:48:38.000Z</time>
      </trkpt>
      <trkpt lat="37.17993" lon="-3.59022">
        <ele>725.396364</ele>
        <time>2022-04-19T10:48:40.000Z</time>
      </trkpt>
      <trkpt lat="37.17995" lon="-3.59007">
        <ele>725.792384</ele>
        <time>2022-04-19T10:48:46.000Z</time>
      </trkpt>
      <trkpt lat="37.17995" lon="-3.59004">
        <ele>725.8743</ele>
        <time>2022-04-19T10:48:47.000Z</time>
      </trkpt>
      <trkpt lat="37.17996" lon="-3.5899">
        <ele>726.147814</ele>
        <time>2022-04-19T10:48:52.000Z</time>
      </trkpt>
      <trkpt lat="37.17998" lon="-3.58977">
        <ele>726.311803</ele>
        <time>2022-04-19T10:48:56.000Z</time>
      </trkpt>
      <trkpt lat="37.17999" lon="-3.58975">
        <ele>726.350672</ele>
        <time>2022-04-19T10:48:57.000Z</time>
      </trkpt>
      <trkpt lat="37.18" lon="-3.58964">
        <ele>726.485573</ele>
        <time>2022-04-19T10:49:01.000Z</time>
      </trkpt>
      <trkpt lat="37.18002" lon="-3.58957">
        <ele>726.584916</ele>
        <time>2022-04-19T10:49:04.000Z</time>
      </trkpt>
      <trkpt lat="37.18003" lon="-3.58953">
        <ele>726.638264</ele>
        <time>2022-04-19T10:49:08.000Z</time>
      </trkpt>
      <trkpt lat="37.18001" lon="-3.58951">
        <ele>726.679969</ele>
        <time>2022-04-19T10:49:12.000Z</time>
      </trkpt>
      <trkpt lat="37.18" lon="-3.58948">
        <ele>726.716156</ele>
        <time>2022-04-19T10:49:18.000Z</time>
      </trkpt>
      <trkpt lat="37.18" lon="-3.58945">
        <ele>726.755855</ele>
        <time>2022-04-19T10:49:23.000Z</time>
      </trkpt>
      <trkpt lat="37.18002" lon="-3.58944">
        <ele>726.79855</ele>
        <time>2022-04-19T10:49:29.000Z</time>
      </trkpt>
      <trkpt lat="37.18002" lon="-3.58943">
        <ele>726.811005</ele>
        <time>2022-04-19T10:49:32.000Z</time>
      </trkpt>
      <trkpt lat="37.18003" lon="-3.58942">
        <ele>726.825218</ele>
        <time>2022-04-19T10:49:34.000Z</time>
      </trkpt>
      <trkpt lat="37.18004" lon="-3.58941">
        <ele>726.848604</ele>
        <time>2022-04-19T10:49:37.000Z</time>
      </trkpt>
      <trkpt lat="37.18003" lon="-3.58941">
        <ele>726.875717</ele>
        <time>2022-04-19T10:49:41.000Z</time>
      </trkpt>
      <trkpt lat="37.18001" lon="-3.58938">
        <ele>726.927316</ele>
        <time>2022-04-19T10:49:48.000Z</time>
      </trkpt>
      <trkpt lat="37.18001" lon="-3.58938">
        <ele>726.937144</ele>
        <time>2022-04-19T10:49:52.000Z</time>
      </trkpt>
      <trkpt lat="37.18002" lon="-3.58938">
        <ele>726.942183</ele>
        <time>2022-04-19T10:49:57.000Z</time>
      </trkpt>
      <trkpt lat="37.18004" lon="-3.5894">
        <ele>726.990993</ele>
        <time>2022-04-19T10:50:03.000Z</time>
      </trkpt>
      <trkpt lat="37.18003" lon="-3.58934">
        <ele>727.067384</ele>
        <time>2022-04-19T10:50:16.000Z</time>
      </trkpt>
      <trkpt lat="37.18004" lon="-3.58933">
        <ele>727.094046</ele>
        <time>2022-04-19T10:50:21.000Z</time>
      </trkpt>
      <trkpt lat="37.18004" lon="-3.5893">
        <ele>727.124886</ele>
        <time>2022-04-19T10:50:25.000Z</time>
      </trkpt>
      <trkpt lat="37.18006" lon="-3.58928">
        <ele>727.166591</ele>
        <time>2022-04-19T10:50:31.000Z</time>
      </trkpt>
      <trkpt lat="37.18006" lon="-3.58928">
        <ele>727.174156</ele>
        <time>2022-04-19T10:50:36.000Z</time>
      </trkpt>
      <trkpt lat="37.18006" lon="-3.58926">
        <ele>727.191284</ele>
        <time>2022-04-19T10:50:42.000Z</time>
      </trkpt>
      <trkpt lat="37.18005" lon="-3.58932">
        <ele>727.261063</ele>
        <time>2022-04-19T10:50:49.000Z</time>
      </trkpt>
      <trkpt lat="37.18005" lon="-3.58937">
        <ele>727.328349</ele>
        <time>2022-04-19T10:50:55.000Z</time>
      </trkpt>
      <trkpt lat="37.18004" lon="-3.58938">
        <ele>727.345569</ele>
        <time>2022-04-19T10:51:00.000Z</time>
      </trkpt>
      <trkpt lat="37.18006" lon="-3.58944">
        <ele>727.432338</ele>
        <time>2022-04-19T10:51:07.000Z</time>
      </trkpt>
      <trkpt lat="37.18006" lon="-3.58945">
        <ele>727.44262</ele>
        <time>2022-04-19T10:51:08.000Z</time>
      </trkpt>
      <trkpt lat="37.18008" lon="-3.58947">
        <ele>727.482118</ele>
        <time>2022-04-19T10:51:15.000Z</time>
      </trkpt>
      <trkpt lat="37.18007" lon="-3.58947">
        <ele>727.487633</ele>
        <time>2022-04-19T10:51:21.000Z</time>
      </trkpt>
      <trkpt lat="37.18007" lon="-3.58947">
        <ele>727.491514</ele>
        <time>2022-04-19T10:51:22.000Z</time>
      </trkpt>
      <trkpt lat="37.18006" lon="-3.58946">
        <ele>727.509509</ele>
        <time>2022-04-19T10:51:28.000Z</time>
      </trkpt>
      <trkpt lat="37.18007" lon="-3.58947">
        <ele>727.520947</ele>
        <time>2022-04-19T10:51:34.000Z</time>
      </trkpt>
      <trkpt lat="37.18007" lon="-3.58948">
        <ele>727.533403</ele>
        <time>2022-04-19T10:51:48.000Z</time>
      </trkpt>
      <trkpt lat="37.18009" lon="-3.58948">
        <ele>727.559864</ele>
        <time>2022-04-19T10:51:52.000Z</time>
      </trkpt>
      <trkpt lat="37.18009" lon="-3.58949">
        <ele>727.564904</ele>
        <time>2022-04-19T10:51:53.000Z</time>
      </trkpt>
      <trkpt lat="37.18009" lon="-3.58949">
        <ele>727.573001</ele>
        <time>2022-04-19T10:52:04.000Z</time>
      </trkpt>
      <trkpt lat="37.18009" lon="-3.58949">
        <ele>727.573001</ele>
        <time>2022-04-19T10:52:10.000Z</time>
      </trkpt>
      <trkpt lat="37.18009" lon="-3.58948">
        <ele>727.583476</ele>
        <time>2022-04-19T10:52:22.000Z</time>
      </trkpt>
      <trkpt lat="37.18009" lon="-3.58947">
        <ele>727.595231</ele>
        <time>2022-04-19T10:52:29.000Z</time>
      </trkpt>
      <trkpt lat="37.18008" lon="-3.58945">
        <ele>727.630795</ele>
        <time>2022-04-19T10:52:36.000Z</time>
      </trkpt>
      <trkpt lat="37.18007" lon="-3.58944">
        <ele>727.649126</ele>
        <time>2022-04-19T10:52:43.000Z</time>
      </trkpt>
      <trkpt lat="37.18009" lon="-3.58945">
        <ele>727.677089</ele>
        <time>2022-04-19T10:52:45.000Z</time>
      </trkpt>
      <trkpt lat="37.1801" lon="-3.58947">
        <ele>727.704579</ele>
        <time>2022-04-19T10:52:47.000Z</time>
      </trkpt>
      <trkpt lat="37.1801" lon="-3.58949">
        <ele>727.73764</ele>
        <time>2022-04-19T10:52:52.000Z</time>
      </trkpt>
      <trkpt lat="37.1801" lon="-3.58949">
        <ele>727.750629</ele>
        <time>2022-04-19T10:52:58.000Z</time>
      </trkpt>
      <trkpt lat="37.18009" lon="-3.58949">
        <ele>727.7555</ele>
        <time>2022-04-19T10:53:00.000Z</time>
      </trkpt>
      <trkpt lat="37.18009" lon="-3.58949">
        <ele>727.758995</ele>
        <time>2022-04-19T10:53:01.000Z</time>
      </trkpt>
      <trkpt lat="37.1801" lon="-3.58949">
        <ele>727.772977</ele>
        <time>2022-04-19T10:53:03.000Z</time>
      </trkpt>
      <trkpt lat="37.1801" lon="-3.58948">
        <ele>727.786799</ele>
        <time>2022-04-19T10:53:05.000Z</time>
      </trkpt>
      <trkpt lat="37.18008" lon="-3.58948">
        <ele>727.815471</ele>
        <time>2022-04-19T10:53:09.000Z</time>
      </trkpt>
      <trkpt lat="37.18007" lon="-3.58948">
        <ele>727.83563</ele>
        <time>2022-04-19T10:53:10.000Z</time>
      </trkpt>
      <trkpt lat="37.18003" lon="-3.58947">
        <ele>727.900306</ele>
        <time>2022-04-19T10:53:14.000Z</time>
      </trkpt>
      <trkpt lat="37.18002" lon="-3.58945">
        <ele>727.928117</ele>
        <time>2022-04-19T10:53:16.000Z</time>
      </trkpt>
      <trkpt lat="37.18001" lon="-3.58942">
        <ele>727.975692</ele>
        <time>2022-04-19T10:53:20.000Z</time>
      </trkpt>
      <trkpt lat="37.18002" lon="-3.58941">
        <ele>727.999711</ele>
        <time>2022-04-19T10:53:28.000Z</time>
      </trkpt>
      <trkpt lat="37.18003" lon="-3.58941">
        <ele>728.012764</ele>
        <time>2022-04-19T10:53:38.000Z</time>
      </trkpt>
      <trkpt lat="37.18003" lon="-3.58941">
        <ele>728.01626</ele>
        <time>2022-04-19T10:53:42.000Z</time>
      </trkpt>
      <trkpt lat="37.18003" lon="-3.58941">
        <ele>728.020411</ele>
        <time>2022-04-19T10:53:45.000Z</time>
      </trkpt>
      <trkpt lat="37.18003" lon="-3.58942">
        <ele>728.022999</ele>
        <time>2022-04-19T10:53:47.000Z</time>
      </trkpt>
      <trkpt lat="37.18003" lon="-3.58943">
        <ele>728.043004</ele>
        <time>2022-04-19T10:53:57.000Z</time>
      </trkpt>
      <trkpt lat="37.18005" lon="-3.58943">
        <ele>728.074284</ele>
        <time>2022-04-19T10:54:03.000Z</time>
      </trkpt>
      <trkpt lat="37.18005" lon="-3.58943">
        <ele>728.074284</ele>
        <time>2022-04-19T10:54:14.000Z</time>
      </trkpt>
      <trkpt lat="37.18006" lon="-3.58943">
        <ele>728.082804</ele>
        <time>2022-04-19T10:54:24.000Z</time>
      </trkpt>
      <trkpt lat="37.18006" lon="-3.58942">
        <ele>728.10814</ele>
        <time>2022-04-19T10:54:30.000Z</time>
      </trkpt>
      <trkpt lat="37.18008" lon="-3.58945">
        <ele>728.156503</ele>
        <time>2022-04-19T10:54:50.000Z</time>
      </trkpt>
      <trkpt lat="37.18009" lon="-3.58948">
        <ele>728.199265</ele>
        <time>2022-04-19T10:54:55.000Z</time>
      </trkpt>
      <trkpt lat="37.1801" lon="-3.58949">
        <ele>728.223796</ele>
        <time>2022-04-19T10:54:59.000Z</time>
      </trkpt>
      <trkpt lat="37.18009" lon="-3.58949">
        <ele>728.249805</ele>
        <time>2022-04-19T10:55:04.000Z</time>
      </trkpt>
      <trkpt lat="37.18007" lon="-3.5895">
        <ele>728.287268</ele>
        <time>2022-04-19T10:55:17.000Z</time>
      </trkpt>
      <trkpt lat="37.18007" lon="-3.58951">
        <ele>728.302308</ele>
        <time>2022-04-19T10:55:28.000Z</time>
      </trkpt>
      <trkpt lat="37.18007" lon="-3.58952">
        <ele>728.312428</ele>
        <time>2022-04-19T10:55:49.000Z</time>
      </trkpt>
      <trkpt lat="37.18007" lon="-3.58952">
        <ele>728.314052</ele>
        <time>2022-04-19T10:55:52.000Z</time>
      </trkpt>
      <trkpt lat="37.18007" lon="-3.58952">
        <ele>728.322572</ele>
        <time>2022-04-19T10:56:01.000Z</time>
      </trkpt>
      <trkpt lat="37.18007" lon="-3.58953">
        <ele>728.329679</ele>
        <time>2022-04-19T10:56:09.000Z</time>
      </trkpt>
      <trkpt lat="37.18006" lon="-3.58954">
        <ele>728.352514</ele>
        <time>2022-04-19T10:56:11.000Z</time>
      </trkpt>
      <trkpt lat="37.18005" lon="-3.58956">
        <ele>728.389243</ele>
        <time>2022-04-19T10:56:14.000Z</time>
      </trkpt>
      <trkpt lat="37.18005" lon="-3.58958">
        <ele>728.415318</ele>
        <time>2022-04-19T10:56:15.000Z</time>
      </trkpt>
      <trkpt lat="37.18003" lon="-3.58973">
        <ele>728.605745</ele>
        <time>2022-04-19T10:56:21.000Z</time>
      </trkpt>
      <trkpt lat="37.18001" lon="-3.58977">
        <ele>728.66451</ele>
        <time>2022-04-19T10:56:23.000Z</time>
      </trkpt>
      <trkpt lat="37.18" lon="-3.5898">
        <ele>728.713381</ele>
        <time>2022-04-19T10:56:25.000Z</time>
      </trkpt>
      <trkpt lat="37.17999" lon="-3.58983">
        <ele>728.755283</ele>
        <time>2022-04-19T10:56:27.000Z</time>
      </trkpt>
      <trkpt lat="37.17998" lon="-3.58987">
        <ele>728.80409</ele>
        <time>2022-04-19T10:56:29.000Z</time>
      </trkpt>
      <trkpt lat="37.17998" lon="-3.58989">
        <ele>728.835179</ele>
        <time>2022-04-19T10:56:30.000Z</time>
      </trkpt>
      <trkpt lat="37.17997" lon="-3.58994">
        <ele>728.902729</ele>
        <time>2022-04-19T10:56:32.000Z</time>
      </trkpt>
      <trkpt lat="37.17996" lon="-3.59001">
        <ele>729.100956</ele>
        <time>2022-04-19T10:56:35.000Z</time>
      </trkpt>
      <trkpt lat="37.17996" lon="-3.59015">
        <ele>729.699154</ele>
        <time>2022-04-19T10:56:41.000Z</time>
      </trkpt>
      <trkpt lat="37.17995" lon="-3.59021">
        <ele>729.97571</ele>
        <time>2022-04-19T10:56:44.000Z</time>
      </trkpt>
      <trkpt lat="37.17994" lon="-3.59023">
        <ele>730.087096</ele>
        <time>2022-04-19T10:56:45.000Z</time>
      </trkpt>
      <trkpt lat="37.17993" lon="-3.59027">
        <ele>730.281435</ele>
        <time>2022-04-19T10:56:48.000Z</time>
      </trkpt>
      <trkpt lat="37.17994" lon="-3.59029">
        <ele>730.39359</ele>
        <time>2022-04-19T10:56:51.000Z</time>
      </trkpt>
      <trkpt lat="37.17996" lon="-3.5903">
        <ele>730.496132</ele>
        <time>2022-04-19T10:56:53.000Z</time>
      </trkpt>
      <trkpt lat="37.17998" lon="-3.59032">
        <ele>730.650134</ele>
        <time>2022-04-19T10:56:55.000Z</time>
      </trkpt>
      <trkpt lat="37.18001" lon="-3.59033">
        <ele>730.790676</ele>
        <time>2022-04-19T10:56:58.000Z</time>
      </trkpt>
      <trkpt lat="37.18003" lon="-3.59034">
        <ele>730.896801</ele>
        <time>2022-04-19T10:57:00.000Z</time>
      </trkpt>
      <trkpt lat="37.18005" lon="-3.59035">
        <ele>731.054566</ele>
        <time>2022-04-19T10:57:02.000Z</time>
      </trkpt>
      <trkpt lat="37.1801" lon="-3.59034">
        <ele>731.299745</ele>
        <time>2022-04-19T10:57:05.000Z</time>
      </trkpt>
      <trkpt lat="37.18011" lon="-3.59034">
        <ele>731.360879</ele>
        <time>2022-04-19T10:57:07.000Z</time>
      </trkpt>
      <trkpt lat="37.18015" lon="-3.59034">
        <ele>731.566513</ele>
        <time>2022-04-19T10:57:12.000Z</time>
      </trkpt>
      <trkpt lat="37.1802" lon="-3.59036">
        <ele>731.857633</ele>
        <time>2022-04-19T10:57:18.000Z</time>
      </trkpt>
      <trkpt lat="37.1802" lon="-3.59036">
        <ele>731.902968</ele>
        <time>2022-04-19T10:57:19.000Z</time>
      </trkpt>
      <trkpt lat="37.18023" lon="-3.59036">
        <ele>732.031483</ele>
        <time>2022-04-19T10:57:21.000Z</time>
      </trkpt>
      <trkpt lat="37.18026" lon="-3.59037">
        <ele>732.207376</ele>
        <time>2022-04-19T10:57:25.000Z</time>
      </trkpt>
      <trkpt lat="37.18028" lon="-3.59038">
        <ele>732.309917</ele>
        <time>2022-04-19T10:57:27.000Z</time>
      </trkpt>
      <trkpt lat="37.1803" lon="-3.59039">
        <ele>732.438155</ele>
        <time>2022-04-19T10:57:30.000Z</time>
      </trkpt>
      <trkpt lat="37.18031" lon="-3.5904">
        <ele>732.52074</ele>
        <time>2022-04-19T10:57:31.000Z</time>
      </trkpt>
      <trkpt lat="37.18033" lon="-3.59041">
        <ele>732.627811</ele>
        <time>2022-04-19T10:57:34.000Z</time>
      </trkpt>
      <trkpt lat="37.18034" lon="-3.59041">
        <ele>732.698468</ele>
        <time>2022-04-19T10:57:35.000Z</time>
      </trkpt>
      <trkpt lat="37.18035" lon="-3.59042">
        <ele>732.785964</ele>
        <time>2022-04-19T10:57:37.000Z</time>
      </trkpt>
      <trkpt lat="37.18036" lon="-3.59042">
        <ele>732.830645</ele>
        <time>2022-04-19T10:57:38.000Z</time>
      </trkpt>
      <trkpt lat="37.18038" lon="-3.59042">
        <ele>732.938537</ele>
        <time>2022-04-19T10:57:41.000Z</time>
      </trkpt>
      <trkpt lat="37.18039" lon="-3.59043">
        <ele>733.00534</ele>
        <time>2022-04-19T10:57:44.000Z</time>
      </trkpt>
      <trkpt lat="37.18042" lon="-3.59045">
        <ele>733.184814</ele>
        <time>2022-04-19T10:57:48.000Z</time>
      </trkpt>
      <trkpt lat="37.18043" lon="-3.59045">
        <ele>733.26038</ele>
        <time>2022-04-19T10:57:50.000Z</time>
      </trkpt>
      <trkpt lat="37.18044" lon="-3.59046">
        <ele>733.301489</ele>
        <time>2022-04-19T10:57:51.000Z</time>
      </trkpt>
      <trkpt lat="37.18046" lon="-3.59047">
        <ele>733.438281</ele>
        <time>2022-04-19T10:57:54.000Z</time>
      </trkpt>
      <trkpt lat="37.18049" lon="-3.59047">
        <ele>733.590673</ele>
        <time>2022-04-19T10:57:59.000Z</time>
      </trkpt>
      <trkpt lat="37.18051" lon="-3.59048">
        <ele>733.720713</ele>
        <time>2022-04-19T10:58:03.000Z</time>
      </trkpt>
      <trkpt lat="37.18054" lon="-3.5905">
        <ele>733.898595</ele>
        <time>2022-04-19T10:58:08.000Z</time>
      </trkpt>
      <trkpt lat="37.18055" lon="-3.5905">
        <ele>733.932234</ele>
        <time>2022-04-19T10:58:09.000Z</time>
      </trkpt>
      <trkpt lat="37.18057" lon="-3.59051">
        <ele>734.0435</ele>
        <time>2022-04-19T10:58:14.000Z</time>
      </trkpt>
      <trkpt lat="37.18058" lon="-3.59052">
        <ele>734.133545</ele>
        <time>2022-04-19T10:58:17.000Z</time>
      </trkpt>
      <trkpt lat="37.18058" lon="-3.59053">
        <ele>734.150866</ele>
        <time>2022-04-19T10:58:19.000Z</time>
      </trkpt>
      <trkpt lat="37.18058" lon="-3.59053">
        <ele>734.156424</ele>
        <time>2022-04-19T10:58:20.000Z</time>
      </trkpt>
      <trkpt lat="37.18058" lon="-3.59053">
        <ele>734.174987</ele>
        <time>2022-04-19T10:58:23.000Z</time>
      </trkpt>
      <trkpt lat="37.18058" lon="-3.59052">
        <ele>734.218187</ele>
        <time>2022-04-19T10:58:27.000Z</time>
      </trkpt>
      <trkpt lat="37.18058" lon="-3.59058">
        <ele>734.4867</ele>
        <time>2022-04-19T10:58:46.000Z</time>
      </trkpt>
      <trkpt lat="37.18052" lon="-3.59077">
        <ele>735.367902</ele>
        <time>2022-04-19T10:58:52.000Z</time>
      </trkpt>
      <trkpt lat="37.18044" lon="-3.59094">
        <ele>736.26188</ele>
        <time>2022-04-19T10:58:58.000Z</time>
      </trkpt>
      <trkpt lat="37.18037" lon="-3.59111">
        <ele>737.08886</ele>
        <time>2022-04-19T10:59:03.000Z</time>
      </trkpt>
      <trkpt lat="37.18037" lon="-3.59123">
        <ele>737.629535</ele>
        <time>2022-04-19T10:59:08.000Z</time>
      </trkpt>
      <trkpt lat="37.18041" lon="-3.59134">
        <ele>738.186143</ele>
        <time>2022-04-19T10:59:14.000Z</time>
      </trkpt>
      <trkpt lat="37.18041" lon="-3.59136">
        <ele>738.257857</ele>
        <time>2022-04-19T10:59:15.000Z</time>
      </trkpt>
      <trkpt lat="37.18039" lon="-3.59143">
        <ele>738.590379</ele>
        <time>2022-04-19T10:59:19.000Z</time>
      </trkpt>
      <trkpt lat="37.18037" lon="-3.59153">
        <ele>738.981031</ele>
        <time>2022-04-19T10:59:25.000Z</time>
      </trkpt>
      <trkpt lat="37.18037" lon="-3.59155">
        <ele>739.005949</ele>
        <time>2022-04-19T10:59:27.000Z</time>
      </trkpt>
      <trkpt lat="37.18035" lon="-3.5916">
        <ele>739.060687</ele>
        <time>2022-04-19T10:59:30.000Z</time>
      </trkpt>
      <trkpt lat="37.18034" lon="-3.59164">
        <ele>739.117515</ele>
        <time>2022-04-19T10:59:33.000Z</time>
      </trkpt>
      <trkpt lat="37.18033" lon="-3.59166">
        <ele>739.138489</ele>
        <time>2022-04-19T10:59:34.000Z</time>
      </trkpt>
      <trkpt lat="37.18032" lon="-3.59174">
        <ele>739.233723</ele>
        <time>2022-04-19T10:59:39.000Z</time>
      </trkpt>
      <trkpt lat="37.18031" lon="-3.59175">
        <ele>739.247678</ele>
        <time>2022-04-19T10:59:40.000Z</time>
      </trkpt>
      <trkpt lat="37.18031" lon="-3.59176">
        <ele>739.263834</ele>
        <time>2022-04-19T10:59:41.000Z</time>
      </trkpt>
      <trkpt lat="37.18032" lon="-3.59181">
        <ele>739.320679</ele>
        <time>2022-04-19T10:59:45.000Z</time>
      </trkpt>
      <trkpt lat="37.18031" lon="-3.59182">
        <ele>739.334828</ele>
        <time>2022-04-19T10:59:46.000Z</time>
      </trkpt>
      <trkpt lat="37.1803" lon="-3.59184">
        <ele>739.364928</ele>
        <time>2022-04-19T10:59:51.000Z</time>
      </trkpt>
      <trkpt lat="37.18028" lon="-3.59184">
        <ele>739.384316</ele>
        <time>2022-04-19T10:59:56.000Z</time>
      </trkpt>
      <trkpt lat="37.18029" lon="-3.59184">
        <ele>739.388812</ele>
        <time>2022-04-19T10:59:58.000Z</time>
      </trkpt>
      <trkpt lat="37.18028" lon="-3.59184">
        <ele>739.391709</ele>
        <time>2022-04-19T11:00:02.000Z</time>
      </trkpt>
      <trkpt lat="37.18027" lon="-3.59182">
        <ele>739.422478</ele>
        <time>2022-04-19T11:00:07.000Z</time>
      </trkpt>
      <trkpt lat="37.18025" lon="-3.59184">
        <ele>739.468553</ele>
        <time>2022-04-19T11:00:10.000Z</time>
      </trkpt>
      <trkpt lat="37.18023" lon="-3.59189">
        <ele>739.530823</ele>
        <time>2022-04-19T11:00:14.000Z</time>
      </trkpt>
      <trkpt lat="37.18023" lon="-3.59191">
        <ele>739.548194</ele>
        <time>2022-04-19T11:00:15.000Z</time>
      </trkpt>
      <trkpt lat="37.18024" lon="-3.59196">
        <ele>739.607352</ele>
        <time>2022-04-19T11:00:18.000Z</time>
      </trkpt>
      <trkpt lat="37.18025" lon="-3.59199">
        <ele>739.650262</ele>
        <time>2022-04-19T11:00:21.000Z</time>
      </trkpt>
      <trkpt lat="37.18025" lon="-3.59202">
        <ele>739.687192</ele>
        <time>2022-04-19T11:00:23.000Z</time>
      </trkpt>
      <trkpt lat="37.18026" lon="-3.59207">
        <ele>739.747457</ele>
        <time>2022-04-19T11:00:26.000Z</time>
      </trkpt>
      <trkpt lat="37.18027" lon="-3.59211">
        <ele>739.788273</ele>
        <time>2022-04-19T11:00:28.000Z</time>
      </trkpt>
      <trkpt lat="37.18026" lon="-3.59215">
        <ele>739.841881</ele>
        <time>2022-04-19T11:00:32.000Z</time>
      </trkpt>
      <trkpt lat="37.18026" lon="-3.59216">
        <ele>739.853779</ele>
        <time>2022-04-19T11:00:33.000Z</time>
      </trkpt>
      <trkpt lat="37.18025" lon="-3.59219">
        <ele>739.888883</ele>
        <time>2022-04-19T11:00:36.000Z</time>
      </trkpt>
      <trkpt lat="37.18025" lon="-3.59221">
        <ele>739.914641</ele>
        <time>2022-04-19T11:00:38.000Z</time>
      </trkpt>
      <trkpt lat="37.18025" lon="-3.59222">
        <ele>739.92879</ele>
        <time>2022-04-19T11:00:39.000Z</time>
      </trkpt>
      <trkpt lat="37.18024" lon="-3.59224">
        <ele>739.948624</ele>
        <time>2022-04-19T11:00:41.000Z</time>
      </trkpt>
      <trkpt lat="37.18023" lon="-3.59227">
        <ele>739.990646</ele>
        <time>2022-04-19T11:00:44.000Z</time>
      </trkpt>
      <trkpt lat="37.18023" lon="-3.5923">
        <ele>740.017347</ele>
        <time>2022-04-19T11:00:46.000Z</time>
      </trkpt>
      <trkpt lat="37.18022" lon="-3.59234">
        <ele>740.074708</ele>
        <time>2022-04-19T11:00:50.000Z</time>
      </trkpt>
      <trkpt lat="37.18022" lon="-3.59238">
        <ele>740.114609</ele>
        <time>2022-04-19T11:00:54.000Z</time>
      </trkpt>
      <trkpt lat="37.18023" lon="-3.59239">
        <ele>740.135719</ele>
        <time>2022-04-19T11:01:00.000Z</time>
      </trkpt>
      <trkpt lat="37.18023" lon="-3.5924">
        <ele>740.152883</ele>
        <time>2022-04-19T11:01:06.000Z</time>
      </trkpt>
      <trkpt lat="37.18023" lon="-3.5924">
        <ele>740.152883</ele>
        <time>2022-04-19T11:01:12.000Z</time>
      </trkpt>
      <trkpt lat="37.18023" lon="-3.5924">
        <ele>740.15912</ele>
        <time>2022-04-19T11:01:22.000Z</time>
      </trkpt>
      <trkpt lat="37.18022" lon="-3.59246">
        <ele>740.231298</ele>
        <time>2022-04-19T11:01:25.000Z</time>
      </trkpt>
      <trkpt lat="37.18021" lon="-3.59248">
        <ele>740.253901</ele>
        <time>2022-04-19T11:01:26.000Z</time>
      </trkpt>
      <trkpt lat="37.1802" lon="-3.5925">
        <ele>740.284592</ele>
        <time>2022-04-19T11:01:28.000Z</time>
      </trkpt>
      <trkpt lat="37.1802" lon="-3.59254">
        <ele>740.333149</ele>
        <time>2022-04-19T11:01:30.000Z</time>
      </trkpt>
      <trkpt lat="37.18019" lon="-3.59261">
        <ele>740.40587</ele>
        <time>2022-04-19T11:01:34.000Z</time>
      </trkpt>
      <trkpt lat="37.18019" lon="-3.59263">
        <ele>740.438216</ele>
        <time>2022-04-19T11:01:36.000Z</time>
      </trkpt>
      <trkpt lat="37.18021" lon="-3.59271">
        <ele>740.521977</ele>
        <time>2022-04-19T11:01:41.000Z</time>
      </trkpt>
      <trkpt lat="37.18021" lon="-3.59273">
        <ele>740.54524</ele>
        <time>2022-04-19T11:01:42.000Z</time>
      </trkpt>
      <trkpt lat="37.18021" lon="-3.59274">
        <ele>740.559164</ele>
        <time>2022-04-19T11:01:43.000Z</time>
      </trkpt>
      <trkpt lat="37.18018" lon="-3.59277">
        <ele>740.608227</ele>
        <time>2022-04-19T11:01:45.000Z</time>
      </trkpt>
      <trkpt lat="37.18016" lon="-3.59278">
        <ele>740.639411</ele>
        <time>2022-04-19T11:01:46.000Z</time>
      </trkpt>
      <trkpt lat="37.18021" lon="-3.59281">
        <ele>740.713646</ele>
        <time>2022-04-19T11:01:49.000Z</time>
      </trkpt>
      <trkpt lat="37.18024" lon="-3.59282">
        <ele>740.760636</ele>
        <time>2022-04-19T11:01:50.000Z</time>
      </trkpt>
      <trkpt lat="37.18029" lon="-3.59284">
        <ele>740.838645</ele>
        <time>2022-04-19T11:01:53.000Z</time>
      </trkpt>
      <trkpt lat="37.18026" lon="-3.59293">
        <ele>740.94963</ele>
        <time>2022-04-19T11:01:58.000Z</time>
      </trkpt>
      <trkpt lat="37.18023" lon="-3.59292">
        <ele>740.999961</ele>
        <time>2022-04-19T11:02:02.000Z</time>
      </trkpt>
      <trkpt lat="37.18022" lon="-3.59293">
        <ele>741.019844</ele>
        <time>2022-04-19T11:02:04.000Z</time>
      </trkpt>
      <trkpt lat="37.18022" lon="-3.59298">
        <ele>741.075409</ele>
        <time>2022-04-19T11:02:08.000Z</time>
      </trkpt>
      <trkpt lat="37.18022" lon="-3.593">
        <ele>741.101168</ele>
        <time>2022-04-19T11:02:10.000Z</time>
      </trkpt>
      <trkpt lat="37.18021" lon="-3.59303">
        <ele>741.140976</ele>
        <time>2022-04-19T11:02:13.000Z</time>
      </trkpt>
      <trkpt lat="37.18021" lon="-3.59305">
        <ele>741.156595</ele>
        <time>2022-04-19T11:02:14.000Z</time>
      </trkpt>
      <trkpt lat="37.18019" lon="-3.59307">
        <ele>741.201043</ele>
        <time>2022-04-19T11:02:16.000Z</time>
      </trkpt>
      <trkpt lat="37.18018" lon="-3.59308">
        <ele>741.214968</ele>
        <time>2022-04-19T11:02:17.000Z</time>
      </trkpt>
      <trkpt lat="37.18018" lon="-3.5931">
        <ele>741.236943</ele>
        <time>2022-04-19T11:02:19.000Z</time>
      </trkpt>
      <trkpt lat="37.18019" lon="-3.59313">
        <ele>741.265972</ele>
        <time>2022-04-19T11:02:21.000Z</time>
      </trkpt>
      <trkpt lat="37.18016" lon="-3.59314">
        <ele>741.308828</ele>
        <time>2022-04-19T11:02:23.000Z</time>
      </trkpt>
      <trkpt lat="37.18014" lon="-3.59318">
        <ele>741.362988</ele>
        <time>2022-04-19T11:02:26.000Z</time>
      </trkpt>
      <trkpt lat="37.1801" lon="-3.59326">
        <ele>741.474081</ele>
        <time>2022-04-19T11:02:31.000Z</time>
      </trkpt>
      <trkpt lat="37.18011" lon="-3.5933">
        <ele>741.519832</ele>
        <time>2022-04-19T11:02:33.000Z</time>
      </trkpt>
      <trkpt lat="37.18009" lon="-3.59331">
        <ele>741.55358</ele>
        <time>2022-04-19T11:02:36.000Z</time>
      </trkpt>
      <trkpt lat="37.1801" lon="-3.59335">
        <ele>741.711816</ele>
        <time>2022-04-19T11:02:39.000Z</time>
      </trkpt>
      <trkpt lat="37.1801" lon="-3.59341">
        <ele>741.982494</ele>
        <time>2022-04-19T11:02:42.000Z</time>
      </trkpt>
      <trkpt lat="37.18011" lon="-3.59351">
        <ele>742.443578</ele>
        <time>2022-04-19T11:02:46.000Z</time>
      </trkpt>
      <trkpt lat="37.18013" lon="-3.59358">
        <ele>742.789776</ele>
        <time>2022-04-19T11:02:48.000Z</time>
      </trkpt>
      <trkpt lat="37.18014" lon="-3.59365">
        <ele>743.123874</ele>
        <time>2022-04-19T11:02:50.000Z</time>
      </trkpt>
      <trkpt lat="37.18014" lon="-3.59367">
        <ele>743.236364</ele>
        <time>2022-04-19T11:02:51.000Z</time>
      </trkpt>
      <trkpt lat="37.18013" lon="-3.59372">
        <ele>743.465836</ele>
        <time>2022-04-19T11:02:53.000Z</time>
      </trkpt>
      <trkpt lat="37.18012" lon="-3.59376">
        <ele>743.678945</ele>
        <time>2022-04-19T11:02:55.000Z</time>
      </trkpt>
      <trkpt lat="37.18009" lon="-3.59379">
        <ele>743.894218</ele>
        <time>2022-04-19T11:02:57.000Z</time>
      </trkpt>
      <trkpt lat="37.18007" lon="-3.59385">
        <ele>744.182476</ele>
        <time>2022-04-19T11:03:00.000Z</time>
      </trkpt>
      <trkpt lat="37.18006" lon="-3.59387">
        <ele>744.258084</ele>
        <time>2022-04-19T11:03:02.000Z</time>
      </trkpt>
      <trkpt lat="37.18006" lon="-3.59388">
        <ele>744.335017</ele>
        <time>2022-04-19T11:03:07.000Z</time>
      </trkpt>
      <trkpt lat="37.18007" lon="-3.59389">
        <ele>744.408222</ele>
        <time>2022-04-19T11:03:14.000Z</time>
      </trkpt>
      <trkpt lat="37.18006" lon="-3.59389">
        <ele>744.488967</ele>
        <time>2022-04-19T11:03:23.000Z</time>
      </trkpt>
      <trkpt lat="37.18005" lon="-3.59389">
        <ele>744.529535</ele>
        <time>2022-04-19T11:03:24.000Z</time>
      </trkpt>
      <trkpt lat="37.18003" lon="-3.59387">
        <ele>744.661283</ele>
        <time>2022-04-19T11:03:29.000Z</time>
      </trkpt>
      <trkpt lat="37.18" lon="-3.59387">
        <ele>744.826637</ele>
        <time>2022-04-19T11:03:31.000Z</time>
      </trkpt>
      <trkpt lat="37.18" lon="-3.59387">
        <ele>744.850287</ele>
        <time>2022-04-19T11:03:34.000Z</time>
      </trkpt>
      <trkpt lat="37.18003" lon="-3.59389">
        <ele>745.037982</ele>
        <time>2022-04-19T11:03:38.000Z</time>
      </trkpt>
      <trkpt lat="37.18004" lon="-3.59389">
        <ele>745.079453</ele>
        <time>2022-04-19T11:03:46.000Z</time>
      </trkpt>
      <trkpt lat="37.18009" lon="-3.59394">
        <ele>745.462588</ele>
        <time>2022-04-19T11:03:54.000Z</time>
      </trkpt>
      <trkpt lat="37.18011" lon="-3.59395">
        <ele>745.558299</ele>
        <time>2022-04-19T11:03:56.000Z</time>
      </trkpt>
      <trkpt lat="37.1801" lon="-3.59397">
        <ele>745.648028</ele>
        <time>2022-04-19T11:03:57.000Z</time>
      </trkpt>
      <trkpt lat="37.1801" lon="-3.59398">
        <ele>745.72778</ele>
        <time>2022-04-19T11:03:59.000Z</time>
      </trkpt>
      <trkpt lat="37.18013" lon="-3.59399">
        <ele>745.907225</ele>
        <time>2022-04-19T11:04:01.000Z</time>
      </trkpt>
      <trkpt lat="37.18015" lon="-3.59398">
        <ele>746.023841</ele>
        <time>2022-04-19T11:04:02.000Z</time>
      </trkpt>
      <trkpt lat="37.18018" lon="-3.59398">
        <ele>746.147856</ele>
        <time>2022-04-19T11:04:03.000Z</time>
      </trkpt>
      <trkpt lat="37.1802" lon="-3.59395">
        <ele>746.31771</ele>
        <time>2022-04-19T11:04:05.000Z</time>
      </trkpt>
      <trkpt lat="37.18021" lon="-3.59394">
        <ele>746.374383</ele>
        <time>2022-04-19T11:04:06.000Z</time>
      </trkpt>
      <trkpt lat="37.18023" lon="-3.59395">
        <ele>746.507139</ele>
        <time>2022-04-19T11:04:09.000Z</time>
      </trkpt>
      <trkpt lat="37.18024" lon="-3.59393">
        <ele>746.627848</ele>
        <time>2022-04-19T11:04:10.000Z</time>
      </trkpt>
      <trkpt lat="37.18026" lon="-3.59392">
        <ele>746.718422</ele>
        <time>2022-04-19T11:04:11.000Z</time>
      </trkpt>
      <trkpt lat="37.1803" lon="-3.59399">
        <ele>747.141824</ele>
        <time>2022-04-19T11:04:15.000Z</time>
      </trkpt>
      <trkpt lat="37.18031" lon="-3.59396">
        <ele>747.304956</ele>
        <time>2022-04-19T11:04:16.000Z</time>
      </trkpt>
      <trkpt lat="37.18034" lon="-3.5939">
        <ele>747.626912</ele>
        <time>2022-04-19T11:04:20.000Z</time>
      </trkpt>
      <trkpt lat="37.18035" lon="-3.59391">
        <ele>747.690416</ele>
        <time>2022-04-19T11:04:21.000Z</time>
      </trkpt>
      <trkpt lat="37.18032" lon="-3.59394">
        <ele>747.906813</ele>
        <time>2022-04-19T11:04:24.000Z</time>
      </trkpt>
      <trkpt lat="37.18033" lon="-3.59396">
        <ele>748.032825</ele>
        <time>2022-04-19T11:04:26.000Z</time>
      </trkpt>
      <trkpt lat="37.18038" lon="-3.59396">
        <ele>748.278168</ele>
        <time>2022-04-19T11:04:31.000Z</time>
      </trkpt>
      <trkpt lat="37.18037" lon="-3.59397">
        <ele>748.322926</ele>
        <time>2022-04-19T11:04:32.000Z</time>
      </trkpt>
      <trkpt lat="37.18037" lon="-3.59398">
        <ele>748.376266</ele>
        <time>2022-04-19T11:04:33.000Z</time>
      </trkpt>
      <trkpt lat="37.18038" lon="-3.59401">
        <ele>748.53027</ele>
        <time>2022-04-19T11:04:35.000Z</time>
      </trkpt>
      <trkpt lat="37.18039" lon="-3.59402">
        <ele>748.592253</ele>
        <time>2022-04-19T11:04:36.000Z</time>
      </trkpt>
      <trkpt lat="37.1804" lon="-3.59403">
        <ele>748.641062</ele>
        <time>2022-04-19T11:04:38.000Z</time>
      </trkpt>
      <trkpt lat="37.1804" lon="-3.59403">
        <ele>748.673569</ele>
        <time>2022-04-19T11:04:40.000Z</time>
      </trkpt>
      <trkpt lat="37.18043" lon="-3.59402">
        <ele>748.82076</ele>
        <time>2022-04-19T11:04:42.000Z</time>
      </trkpt>
      <trkpt lat="37.18041" lon="-3.594">
        <ele>748.910967</ele>
        <time>2022-04-19T11:04:45.000Z</time>
      </trkpt>
      <trkpt lat="37.18041" lon="-3.594">
        <ele>748.946713</ele>
        <time>2022-04-19T11:04:46.000Z</time>
      </trkpt>
      <trkpt lat="37.18042" lon="-3.594">
        <ele>749.02939</ele>
        <time>2022-04-19T11:04:48.000Z</time>
      </trkpt>
      <trkpt lat="37.18044" lon="-3.59397">
        <ele>749.19188</ele>
        <time>2022-04-19T11:04:51.000Z</time>
      </trkpt>
      <trkpt lat="37.18045" lon="-3.59396">
        <ele>749.246857</ele>
        <time>2022-04-19T11:04:53.000Z</time>
      </trkpt>
      <trkpt lat="37.18045" lon="-3.59401">
        <ele>749.44547</ele>
        <time>2022-04-19T11:04:59.000Z</time>
      </trkpt>
      <trkpt lat="37.18041" lon="-3.59402">
        <ele>749.677824</ele>
        <time>2022-04-19T11:05:07.000Z</time>
      </trkpt>
      <trkpt lat="37.18041" lon="-3.59404">
        <ele>749.776881</ele>
        <time>2022-04-19T11:05:12.000Z</time>
      </trkpt>
      <trkpt lat="37.18039" lon="-3.5941">
        <ele>750.059308</ele>
        <time>2022-04-19T11:05:15.000Z</time>
      </trkpt>
      <trkpt lat="37.18039" lon="-3.59413">
        <ele>750.19992</ele>
        <time>2022-04-19T11:05:17.000Z</time>
      </trkpt>
      <trkpt lat="37.1804" lon="-3.59415">
        <ele>750.330941</ele>
        <time>2022-04-19T11:05:19.000Z</time>
      </trkpt>
      <trkpt lat="37.1804" lon="-3.59417">
        <ele>750.399174</ele>
        <time>2022-04-19T11:05:20.000Z</time>
      </trkpt>
      <trkpt lat="37.18042" lon="-3.59423">
        <ele>750.699988</ele>
        <time>2022-04-19T11:05:25.000Z</time>
      </trkpt>
      <trkpt lat="37.18043" lon="-3.59424">
        <ele>750.770374</ele>
        <time>2022-04-19T11:05:26.000Z</time>
      </trkpt>
      <trkpt lat="37.18045" lon="-3.59429">
        <ele>751.044294</ele>
        <time>2022-04-19T11:05:30.000Z</time>
      </trkpt>
      <trkpt lat="37.18046" lon="-3.59429">
        <ele>751.096118</ele>
        <time>2022-04-19T11:05:31.000Z</time>
      </trkpt>
      <trkpt lat="37.18045" lon="-3.59432">
        <ele>751.221976</ele>
        <time>2022-04-19T11:05:33.000Z</time>
      </trkpt>
      <trkpt lat="37.18044" lon="-3.59438">
        <ele>751.509258</ele>
        <time>2022-04-19T11:05:36.000Z</time>
      </trkpt>
      <trkpt lat="37.18044" lon="-3.5944">
        <ele>751.578075</ele>
        <time>2022-04-19T11:05:37.000Z</time>
      </trkpt>
      <trkpt lat="37.18042" lon="-3.59441">
        <ele>751.712806</ele>
        <time>2022-04-19T11:05:39.000Z</time>
      </trkpt>
      <trkpt lat="37.18042" lon="-3.59444">
        <ele>751.860627</ele>
        <time>2022-04-19T11:05:41.000Z</time>
      </trkpt>
      <trkpt lat="37.18042" lon="-3.59449">
        <ele>752.078187</ele>
        <time>2022-04-19T11:05:44.000Z</time>
      </trkpt>
      <trkpt lat="37.18042" lon="-3.59453">
        <ele>752.26536</ele>
        <time>2022-04-19T11:05:46.000Z</time>
      </trkpt>
      <trkpt lat="37.18044" lon="-3.59458">
        <ele>752.453933</ele>
        <time>2022-04-19T11:05:48.000Z</time>
      </trkpt>
      <trkpt lat="37.18046" lon="-3.5946">
        <ele>752.59419</ele>
        <time>2022-04-19T11:05:50.000Z</time>
      </trkpt>
      <trkpt lat="37.18047" lon="-3.59462">
        <ele>752.697166</ele>
        <time>2022-04-19T11:05:51.000Z</time>
      </trkpt>
      <trkpt lat="37.18042" lon="-3.59468">
        <ele>753.059301</ele>
        <time>2022-04-19T11:05:54.000Z</time>
      </trkpt>
      <trkpt lat="37.18043" lon="-3.5947">
        <ele>753.170713</ele>
        <time>2022-04-19T11:05:56.000Z</time>
      </trkpt>
      <trkpt lat="37.18043" lon="-3.59472">
        <ele>753.231089</ele>
        <time>2022-04-19T11:05:58.000Z</time>
      </trkpt>
      <trkpt lat="37.18046" lon="-3.59475">
        <ele>753.418417</ele>
        <time>2022-04-19T11:06:01.000Z</time>
      </trkpt>
      <trkpt lat="37.18047" lon="-3.59476">
        <ele>753.481679</ele>
        <time>2022-04-19T11:06:03.000Z</time>
      </trkpt>
      <trkpt lat="37.18049" lon="-3.59475">
        <ele>753.579841</ele>
        <time>2022-04-19T11:06:06.000Z</time>
      </trkpt>
      <trkpt lat="37.18054" lon="-3.59476">
        <ele>753.866585</ele>
        <time>2022-04-19T11:06:12.000Z</time>
      </trkpt>
      <trkpt lat="37.1806" lon="-3.5948">
        <ele>754.184538</ele>
        <time>2022-04-19T11:06:19.000Z</time>
      </trkpt>
      <trkpt lat="37.18062" lon="-3.5948">
        <ele>754.320028</ele>
        <time>2022-04-19T11:06:22.000Z</time>
      </trkpt>
      <trkpt lat="37.18064" lon="-3.59482">
        <ele>754.430287</ele>
        <time>2022-04-19T11:06:25.000Z</time>
      </trkpt>
      <trkpt lat="37.18067" lon="-3.59483">
        <ele>754.588769</ele>
        <time>2022-04-19T11:06:28.000Z</time>
      </trkpt>
      <trkpt lat="37.18069" lon="-3.59484">
        <ele>754.67624</ele>
        <time>2022-04-19T11:06:30.000Z</time>
      </trkpt>
      <trkpt lat="37.1807" lon="-3.59485">
        <ele>754.771209</ele>
        <time>2022-04-19T11:06:33.000Z</time>
      </trkpt>
      <trkpt lat="37.18071" lon="-3.59486">
        <ele>754.814587</ele>
        <time>2022-04-19T11:06:34.000Z</time>
      </trkpt>
      <trkpt lat="37.18077" lon="-3.59489">
        <ele>755.169563</ele>
        <time>2022-04-19T11:06:39.000Z</time>
      </trkpt>
      <trkpt lat="37.18082" lon="-3.59493">
        <ele>755.482456</ele>
        <time>2022-04-19T11:06:44.000Z</time>
      </trkpt>
      <trkpt lat="37.18082" lon="-3.59493">
        <ele>755.514933</ele>
        <time>2022-04-19T11:06:50.000Z</time>
      </trkpt>
      <trkpt lat="37.18084" lon="-3.59494">
        <ele>755.578195</ele>
        <time>2022-04-19T11:06:57.000Z</time>
      </trkpt>
      <trkpt lat="37.18084" lon="-3.59494">
        <ele>755.578195</ele>
        <time>2022-04-19T11:07:05.000Z</time>
      </trkpt>
      <trkpt lat="37.18083" lon="-3.59494">
        <ele>755.593481</ele>
        <time>2022-04-19T11:07:08.000Z</time>
      </trkpt>
      <trkpt lat="37.18083" lon="-3.59494">
        <ele>755.603066</ele>
        <time>2022-04-19T11:07:13.000Z</time>
      </trkpt>
      <trkpt lat="37.18085" lon="-3.59494">
        <ele>755.679602</ele>
        <time>2022-04-19T11:07:19.000Z</time>
      </trkpt>
      <trkpt lat="37.18085" lon="-3.59494">
        <ele>755.679602</ele>
        <time>2022-04-19T11:07:21.000Z</time>
      </trkpt>
      <trkpt lat="37.18085" lon="-3.59494">
        <ele>755.679602</ele>
        <time>2022-04-19T11:07:26.000Z</time>
      </trkpt>
      <trkpt lat="37.18085" lon="-3.59494">
        <ele>755.698773</ele>
        <time>2022-04-19T11:07:36.000Z</time>
      </trkpt>
      <trkpt lat="37.18085" lon="-3.59495">
        <ele>755.745972</ele>
        <time>2022-04-19T11:07:43.000Z</time>
      </trkpt>
      <trkpt lat="37.18085" lon="-3.59496">
        <ele>755.787827</ele>
        <time>2022-04-19T11:07:48.000Z</time>
      </trkpt>
      <trkpt lat="37.18086" lon="-3.59496">
        <ele>755.803642</ele>
        <time>2022-04-19T11:07:58.000Z</time>
      </trkpt>
      <trkpt lat="37.18089" lon="-3.59498">
        <ele>755.980677</ele>
        <time>2022-04-19T11:08:01.000Z</time>
      </trkpt>
      <trkpt lat="37.18091" lon="-3.595">
        <ele>756.108692</ele>
        <time>2022-04-19T11:08:03.000Z</time>
      </trkpt>
      <trkpt lat="37.18096" lon="-3.59501">
        <ele>756.372358</ele>
        <time>2022-04-19T11:08:07.000Z</time>
      </trkpt>
      <trkpt lat="37.18098" lon="-3.59502">
        <ele>756.49638</ele>
        <time>2022-04-19T11:08:09.000Z</time>
      </trkpt>
      <trkpt lat="37.18101" lon="-3.59506">
        <ele>756.708834</ele>
        <time>2022-04-19T11:08:13.000Z</time>
      </trkpt>
      <trkpt lat="37.18102" lon="-3.59507">
        <ele>756.802623</ele>
        <time>2022-04-19T11:08:15.000Z</time>
      </trkpt>
      <trkpt lat="37.18105" lon="-3.59511">
        <ele>756.984007</ele>
        <time>2022-04-19T11:08:19.000Z</time>
      </trkpt>
      <trkpt lat="37.18106" lon="-3.59514">
        <ele>757.112433</ele>
        <time>2022-04-19T11:08:21.000Z</time>
      </trkpt>
      <trkpt lat="37.18107" lon="-3.59514">
        <ele>757.176857</ele>
        <time>2022-04-19T11:08:22.000Z</time>
      </trkpt>
      <trkpt lat="37.1811" lon="-3.59514">
        <ele>757.325508</ele>
        <time>2022-04-19T11:08:24.000Z</time>
      </trkpt>
      <trkpt lat="37.18112" lon="-3.59515">
        <ele>757.427619</ele>
        <time>2022-04-19T11:08:26.000Z</time>
      </trkpt>
      <trkpt lat="37.18114" lon="-3.59517">
        <ele>757.567915</ele>
        <time>2022-04-19T11:08:29.000Z</time>
      </trkpt>
      <trkpt lat="37.18115" lon="-3.59517">
        <ele>757.626267</ele>
        <time>2022-04-19T11:08:31.000Z</time>
      </trkpt>
      <trkpt lat="37.18117" lon="-3.59519">
        <ele>757.766682</ele>
        <time>2022-04-19T11:08:36.000Z</time>
      </trkpt>
      <trkpt lat="37.18118" lon="-3.59519">
        <ele>757.799255</ele>
        <time>2022-04-19T11:08:37.000Z</time>
      </trkpt>
      <trkpt lat="37.18116" lon="-3.59525">
        <ele>758.053833</ele>
        <time>2022-04-19T11:08:42.000Z</time>
      </trkpt>
      <trkpt lat="37.18117" lon="-3.59525">
        <ele>758.125166</ele>
        <time>2022-04-19T11:08:47.000Z</time>
      </trkpt>
      <trkpt lat="37.18117" lon="-3.59525">
        <ele>758.140452</ele>
        <time>2022-04-19T11:08:48.000Z</time>
      </trkpt>
      <trkpt lat="37.18117" lon="-3.59525">
        <ele>758.148571</ele>
        <time>2022-04-19T11:08:52.000Z</time>
      </trkpt>
      <trkpt lat="37.18117" lon="-3.59526">
        <ele>758.198339</ele>
        <time>2022-04-19T11:08:56.000Z</time>
      </trkpt>
      <trkpt lat="37.18116" lon="-3.59526">
        <ele>758.255695</ele>
        <time>2022-04-19T11:09:02.000Z</time>
      </trkpt>
      <trkpt lat="37.18116" lon="-3.59526">
        <ele>758.255695</ele>
        <time>2022-04-19T11:09:04.000Z</time>
      </trkpt>
      <trkpt lat="37.18117" lon="-3.59525">
        <ele>758.300236</ele>
        <time>2022-04-19T11:09:11.000Z</time>
      </trkpt>
      <trkpt lat="37.18118" lon="-3.59525">
        <ele>758.351349</ele>
        <time>2022-04-19T11:09:12.000Z</time>
      </trkpt>
      <trkpt lat="37.18118" lon="-3.59526">
        <ele>758.395951</ele>
        <time>2022-04-19T11:09:13.000Z</time>
      </trkpt>
      <trkpt lat="37.18118" lon="-3.59527">
        <ele>758.440896</ele>
        <time>2022-04-19T11:09:14.000Z</time>
      </trkpt>
      <trkpt lat="37.18117" lon="-3.59534">
        <ele>758.744553</ele>
        <time>2022-04-19T11:09:19.000Z</time>
      </trkpt>
      <trkpt lat="37.18116" lon="-3.5954">
        <ele>759.005257</ele>
        <time>2022-04-19T11:09:23.000Z</time>
      </trkpt>
      <trkpt lat="37.18113" lon="-3.59549">
        <ele>759.385085</ele>
        <time>2022-04-19T11:09:29.000Z</time>
      </trkpt>
      <trkpt lat="37.18112" lon="-3.59553">
        <ele>759.54857</ele>
        <time>2022-04-19T11:09:31.000Z</time>
      </trkpt>
      <trkpt lat="37.1811" lon="-3.59562">
        <ele>759.929474</ele>
        <time>2022-04-19T11:09:36.000Z</time>
      </trkpt>
      <trkpt lat="37.18109" lon="-3.59565">
        <ele>760.050229</ele>
        <time>2022-04-19T11:09:38.000Z</time>
      </trkpt>
      <trkpt lat="37.18109" lon="-3.59567">
        <ele>760.135631</ele>
        <time>2022-04-19T11:09:41.000Z</time>
      </trkpt>
      <trkpt lat="37.18108" lon="-3.59567">
        <ele>760.168204</ele>
        <time>2022-04-19T11:09:42.000Z</time>
      </trkpt>
      <trkpt lat="37.18106" lon="-3.59567">
        <ele>760.300742</ele>
        <time>2022-04-19T11:09:45.000Z</time>
      </trkpt>
      <trkpt lat="37.18103" lon="-3.59566">
        <ele>760.446543</ele>
        <time>2022-04-19T11:09:47.000Z</time>
      </trkpt>
      <trkpt lat="37.18099" lon="-3.59563">
        <ele>760.68191</ele>
        <time>2022-04-19T11:09:51.000Z</time>
      </trkpt>
      <trkpt lat="37.18096" lon="-3.59562">
        <ele>760.847415</ele>
        <time>2022-04-19T11:09:54.000Z</time>
      </trkpt>
      <trkpt lat="37.18095" lon="-3.59562">
        <ele>760.888978</ele>
        <time>2022-04-19T11:09:57.000Z</time>
      </trkpt>
      <trkpt lat="37.18095" lon="-3.59562">
        <ele>760.908522</ele>
        <time>2022-04-19T11:09:59.000Z</time>
      </trkpt>
      <trkpt lat="37.18095" lon="-3.59562">
        <ele>760.919491</ele>
        <time>2022-04-19T11:10:01.000Z</time>
      </trkpt>
      <trkpt lat="37.18094" lon="-3.59562">
        <ele>760.952065</ele>
        <time>2022-04-19T11:10:04.000Z</time>
      </trkpt>
      <trkpt lat="37.18096" lon="-3.59563">
        <ele>761.06044</ele>
        <time>2022-04-19T11:10:07.000Z</time>
      </trkpt>
      <trkpt lat="37.18099" lon="-3.59563">
        <ele>760.96077</ele>
        <time>2022-04-19T11:10:09.000Z</time>
      </trkpt>
      <trkpt lat="37.18108" lon="-3.59565">
        <ele>760.591614</ele>
        <time>2022-04-19T11:10:16.000Z</time>
      </trkpt>
      <trkpt lat="37.18108" lon="-3.59564">
        <ele>760.536848</ele>
        <time>2022-04-19T11:10:17.000Z</time>
      </trkpt>
      <trkpt lat="37.18109" lon="-3.59562">
        <ele>760.483304</ele>
        <time>2022-04-19T11:10:18.000Z</time>
      </trkpt>
      <trkpt lat="37.18112" lon="-3.59561">
        <ele>760.340041</ele>
        <time>2022-04-19T11:10:20.000Z</time>
      </trkpt>
      <trkpt lat="37.18114" lon="-3.59561">
        <ele>760.284162</ele>
        <time>2022-04-19T11:10:21.000Z</time>
      </trkpt>
      <trkpt lat="37.18124" lon="-3.59565">
        <ele>759.833391</ele>
        <time>2022-04-19T11:10:29.000Z</time>
      </trkpt>
      <trkpt lat="37.18126" lon="-3.59566">
        <ele>759.722466</ele>
        <time>2022-04-19T11:10:31.000Z</time>
      </trkpt>
      <trkpt lat="37.18129" lon="-3.59567">
        <ele>759.603331</ele>
        <time>2022-04-19T11:10:33.000Z</time>
      </trkpt>
      <trkpt lat="37.18136" lon="-3.59568">
        <ele>759.317218</ele>
        <time>2022-04-19T11:10:38.000Z</time>
      </trkpt>
      <trkpt lat="37.18137" lon="-3.59566">
        <ele>759.229368</ele>
        <time>2022-04-19T11:10:40.000Z</time>
      </trkpt>
      <trkpt lat="37.18139" lon="-3.59563">
        <ele>759.100168</ele>
        <time>2022-04-19T11:10:43.000Z</time>
      </trkpt>
      <trkpt lat="37.18139" lon="-3.59562">
        <ele>759.052262</ele>
        <time>2022-04-19T11:10:45.000Z</time>
      </trkpt>
      <trkpt lat="37.18142" lon="-3.59557">
        <ele>758.872187</ele>
        <time>2022-04-19T11:10:47.000Z</time>
      </trkpt>
      <trkpt lat="37.18146" lon="-3.5955">
        <ele>758.568199</ele>
        <time>2022-04-19T11:10:50.000Z</time>
      </trkpt>
      <trkpt lat="37.18152" lon="-3.59537">
        <ele>758.052354</ele>
        <time>2022-04-19T11:10:56.000Z</time>
      </trkpt>
      <trkpt lat="37.18153" lon="-3.59537">
        <ele>758.038234</ele>
        <time>2022-04-19T11:11:01.000Z</time>
      </trkpt>
      <trkpt lat="37.18154" lon="-3.59536">
        <ele>757.995425</ele>
        <time>2022-04-19T11:11:13.000Z</time>
      </trkpt>
      <trkpt lat="37.18155" lon="-3.59537">
        <ele>757.930395</ele>
        <time>2022-04-19T11:11:25.000Z</time>
      </trkpt>
      <trkpt lat="37.18154" lon="-3.59539">
        <ele>757.858414</ele>
        <time>2022-04-19T11:11:27.000Z</time>
      </trkpt>
      <trkpt lat="37.18153" lon="-3.59542">
        <ele>757.767191</ele>
        <time>2022-04-19T11:11:29.000Z</time>
      </trkpt>
      <trkpt lat="37.18153" lon="-3.59543">
        <ele>757.726773</ele>
        <time>2022-04-19T11:11:30.000Z</time>
      </trkpt>
      <trkpt lat="37.18152" lon="-3.59546">
        <ele>757.606288</ele>
        <time>2022-04-19T11:11:32.000Z</time>
      </trkpt>
      <trkpt lat="37.18152" lon="-3.59552">
        <ele>757.400656</ele>
        <time>2022-04-19T11:11:36.000Z</time>
      </trkpt>
      <trkpt lat="37.18152" lon="-3.59554">
        <ele>757.343397</ele>
        <time>2022-04-19T11:11:37.000Z</time>
      </trkpt>
      <trkpt lat="37.1815" lon="-3.59562">
        <ele>757.053289</ele>
        <time>2022-04-19T11:11:42.000Z</time>
      </trkpt>
      <trkpt lat="37.18149" lon="-3.59569">
        <ele>756.82569</ele>
        <time>2022-04-19T11:11:46.000Z</time>
      </trkpt>
      <trkpt lat="37.18149" lon="-3.59571">
        <ele>756.768275</ele>
        <time>2022-04-19T11:11:47.000Z</time>
      </trkpt>
      <trkpt lat="37.18149" lon="-3.59572">
        <ele>756.714219</ele>
        <time>2022-04-19T11:11:48.000Z</time>
      </trkpt>
      <trkpt lat="37.18148" lon="-3.5958">
        <ele>756.452405</ele>
        <time>2022-04-19T11:11:52.000Z</time>
      </trkpt>
      <trkpt lat="37.18148" lon="-3.59587">
        <ele>756.222746</ele>
        <time>2022-04-19T11:11:56.000Z</time>
      </trkpt>
      <trkpt lat="37.18147" lon="-3.59591">
        <ele>756.058894</ele>
        <time>2022-04-19T11:11:59.000Z</time>
      </trkpt>
      <trkpt lat="37.18146" lon="-3.59594">
        <ele>755.958704</ele>
        <time>2022-04-19T11:12:01.000Z</time>
      </trkpt>
      <trkpt lat="37.18147" lon="-3.59599">
        <ele>755.801706</ele>
        <time>2022-04-19T11:12:04.000Z</time>
      </trkpt>
      <trkpt lat="37.18147" lon="-3.59602">
        <ele>755.699256</ele>
        <time>2022-04-19T11:12:06.000Z</time>
      </trkpt>
      <trkpt lat="37.18148" lon="-3.59602">
        <ele>755.666824</ele>
        <time>2022-04-19T11:12:07.000Z</time>
      </trkpt>
      <trkpt lat="37.18151" lon="-3.59604">
        <ele>755.505113</ele>
        <time>2022-04-19T11:12:11.000Z</time>
      </trkpt>
      <trkpt lat="37.18154" lon="-3.59604">
        <ele>755.382099</ele>
        <time>2022-04-19T11:12:13.000Z</time>
      </trkpt>
      <trkpt lat="37.18156" lon="-3.59604">
        <ele>755.305706</ele>
        <time>2022-04-19T11:12:14.000Z</time>
      </trkpt>
      <trkpt lat="37.18158" lon="-3.59605">
        <ele>755.231584</ele>
        <time>2022-04-19T11:12:16.000Z</time>
      </trkpt>
      <trkpt lat="37.18158" lon="-3.59606">
        <ele>755.209677</ele>
        <time>2022-04-19T11:12:17.000Z</time>
      </trkpt>
      <trkpt lat="37.18159" lon="-3.59606">
        <ele>755.162089</ele>
        <time>2022-04-19T11:12:18.000Z</time>
      </trkpt>
      <trkpt lat="37.18164" lon="-3.59608">
        <ele>754.95516</ele>
        <time>2022-04-19T11:12:23.000Z</time>
      </trkpt>
      <trkpt lat="37.18165" lon="-3.59608">
        <ele>754.895358</ele>
        <time>2022-04-19T11:12:24.000Z</time>
      </trkpt>
      <trkpt lat="37.18168" lon="-3.59611">
        <ele>754.725113</ele>
        <time>2022-04-19T11:12:28.000Z</time>
      </trkpt>
      <trkpt lat="37.18169" lon="-3.59612">
        <ele>754.690402</ele>
        <time>2022-04-19T11:12:29.000Z</time>
      </trkpt>
      <trkpt lat="37.18168" lon="-3.59616">
        <ele>754.531818</ele>
        <time>2022-04-19T11:12:32.000Z</time>
      </trkpt>
      <trkpt lat="37.18168" lon="-3.59618">
        <ele>754.471044</ele>
        <time>2022-04-19T11:12:33.000Z</time>
      </trkpt>
      <trkpt lat="37.18168" lon="-3.5962">
        <ele>754.39504</ele>
        <time>2022-04-19T11:12:34.000Z</time>
      </trkpt>
      <trkpt lat="37.18169" lon="-3.59625">
        <ele>754.242943</ele>
        <time>2022-04-19T11:12:37.000Z</time>
      </trkpt>
      <trkpt lat="37.18171" lon="-3.5963">
        <ele>754.043573</ele>
        <time>2022-04-19T11:12:40.000Z</time>
      </trkpt>
      <trkpt lat="37.18174" lon="-3.59635">
        <ele>753.808991</ele>
        <time>2022-04-19T11:12:43.000Z</time>
      </trkpt>
      <trkpt lat="37.18174" lon="-3.5964">
        <ele>753.653825</ele>
        <time>2022-04-19T11:12:45.000Z</time>
      </trkpt>
      <trkpt lat="37.18174" lon="-3.59643">
        <ele>753.558191</ele>
        <time>2022-04-19T11:12:47.000Z</time>
      </trkpt>
      <trkpt lat="37.18174" lon="-3.59644">
        <ele>753.504914</ele>
        <time>2022-04-19T11:12:48.000Z</time>
      </trkpt>
      <trkpt lat="37.18174" lon="-3.59648">
        <ele>753.482256</ele>
        <time>2022-04-19T11:12:50.000Z</time>
      </trkpt>
      <trkpt lat="37.18172" lon="-3.59651">
        <ele>753.494379</ele>
        <time>2022-04-19T11:12:52.000Z</time>
      </trkpt>
      <trkpt lat="37.18172" lon="-3.59653">
        <ele>753.501355</ele>
        <time>2022-04-19T11:12:53.000Z</time>
      </trkpt>
      <trkpt lat="37.18173" lon="-3.59656">
        <ele>753.512533</ele>
        <time>2022-04-19T11:12:55.000Z</time>
      </trkpt>
      <trkpt lat="37.18173" lon="-3.59658">
        <ele>753.517175</ele>
        <time>2022-04-19T11:12:56.000Z</time>
      </trkpt>
      <trkpt lat="37.18174" lon="-3.59662">
        <ele>753.533719</ele>
        <time>2022-04-19T11:12:59.000Z</time>
      </trkpt>
      <trkpt lat="37.18173" lon="-3.59665">
        <ele>753.542636</ele>
        <time>2022-04-19T11:13:01.000Z</time>
      </trkpt>
      <trkpt lat="37.18172" lon="-3.59665">
        <ele>753.544489</ele>
        <time>2022-04-19T11:13:04.000Z</time>
      </trkpt>
      <trkpt lat="37.18173" lon="-3.59666">
        <ele>753.549795</ele>
        <time>2022-04-19T11:13:08.000Z</time>
      </trkpt>
      <trkpt lat="37.18173" lon="-3.59665">
        <ele>753.553458</ele>
        <time>2022-04-19T11:13:09.000Z</time>
      </trkpt>
      <trkpt lat="37.18172" lon="-3.59665">
        <ele>753.55664</ele>
        <time>2022-04-19T11:13:14.000Z</time>
      </trkpt>
      <trkpt lat="37.18173" lon="-3.59665">
        <ele>753.557741</ele>
        <time>2022-04-19T11:13:18.000Z</time>
      </trkpt>
      <trkpt lat="37.18172" lon="-3.59666">
        <ele>753.56289</ele>
        <time>2022-04-19T11:13:22.000Z</time>
      </trkpt>
      <trkpt lat="37.18169" lon="-3.59663">
        <ele>753.578932</ele>
        <time>2022-04-19T11:13:28.000Z</time>
      </trkpt>
      <trkpt lat="37.18168" lon="-3.59663">
        <ele>753.583355</ele>
        <time>2022-04-19T11:13:29.000Z</time>
      </trkpt>
      <trkpt lat="37.18166" lon="-3.59662">
        <ele>753.591463</ele>
        <time>2022-04-19T11:13:34.000Z</time>
      </trkpt>
      <trkpt lat="37.18166" lon="-3.59663">
        <ele>753.594578</ele>
        <time>2022-04-19T11:13:38.000Z</time>
      </trkpt>
      <trkpt lat="37.18166" lon="-3.59663">
        <ele>753.596196</ele>
        <time>2022-04-19T11:13:40.000Z</time>
      </trkpt>
      <trkpt lat="37.18165" lon="-3.59664">
        <ele>753.602149</ele>
        <time>2022-04-19T11:13:45.000Z</time>
      </trkpt>
      <trkpt lat="37.18155" lon="-3.59675">
        <ele>753.660246</ele>
        <time>2022-04-19T11:14:26.000Z</time>
      </trkpt>
      <trkpt lat="37.18159" lon="-3.59673">
        <ele>753.679976</ele>
        <time>2022-04-19T11:14:28.000Z</time>
      </trkpt>
      <trkpt lat="37.18157" lon="-3.59661">
        <ele>753.721614</ele>
        <time>2022-04-19T11:14:34.000Z</time>
      </trkpt>
      <trkpt lat="37.18155" lon="-3.59656">
        <ele>753.741108</ele>
        <time>2022-04-19T11:14:39.000Z</time>
      </trkpt>
      <trkpt lat="37.18154" lon="-3.59655">
        <ele>753.746059</ele>
        <time>2022-04-19T11:14:40.000Z</time>
      </trkpt>
      <trkpt lat="37.18154" lon="-3.59653">
        <ele>753.752316</ele>
        <time>2022-04-19T11:14:42.000Z</time>
      </trkpt>
      <trkpt lat="37.18152" lon="-3.59651">
        <ele>753.764384</ele>
        <time>2022-04-19T11:14:46.000Z</time>
      </trkpt>
      <trkpt lat="37.18151" lon="-3.5965">
        <ele>753.767917</ele>
        <time>2022-04-19T11:14:49.000Z</time>
      </trkpt>
      <trkpt lat="37.1815" lon="-3.59649">
        <ele>753.772868</ele>
        <time>2022-04-19T11:14:52.000Z</time>
      </trkpt>
      <trkpt lat="37.1815" lon="-3.59651">
        <ele>753.779933</ele>
        <time>2022-04-19T11:15:01.000Z</time>
      </trkpt>
      <trkpt lat="37.18151" lon="-3.59648">
        <ele>753.789522</ele>
        <time>2022-04-19T11:15:06.000Z</time>
      </trkpt>
      <trkpt lat="37.18153" lon="-3.59648">
        <ele>753.798987</ele>
        <time>2022-04-19T11:15:11.000Z</time>
      </trkpt>
      <trkpt lat="37.18153" lon="-3.59648">
        <ele>753.800742</ele>
        <time>2022-04-19T11:15:14.000Z</time>
      </trkpt>
      <trkpt lat="37.18154" lon="-3.5965">
        <ele>753.808793</ele>
        <time>2022-04-19T11:15:18.000Z</time>
      </trkpt>
      <trkpt lat="37.18155" lon="-3.59645">
        <ele>753.825269</ele>
        <time>2022-04-19T11:15:21.000Z</time>
      </trkpt>
      <trkpt lat="37.18154" lon="-3.59644">
        <ele>753.830647</ele>
        <time>2022-04-19T11:15:22.000Z</time>
      </trkpt>
      <trkpt lat="37.18153" lon="-3.59642">
        <ele>753.838937</ele>
        <time>2022-04-19T11:15:26.000Z</time>
      </trkpt>
      <trkpt lat="37.18154" lon="-3.59648">
        <ele>753.860142</ele>
        <time>2022-04-19T11:15:29.000Z</time>
      </trkpt>
      <trkpt lat="37.18154" lon="-3.59648">
        <ele>753.861069</ele>
        <time>2022-04-19T11:15:30.000Z</time>
      </trkpt>
      <trkpt lat="37.18156" lon="-3.59649">
        <ele>753.870313</ele>
        <time>2022-04-19T11:15:35.000Z</time>
      </trkpt>
      <trkpt lat="37.18156" lon="-3.59644">
        <ele>753.889288</ele>
        <time>2022-04-19T11:15:41.000Z</time>
      </trkpt>
      <trkpt lat="37.18172" lon="-3.59637">
        <ele>753.959932</ele>
        <time>2022-04-19T11:15:49.000Z</time>
      </trkpt>
      <trkpt lat="37.18175" lon="-3.59636">
        <ele>753.975844</ele>
        <time>2022-04-19T11:15:51.000Z</time>
      </trkpt>
      <trkpt lat="37.18151" lon="-3.59637">
        <ele>754.079629</ele>
        <time>2022-04-19T11:16:59.000Z</time>
      </trkpt>
      <trkpt lat="37.18154" lon="-3.5964">
        <ele>754.096347</ele>
        <time>2022-04-19T11:17:00.000Z</time>
      </trkpt>
      <trkpt lat="37.18158" lon="-3.59626">
        <ele>754.147754</ele>
        <time>2022-04-19T11:17:01.000Z</time>
      </trkpt>
      <trkpt lat="37.18167" lon="-3.59625">
        <ele>754.189953</ele>
        <time>2022-04-19T11:17:04.000Z</time>
      </trkpt>
      <trkpt lat="37.18166" lon="-3.59631">
        <ele>754.210175</ele>
        <time>2022-04-19T11:17:05.000Z</time>
      </trkpt>
      <trkpt lat="37.18167" lon="-3.59642">
        <ele>754.25045</ele>
        <time>2022-04-19T11:17:09.000Z</time>
      </trkpt>
      <trkpt lat="37.18169" lon="-3.5964">
        <ele>754.272301</ele>
        <time>2022-04-19T11:17:10.000Z</time>
      </trkpt>
      <trkpt lat="37.18164" lon="-3.59639">
        <ele>754.321176</ele>
        <time>2022-04-19T11:17:12.000Z</time>
      </trkpt>
      <trkpt lat="37.18166" lon="-3.59637">
        <ele>754.344585</ele>
        <time>2022-04-19T11:17:13.000Z</time>
      </trkpt>
      <trkpt lat="37.18166" lon="-3.59637">
        <ele>754.348454</ele>
        <time>2022-04-19T11:17:14.000Z</time>
      </trkpt>
      <trkpt lat="37.18168" lon="-3.59635">
        <ele>754.375802</ele>
        <time>2022-04-19T11:17:15.000Z</time>
      </trkpt>
      <trkpt lat="37.18169" lon="-3.59634">
        <ele>754.390265</ele>
        <time>2022-04-19T11:17:16.000Z</time>
      </trkpt>
      <trkpt lat="37.1817" lon="-3.59638">
        <ele>754.423102</ele>
        <time>2022-04-19T11:17:18.000Z</time>
      </trkpt>
      <trkpt lat="37.18167" lon="-3.59642">
        <ele>754.464971</ele>
        <time>2022-04-19T11:17:20.000Z</time>
      </trkpt>
      <trkpt lat="37.18156" lon="-3.59656">
        <ele>754.624908</ele>
        <time>2022-04-19T11:17:24.000Z</time>
      </trkpt>
      <trkpt lat="37.1816" lon="-3.59655">
        <ele>754.661355</ele>
        <time>2022-04-19T11:17:29.000Z</time>
      </trkpt>
      <trkpt lat="37.1816" lon="-3.59653">
        <ele>754.675621</ele>
        <time>2022-04-19T11:17:34.000Z</time>
      </trkpt>
      <trkpt lat="37.1816" lon="-3.59651">
        <ele>754.693101</ele>
        <time>2022-04-19T11:17:35.000Z</time>
      </trkpt>
      <trkpt lat="37.1816" lon="-3.59651">
        <ele>754.701432</ele>
        <time>2022-04-19T11:17:36.000Z</time>
      </trkpt>
      <trkpt lat="37.18163" lon="-3.59646">
        <ele>754.746352</ele>
        <time>2022-04-19T11:17:38.000Z</time>
      </trkpt>
      <trkpt lat="37.18165" lon="-3.59645">
        <ele>754.769223</ele>
        <time>2022-04-19T11:17:40.000Z</time>
      </trkpt>
      <trkpt lat="37.18191" lon="-3.59608">
        <ele>755.167854</ele>
        <time>2022-04-19T11:18:01.000Z</time>
      </trkpt>
      <trkpt lat="37.1819" lon="-3.59614">
        <ele>755.216702</ele>
        <time>2022-04-19T11:18:06.000Z</time>
      </trkpt>
      <trkpt lat="37.18171" lon="-3.59617">
        <ele>755.416497</ele>
        <time>2022-04-19T11:18:10.000Z</time>
      </trkpt>
      <trkpt lat="37.18168" lon="-3.59618">
        <ele>755.444232</ele>
        <time>2022-04-19T11:18:11.000Z</time>
      </trkpt>
      <trkpt lat="37.18151" lon="-3.59642">
        <ele>755.704216</ele>
        <time>2022-04-19T11:18:18.000Z</time>
      </trkpt>
      <trkpt lat="37.18152" lon="-3.59637">
        <ele>755.738199</ele>
        <time>2022-04-19T11:18:22.000Z</time>
      </trkpt>
      <trkpt lat="37.18167" lon="-3.59611">
        <ele>756.008041</ele>
        <time>2022-04-19T11:18:48.000Z</time>
      </trkpt>
      <trkpt lat="37.18165" lon="-3.59604">
        <ele>756.068976</ele>
        <time>2022-04-19T11:18:49.000Z</time>
      </trkpt>
      <trkpt lat="37.18163" lon="-3.59617">
        <ele>756.184999</ele>
        <time>2022-04-19T11:18:53.000Z</time>
      </trkpt>
      <trkpt lat="37.18157" lon="-3.5961">
        <ele>756.276386</ele>
        <time>2022-04-19T11:19:01.000Z</time>
      </trkpt>
      <trkpt lat="37.18157" lon="-3.59609">
        <ele>756.291362</ele>
        <time>2022-04-19T11:19:03.000Z</time>
      </trkpt>
      <trkpt lat="37.18157" lon="-3.59606">
        <ele>756.317506</ele>
        <time>2022-04-19T11:19:07.000Z</time>
      </trkpt>
      <trkpt lat="37.18155" lon="-3.5961">
        <ele>756.362684</ele>
        <time>2022-04-19T11:19:13.000Z</time>
      </trkpt>
      <trkpt lat="37.18153" lon="-3.59616">
        <ele>756.416434</ele>
        <time>2022-04-19T11:19:18.000Z</time>
      </trkpt>
      <trkpt lat="37.18153" lon="-3.59617">
        <ele>756.42784</ele>
        <time>2022-04-19T11:19:19.000Z</time>
      </trkpt>
      <trkpt lat="37.18152" lon="-3.59618">
        <ele>756.446619</ele>
        <time>2022-04-19T11:19:27.000Z</time>
      </trkpt>
      <trkpt lat="37.18152" lon="-3.5962">
        <ele>756.464397</ele>
        <time>2022-04-19T11:19:31.000Z</time>
      </trkpt>
      <trkpt lat="37.18153" lon="-3.59622">
        <ele>756.484724</ele>
        <time>2022-04-19T11:19:33.000Z</time>
      </trkpt>
      <trkpt lat="37.18153" lon="-3.59623">
        <ele>756.488608</ele>
        <time>2022-04-19T11:19:35.000Z</time>
      </trkpt>
      <trkpt lat="37.18157" lon="-3.5962">
        <ele>756.539709</ele>
        <time>2022-04-19T11:19:42.000Z</time>
      </trkpt>
      <trkpt lat="37.1816" lon="-3.59617">
        <ele>756.583446</ele>
        <time>2022-04-19T11:19:45.000Z</time>
      </trkpt>
      <trkpt lat="37.18165" lon="-3.59617">
        <ele>756.642117</ele>
        <time>2022-04-19T11:19:51.000Z</time>
      </trkpt>
      <trkpt lat="37.18165" lon="-3.59635">
        <ele>756.806133</ele>
        <time>2022-04-19T11:20:31.000Z</time>
      </trkpt>
      <trkpt lat="37.18168" lon="-3.59638">
        <ele>756.842509</ele>
        <time>2022-04-19T11:20:33.000Z</time>
      </trkpt>
      <trkpt lat="37.18167" lon="-3.5964">
        <ele>756.863695</ele>
        <time>2022-04-19T11:20:35.000Z</time>
      </trkpt>
      <trkpt lat="37.18165" lon="-3.59643">
        <ele>756.903039</ele>
        <time>2022-04-19T11:20:38.000Z</time>
      </trkpt>
      <trkpt lat="37.18165" lon="-3.59642">
        <ele>756.920817</ele>
        <time>2022-04-19T11:20:42.000Z</time>
      </trkpt>
      <trkpt lat="37.1816" lon="-3.59638">
        <ele>756.979425</ele>
        <time>2022-04-19T11:20:47.000Z</time>
      </trkpt>
      <trkpt lat="37.18164" lon="-3.59641">
        <ele>757.024752</ele>
        <time>2022-04-19T11:20:53.000Z</time>
      </trkpt>
      <trkpt lat="37.18164" lon="-3.59642">
        <ele>757.030219</ele>
        <time>2022-04-19T11:20:55.000Z</time>
      </trkpt>
      <trkpt lat="37.18164" lon="-3.59641">
        <ele>757.042557</ele>
        <time>2022-04-19T11:20:58.000Z</time>
      </trkpt>
      <trkpt lat="37.18163" lon="-3.59643">
        <ele>757.065843</ele>
        <time>2022-04-19T11:21:02.000Z</time>
      </trkpt>
      <trkpt lat="37.18164" lon="-3.59643">
        <ele>757.069393</ele>
        <time>2022-04-19T11:21:04.000Z</time>
      </trkpt>
      <trkpt lat="37.18164" lon="-3.59641">
        <ele>757.084881</ele>
        <time>2022-04-19T11:21:09.000Z</time>
      </trkpt>
      <trkpt lat="37.18164" lon="-3.59641">
        <ele>757.088445</ele>
        <time>2022-04-19T11:21:13.000Z</time>
      </trkpt>
      <trkpt lat="37.18165" lon="-3.59639">
        <ele>757.107042</ele>
        <time>2022-04-19T11:21:14.000Z</time>
      </trkpt>
      <trkpt lat="37.18166" lon="-3.59637">
        <ele>757.128556</ele>
        <time>2022-04-19T11:21:16.000Z</time>
      </trkpt>
      <trkpt lat="37.18163" lon="-3.59642">
        <ele>757.18558</ele>
        <time>2022-04-19T11:21:21.000Z</time>
      </trkpt>
      <trkpt lat="37.18162" lon="-3.59644">
        <ele>757.199558</ele>
        <time>2022-04-19T11:21:27.000Z</time>
      </trkpt>
      <trkpt lat="37.18162" lon="-3.59643">
        <ele>757.202483</ele>
        <time>2022-04-19T11:21:31.000Z</time>
      </trkpt>
      <trkpt lat="37.18162" lon="-3.59642">
        <ele>757.21634</ele>
        <time>2022-04-19T11:21:33.000Z</time>
      </trkpt>
      <trkpt lat="37.18162" lon="-3.59642">
        <ele>757.219302</ele>
        <time>2022-04-19T11:21:40.000Z</time>
      </trkpt>
      <trkpt lat="37.18162" lon="-3.59643">
        <ele>757.22564</ele>
        <time>2022-04-19T11:21:42.000Z</time>
      </trkpt>
      <trkpt lat="37.1816" lon="-3.59642">
        <ele>757.240947</ele>
        <time>2022-04-19T11:21:46.000Z</time>
      </trkpt>
      <trkpt lat="37.1816" lon="-3.59642">
        <ele>757.240947</ele>
        <time>2022-04-19T11:21:47.000Z</time>
      </trkpt>
      <trkpt lat="37.1816" lon="-3.59642">
        <ele>757.240947</ele>
        <time>2022-04-19T11:21:49.000Z</time>
      </trkpt>
      <trkpt lat="37.1816" lon="-3.59642">
        <ele>757.240947</ele>
        <time>2022-04-19T11:21:54.000Z</time>
      </trkpt>
      <trkpt lat="37.1816" lon="-3.59642">
        <ele>757.240947</ele>
        <time>2022-04-19T11:21:59.000Z</time>
      </trkpt>
      <trkpt lat="37.18161" lon="-3.59642">
        <ele>757.243409</ele>
        <time>2022-04-19T11:22:02.000Z</time>
      </trkpt>
      <trkpt lat="37.18161" lon="-3.59642">
        <ele>757.244552</ele>
        <time>2022-04-19T11:22:04.000Z</time>
      </trkpt>
      <trkpt lat="37.18161" lon="-3.59642">
        <ele>757.248372</ele>
        <time>2022-04-19T11:22:07.000Z</time>
      </trkpt>
      <trkpt lat="37.18161" lon="-3.59642">
        <ele>757.249283</ele>
        <time>2022-04-19T11:22:09.000Z</time>
      </trkpt>
      <trkpt lat="37.18161" lon="-3.59642">
        <ele>757.249283</ele>
        <time>2022-04-19T11:22:10.000Z</time>
      </trkpt>
      <trkpt lat="37.18161" lon="-3.59642">
        <ele>757.250427</ele>
        <time>2022-04-19T11:22:13.000Z</time>
      </trkpt>
      <trkpt lat="37.18163" lon="-3.59645">
        <ele>757.291916</ele>
        <time>2022-04-19T11:22:20.000Z</time>
      </trkpt>
      <trkpt lat="37.18162" lon="-3.59646">
        <ele>757.313231</ele>
        <time>2022-04-19T11:22:27.000Z</time>
      </trkpt>
      <trkpt lat="37.18163" lon="-3.59644">
        <ele>757.333185</ele>
        <time>2022-04-19T11:22:37.000Z</time>
      </trkpt>
      <trkpt lat="37.18163" lon="-3.59642">
        <ele>757.351416</ele>
        <time>2022-04-19T11:22:40.000Z</time>
      </trkpt>
      <trkpt lat="37.18164" lon="-3.59641">
        <ele>757.362172</ele>
        <time>2022-04-19T11:22:45.000Z</time>
      </trkpt>
      <trkpt lat="37.18165" lon="-3.5964">
        <ele>757.381425</ele>
        <time>2022-04-19T11:23:08.000Z</time>
      </trkpt>
      <trkpt lat="37.18165" lon="-3.59638">
        <ele>757.398774</ele>
        <time>2022-04-19T11:23:09.000Z</time>
      </trkpt>
      <trkpt lat="37.18165" lon="-3.59638">
        <ele>757.40523</ele>
        <time>2022-04-19T11:23:11.000Z</time>
      </trkpt>
      <trkpt lat="37.18168" lon="-3.59637">
        <ele>757.436745</ele>
        <time>2022-04-19T11:23:16.000Z</time>
      </trkpt>
      <trkpt lat="37.18168" lon="-3.59636">
        <ele>757.442671</ele>
        <time>2022-04-19T11:23:18.000Z</time>
      </trkpt>
      <trkpt lat="37.18166" lon="-3.59635">
        <ele>757.464828</ele>
        <time>2022-04-19T11:23:20.000Z</time>
      </trkpt>
      <trkpt lat="37.18163" lon="-3.59633">
        <ele>757.501382</ele>
        <time>2022-04-19T11:23:26.000Z</time>
      </trkpt>
      <trkpt lat="37.18164" lon="-3.59633">
        <ele>757.503669</ele>
        <time>2022-04-19T11:23:28.000Z</time>
      </trkpt>
      <trkpt lat="37.18164" lon="-3.59634">
        <ele>757.515733</ele>
        <time>2022-04-19T11:23:31.000Z</time>
      </trkpt>
      <trkpt lat="37.18164" lon="-3.59635">
        <ele>757.525468</ele>
        <time>2022-04-19T11:23:36.000Z</time>
      </trkpt>
      <trkpt lat="37.18163" lon="-3.59635">
        <ele>757.535801</ele>
        <time>2022-04-19T11:23:39.000Z</time>
      </trkpt>
      <trkpt lat="37.18163" lon="-3.59634">
        <ele>757.545823</ele>
        <time>2022-04-19T11:23:41.000Z</time>
      </trkpt>
      <trkpt lat="37.18167" lon="-3.59634">
        <ele>757.584705</ele>
        <time>2022-04-19T11:23:45.000Z</time>
      </trkpt>
      <trkpt lat="37.18169" lon="-3.59636">
        <ele>757.621105</ele>
        <time>2022-04-19T11:23:49.000Z</time>
      </trkpt>
      <trkpt lat="37.18175" lon="-3.59633">
        <ele>757.684403</ele>
        <time>2022-04-19T11:23:56.000Z</time>
      </trkpt>
      <trkpt lat="37.18178" lon="-3.59632">
        <ele>757.731049</ele>
        <time>2022-04-19T11:24:03.000Z</time>
      </trkpt>
      <trkpt lat="37.18181" lon="-3.59635">
        <ele>757.773516</ele>
        <time>2022-04-19T11:24:11.000Z</time>
      </trkpt>
      <trkpt lat="37.18185" lon="-3.59632">
        <ele>757.829776</ele>
        <time>2022-04-19T11:24:16.000Z</time>
      </trkpt>
      <trkpt lat="37.18179" lon="-3.59633">
        <ele>757.906479</ele>
        <time>2022-04-19T11:24:26.000Z</time>
      </trkpt>
      <trkpt lat="37.18177" lon="-3.59633">
        <ele>757.932797</ele>
        <time>2022-04-19T11:24:28.000Z</time>
      </trkpt>
      <trkpt lat="37.18174" lon="-3.59634">
        <ele>757.958483</ele>
        <time>2022-04-19T11:24:33.000Z</time>
      </trkpt>
      <trkpt lat="37.1817" lon="-3.5964">
        <ele>758.033047</ele>
        <time>2022-04-19T11:24:38.000Z</time>
      </trkpt>
      <trkpt lat="37.18169" lon="-3.59642">
        <ele>758.053016</ele>
        <time>2022-04-19T11:24:44.000Z</time>
      </trkpt>
      <trkpt lat="37.18169" lon="-3.59645">
        <ele>758.07966</ele>
        <time>2022-04-19T11:24:47.000Z</time>
      </trkpt>
      <trkpt lat="37.18165" lon="-3.59638">
        <ele>758.133805</ele>
        <time>2022-04-19T11:24:53.000Z</time>
      </trkpt>
      <trkpt lat="37.18164" lon="-3.59623">
        <ele>757.769042</ele>
        <time>2022-04-19T11:24:59.000Z</time>
      </trkpt>
      <trkpt lat="37.18162" lon="-3.59624">
        <ele>757.703795</ele>
        <time>2022-04-19T11:25:00.000Z</time>
      </trkpt>
      <trkpt lat="37.18169" lon="-3.59626">
        <ele>757.506876</ele>
        <time>2022-04-19T11:25:05.000Z</time>
      </trkpt>
      <trkpt lat="37.18171" lon="-3.5963">
        <ele>757.374802</ele>
        <time>2022-04-19T11:25:10.000Z</time>
      </trkpt>
      <trkpt lat="37.18171" lon="-3.59628">
        <ele>757.325008</ele>
        <time>2022-04-19T11:25:15.000Z</time>
      </trkpt>
      <trkpt lat="37.18164" lon="-3.59626">
        <ele>757.093984</ele>
        <time>2022-04-19T11:25:21.000Z</time>
      </trkpt>
      <trkpt lat="37.18162" lon="-3.59627">
        <ele>757.047705</ele>
        <time>2022-04-19T11:25:23.000Z</time>
      </trkpt>
      <trkpt lat="37.18161" lon="-3.59627">
        <ele>757.01748</ele>
        <time>2022-04-19T11:25:25.000Z</time>
      </trkpt>
      <trkpt lat="37.18163" lon="-3.59629">
        <ele>756.96191</ele>
        <time>2022-04-19T11:25:28.000Z</time>
      </trkpt>
      <trkpt lat="37.18163" lon="-3.5963">
        <ele>756.948221</ele>
        <time>2022-04-19T11:25:30.000Z</time>
      </trkpt>
      <trkpt lat="37.18163" lon="-3.5963">
        <ele>756.944295</ele>
        <time>2022-04-19T11:25:32.000Z</time>
      </trkpt>
      <trkpt lat="37.18163" lon="-3.5963">
        <ele>756.9261</ele>
        <time>2022-04-19T11:25:33.000Z</time>
      </trkpt>
      <trkpt lat="37.18163" lon="-3.59631">
        <ele>756.908764</ele>
        <time>2022-04-19T11:25:41.000Z</time>
      </trkpt>
      <trkpt lat="37.18163" lon="-3.59631">
        <ele>756.908764</ele>
        <time>2022-04-19T11:25:45.000Z</time>
      </trkpt>
      <trkpt lat="37.18161" lon="-3.59632">
        <ele>756.842624</ele>
        <time>2022-04-19T11:25:56.000Z</time>
      </trkpt>
      <trkpt lat="37.1816" lon="-3.59631">
        <ele>756.82443</ele>
        <time>2022-04-19T11:25:58.000Z</time>
      </trkpt>
      <trkpt lat="37.18162" lon="-3.59628">
        <ele>756.740124</ele>
        <time>2022-04-19T11:26:02.000Z</time>
      </trkpt>
      <trkpt lat="37.18164" lon="-3.59627">
        <ele>756.673067</ele>
        <time>2022-04-19T11:26:06.000Z</time>
      </trkpt>
      <trkpt lat="37.18165" lon="-3.59627">
        <ele>756.65157</ele>
        <time>2022-04-19T11:26:07.000Z</time>
      </trkpt>
      <trkpt lat="37.18164" lon="-3.59625">
        <ele>756.588876</ele>
        <time>2022-04-19T11:26:10.000Z</time>
      </trkpt>
      <trkpt lat="37.18163" lon="-3.59625">
        <ele>756.570288</ele>
        <time>2022-04-19T11:26:11.000Z</time>
      </trkpt>
      <trkpt lat="37.18164" lon="-3.59626">
        <ele>756.521609</ele>
        <time>2022-04-19T11:26:14.000Z</time>
      </trkpt>
      <trkpt lat="37.18164" lon="-3.59626">
        <ele>756.508996</ele>
        <time>2022-04-19T11:26:15.000Z</time>
      </trkpt>
      <trkpt lat="37.18164" lon="-3.59627">
        <ele>756.495555</ele>
        <time>2022-04-19T11:26:17.000Z</time>
      </trkpt>
      <trkpt lat="37.18163" lon="-3.59622">
        <ele>756.377286</ele>
        <time>2022-04-19T11:26:21.000Z</time>
      </trkpt>
      <trkpt lat="37.18163" lon="-3.59623">
        <ele>756.357473</ele>
        <time>2022-04-19T11:26:22.000Z</time>
      </trkpt>
      <trkpt lat="37.18165" lon="-3.59621">
        <ele>756.293097</ele>
        <time>2022-04-19T11:26:25.000Z</time>
      </trkpt>
      <trkpt lat="37.18149" lon="-3.59613">
        <ele>755.774628</ele>
        <time>2022-04-19T11:26:27.000Z</time>
      </trkpt>
      <trkpt lat="37.18159" lon="-3.59612">
        <ele>755.466134</ele>
        <time>2022-04-19T11:26:29.000Z</time>
      </trkpt>
      <trkpt lat="37.1816" lon="-3.59613">
        <ele>755.419314</ele>
        <time>2022-04-19T11:26:30.000Z</time>
      </trkpt>
      <trkpt lat="37.18161" lon="-3.59619">
        <ele>755.271897</ele>
        <time>2022-04-19T11:26:34.000Z</time>
      </trkpt>
      <trkpt lat="37.18162" lon="-3.59638">
        <ele>754.818001</ele>
        <time>2022-04-19T11:27:44.000Z</time>
      </trkpt>
      <trkpt lat="37.18167" lon="-3.59647">
        <ele>754.552178</ele>
        <time>2022-04-19T11:27:45.000Z</time>
      </trkpt>
      <trkpt lat="37.18162" lon="-3.59635">
        <ele>754.239147</ele>
        <time>2022-04-19T11:27:47.000Z</time>
      </trkpt>
      <trkpt lat="37.18159" lon="-3.59632">
        <ele>754.119507</ele>
        <time>2022-04-19T11:27:49.000Z</time>
      </trkpt>
      <trkpt lat="37.18159" lon="-3.59627">
        <ele>754.001917</ele>
        <time>2022-04-19T11:27:53.000Z</time>
      </trkpt>
      <trkpt lat="37.18148" lon="-3.59629">
        <ele>753.659563</ele>
        <time>2022-04-19T11:28:00.000Z</time>
      </trkpt>
      <trkpt lat="37.18156" lon="-3.59634">
        <ele>753.356571</ele>
        <time>2022-04-19T11:28:01.000Z</time>
      </trkpt>
      <trkpt lat="37.18156" lon="-3.5964">
        <ele>753.219557</ele>
        <time>2022-04-19T11:28:03.000Z</time>
      </trkpt>
      <trkpt lat="37.18156" lon="-3.59645">
        <ele>753.099041</ele>
        <time>2022-04-19T11:28:06.000Z</time>
      </trkpt>
      <trkpt lat="37.18159" lon="-3.59646">
        <ele>752.999417</ele>
        <time>2022-04-19T11:28:10.000Z</time>
      </trkpt>
      <trkpt lat="37.18161" lon="-3.59653">
        <ele>752.823108</ele>
        <time>2022-04-19T11:28:15.000Z</time>
      </trkpt>
      <trkpt lat="37.1816" lon="-3.59656">
        <ele>752.738712</ele>
        <time>2022-04-19T11:28:17.000Z</time>
      </trkpt>
      <trkpt lat="37.1816" lon="-3.59657">
        <ele>752.714053</ele>
        <time>2022-04-19T11:28:18.000Z</time>
      </trkpt>
      <trkpt lat="37.18159" lon="-3.59658">
        <ele>752.690495</ele>
        <time>2022-04-19T11:28:22.000Z</time>
      </trkpt>
      <trkpt lat="37.18161" lon="-3.59656">
        <ele>752.634991</ele>
        <time>2022-04-19T11:28:24.000Z</time>
      </trkpt>
      <trkpt lat="37.18164" lon="-3.59661">
        <ele>752.577168</ele>
        <time>2022-04-19T11:28:31.000Z</time>
      </trkpt>
      <trkpt lat="37.18167" lon="-3.5967">
        <ele>752.494089</ele>
        <time>2022-04-19T11:28:36.000Z</time>
      </trkpt>
      <trkpt lat="37.18164" lon="-3.59669">
        <ele>752.463475</ele>
        <time>2022-04-19T11:28:51.000Z</time>
      </trkpt>
      <trkpt lat="37.18166" lon="-3.59668">
        <ele>752.43489</ele>
        <time>2022-04-19T11:28:56.000Z</time>
      </trkpt>
      <trkpt lat="37.18166" lon="-3.59668">
        <ele>752.427215</ele>
        <time>2022-04-19T11:29:05.000Z</time>
      </trkpt>
      <trkpt lat="37.18168" lon="-3.59666">
        <ele>752.394443</ele>
        <time>2022-04-19T11:29:26.000Z</time>
      </trkpt>
      <trkpt lat="37.18169" lon="-3.59663">
        <ele>752.366476</ele>
        <time>2022-04-19T11:29:34.000Z</time>
      </trkpt>
      <trkpt lat="37.18171" lon="-3.59661">
        <ele>752.341936</ele>
        <time>2022-04-19T11:29:40.000Z</time>
      </trkpt>
      <trkpt lat="37.18171" lon="-3.59661">
        <ele>752.341936</ele>
        <time>2022-04-19T11:29:44.000Z</time>
      </trkpt>
      <trkpt lat="37.18171" lon="-3.59661">
        <ele>752.341936</ele>
        <time>2022-04-19T11:29:47.000Z</time>
      </trkpt>
      <trkpt lat="37.18171" lon="-3.59661">
        <ele>752.341936</ele>
        <time>2022-04-19T11:29:49.000Z</time>
      </trkpt>
      <trkpt lat="37.18171" lon="-3.59661">
        <ele>752.341068</ele>
        <time>2022-04-19T11:29:51.000Z</time>
      </trkpt>
      <trkpt lat="37.18171" lon="-3.59661">
        <ele>752.339018</ele>
        <time>2022-04-19T11:29:54.000Z</time>
      </trkpt>
      <trkpt lat="37.18165" lon="-3.59662">
        <ele>752.281708</ele>
        <time>2022-04-19T11:30:00.000Z</time>
      </trkpt>
      <trkpt lat="37.18167" lon="-3.59662">
        <ele>752.263188</ele>
        <time>2022-04-19T11:30:05.000Z</time>
      </trkpt>
      <trkpt lat="37.18169" lon="-3.59662">
        <ele>752.239158</ele>
        <time>2022-04-19T11:30:10.000Z</time>
      </trkpt>
      <trkpt lat="37.18169" lon="-3.59665">
        <ele>752.218299</ele>
        <time>2022-04-19T11:30:16.000Z</time>
      </trkpt>
      <trkpt lat="37.18168" lon="-3.59667">
        <ele>752.193694</ele>
        <time>2022-04-19T11:30:24.000Z</time>
      </trkpt>
      <trkpt lat="37.18168" lon="-3.59667">
        <ele>752.191958</ele>
        <time>2022-04-19T11:30:29.000Z</time>
      </trkpt>
      <trkpt lat="37.18167" lon="-3.59666">
        <ele>752.179422</ele>
        <time>2022-04-19T11:30:34.000Z</time>
      </trkpt>
      <trkpt lat="37.18168" lon="-3.59665">
        <ele>752.159036</ele>
        <time>2022-04-19T11:30:38.000Z</time>
      </trkpt>
      <trkpt lat="37.18168" lon="-3.59664">
        <ele>752.153603</ele>
        <time>2022-04-19T11:30:40.000Z</time>
      </trkpt>
      <trkpt lat="37.18168" lon="-3.59664">
        <ele>752.150335</ele>
        <time>2022-04-19T11:30:43.000Z</time>
      </trkpt>
      <trkpt lat="37.18168" lon="-3.59665">
        <ele>752.144902</ele>
        <time>2022-04-19T11:30:48.000Z</time>
      </trkpt>
      <trkpt lat="37.18168" lon="-3.59665">
        <ele>752.144902</ele>
        <time>2022-04-19T11:30:52.000Z</time>
      </trkpt>
      <trkpt lat="37.18171" lon="-3.59666">
        <ele>752.117354</ele>
        <time>2022-04-19T11:31:01.000Z</time>
      </trkpt>
      <trkpt lat="37.18171" lon="-3.59665">
        <ele>752.107168</ele>
        <time>2022-04-19T11:31:05.000Z</time>
      </trkpt>
      <trkpt lat="37.18171" lon="-3.59665">
        <ele>752.102693</ele>
        <time>2022-04-19T11:31:08.000Z</time>
      </trkpt>
      <trkpt lat="37.18169" lon="-3.59665">
        <ele>752.08075</ele>
        <time>2022-04-19T11:31:10.000Z</time>
      </trkpt>
      <trkpt lat="37.18167" lon="-3.59665">
        <ele>752.060666</ele>
        <time>2022-04-19T11:31:16.000Z</time>
      </trkpt>
      <trkpt lat="37.18167" lon="-3.59665">
        <ele>752.060666</ele>
        <time>2022-04-19T11:31:19.000Z</time>
      </trkpt>
      <trkpt lat="37.18167" lon="-3.59665">
        <ele>752.060666</ele>
        <time>2022-04-19T11:31:25.000Z</time>
      </trkpt>
      <trkpt lat="37.18168" lon="-3.59665">
        <ele>752.059273</ele>
        <time>2022-04-19T11:31:27.000Z</time>
      </trkpt>
      <trkpt lat="37.18168" lon="-3.59666">
        <ele>752.054066</ele>
        <time>2022-04-19T11:31:30.000Z</time>
      </trkpt>
      <trkpt lat="37.18169" lon="-3.59668">
        <ele>752.033172</ele>
        <time>2022-04-19T11:31:35.000Z</time>
      </trkpt>
      <trkpt lat="37.18169" lon="-3.59668">
        <ele>752.033172</ele>
        <time>2022-04-19T11:31:40.000Z</time>
      </trkpt>
      <trkpt lat="37.1817" lon="-3.59667">
        <ele>752.027135</ele>
        <time>2022-04-19T11:31:42.000Z</time>
      </trkpt>
      <trkpt lat="37.1817" lon="-3.59667">
        <ele>752.025742</ele>
        <time>2022-04-19T11:31:45.000Z</time>
      </trkpt>
      <trkpt lat="37.18168" lon="-3.59668">
        <ele>752.007987</ele>
        <time>2022-04-19T11:31:49.000Z</time>
      </trkpt>
      <trkpt lat="37.18168" lon="-3.59668">
        <ele>752.007987</ele>
        <time>2022-04-19T11:31:51.000Z</time>
      </trkpt>
      <trkpt lat="37.18168" lon="-3.59668">
        <ele>752.007987</ele>
        <time>2022-04-19T11:31:53.000Z</time>
      </trkpt>
      <trkpt lat="37.18168" lon="-3.59668">
        <ele>752.007987</ele>
        <time>2022-04-19T11:31:55.000Z</time>
      </trkpt>
      <trkpt lat="37.18169" lon="-3.59666">
        <ele>751.988801</ele>
        <time>2022-04-19T11:32:14.000Z</time>
      </trkpt>
      <trkpt lat="37.18168" lon="-3.59666">
        <ele>751.978079</ele>
        <time>2022-04-19T11:32:18.000Z</time>
      </trkpt>
      <trkpt lat="37.18165" lon="-3.59664">
        <ele>751.940866</ele>
        <time>2022-04-19T11:32:30.000Z</time>
      </trkpt>
      <trkpt lat="37.18165" lon="-3.59664">
        <ele>751.940866</ele>
        <time>2022-04-19T11:32:49.000Z</time>
      </trkpt>
      <trkpt lat="37.18166" lon="-3.59664">
        <ele>751.933045</ele>
        <time>2022-04-19T11:32:55.000Z</time>
      </trkpt>
      <trkpt lat="37.18167" lon="-3.59664">
        <ele>751.918776</ele>
        <time>2022-04-19T11:32:58.000Z</time>
      </trkpt>
      <trkpt lat="37.18167" lon="-3.59665">
        <ele>751.913205</ele>
        <time>2022-04-19T11:33:22.000Z</time>
      </trkpt>
      <trkpt lat="37.18165" lon="-3.59665">
        <ele>751.896772</ele>
        <time>2022-04-19T11:33:23.000Z</time>
      </trkpt>
      <trkpt lat="37.18164" lon="-3.59666">
        <ele>751.884236</ele>
        <time>2022-04-19T11:33:27.000Z</time>
      </trkpt>
      <trkpt lat="37.18164" lon="-3.59664">
        <ele>751.873244</ele>
        <time>2022-04-19T11:33:32.000Z</time>
      </trkpt>
      <trkpt lat="37.18163" lon="-3.59665">
        <ele>751.862043</ele>
        <time>2022-04-19T11:33:35.000Z</time>
      </trkpt>
      <trkpt lat="37.18164" lon="-3.59665">
        <ele>751.849569</ele>
        <time>2022-04-19T11:33:40.000Z</time>
      </trkpt>
      <trkpt lat="37.18165" lon="-3.59666">
        <ele>751.83665</ele>
        <time>2022-04-19T11:33:50.000Z</time>
      </trkpt>
      <trkpt lat="37.18165" lon="-3.59666">
        <ele>751.83665</ele>
        <time>2022-04-19T11:33:54.000Z</time>
      </trkpt>
      <trkpt lat="37.18165" lon="-3.59666">
        <ele>751.83665</ele>
        <time>2022-04-19T11:33:59.000Z</time>
      </trkpt>
      <trkpt lat="37.18166" lon="-3.59667">
        <ele>751.815847</ele>
        <time>2022-04-19T11:34:06.000Z</time>
      </trkpt>
      <trkpt lat="37.18167" lon="-3.59668">
        <ele>751.806111</ele>
        <time>2022-04-19T11:34:08.000Z</time>
      </trkpt>
      <trkpt lat="37.18171" lon="-3.59663">
        <ele>751.754747</ele>
        <time>2022-04-19T11:34:15.000Z</time>
      </trkpt>
      <trkpt lat="37.18171" lon="-3.59664">
        <ele>751.748574</ele>
        <time>2022-04-19T11:34:24.000Z</time>
      </trkpt>
      <trkpt lat="37.18167" lon="-3.59665">
        <ele>751.709653</ele>
        <time>2022-04-19T11:34:30.000Z</time>
      </trkpt>
      <trkpt lat="37.18167" lon="-3.59665">
        <ele>751.706257</ele>
        <time>2022-04-19T11:34:36.000Z</time>
      </trkpt>
      <trkpt lat="37.18167" lon="-3.59665">
        <ele>751.706257</ele>
        <time>2022-04-19T11:34:37.000Z</time>
      </trkpt>
      <trkpt lat="37.18167" lon="-3.59665">
        <ele>751.70539</ele>
        <time>2022-04-19T11:34:39.000Z</time>
      </trkpt>
      <trkpt lat="37.18167" lon="-3.59664">
        <ele>751.695204</ele>
        <time>2022-04-19T11:34:40.000Z</time>
      </trkpt>
      <trkpt lat="37.18166" lon="-3.59665">
        <ele>751.686317</ele>
        <time>2022-04-19T11:34:44.000Z</time>
      </trkpt>
      <trkpt lat="37.18165" lon="-3.59664">
        <ele>751.673399</ele>
        <time>2022-04-19T11:34:50.000Z</time>
      </trkpt>
      <trkpt lat="37.18167" lon="-3.59668">
        <ele>751.628134</ele>
        <time>2022-04-19T11:34:56.000Z</time>
      </trkpt>
      <trkpt lat="37.18166" lon="-3.59668">
        <ele>751.612723</ele>
        <time>2022-04-19T11:35:00.000Z</time>
      </trkpt>
      <trkpt lat="37.18166" lon="-3.59667">
        <ele>751.607515</ele>
        <time>2022-04-19T11:35:02.000Z</time>
      </trkpt>
      <trkpt lat="37.18166" lon="-3.59667">
        <ele>751.604729</ele>
        <time>2022-04-19T11:35:04.000Z</time>
      </trkpt>
      <trkpt lat="37.18165" lon="-3.59667">
        <ele>751.600286</ele>
        <time>2022-04-19T11:35:05.000Z</time>
      </trkpt>
      <trkpt lat="37.18166" lon="-3.59666">
        <ele>751.591538</ele>
        <time>2022-04-19T11:35:08.000Z</time>
      </trkpt>
      <trkpt lat="37.18168" lon="-3.59664">
        <ele>751.559191</ele>
        <time>2022-04-19T11:35:16.000Z</time>
      </trkpt>
      <trkpt lat="37.18164" lon="-3.59666">
        <ele>751.513455</ele>
        <time>2022-04-19T11:35:25.000Z</time>
      </trkpt>
      <trkpt lat="37.18165" lon="-3.59666">
        <ele>751.507738</ele>
        <time>2022-04-19T11:35:29.000Z</time>
      </trkpt>
      <trkpt lat="37.18165" lon="-3.59665">
        <ele>751.497266</ele>
        <time>2022-04-19T11:35:32.000Z</time>
      </trkpt>
      <trkpt lat="37.18165" lon="-3.59666">
        <ele>751.484966</ele>
        <time>2022-04-19T11:35:40.000Z</time>
      </trkpt>
      <trkpt lat="37.1816" lon="-3.59665">
        <ele>751.423344</ele>
        <time>2022-04-19T11:35:47.000Z</time>
      </trkpt>
      <trkpt lat="37.18161" lon="-3.59663">
        <ele>751.406075</ele>
        <time>2022-04-19T11:35:54.000Z</time>
      </trkpt>
      <trkpt lat="37.18161" lon="-3.59664">
        <ele>751.401976</ele>
        <time>2022-04-19T11:35:57.000Z</time>
      </trkpt>
      <trkpt lat="37.18161" lon="-3.59663">
        <ele>751.398581</ele>
        <time>2022-04-19T11:36:00.000Z</time>
      </trkpt>
      <trkpt lat="37.18161" lon="-3.59663">
        <ele>751.396532</ele>
        <time>2022-04-19T11:36:02.000Z</time>
      </trkpt>
      <trkpt lat="37.18161" lon="-3.59663">
        <ele>751.395139</ele>
        <time>2022-04-19T11:36:03.000Z</time>
      </trkpt>
      <trkpt lat="37.18161" lon="-3.59663">
        <ele>751.3915</ele>
        <time>2022-04-19T11:36:04.000Z</time>
      </trkpt>
      <trkpt lat="37.18161" lon="-3.59663">
        <ele>751.388714</ele>
        <time>2022-04-19T11:36:05.000Z</time>
      </trkpt>
      <trkpt lat="37.18161" lon="-3.59663">
        <ele>751.384615</ele>
        <time>2022-04-19T11:36:06.000Z</time>
      </trkpt>
      <trkpt lat="37.18162" lon="-3.59664">
        <ele>751.380437</ele>
        <time>2022-04-19T11:36:07.000Z</time>
      </trkpt>
      <trkpt lat="37.18162" lon="-3.59663">
        <ele>751.378387</ele>
        <time>2022-04-19T11:36:10.000Z</time>
      </trkpt>
      <trkpt lat="37.18162" lon="-3.59663">
        <ele>751.373311</ele>
        <time>2022-04-19T11:36:12.000Z</time>
      </trkpt>
      <trkpt lat="37.18163" lon="-3.59662">
        <ele>751.359006</ele>
        <time>2022-04-19T11:36:14.000Z</time>
      </trkpt>
      <trkpt lat="37.1816" lon="-3.59663">
        <ele>751.325741</ele>
        <time>2022-04-19T11:36:21.000Z</time>
      </trkpt>
      <trkpt lat="37.1816" lon="-3.59664">
        <ele>751.324005</ele>
        <time>2022-04-19T11:36:39.000Z</time>
      </trkpt>
      <trkpt lat="37.1816" lon="-3.59664">
        <ele>751.317106</ele>
        <time>2022-04-19T11:36:49.000Z</time>
      </trkpt>
      <trkpt lat="37.18158" lon="-3.59665">
        <ele>751.297327</ele>
        <time>2022-04-19T11:36:59.000Z</time>
      </trkpt>
      <trkpt lat="37.18158" lon="-3.59665">
        <ele>751.294723</ele>
        <time>2022-04-19T11:37:00.000Z</time>
      </trkpt>
      <trkpt lat="37.18158" lon="-3.59665">
        <ele>751.292673</ele>
        <time>2022-04-19T11:37:03.000Z</time>
      </trkpt>
      <trkpt lat="37.1816" lon="-3.59665">
        <ele>751.27624</ele>
        <time>2022-04-19T11:37:08.000Z</time>
      </trkpt>
      <trkpt lat="37.18161" lon="-3.59665">
        <ele>751.262911</ele>
        <time>2022-04-19T11:37:11.000Z</time>
      </trkpt>
      <trkpt lat="37.18162" lon="-3.59665">
        <ele>751.252017</ele>
        <time>2022-04-19T11:37:12.000Z</time>
      </trkpt>
      <trkpt lat="37.18165" lon="-3.59662">
        <ele>751.207168</ele>
        <time>2022-04-19T11:37:17.000Z</time>
      </trkpt>
      <trkpt lat="37.18166" lon="-3.59662">
        <ele>751.191757</ele>
        <time>2022-04-19T11:37:22.000Z</time>
      </trkpt>
      <trkpt lat="37.18165" lon="-3.59664">
        <ele>751.17067</ele>
        <time>2022-04-19T11:37:27.000Z</time>
      </trkpt>
      <trkpt lat="37.18165" lon="-3.59666">
        <ele>751.154942</ele>
        <time>2022-04-19T11:37:33.000Z</time>
      </trkpt>
      <trkpt lat="37.18165" lon="-3.59665">
        <ele>751.145997</ele>
        <time>2022-04-19T11:37:37.000Z</time>
      </trkpt>
      <trkpt lat="37.18163" lon="-3.59663">
        <ele>751.119682</ele>
        <time>2022-04-19T11:37:43.000Z</time>
      </trkpt>
      <trkpt lat="37.18162" lon="-3.59663">
        <ele>751.106937</ele>
        <time>2022-04-19T11:37:49.000Z</time>
      </trkpt>
      <trkpt lat="37.18162" lon="-3.59665">
        <ele>751.084135</ele>
        <time>2022-04-19T11:37:54.000Z</time>
      </trkpt>
      <trkpt lat="37.18162" lon="-3.59665">
        <ele>751.083046</ele>
        <time>2022-04-19T11:38:02.000Z</time>
      </trkpt>
      <trkpt lat="37.1816" lon="-3.59668">
        <ele>751.051677</ele>
        <time>2022-04-19T11:38:23.000Z</time>
      </trkpt>
      <trkpt lat="37.1816" lon="-3.59668">
        <ele>751.049498</ele>
        <time>2022-04-19T11:38:31.000Z</time>
      </trkpt>
      <trkpt lat="37.1816" lon="-3.59666">
        <ele>751.036075</ele>
        <time>2022-04-19T11:38:45.000Z</time>
      </trkpt>
      <trkpt lat="37.1816" lon="-3.59666">
        <ele>751.029999</ele>
        <time>2022-04-19T11:38:48.000Z</time>
      </trkpt>
      <trkpt lat="37.1816" lon="-3.59669">
        <ele>751.003937</ele>
        <time>2022-04-19T11:38:54.000Z</time>
      </trkpt>
      <trkpt lat="37.1816" lon="-3.5967">
        <ele>750.989633</ele>
        <time>2022-04-19T11:38:57.000Z</time>
      </trkpt>
      <trkpt lat="37.18161" lon="-3.59672">
        <ele>750.97026</ele>
        <time>2022-04-19T11:38:59.000Z</time>
      </trkpt>
      <trkpt lat="37.18161" lon="-3.59672">
        <ele>750.969392</ele>
        <time>2022-04-19T11:39:00.000Z</time>
      </trkpt>
      <trkpt lat="37.18161" lon="-3.59671">
        <ele>750.954837</ele>
        <time>2022-04-19T11:39:05.000Z</time>
      </trkpt>
      <trkpt lat="37.18158" lon="-3.59666">
        <ele>750.899845</ele>
        <time>2022-04-19T11:39:12.000Z</time>
      </trkpt>
      <trkpt lat="37.18157" lon="-3.59667">
        <ele>750.888275</ele>
        <time>2022-04-19T11:39:19.000Z</time>
      </trkpt>
      <trkpt lat="37.18157" lon="-3.59667">
        <ele>750.888275</ele>
        <time>2022-04-19T11:39:21.000Z</time>
      </trkpt>
      <trkpt lat="37.18158" lon="-3.59667">
        <ele>750.883917</ele>
        <time>2022-04-19T11:39:25.000Z</time>
      </trkpt>
      <trkpt lat="37.18159" lon="-3.59666">
        <ele>750.872213</ele>
        <time>2022-04-19T11:39:30.000Z</time>
      </trkpt>
      <trkpt lat="37.18161" lon="-3.59664">
        <ele>750.838908</ele>
        <time>2022-04-19T11:39:33.000Z</time>
      </trkpt>
      <trkpt lat="37.18164" lon="-3.59663">
        <ele>750.809939</ele>
        <time>2022-04-19T11:39:37.000Z</time>
      </trkpt>
      <trkpt lat="37.18164" lon="-3.59663">
        <ele>750.802537</ele>
        <time>2022-04-19T11:39:38.000Z</time>
      </trkpt>
      <trkpt lat="37.18162" lon="-3.59666">
        <ele>750.766549</ele>
        <time>2022-04-19T11:39:43.000Z</time>
      </trkpt>
      <trkpt lat="37.18163" lon="-3.59667">
        <ele>750.755348</ele>
        <time>2022-04-19T11:39:46.000Z</time>
      </trkpt>
      <trkpt lat="37.18164" lon="-3.59666">
        <ele>750.753003</ele>
        <time>2022-04-19T11:39:47.000Z</time>
      </trkpt>
      <trkpt lat="37.18163" lon="-3.59668">
        <ele>750.735937</ele>
        <time>2022-04-19T11:39:51.000Z</time>
      </trkpt>
      <trkpt lat="37.18161" lon="-3.59668">
        <ele>750.723828</ele>
        <time>2022-04-19T11:39:52.000Z</time>
      </trkpt>
      <trkpt lat="37.18156" lon="-3.59666">
        <ele>750.659344</ele>
        <time>2022-04-19T11:39:57.000Z</time>
      </trkpt>
      <trkpt lat="37.18153" lon="-3.59665">
        <ele>750.590518</ele>
        <time>2022-04-19T11:40:00.000Z</time>
      </trkpt>
      <trkpt lat="37.18152" lon="-3.59665">
        <ele>750.573811</ele>
        <time>2022-04-19T11:40:01.000Z</time>
      </trkpt>
      <trkpt lat="37.18152" lon="-3.59666">
        <ele>750.560881</ele>
        <time>2022-04-19T11:40:02.000Z</time>
      </trkpt>
      <trkpt lat="37.1815" lon="-3.59667">
        <ele>750.519308</ele>
        <time>2022-04-19T11:40:05.000Z</time>
      </trkpt>
      <trkpt lat="37.18149" lon="-3.59667">
        <ele>750.503353</ele>
        <time>2022-04-19T11:40:10.000Z</time>
      </trkpt>
      <trkpt lat="37.18149" lon="-3.59667">
        <ele>750.498887</ele>
        <time>2022-04-19T11:40:11.000Z</time>
      </trkpt>
      <trkpt lat="37.18147" lon="-3.59669">
        <ele>750.44172</ele>
        <time>2022-04-19T11:40:15.000Z</time>
      </trkpt>
      <trkpt lat="37.18145" lon="-3.59672">
        <ele>750.365254</ele>
        <time>2022-04-19T11:40:21.000Z</time>
      </trkpt>
      <trkpt lat="37.18143" lon="-3.59685">
        <ele>750.148712</ele>
        <time>2022-04-19T11:40:26.000Z</time>
      </trkpt>
      <trkpt lat="37.18142" lon="-3.59702">
        <ele>749.866455</ele>
        <time>2022-04-19T11:40:32.000Z</time>
      </trkpt>
      <trkpt lat="37.18142" lon="-3.59705">
        <ele>749.820178</ele>
        <time>2022-04-19T11:40:33.000Z</time>
      </trkpt>
      <trkpt lat="37.18142" lon="-3.59709">
        <ele>749.763375</ele>
        <time>2022-04-19T11:40:35.000Z</time>
      </trkpt>
      <trkpt lat="37.18142" lon="-3.59709">
        <ele>749.756447</ele>
        <time>2022-04-19T11:40:37.000Z</time>
      </trkpt>
      <trkpt lat="37.1814" lon="-3.59711">
        <ele>749.721314</ele>
        <time>2022-04-19T11:40:44.000Z</time>
      </trkpt>
      <trkpt lat="37.18141" lon="-3.59714">
        <ele>749.665884</ele>
        <time>2022-04-19T11:40:49.000Z</time>
      </trkpt>
      <trkpt lat="37.18141" lon="-3.59718">
        <ele>749.59809</ele>
        <time>2022-04-19T11:40:51.000Z</time>
      </trkpt>
      <trkpt lat="37.18141" lon="-3.59724">
        <ele>749.490642</ele>
        <time>2022-04-19T11:40:53.000Z</time>
      </trkpt>
      <trkpt lat="37.18142" lon="-3.59737">
        <ele>749.277277</ele>
        <time>2022-04-19T11:40:58.000Z</time>
      </trkpt>
      <trkpt lat="37.18141" lon="-3.59739">
        <ele>749.241957</ele>
        <time>2022-04-19T11:40:59.000Z</time>
      </trkpt>
      <trkpt lat="37.18141" lon="-3.5974">
        <ele>749.222124</ele>
        <time>2022-04-19T11:41:00.000Z</time>
      </trkpt>
      <trkpt lat="37.18142" lon="-3.59743">
        <ele>749.17589</ele>
        <time>2022-04-19T11:41:03.000Z</time>
      </trkpt>
      <trkpt lat="37.18143" lon="-3.59744">
        <ele>749.159976</ele>
        <time>2022-04-19T11:41:04.000Z</time>
      </trkpt>
      <trkpt lat="37.18142" lon="-3.59748">
        <ele>749.085943</ele>
        <time>2022-04-19T11:41:09.000Z</time>
      </trkpt>
      <trkpt lat="37.18141" lon="-3.59749">
        <ele>749.060417</ele>
        <time>2022-04-19T11:41:10.000Z</time>
      </trkpt>
      <trkpt lat="37.18138" lon="-3.5975">
        <ele>748.98761</ele>
        <time>2022-04-19T11:41:14.000Z</time>
      </trkpt>
      <trkpt lat="37.18137" lon="-3.59751">
        <ele>748.97909</ele>
        <time>2022-04-19T11:41:15.000Z</time>
      </trkpt>
      <trkpt lat="37.18137" lon="-3.59753">
        <ele>748.949053</ele>
        <time>2022-04-19T11:41:21.000Z</time>
      </trkpt>
      <trkpt lat="37.18137" lon="-3.59753">
        <ele>748.944587</ele>
        <time>2022-04-19T11:41:22.000Z</time>
      </trkpt>
      <trkpt lat="37.18136" lon="-3.59753">
        <ele>748.929695</ele>
        <time>2022-04-19T11:41:35.000Z</time>
      </trkpt>
      <trkpt lat="37.18134" lon="-3.59752">
        <ele>748.882181</ele>
        <time>2022-04-19T11:41:36.000Z</time>
      </trkpt>
      <trkpt lat="37.18118" lon="-3.59751">
        <ele>748.539579</ele>
        <time>2022-04-19T11:41:42.000Z</time>
      </trkpt>
      <trkpt lat="37.18109" lon="-3.59753">
        <ele>748.360182</ele>
        <time>2022-04-19T11:41:46.000Z</time>
      </trkpt>
      <trkpt lat="37.18106" lon="-3.59756">
        <ele>748.28284</ele>
        <time>2022-04-19T11:41:48.000Z</time>
      </trkpt>
      <trkpt lat="37.18092" lon="-3.59756">
        <ele>747.988254</ele>
        <time>2022-04-19T11:41:53.000Z</time>
      </trkpt>
      <trkpt lat="37.18085" lon="-3.59756">
        <ele>747.83886</ele>
        <time>2022-04-19T11:41:56.000Z</time>
      </trkpt>
      <trkpt lat="37.18081" lon="-3.59758">
        <ele>747.748756</ele>
        <time>2022-04-19T11:41:59.000Z</time>
      </trkpt>
      <trkpt lat="37.18079" lon="-3.59758">
        <ele>747.719526</ele>
        <time>2022-04-19T11:42:04.000Z</time>
      </trkpt>
      <trkpt lat="37.18075" lon="-3.59757">
        <ele>747.635959</ele>
        <time>2022-04-19T11:42:10.000Z</time>
      </trkpt>
      <trkpt lat="37.18074" lon="-3.59758">
        <ele>747.615542</ele>
        <time>2022-04-19T11:42:13.000Z</time>
      </trkpt>
      <trkpt lat="37.18069" lon="-3.59764">
        <ele>747.464118</ele>
        <time>2022-04-19T11:42:19.000Z</time>
      </trkpt>
      <trkpt lat="37.18067" lon="-3.59766">
        <ele>747.402468</ele>
        <time>2022-04-19T11:42:22.000Z</time>
      </trkpt>
      <trkpt lat="37.18065" lon="-3.59768">
        <ele>747.36319</ele>
        <time>2022-04-19T11:42:25.000Z</time>
      </trkpt>
      <trkpt lat="37.18066" lon="-3.59769">
        <ele>747.346158</ele>
        <time>2022-04-19T11:42:28.000Z</time>
      </trkpt>
      <trkpt lat="37.18067" lon="-3.59768">
        <ele>747.324829</ele>
        <time>2022-04-19T11:42:40.000Z</time>
      </trkpt>
      <trkpt lat="37.18067" lon="-3.59768">
        <ele>747.316531</ele>
        <time>2022-04-19T11:42:52.000Z</time>
      </trkpt>
      <trkpt lat="37.18067" lon="-3.59768">
        <ele>747.316531</ele>
        <time>2022-04-19T11:42:55.000Z</time>
      </trkpt>
      <trkpt lat="37.18067" lon="-3.59768">
        <ele>747.316531</ele>
        <time>2022-04-19T11:42:59.000Z</time>
      </trkpt>
      <trkpt lat="37.18065" lon="-3.59767">
        <ele>747.26378</ele>
        <time>2022-04-19T11:43:22.000Z</time>
      </trkpt>
      <trkpt lat="37.18062" lon="-3.59766">
        <ele>747.203259</ele>
        <time>2022-04-19T11:43:24.000Z</time>
      </trkpt>
      <trkpt lat="37.1806" lon="-3.59766">
        <ele>747.163846</ele>
        <time>2022-04-19T11:43:25.000Z</time>
      </trkpt>
      <trkpt lat="37.18051" lon="-3.59771">
        <ele>746.962879</ele>
        <time>2022-04-19T11:43:29.000Z</time>
      </trkpt>
      <trkpt lat="37.18045" lon="-3.59773">
        <ele>746.301879</ele>
        <time>2022-04-19T11:43:32.000Z</time>
      </trkpt>
      <trkpt lat="37.18035" lon="-3.59774">
        <ele>745.141343</ele>
        <time>2022-04-19T11:43:36.000Z</time>
      </trkpt>
      <trkpt lat="37.1802" lon="-3.59771">
        <ele>743.380095</ele>
        <time>2022-04-19T11:43:43.000Z</time>
      </trkpt>
      <trkpt lat="37.18014" lon="-3.59769">
        <ele>742.675995</ele>
        <time>2022-04-19T11:43:46.000Z</time>
      </trkpt>
      <trkpt lat="37.18012" lon="-3.59768">
        <ele>742.471577</ele>
        <time>2022-04-19T11:43:48.000Z</time>
      </trkpt>
      <trkpt lat="37.18012" lon="-3.59768">
        <ele>742.378344</ele>
        <time>2022-04-19T11:43:49.000Z</time>
      </trkpt>
      <trkpt lat="37.1801" lon="-3.59766">
        <ele>742.161734</ele>
        <time>2022-04-19T11:43:51.000Z</time>
      </trkpt>
      <trkpt lat="37.1801" lon="-3.59766">
        <ele>742.080705</ele>
        <time>2022-04-19T11:43:52.000Z</time>
      </trkpt>
      <trkpt lat="37.18009" lon="-3.59765">
        <ele>741.997336</ele>
        <time>2022-04-19T11:43:53.000Z</time>
      </trkpt>
      <trkpt lat="37.18004" lon="-3.59765">
        <ele>741.41738</ele>
        <time>2022-04-19T11:43:57.000Z</time>
      </trkpt>
      <trkpt lat="37.18003" lon="-3.59765">
        <ele>741.301624</ele>
        <time>2022-04-19T11:43:58.000Z</time>
      </trkpt>
      <trkpt lat="37.18001" lon="-3.59766">
        <ele>740.970385</ele>
        <time>2022-04-19T11:44:00.000Z</time>
      </trkpt>
      <trkpt lat="37.17996" lon="-3.59767">
        <ele>740.452774</ele>
        <time>2022-04-19T11:44:02.000Z</time>
      </trkpt>
      <trkpt lat="37.17994" lon="-3.59767">
        <ele>740.209511</ele>
        <time>2022-04-19T11:44:03.000Z</time>
      </trkpt>
      <trkpt lat="37.17991" lon="-3.59766">
        <ele>739.793999</ele>
        <time>2022-04-19T11:44:06.000Z</time>
      </trkpt>
      <trkpt lat="37.17988" lon="-3.59766">
        <ele>739.467788</ele>
        <time>2022-04-19T11:44:09.000Z</time>
      </trkpt>
      <trkpt lat="37.17987" lon="-3.59764">
        <ele>739.289147</ele>
        <time>2022-04-19T11:44:11.000Z</time>
      </trkpt>
      <trkpt lat="37.17987" lon="-3.59764">
        <ele>739.194723</ele>
        <time>2022-04-19T11:44:12.000Z</time>
      </trkpt>
      <trkpt lat="37.17981" lon="-3.59764">
        <ele>738.49994</ele>
        <time>2022-04-19T11:44:17.000Z</time>
      </trkpt>
      <trkpt lat="37.17977" lon="-3.59764">
        <ele>738.116167</ele>
        <time>2022-04-19T11:44:20.000Z</time>
      </trkpt>
      <trkpt lat="37.17975" lon="-3.59765">
        <ele>737.76376</ele>
        <time>2022-04-19T11:44:22.000Z</time>
      </trkpt>
      <trkpt lat="37.17973" lon="-3.59767">
        <ele>737.544583</ele>
        <time>2022-04-19T11:44:23.000Z</time>
      </trkpt>
      <trkpt lat="37.17969" lon="-3.59771">
        <ele>736.915686</ele>
        <time>2022-04-19T11:44:27.000Z</time>
      </trkpt>
      <trkpt lat="37.17969" lon="-3.5977">
        <ele>736.860349</ele>
        <time>2022-04-19T11:44:35.000Z</time>
      </trkpt>
      <trkpt lat="37.17968" lon="-3.59769">
        <ele>736.751464</ele>
        <time>2022-04-19T11:44:47.000Z</time>
      </trkpt>
      <trkpt lat="37.17968" lon="-3.59769">
        <ele>736.751464</ele>
        <time>2022-04-19T11:44:50.000Z</time>
      </trkpt>
      <trkpt lat="37.17968" lon="-3.59769">
        <ele>736.751464</ele>
        <time>2022-04-19T11:44:51.000Z</time>
      </trkpt>
      <trkpt lat="37.17968" lon="-3.59769">
        <ele>736.751464</ele>
        <time>2022-04-19T11:44:53.000Z</time>
      </trkpt>
      <trkpt lat="37.17968" lon="-3.59769">
        <ele>736.677461</ele>
        <time>2022-04-19T11:44:56.000Z</time>
      </trkpt>
      <trkpt lat="37.17969" lon="-3.59768">
        <ele>736.493966</ele>
        <time>2022-04-19T11:45:15.000Z</time>
      </trkpt>
      <trkpt lat="37.17969" lon="-3.59767">
        <ele>736.455301</ele>
        <time>2022-04-19T11:45:17.000Z</time>
      </trkpt>
      <trkpt lat="37.1797" lon="-3.59767">
        <ele>736.362238</ele>
        <time>2022-04-19T11:45:20.000Z</time>
      </trkpt>
      <trkpt lat="37.17971" lon="-3.59766">
        <ele>736.205014</ele>
        <time>2022-04-19T11:45:32.000Z</time>
      </trkpt>
      <trkpt lat="37.17969" lon="-3.5977">
        <ele>735.770536</ele>
        <time>2022-04-19T11:45:39.000Z</time>
      </trkpt>
      <trkpt lat="37.17966" lon="-3.59772">
        <ele>735.33189</ele>
        <time>2022-04-19T11:45:45.000Z</time>
      </trkpt>
      <trkpt lat="37.17962" lon="-3.59774">
        <ele>734.884551</ele>
        <time>2022-04-19T11:45:52.000Z</time>
      </trkpt>
      <trkpt lat="37.17958" lon="-3.59774">
        <ele>734.429723</ele>
        <time>2022-04-19T11:45:58.000Z</time>
      </trkpt>
      <trkpt lat="37.17953" lon="-3.59776">
        <ele>733.791442</ele>
        <time>2022-04-19T11:46:06.000Z</time>
      </trkpt>
      <trkpt lat="37.17945" lon="-3.59777">
        <ele>732.836834</ele>
        <time>2022-04-19T11:46:17.000Z</time>
      </trkpt>
      <trkpt lat="37.17942" lon="-3.59778">
        <ele>732.488702</ele>
        <time>2022-04-19T11:46:23.000Z</time>
      </trkpt>
      <trkpt lat="37.17937" lon="-3.59778">
        <ele>731.944334</ele>
        <time>2022-04-19T11:46:30.000Z</time>
      </trkpt>
      <trkpt lat="37.17934" lon="-3.59777">
        <ele>731.584424</ele>
        <time>2022-04-19T11:46:34.000Z</time>
      </trkpt>
      <trkpt lat="37.17931" lon="-3.59777">
        <ele>731.282189</ele>
        <time>2022-04-19T11:46:37.000Z</time>
      </trkpt>
      <trkpt lat="37.1793" lon="-3.59777">
        <ele>731.138466</ele>
        <time>2022-04-19T11:46:38.000Z</time>
      </trkpt>
      <trkpt lat="37.17927" lon="-3.59775">
        <ele>730.739734</ele>
        <time>2022-04-19T11:46:41.000Z</time>
      </trkpt>
      <trkpt lat="37.17926" lon="-3.59773">
        <ele>730.538264</ele>
        <time>2022-04-19T11:46:43.000Z</time>
      </trkpt>
      <trkpt lat="37.17924" lon="-3.59771">
        <ele>730.179949</ele>
        <time>2022-04-19T11:46:46.000Z</time>
      </trkpt>
      <trkpt lat="37.17922" lon="-3.5977">
        <ele>729.981663</ele>
        <time>2022-04-19T11:46:48.000Z</time>
      </trkpt>
      <trkpt lat="37.17922" lon="-3.59769">
        <ele>729.865664</ele>
        <time>2022-04-19T11:46:49.000Z</time>
      </trkpt>
      <trkpt lat="37.17918" lon="-3.59765">
        <ele>729.305265</ele>
        <time>2022-04-19T11:46:55.000Z</time>
      </trkpt>
      <trkpt lat="37.17917" lon="-3.59765">
        <ele>729.21149</ele>
        <time>2022-04-19T11:46:56.000Z</time>
      </trkpt>
      <trkpt lat="37.17915" lon="-3.5976">
        <ele>728.713066</ele>
        <time>2022-04-19T11:47:01.000Z</time>
      </trkpt>
      <trkpt lat="37.17913" lon="-3.59758">
        <ele>728.489001</ele>
        <time>2022-04-19T11:47:03.000Z</time>
      </trkpt>
      <trkpt lat="37.17913" lon="-3.59757">
        <ele>728.358303</ele>
        <time>2022-04-19T11:47:04.000Z</time>
      </trkpt>
      <trkpt lat="37.17912" lon="-3.59757">
        <ele>728.23</ele>
        <time>2022-04-19T11:47:05.000Z</time>
      </trkpt>
      <trkpt lat="37.1791" lon="-3.59754">
        <ele>727.917962</ele>
        <time>2022-04-19T11:47:08.000Z</time>
      </trkpt>
      <trkpt lat="37.17909" lon="-3.59753">
        <ele>727.788122</ele>
        <time>2022-04-19T11:47:09.000Z</time>
      </trkpt>
      <trkpt lat="37.17908" lon="-3.59752">
        <ele>727.678534</ele>
        <time>2022-04-19T11:47:10.000Z</time>
      </trkpt>
      <trkpt lat="37.17907" lon="-3.59752">
        <ele>727.575082</ele>
        <time>2022-04-19T11:47:11.000Z</time>
      </trkpt>
      <trkpt lat="37.17906" lon="-3.59751">
        <ele>727.332874</ele>
        <time>2022-04-19T11:47:13.000Z</time>
      </trkpt>
      <trkpt lat="37.179" lon="-3.59749">
        <ele>726.688426</ele>
        <time>2022-04-19T11:47:18.000Z</time>
      </trkpt>
      <trkpt lat="37.179" lon="-3.59749">
        <ele>726.616272</ele>
        <time>2022-04-19T11:47:19.000Z</time>
      </trkpt>
      <trkpt lat="37.179" lon="-3.59747">
        <ele>726.503202</ele>
        <time>2022-04-19T11:47:20.000Z</time>
      </trkpt>
      <trkpt lat="37.17899" lon="-3.59746">
        <ele>726.381089</ele>
        <time>2022-04-19T11:47:21.000Z</time>
      </trkpt>
      <trkpt lat="37.17897" lon="-3.59743">
        <ele>725.99037</ele>
        <time>2022-04-19T11:47:25.000Z</time>
      </trkpt>
      <trkpt lat="37.17896" lon="-3.59742">
        <ele>725.770085</ele>
        <time>2022-04-19T11:47:28.000Z</time>
      </trkpt>
      <trkpt lat="37.17894" lon="-3.5974">
        <ele>725.544342</ele>
        <time>2022-04-19T11:47:31.000Z</time>
      </trkpt>
      <trkpt lat="37.17894" lon="-3.5974">
        <ele>725.451151</ele>
        <time>2022-04-19T11:47:32.000Z</time>
      </trkpt>
      <trkpt lat="37.17892" lon="-3.59741">
        <ele>725.178304</ele>
        <time>2022-04-19T11:47:36.000Z</time>
      </trkpt>
      <trkpt lat="37.17892" lon="-3.59742">
        <ele>725.044762</ele>
        <time>2022-04-19T11:47:37.000Z</time>
      </trkpt>
      <trkpt lat="37.17892" lon="-3.59746">
        <ele>724.708374</ele>
        <time>2022-04-19T11:47:42.000Z</time>
      </trkpt>
      <trkpt lat="37.1789" lon="-3.59746">
        <ele>724.40855</ele>
        <time>2022-04-19T11:47:48.000Z</time>
      </trkpt>
      <trkpt lat="37.17887" lon="-3.59744">
        <ele>724.038788</ele>
        <time>2022-04-19T11:47:54.000Z</time>
      </trkpt>
      <trkpt lat="37.17887" lon="-3.59744">
        <ele>723.954653</ele>
        <time>2022-04-19T11:47:59.000Z</time>
      </trkpt>
      <trkpt lat="37.17885" lon="-3.59743">
        <ele>723.723829</ele>
        <time>2022-04-19T11:48:02.000Z</time>
      </trkpt>
      <trkpt lat="37.17884" lon="-3.5974">
        <ele>723.415796</ele>
        <time>2022-04-19T11:48:06.000Z</time>
      </trkpt>
      <trkpt lat="37.17883" lon="-3.59739">
        <ele>723.314349</ele>
        <time>2022-04-19T11:48:07.000Z</time>
      </trkpt>
      <trkpt lat="37.17881" lon="-3.59737">
        <ele>722.934331</ele>
        <time>2022-04-19T11:48:11.000Z</time>
      </trkpt>
      <trkpt lat="37.17879" lon="-3.59736">
        <ele>722.690558</ele>
        <time>2022-04-19T11:48:13.000Z</time>
      </trkpt>
      <trkpt lat="37.17874" lon="-3.59732">
        <ele>721.877567</ele>
        <time>2022-04-19T11:48:19.000Z</time>
      </trkpt>
      <trkpt lat="37.17873" lon="-3.59731">
        <ele>721.764378</ele>
        <time>2022-04-19T11:48:20.000Z</time>
      </trkpt>
      <trkpt lat="37.17872" lon="-3.5973">
        <ele>721.621944</ele>
        <time>2022-04-19T11:48:21.000Z</time>
      </trkpt>
      <trkpt lat="37.17871" lon="-3.5973">
        <ele>721.511269</ele>
        <time>2022-04-19T11:48:22.000Z</time>
      </trkpt>
      <trkpt lat="37.1787" lon="-3.59729">
        <ele>721.306723</ele>
        <time>2022-04-19T11:48:24.000Z</time>
      </trkpt>
      <trkpt lat="37.17868" lon="-3.59727">
        <ele>721.075898</ele>
        <time>2022-04-19T11:48:26.000Z</time>
      </trkpt>
      <trkpt lat="37.17866" lon="-3.59726">
        <ele>720.760976</ele>
        <time>2022-04-19T11:48:29.000Z</time>
      </trkpt>
      <trkpt lat="37.17863" lon="-3.59723">
        <ele>720.30949</ele>
        <time>2022-04-19T11:48:33.000Z</time>
      </trkpt>
      <trkpt lat="37.17862" lon="-3.59722">
        <ele>720.089204</ele>
        <time>2022-04-19T11:48:35.000Z</time>
      </trkpt>
      <trkpt lat="37.17856" lon="-3.59719">
        <ele>719.353838</ele>
        <time>2022-04-19T11:48:42.000Z</time>
      </trkpt>
      <trkpt lat="37.17852" lon="-3.59717">
        <ele>718.844527</ele>
        <time>2022-04-19T11:48:46.000Z</time>
      </trkpt>
      <trkpt lat="37.1785" lon="-3.59716">
        <ele>718.531362</ele>
        <time>2022-04-19T11:48:48.000Z</time>
      </trkpt>
      <trkpt lat="37.17849" lon="-3.59716">
        <ele>718.367672</ele>
        <time>2022-04-19T11:48:49.000Z</time>
      </trkpt>
      <trkpt lat="37.17847" lon="-3.59715">
        <ele>718.068443</ele>
        <time>2022-04-19T11:48:51.000Z</time>
      </trkpt>
      <trkpt lat="37.17845" lon="-3.59714">
        <ele>717.918531</ele>
        <time>2022-04-19T11:48:52.000Z</time>
      </trkpt>
      <trkpt lat="37.17844" lon="-3.59714">
        <ele>717.752773</ele>
        <time>2022-04-19T11:48:53.000Z</time>
      </trkpt>
      <trkpt lat="37.17843" lon="-3.59714">
        <ele>717.649374</ele>
        <time>2022-04-19T11:48:55.000Z</time>
      </trkpt>
      <trkpt lat="37.17843" lon="-3.59714">
        <ele>717.569391</ele>
        <time>2022-04-19T11:48:56.000Z</time>
      </trkpt>
      <trkpt lat="37.17837" lon="-3.59709">
        <ele>716.748302</ele>
        <time>2022-04-19T11:49:02.000Z</time>
      </trkpt>
      <trkpt lat="37.17836" lon="-3.59708">
        <ele>716.59977</ele>
        <time>2022-04-19T11:49:03.000Z</time>
      </trkpt>
      <trkpt lat="37.17834" lon="-3.59706">
        <ele>716.215904</ele>
        <time>2022-04-19T11:49:06.000Z</time>
      </trkpt>
      <trkpt lat="37.17833" lon="-3.59705">
        <ele>716.028794</ele>
        <time>2022-04-19T11:49:07.000Z</time>
      </trkpt>
      <trkpt lat="37.17831" lon="-3.59704">
        <ele>715.792319</ele>
        <time>2022-04-19T11:49:09.000Z</time>
      </trkpt>
      <trkpt lat="37.17829" lon="-3.59703">
        <ele>715.53519</ele>
        <time>2022-04-19T11:49:12.000Z</time>
      </trkpt>
      <trkpt lat="37.17828" lon="-3.59704">
        <ele>715.395788</ele>
        <time>2022-04-19T11:49:13.000Z</time>
      </trkpt>
      <trkpt lat="37.17824" lon="-3.59702">
        <ele>714.886476</ele>
        <time>2022-04-19T11:49:17.000Z</time>
      </trkpt>
      <trkpt lat="37.17823" lon="-3.59702">
        <ele>714.76459</ele>
        <time>2022-04-19T11:49:18.000Z</time>
      </trkpt>
      <trkpt lat="37.17822" lon="-3.59701">
        <ele>714.607149</ele>
        <time>2022-04-19T11:49:20.000Z</time>
      </trkpt>
      <trkpt lat="37.1782" lon="-3.597">
        <ele>714.379192</ele>
        <time>2022-04-19T11:49:25.000Z</time>
      </trkpt>
      <trkpt lat="37.17823" lon="-3.59691">
        <ele>713.435047</ele>
        <time>2022-04-19T11:49:28.000Z</time>
      </trkpt>
      <trkpt lat="37.17824" lon="-3.59689">
        <ele>713.210364</ele>
        <time>2022-04-19T11:49:29.000Z</time>
      </trkpt>
      <trkpt lat="37.17824" lon="-3.59687">
        <ele>713.052007</ele>
        <time>2022-04-19T11:49:30.000Z</time>
      </trkpt>
      <trkpt lat="37.17821" lon="-3.59685">
        <ele>712.602388</ele>
        <time>2022-04-19T11:49:34.000Z</time>
      </trkpt>
      <trkpt lat="37.17819" lon="-3.59682">
        <ele>712.207122</ele>
        <time>2022-04-19T11:49:40.000Z</time>
      </trkpt>
      <trkpt lat="37.17818" lon="-3.59682">
        <ele>712.046131</ele>
        <time>2022-04-19T11:49:41.000Z</time>
      </trkpt>
      <trkpt lat="37.17814" lon="-3.5968">
        <ele>711.473023</ele>
        <time>2022-04-19T11:49:46.000Z</time>
      </trkpt>
      <trkpt lat="37.17813" lon="-3.59679">
        <ele>711.37328</ele>
        <time>2022-04-19T11:49:47.000Z</time>
      </trkpt>
      <trkpt lat="37.17809" lon="-3.59677">
        <ele>710.832513</ele>
        <time>2022-04-19T11:49:51.000Z</time>
      </trkpt>
      <trkpt lat="37.1781" lon="-3.59672">
        <ele>710.37155</ele>
        <time>2022-04-19T11:49:54.000Z</time>
      </trkpt>
      <trkpt lat="37.17811" lon="-3.5967">
        <ele>710.137806</ele>
        <time>2022-04-19T11:49:55.000Z</time>
      </trkpt>
      <trkpt lat="37.17811" lon="-3.59669">
        <ele>709.987743</ele>
        <time>2022-04-19T11:49:56.000Z</time>
      </trkpt>
      <trkpt lat="37.1781" lon="-3.59668">
        <ele>709.79892</ele>
        <time>2022-04-19T11:50:00.000Z</time>
      </trkpt>
      <trkpt lat="37.17807" lon="-3.59666">
        <ele>709.410484</ele>
        <time>2022-04-19T11:50:04.000Z</time>
      </trkpt>
      <trkpt lat="37.17805" lon="-3.59666">
        <ele>709.210142</ele>
        <time>2022-04-19T11:50:05.000Z</time>
      </trkpt>
      <trkpt lat="37.17805" lon="-3.59665">
        <ele>709.094353</ele>
        <time>2022-04-19T11:50:06.000Z</time>
      </trkpt>
      <trkpt lat="37.17804" lon="-3.59664">
        <ele>708.94162</ele>
        <time>2022-04-19T11:50:08.000Z</time>
      </trkpt>
      <trkpt lat="37.17802" lon="-3.59666">
        <ele>708.678937</ele>
        <time>2022-04-19T11:50:11.000Z</time>
      </trkpt>
      <trkpt lat="37.178" lon="-3.59666">
        <ele>708.405777</ele>
        <time>2022-04-19T11:50:14.000Z</time>
      </trkpt>
      <trkpt lat="37.17797" lon="-3.59666">
        <ele>708.062219</ele>
        <time>2022-04-19T11:50:20.000Z</time>
      </trkpt>
      <trkpt lat="37.17797" lon="-3.59665">
        <ele>707.988843</ele>
        <time>2022-04-19T11:50:21.000Z</time>
      </trkpt>
      <trkpt lat="37.17796" lon="-3.59665">
        <ele>707.863442</ele>
        <time>2022-04-19T11:50:23.000Z</time>
      </trkpt>
      <trkpt lat="37.17796" lon="-3.59665">
        <ele>707.774251</ele>
        <time>2022-04-19T11:50:24.000Z</time>
      </trkpt>
      <trkpt lat="37.17795" lon="-3.5966">
        <ele>707.309838</ele>
        <time>2022-04-19T11:50:29.000Z</time>
      </trkpt>
      <trkpt lat="37.17794" lon="-3.59661">
        <ele>707.052656</ele>
        <time>2022-04-19T11:50:31.000Z</time>
      </trkpt>
      <trkpt lat="37.17793" lon="-3.59661">
        <ele>706.965968</ele>
        <time>2022-04-19T11:50:32.000Z</time>
      </trkpt>
      <trkpt lat="37.17792" lon="-3.5966">
        <ele>706.791484</ele>
        <time>2022-04-19T11:50:36.000Z</time>
      </trkpt>
      <trkpt lat="37.17793" lon="-3.59659">
        <ele>706.683077</ele>
        <time>2022-04-19T11:50:41.000Z</time>
      </trkpt>
      <trkpt lat="37.17792" lon="-3.59658">
        <ele>706.603906</ele>
        <time>2022-04-19T11:50:42.000Z</time>
      </trkpt>
      <trkpt lat="37.17792" lon="-3.59659">
        <ele>706.524735</ele>
        <time>2022-04-19T11:50:46.000Z</time>
      </trkpt>
      <trkpt lat="37.17792" lon="-3.59659">
        <ele>706.447856</ele>
        <time>2022-04-19T11:50:48.000Z</time>
      </trkpt>
      <trkpt lat="37.17796" lon="-3.59657">
        <ele>706.036412</ele>
        <time>2022-04-19T11:50:55.000Z</time>
      </trkpt>
      <trkpt lat="37.17795" lon="-3.59657">
        <ele>705.971423</ele>
        <time>2022-04-19T11:50:57.000Z</time>
      </trkpt>
      <trkpt lat="37.17796" lon="-3.59663">
        <ele>705.439168</ele>
        <time>2022-04-19T11:51:04.000Z</time>
      </trkpt>
      <trkpt lat="37.17796" lon="-3.59667">
        <ele>704.992396</ele>
        <time>2022-04-19T11:51:06.000Z</time>
      </trkpt>
      <trkpt lat="37.17796" lon="-3.59668">
        <ele>704.852608</ele>
        <time>2022-04-19T11:51:08.000Z</time>
      </trkpt>
      <trkpt lat="37.17792" lon="-3.59665">
        <ele>704.317555</ele>
        <time>2022-04-19T11:51:11.000Z</time>
      </trkpt>
      <trkpt lat="37.17789" lon="-3.5966">
        <ele>703.798017</ele>
        <time>2022-04-19T11:51:14.000Z</time>
      </trkpt>
      <trkpt lat="37.17787" lon="-3.59654">
        <ele>703.542294</ele>
        <time>2022-04-19T11:51:17.000Z</time>
      </trkpt>
      <trkpt lat="37.17776" lon="-3.59658">
        <ele>703.049186</ele>
        <time>2022-04-19T11:51:24.000Z</time>
      </trkpt>
      <trkpt lat="37.17774" lon="-3.59658">
        <ele>702.978566</ele>
        <time>2022-04-19T11:51:25.000Z</time>
      </trkpt>
      <trkpt lat="37.17775" lon="-3.5966">
        <ele>702.925743</ele>
        <time>2022-04-19T11:51:29.000Z</time>
      </trkpt>
      <trkpt lat="37.17777" lon="-3.59662">
        <ele>702.793751</ele>
        <time>2022-04-19T11:51:32.000Z</time>
      </trkpt>
      <trkpt lat="37.17776" lon="-3.59664">
        <ele>702.723327</ele>
        <time>2022-04-19T11:51:33.000Z</time>
      </trkpt>
      <trkpt lat="37.17778" lon="-3.59667">
        <ele>702.58145</ele>
        <time>2022-04-19T11:51:36.000Z</time>
      </trkpt>
      <trkpt lat="37.17776" lon="-3.5967">
        <ele>702.457678</ele>
        <time>2022-04-19T11:51:38.000Z</time>
      </trkpt>
      <trkpt lat="37.17773" lon="-3.5967">
        <ele>702.329657</ele>
        <time>2022-04-19T11:51:39.000Z</time>
      </trkpt>
      <trkpt lat="37.1777" lon="-3.59667">
        <ele>702.131553</ele>
        <time>2022-04-19T11:51:43.000Z</time>
      </trkpt>
      <trkpt lat="37.17765" lon="-3.59664">
        <ele>701.885457</ele>
        <time>2022-04-19T11:51:45.000Z</time>
      </trkpt>
      <trkpt lat="37.17763" lon="-3.59662">
        <ele>701.794466</ele>
        <time>2022-04-19T11:51:46.000Z</time>
      </trkpt>
      <trkpt lat="37.1776" lon="-3.59659">
        <ele>701.614654</ele>
        <time>2022-04-19T11:51:51.000Z</time>
      </trkpt>
      <trkpt lat="37.1776" lon="-3.59659">
        <ele>701.606352</ele>
        <time>2022-04-19T11:51:53.000Z</time>
      </trkpt>
      <trkpt lat="37.17759" lon="-3.5966">
        <ele>701.566856</ele>
        <time>2022-04-19T11:51:54.000Z</time>
      </trkpt>
      <trkpt lat="37.17757" lon="-3.59664">
        <ele>701.404256</ele>
        <time>2022-04-19T11:51:57.000Z</time>
      </trkpt>
      <trkpt lat="37.17756" lon="-3.59664">
        <ele>701.344295</ele>
        <time>2022-04-19T11:51:58.000Z</time>
      </trkpt>
      <trkpt lat="37.17752" lon="-3.59667">
        <ele>701.160503</ele>
        <time>2022-04-19T11:52:02.000Z</time>
      </trkpt>
      <trkpt lat="37.17748" lon="-3.59667">
        <ele>700.975164</ele>
        <time>2022-04-19T11:52:05.000Z</time>
      </trkpt>
      <trkpt lat="37.17745" lon="-3.59665">
        <ele>700.84216</ele>
        <time>2022-04-19T11:52:07.000Z</time>
      </trkpt>
      <trkpt lat="37.17743" lon="-3.59664">
        <ele>700.746241</ele>
        <time>2022-04-19T11:52:08.000Z</time>
      </trkpt>
      <trkpt lat="37.17739" lon="-3.59661">
        <ele>700.520637</ele>
        <time>2022-04-19T11:52:13.000Z</time>
      </trkpt>
      <trkpt lat="37.17727" lon="-3.59659">
        <ele>699.98111</ele>
        <time>2022-04-19T11:52:19.000Z</time>
      </trkpt>
      <trkpt lat="37.17716" lon="-3.59657">
        <ele>699.522202</ele>
        <time>2022-04-19T11:52:25.000Z</time>
      </trkpt>
      <trkpt lat="37.17714" lon="-3.59662">
        <ele>699.323472</ele>
        <time>2022-04-19T11:52:26.000Z</time>
      </trkpt>
      <trkpt lat="37.17713" lon="-3.5967">
        <ele>699.051058</ele>
        <time>2022-04-19T11:52:28.000Z</time>
      </trkpt>
      <trkpt lat="37.17713" lon="-3.5967">
        <ele>699.024911</ele>
        <time>2022-04-19T11:52:29.000Z</time>
      </trkpt>
      <trkpt lat="37.17714" lon="-3.59671">
        <ele>698.975099</ele>
        <time>2022-04-19T11:52:33.000Z</time>
      </trkpt>
      <trkpt lat="37.17712" lon="-3.59671">
        <ele>698.916771</ele>
        <time>2022-04-19T11:52:35.000Z</time>
      </trkpt>
      <trkpt lat="37.17711" lon="-3.59673">
        <ele>698.850749</ele>
        <time>2022-04-19T11:52:37.000Z</time>
      </trkpt>
      <trkpt lat="37.17712" lon="-3.59673">
        <ele>698.822537</ele>
        <time>2022-04-19T11:52:41.000Z</time>
      </trkpt>
      <trkpt lat="37.17711" lon="-3.59673">
        <ele>698.775036</ele>
        <time>2022-04-19T11:52:42.000Z</time>
      </trkpt>
      <trkpt lat="37.17703" lon="-3.59672">
        <ele>698.448013</ele>
        <time>2022-04-19T11:52:46.000Z</time>
      </trkpt>
      <trkpt lat="37.17702" lon="-3.59673">
        <ele>698.361148</ele>
        <time>2022-04-19T11:52:48.000Z</time>
      </trkpt>
      <trkpt lat="37.17694" lon="-3.59673">
        <ele>698.034579</ele>
        <time>2022-04-19T11:52:55.000Z</time>
      </trkpt>
      <trkpt lat="37.17691" lon="-3.59673">
        <ele>697.883885</ele>
        <time>2022-04-19T11:52:57.000Z</time>
      </trkpt>
      <trkpt lat="37.17686" lon="-3.5967">
        <ele>697.647258</ele>
        <time>2022-04-19T11:53:00.000Z</time>
      </trkpt>
      <trkpt lat="37.17678" lon="-3.59669">
        <ele>697.287336</ele>
        <time>2022-04-19T11:53:05.000Z</time>
      </trkpt>
      <trkpt lat="37.1768" lon="-3.59665">
        <ele>697.111033</ele>
        <time>2022-04-19T11:53:07.000Z</time>
      </trkpt>
      <trkpt lat="37.1768" lon="-3.59664">
        <ele>697.077825</ele>
        <time>2022-04-19T11:53:08.000Z</time>
      </trkpt>
      <trkpt lat="37.17678" lon="-3.59666">
        <ele>696.975001</ele>
        <time>2022-04-19T11:53:12.000Z</time>
      </trkpt>
      <trkpt lat="37.17678" lon="-3.59666">
        <ele>696.971485</ele>
        <time>2022-04-19T11:53:13.000Z</time>
      </trkpt>
      <trkpt lat="37.17678" lon="-3.59669">
        <ele>696.883044</ele>
        <time>2022-04-19T11:53:17.000Z</time>
      </trkpt>
      <trkpt lat="37.17677" lon="-3.59669">
        <ele>696.847567</ele>
        <time>2022-04-19T11:53:18.000Z</time>
      </trkpt>
      <trkpt lat="37.17675" lon="-3.59666">
        <ele>696.739641</ele>
        <time>2022-04-19T11:53:23.000Z</time>
      </trkpt>
      <trkpt lat="37.17675" lon="-3.59666">
        <ele>696.709114</ele>
        <time>2022-04-19T11:53:24.000Z</time>
      </trkpt>
      <trkpt lat="37.17675" lon="-3.59664">
        <ele>696.648693</ele>
        <time>2022-04-19T11:53:28.000Z</time>
      </trkpt>
      <trkpt lat="37.17674" lon="-3.59663">
        <ele>696.581023</ele>
        <time>2022-04-19T11:53:36.000Z</time>
      </trkpt>
      <trkpt lat="37.17671" lon="-3.59661">
        <ele>696.438969</ele>
        <time>2022-04-19T11:53:40.000Z</time>
      </trkpt>
      <trkpt lat="37.1767" lon="-3.59661">
        <ele>696.3947</ele>
        <time>2022-04-19T11:53:41.000Z</time>
      </trkpt>
      <trkpt lat="37.17668" lon="-3.5966">
        <ele>696.32408</ele>
        <time>2022-04-19T11:53:44.000Z</time>
      </trkpt>
      <trkpt lat="37.17666" lon="-3.59659">
        <ele>696.227721</ele>
        <time>2022-04-19T11:53:47.000Z</time>
      </trkpt>
      <trkpt lat="37.17663" lon="-3.59655">
        <ele>696.009115</ele>
        <time>2022-04-19T11:53:53.000Z</time>
      </trkpt>
      <trkpt lat="37.17662" lon="-3.59654">
        <ele>695.95929</ele>
        <time>2022-04-19T11:53:54.000Z</time>
      </trkpt>
      <trkpt lat="37.17664" lon="-3.59646">
        <ele>695.935057</ele>
        <time>2022-04-19T11:54:00.000Z</time>
      </trkpt>
      <trkpt lat="37.17666" lon="-3.59643">
        <ele>695.951778</ele>
        <time>2022-04-19T11:54:01.000Z</time>
      </trkpt>
      <trkpt lat="37.17672" lon="-3.59625">
        <ele>696.031152</ele>
        <time>2022-04-19T11:54:08.000Z</time>
      </trkpt>
      <trkpt lat="37.17678" lon="-3.59614">
        <ele>696.085883</ele>
        <time>2022-04-19T11:54:15.000Z</time>
      </trkpt>
      <trkpt lat="37.17679" lon="-3.59612">
        <ele>696.094562</ele>
        <time>2022-04-19T11:54:16.000Z</time>
      </trkpt>
      <trkpt lat="37.17686" lon="-3.59605">
        <ele>696.139689</ele>
        <time>2022-04-19T11:54:21.000Z</time>
      </trkpt>
      <trkpt lat="37.1769" lon="-3.59597">
        <ele>696.178556</ele>
        <time>2022-04-19T11:54:27.000Z</time>
      </trkpt>
      <trkpt lat="37.17692" lon="-3.59593">
        <ele>696.197847</ele>
        <time>2022-04-19T11:54:29.000Z</time>
      </trkpt>
      <trkpt lat="37.17698" lon="-3.59586">
        <ele>696.24084</ele>
        <time>2022-04-19T11:54:35.000Z</time>
      </trkpt>
      <trkpt lat="37.17703" lon="-3.59576">
        <ele>696.29108</ele>
        <time>2022-04-19T11:54:41.000Z</time>
      </trkpt>
      <trkpt lat="37.17711" lon="-3.59561">
        <ele>696.365747</ele>
        <time>2022-04-19T11:54:47.000Z</time>
      </trkpt>
      <trkpt lat="37.17713" lon="-3.59555">
        <ele>696.390782</ele>
        <time>2022-04-19T11:54:49.000Z</time>
      </trkpt>
      <trkpt lat="37.17716" lon="-3.59551">
        <ele>696.413363</ele>
        <time>2022-04-19T11:54:51.000Z</time>
      </trkpt>
      <trkpt lat="37.1772" lon="-3.59544">
        <ele>696.448442</ele>
        <time>2022-04-19T11:54:55.000Z</time>
      </trkpt>
      <trkpt lat="37.17721" lon="-3.59543">
        <ele>696.45669</ele>
        <time>2022-04-19T11:54:56.000Z</time>
      </trkpt>
      <trkpt lat="37.17724" lon="-3.59542">
        <ele>696.474289</ele>
        <time>2022-04-19T11:54:59.000Z</time>
      </trkpt>
      <trkpt lat="37.17726" lon="-3.59539">
        <ele>696.487177</ele>
        <time>2022-04-19T11:55:02.000Z</time>
      </trkpt>
      <trkpt lat="37.17725" lon="-3.59538">
        <ele>696.493105</ele>
        <time>2022-04-19T11:55:04.000Z</time>
      </trkpt>
      <trkpt lat="37.17722" lon="-3.5954">
        <ele>696.509137</ele>
        <time>2022-04-19T11:55:06.000Z</time>
      </trkpt>
      <trkpt lat="37.17717" lon="-3.59545">
        <ele>696.546043</ele>
        <time>2022-04-19T11:55:09.000Z</time>
      </trkpt>
      <trkpt lat="37.17709" lon="-3.5956">
        <ele>696.618846</ele>
        <time>2022-04-19T11:55:15.000Z</time>
      </trkpt>
      <trkpt lat="37.17702" lon="-3.59573">
        <ele>696.683437</ele>
        <time>2022-04-19T11:55:20.000Z</time>
      </trkpt>
      <trkpt lat="37.17696" lon="-3.59585">
        <ele>696.73958</ele>
        <time>2022-04-19T11:55:26.000Z</time>
      </trkpt>
      <trkpt lat="37.17688" lon="-3.59598">
        <ele>696.806714</ele>
        <time>2022-04-19T11:55:32.000Z</time>
      </trkpt>
      <trkpt lat="37.17684" lon="-3.59605">
        <ele>696.837907</ele>
        <time>2022-04-19T11:55:35.000Z</time>
      </trkpt>
      <trkpt lat="37.17676" lon="-3.59613">
        <ele>696.861232</ele>
        <time>2022-04-19T11:55:41.000Z</time>
      </trkpt>
      <trkpt lat="37.17673" lon="-3.59612">
        <ele>696.868298</ele>
        <time>2022-04-19T11:55:44.000Z</time>
      </trkpt>
      <trkpt lat="37.17672" lon="-3.59613">
        <ele>696.871733</ele>
        <time>2022-04-19T11:55:46.000Z</time>
      </trkpt>
      <trkpt lat="37.17671" lon="-3.59616">
        <ele>696.876659</ele>
        <time>2022-04-19T11:55:48.000Z</time>
      </trkpt>
      <trkpt lat="37.17671" lon="-3.59618">
        <ele>696.880812</ele>
        <time>2022-04-19T11:55:50.000Z</time>
      </trkpt>
      <trkpt lat="37.17673" lon="-3.59622">
        <ele>696.888003</ele>
        <time>2022-04-19T11:55:52.000Z</time>
      </trkpt>
      <trkpt lat="37.17671" lon="-3.59632">
        <ele>696.906356</ele>
        <time>2022-04-19T11:55:56.000Z</time>
      </trkpt>
      <trkpt lat="37.17671" lon="-3.59636">
        <ele>696.913908</ele>
        <time>2022-04-19T11:55:58.000Z</time>
      </trkpt>
      <trkpt lat="37.17668" lon="-3.59644">
        <ele>696.928425</ele>
        <time>2022-04-19T11:56:02.000Z</time>
      </trkpt>
      <trkpt lat="37.17667" lon="-3.59645">
        <ele>696.931383</ele>
        <time>2022-04-19T11:56:03.000Z</time>
      </trkpt>
      <trkpt lat="37.17666" lon="-3.59645">
        <ele>696.935317</ele>
        <time>2022-04-19T11:56:04.000Z</time>
      </trkpt>
      <trkpt lat="37.17657" lon="-3.59645">
        <ele>696.956043</ele>
        <time>2022-04-19T11:56:10.000Z</time>
      </trkpt>
      <trkpt lat="37.17655" lon="-3.59645">
        <ele>696.958977</ele>
        <time>2022-04-19T11:56:11.000Z</time>
      </trkpt>
      <trkpt lat="37.17653" lon="-3.59646">
        <ele>696.965158</ele>
        <time>2022-04-19T11:56:13.000Z</time>
      </trkpt>
      <trkpt lat="37.17651" lon="-3.59646">
        <ele>696.967867</ele>
        <time>2022-04-19T11:56:16.000Z</time>
      </trkpt>
      <trkpt lat="37.1765" lon="-3.59646">
        <ele>696.970848</ele>
        <time>2022-04-19T11:56:25.000Z</time>
      </trkpt>
      <trkpt lat="37.17649" lon="-3.59645">
        <ele>696.974392</ele>
        <time>2022-04-19T11:56:32.000Z</time>
      </trkpt>
      <trkpt lat="37.17649" lon="-3.59645">
        <ele>696.975157</ele>
        <time>2022-04-19T11:56:35.000Z</time>
      </trkpt>
      <trkpt lat="37.17649" lon="-3.59645">
        <ele>696.975157</ele>
        <time>2022-04-19T11:56:43.000Z</time>
      </trkpt>
      <trkpt lat="37.17647" lon="-3.59646">
        <ele>696.98052</ele>
        <time>2022-04-19T11:56:45.000Z</time>
      </trkpt>
      <trkpt lat="37.17638" lon="-3.59658">
        <ele>697.009326</ele>
        <time>2022-04-19T11:56:50.000Z</time>
      </trkpt>
      <trkpt lat="37.17634" lon="-3.59666">
        <ele>697.025634</ele>
        <time>2022-04-19T11:56:53.000Z</time>
      </trkpt>
      <trkpt lat="37.17633" lon="-3.59668">
        <ele>697.029711</ele>
        <time>2022-04-19T11:56:54.000Z</time>
      </trkpt>
      <trkpt lat="37.17632" lon="-3.59669">
        <ele>697.033133</ele>
        <time>2022-04-19T11:56:55.000Z</time>
      </trkpt>
      <trkpt lat="37.17632" lon="-3.59671">
        <ele>697.037067</ele>
        <time>2022-04-19T11:56:58.000Z</time>
      </trkpt>
      <trkpt lat="37.1763" lon="-3.59672">
        <ele>697.0404</ele>
        <time>2022-04-19T11:57:04.000Z</time>
      </trkpt>
      <trkpt lat="37.17629" lon="-3.59671">
        <ele>697.04391</ele>
        <time>2022-04-19T11:57:09.000Z</time>
      </trkpt>
      <trkpt lat="37.17625" lon="-3.5967">
        <ele>697.05295</ele>
        <time>2022-04-19T11:57:14.000Z</time>
      </trkpt>
      <trkpt lat="37.17619" lon="-3.59673">
        <ele>697.069037</ele>
        <time>2022-04-19T11:57:18.000Z</time>
      </trkpt>
      <trkpt lat="37.17617" lon="-3.59674">
        <ele>697.073765</ele>
        <time>2022-04-19T11:57:19.000Z</time>
      </trkpt>
      <trkpt lat="37.17613" lon="-3.59674">
        <ele>697.082103</ele>
        <time>2022-04-19T11:57:21.000Z</time>
      </trkpt>
      <trkpt lat="37.17612" lon="-3.59675">
        <ele>697.0849</ele>
        <time>2022-04-19T11:57:22.000Z</time>
      </trkpt>
      <trkpt lat="37.17607" lon="-3.59674">
        <ele>697.095388</ele>
        <time>2022-04-19T11:57:24.000Z</time>
      </trkpt>
      <trkpt lat="37.17604" lon="-3.59674">
        <ele>697.102454</ele>
        <time>2022-04-19T11:57:27.000Z</time>
      </trkpt>
      <trkpt lat="37.17604" lon="-3.59674">
        <ele>697.103373</ele>
        <time>2022-04-19T11:57:28.000Z</time>
      </trkpt>
      <trkpt lat="37.17602" lon="-3.59674">
        <ele>697.107893</ele>
        <time>2022-04-19T11:57:30.000Z</time>
      </trkpt>
      <trkpt lat="37.176" lon="-3.59674">
        <ele>697.111052</ele>
        <time>2022-04-19T11:57:31.000Z</time>
      </trkpt>
      <trkpt lat="37.17596" lon="-3.59676">
        <ele>697.120612</ele>
        <time>2022-04-19T11:57:34.000Z</time>
      </trkpt>
      <trkpt lat="37.17596" lon="-3.59675">
        <ele>697.123281</ele>
        <time>2022-04-19T11:57:35.000Z</time>
      </trkpt>
      <trkpt lat="37.17595" lon="-3.59673">
        <ele>697.126534</ele>
        <time>2022-04-19T11:57:36.000Z</time>
      </trkpt>
      <trkpt lat="37.17594" lon="-3.59669">
        <ele>697.135052</ele>
        <time>2022-04-19T11:57:38.000Z</time>
      </trkpt>
      <trkpt lat="37.17592" lon="-3.59666">
        <ele>697.14214</ele>
        <time>2022-04-19T11:57:40.000Z</time>
      </trkpt>
      <trkpt lat="37.17589" lon="-3.59664">
        <ele>697.151169</ele>
        <time>2022-04-19T11:57:43.000Z</time>
      </trkpt>
      <trkpt lat="37.17587" lon="-3.59664">
        <ele>697.155037</ele>
        <time>2022-04-19T11:57:44.000Z</time>
      </trkpt>
      <trkpt lat="37.17584" lon="-3.59664">
        <ele>697.162246</ele>
        <time>2022-04-19T11:57:46.000Z</time>
      </trkpt>
      <trkpt lat="37.17582" lon="-3.59661">
        <ele>697.168063</ele>
        <time>2022-04-19T11:57:48.000Z</time>
      </trkpt>
      <trkpt lat="37.17574" lon="-3.59656">
        <ele>697.189771</ele>
        <time>2022-04-19T11:57:56.000Z</time>
      </trkpt>
      <trkpt lat="37.17576" lon="-3.59652">
        <ele>697.198944</ele>
        <time>2022-04-19T11:58:01.000Z</time>
      </trkpt>
      <trkpt lat="37.17575" lon="-3.5965">
        <ele>697.203878</ele>
        <time>2022-04-19T11:58:06.000Z</time>
      </trkpt>
      <trkpt lat="37.17574" lon="-3.5965">
        <ele>697.205818</ele>
        <time>2022-04-19T11:58:11.000Z</time>
      </trkpt>
      <trkpt lat="37.17575" lon="-3.59646">
        <ele>697.213917</ele>
        <time>2022-04-19T11:58:17.000Z</time>
      </trkpt>
      <trkpt lat="37.17575" lon="-3.59647">
        <ele>697.216875</ele>
        <time>2022-04-19T11:58:22.000Z</time>
      </trkpt>
      <trkpt lat="37.17574" lon="-3.59645">
        <ele>697.221049</ele>
        <time>2022-04-19T11:58:26.000Z</time>
      </trkpt>
      <trkpt lat="37.17573" lon="-3.59643">
        <ele>697.225261</ele>
        <time>2022-04-19T11:58:32.000Z</time>
      </trkpt>
      <trkpt lat="37.17575" lon="-3.59644">
        <ele>697.229414</ele>
        <time>2022-04-19T11:58:39.000Z</time>
      </trkpt>
      <trkpt lat="37.17576" lon="-3.59643">
        <ele>697.231911</ele>
        <time>2022-04-19T11:58:42.000Z</time>
      </trkpt>
      <trkpt lat="37.17577" lon="-3.59643">
        <ele>697.23552</ele>
        <time>2022-04-19T11:58:45.000Z</time>
      </trkpt>
      <trkpt lat="37.17577" lon="-3.59644">
        <ele>697.237607</ele>
        <time>2022-04-19T11:58:47.000Z</time>
      </trkpt>
      <trkpt lat="37.17577" lon="-3.59645">
        <ele>697.238864</ele>
        <time>2022-04-19T11:58:48.000Z</time>
      </trkpt>
      <trkpt lat="37.17577" lon="-3.59646">
        <ele>697.234261</ele>
        <time>2022-04-19T11:58:50.000Z</time>
      </trkpt>
      <trkpt lat="37.17576" lon="-3.59646">
        <ele>697.229397</ele>
        <time>2022-04-19T11:58:51.000Z</time>
      </trkpt>
      <trkpt lat="37.17572" lon="-3.59642">
        <ele>697.20731</ele>
        <time>2022-04-19T11:58:56.000Z</time>
      </trkpt>
      <trkpt lat="37.17571" lon="-3.59642">
        <ele>697.202488</ele>
        <time>2022-04-19T11:58:57.000Z</time>
      </trkpt>
      <trkpt lat="37.17569" lon="-3.59639">
        <ele>697.187881</ele>
        <time>2022-04-19T11:59:02.000Z</time>
      </trkpt>
      <trkpt lat="37.17572" lon="-3.59642">
        <ele>697.169533</ele>
        <time>2022-04-19T11:59:07.000Z</time>
      </trkpt>
      <trkpt lat="37.17573" lon="-3.59644">
        <ele>697.162518</ele>
        <time>2022-04-19T11:59:10.000Z</time>
      </trkpt>
      <trkpt lat="37.17573" lon="-3.59644">
        <ele>697.161931</ele>
        <time>2022-04-19T11:59:15.000Z</time>
      </trkpt>
      <trkpt lat="37.17575" lon="-3.59644">
        <ele>697.151359</ele>
        <time>2022-04-19T11:59:17.000Z</time>
      </trkpt>
      <trkpt lat="37.17576" lon="-3.59644">
        <ele>697.148392</ele>
        <time>2022-04-19T11:59:18.000Z</time>
      </trkpt>
      <trkpt lat="37.17577" lon="-3.59645">
        <ele>697.142945</ele>
        <time>2022-04-19T11:59:20.000Z</time>
      </trkpt>
      <trkpt lat="37.17578" lon="-3.59646">
        <ele>697.134604</ele>
        <time>2022-04-19T11:59:21.000Z</time>
      </trkpt>
      <trkpt lat="37.1758" lon="-3.59649">
        <ele>697.118493</ele>
        <time>2022-04-19T11:59:24.000Z</time>
      </trkpt>
      <trkpt lat="37.17583" lon="-3.59656">
        <ele>697.08918</ele>
        <time>2022-04-19T11:59:26.000Z</time>
      </trkpt>
      <trkpt lat="37.17586" lon="-3.59661">
        <ele>697.070526</ele>
        <time>2022-04-19T11:59:28.000Z</time>
      </trkpt>
      <trkpt lat="37.17593" lon="-3.59663">
        <ele>697.035416</ele>
        <time>2022-04-19T11:59:32.000Z</time>
      </trkpt>
      <trkpt lat="37.17594" lon="-3.59664">
        <ele>697.030718</ele>
        <time>2022-04-19T11:59:34.000Z</time>
      </trkpt>
      <trkpt lat="37.17594" lon="-3.59669">
        <ele>697.010539</ele>
        <time>2022-04-19T11:59:37.000Z</time>
      </trkpt>
      <trkpt lat="37.17597" lon="-3.59668">
        <ele>696.996281</ele>
        <time>2022-04-19T11:59:41.000Z</time>
      </trkpt>
      <trkpt lat="37.17601" lon="-3.59672">
        <ele>696.97441</ele>
        <time>2022-04-19T11:59:47.000Z</time>
      </trkpt>
      <trkpt lat="37.17603" lon="-3.59673">
        <ele>696.963239</ele>
        <time>2022-04-19T11:59:48.000Z</time>
      </trkpt>
      <trkpt lat="37.17612" lon="-3.59671">
        <ele>696.92171</ele>
        <time>2022-04-19T11:59:52.000Z</time>
      </trkpt>
      <trkpt lat="37.17613" lon="-3.59671">
        <ele>696.915237</ele>
        <time>2022-04-19T11:59:55.000Z</time>
      </trkpt>
      <trkpt lat="37.17611" lon="-3.59676">
        <ele>696.893242</ele>
        <time>2022-04-19T12:00:03.000Z</time>
      </trkpt>
      <trkpt lat="37.1761" lon="-3.59675">
        <ele>696.88947</ele>
        <time>2022-04-19T12:00:07.000Z</time>
      </trkpt>
      <trkpt lat="37.17612" lon="-3.5968">
        <ele>696.871433</ele>
        <time>2022-04-19T12:00:09.000Z</time>
      </trkpt>
      <trkpt lat="37.17613" lon="-3.59681">
        <ele>696.864738</ele>
        <time>2022-04-19T12:00:13.000Z</time>
      </trkpt>
      <trkpt lat="37.17613" lon="-3.59679">
        <ele>696.857038</ele>
        <time>2022-04-19T12:00:18.000Z</time>
      </trkpt>
      <trkpt lat="37.17611" lon="-3.5968">
        <ele>696.84764</ele>
        <time>2022-04-19T12:00:22.000Z</time>
      </trkpt>
      <trkpt lat="37.17612" lon="-3.59682">
        <ele>696.839899</ele>
        <time>2022-04-19T12:00:26.000Z</time>
      </trkpt>
      <trkpt lat="37.17612" lon="-3.59685">
        <ele>696.830372</ele>
        <time>2022-04-19T12:00:29.000Z</time>
      </trkpt>
      <trkpt lat="37.17615" lon="-3.59683">
        <ele>696.814548</ele>
        <time>2022-04-19T12:00:33.000Z</time>
      </trkpt>
      <trkpt lat="37.17617" lon="-3.59682">
        <ele>696.804365</ele>
        <time>2022-04-19T12:00:40.000Z</time>
      </trkpt>
      <trkpt lat="37.17617" lon="-3.59682">
        <ele>696.802492</ele>
        <time>2022-04-19T12:00:41.000Z</time>
      </trkpt>
      <trkpt lat="37.17619" lon="-3.5968">
        <ele>696.792143</ele>
        <time>2022-04-19T12:00:47.000Z</time>
      </trkpt>
      <trkpt lat="37.17621" lon="-3.59677">
        <ele>696.777527</ele>
        <time>2022-04-19T12:00:56.000Z</time>
      </trkpt>
      <trkpt lat="37.17621" lon="-3.59677">
        <ele>696.777527</ele>
        <time>2022-04-19T12:01:01.000Z</time>
      </trkpt>
      <trkpt lat="37.17623" lon="-3.59679">
        <ele>696.769153</ele>
        <time>2022-04-19T12:01:07.000Z</time>
      </trkpt>
      <trkpt lat="37.17623" lon="-3.59678">
        <ele>696.765755</ele>
        <time>2022-04-19T12:01:08.000Z</time>
      </trkpt>
      <trkpt lat="37.17628" lon="-3.59677">
        <ele>696.743647</ele>
        <time>2022-04-19T12:01:12.000Z</time>
      </trkpt>
      <trkpt lat="37.17634" lon="-3.59675">
        <ele>696.71658</ele>
        <time>2022-04-19T12:01:18.000Z</time>
      </trkpt>
      <trkpt lat="37.17629" lon="-3.59672">
        <ele>696.691997</ele>
        <time>2022-04-19T12:01:22.000Z</time>
      </trkpt>
      <trkpt lat="37.17628" lon="-3.59672">
        <ele>696.687846</ele>
        <time>2022-04-19T12:01:23.000Z</time>
      </trkpt>
      <trkpt lat="37.17626" lon="-3.59672">
        <ele>696.67957</ele>
        <time>2022-04-19T12:01:24.000Z</time>
      </trkpt>
      <trkpt lat="37.17625" lon="-3.59672">
        <ele>696.673138</ele>
        <time>2022-04-19T12:01:26.000Z</time>
      </trkpt>
      <trkpt lat="37.17622" lon="-3.59679">
        <ele>696.646436</ele>
        <time>2022-04-19T12:01:32.000Z</time>
      </trkpt>
      <trkpt lat="37.17615" lon="-3.59677">
        <ele>696.611585</ele>
        <time>2022-04-19T12:01:38.000Z</time>
      </trkpt>
      <trkpt lat="37.1761" lon="-3.59674">
        <ele>696.586005</ele>
        <time>2022-04-19T12:01:44.000Z</time>
      </trkpt>
      <trkpt lat="37.17608" lon="-3.59674">
        <ele>696.579104</ele>
        <time>2022-04-19T12:01:47.000Z</time>
      </trkpt>
      <trkpt lat="37.17608" lon="-3.59677">
        <ele>696.569053</ele>
        <time>2022-04-19T12:01:49.000Z</time>
      </trkpt>
      <trkpt lat="37.17609" lon="-3.59678">
        <ele>696.564573</ele>
        <time>2022-04-19T12:01:53.000Z</time>
      </trkpt>
      <trkpt lat="37.1761" lon="-3.59677">
        <ele>696.558699</ele>
        <time>2022-04-19T12:01:54.000Z</time>
      </trkpt>
      <trkpt lat="37.1761" lon="-3.59676">
        <ele>696.556812</ele>
        <time>2022-04-19T12:01:56.000Z</time>
      </trkpt>
      <trkpt lat="37.17608" lon="-3.59676">
        <ele>696.550829</ele>
        <time>2022-04-19T12:01:58.000Z</time>
      </trkpt>
      <trkpt lat="37.17608" lon="-3.59677">
        <ele>696.548236</ele>
        <time>2022-04-19T12:01:59.000Z</time>
      </trkpt>
      <trkpt lat="37.17607" lon="-3.59677">
        <ele>696.544927</ele>
        <time>2022-04-19T12:02:07.000Z</time>
      </trkpt>
      <trkpt lat="37.17607" lon="-3.59677">
        <ele>696.544927</ele>
        <time>2022-04-19T12:02:12.000Z</time>
      </trkpt>
      <trkpt lat="37.17608" lon="-3.59676">
        <ele>696.538343</ele>
        <time>2022-04-19T12:02:16.000Z</time>
      </trkpt>
      <trkpt lat="37.17609" lon="-3.59676">
        <ele>696.536333</ele>
        <time>2022-04-19T12:02:18.000Z</time>
      </trkpt>
      <trkpt lat="37.17608" lon="-3.59675">
        <ele>696.535745</ele>
        <time>2022-04-19T12:02:20.000Z</time>
      </trkpt>
      <trkpt lat="37.17609" lon="-3.59674">
        <ele>696.529014</ele>
        <time>2022-04-19T12:02:22.000Z</time>
      </trkpt>
      <trkpt lat="37.17613" lon="-3.59665">
        <ele>696.492646</ele>
        <time>2022-04-19T12:02:27.000Z</time>
      </trkpt>
      <trkpt lat="37.17613" lon="-3.59665">
        <ele>696.492646</ele>
        <time>2022-04-19T12:02:30.000Z</time>
      </trkpt>
      <trkpt lat="37.17613" lon="-3.59665">
        <ele>696.492646</ele>
        <time>2022-04-19T12:02:33.000Z</time>
      </trkpt>
      <trkpt lat="37.17614" lon="-3.59663">
        <ele>696.482273</ele>
        <time>2022-04-19T12:02:37.000Z</time>
      </trkpt>
      <trkpt lat="37.17616" lon="-3.59662">
        <ele>696.475578</ele>
        <time>2022-04-19T12:02:40.000Z</time>
      </trkpt>
      <trkpt lat="37.17618" lon="-3.5966">
        <ele>696.46253</ele>
        <time>2022-04-19T12:02:44.000Z</time>
      </trkpt>
      <trkpt lat="37.17618" lon="-3.59659">
        <ele>696.460553</ele>
        <time>2022-04-19T12:02:45.000Z</time>
      </trkpt>
      <trkpt lat="37.17618" lon="-3.59659">
        <ele>696.458992</ele>
        <time>2022-04-19T12:02:47.000Z</time>
      </trkpt>
      <trkpt lat="37.17619" lon="-3.59659">
        <ele>696.456399</ele>
        <time>2022-04-19T12:02:50.000Z</time>
      </trkpt>
      <trkpt lat="37.17616" lon="-3.59661">
        <ele>696.441941</ele>
        <time>2022-04-19T12:03:01.000Z</time>
      </trkpt>
      <trkpt lat="37.17611" lon="-3.5967">
        <ele>696.423862</ele>
        <time>2022-04-19T12:03:06.000Z</time>
      </trkpt>
      <trkpt lat="37.17611" lon="-3.59669">
        <ele>696.427972</ele>
        <time>2022-04-19T12:03:07.000Z</time>
      </trkpt>
      <trkpt lat="37.17613" lon="-3.59666">
        <ele>696.441315</ele>
        <time>2022-04-19T12:03:13.000Z</time>
      </trkpt>
      <trkpt lat="37.17616" lon="-3.59664">
        <ele>696.455225</ele>
        <time>2022-04-19T12:03:19.000Z</time>
      </trkpt>
      <trkpt lat="37.17614" lon="-3.59666">
        <ele>696.467517</ele>
        <time>2022-04-19T12:03:26.000Z</time>
      </trkpt>
      <trkpt lat="37.17613" lon="-3.59667">
        <ele>696.471926</ele>
        <time>2022-04-19T12:03:37.000Z</time>
      </trkpt>
      <trkpt lat="37.17615" lon="-3.59667">
        <ele>696.478918</ele>
        <time>2022-04-19T12:03:58.000Z</time>
      </trkpt>
      <trkpt lat="37.17617" lon="-3.59663">
        <ele>696.496075</ele>
        <time>2022-04-19T12:04:12.000Z</time>
      </trkpt>
      <trkpt lat="37.17619" lon="-3.59659">
        <ele>696.513807</ele>
        <time>2022-04-19T12:04:40.000Z</time>
      </trkpt>
      <trkpt lat="37.17623" lon="-3.59656">
        <ele>696.531071</ele>
        <time>2022-04-19T12:04:46.000Z</time>
      </trkpt>
      <trkpt lat="37.17628" lon="-3.59654">
        <ele>696.553586</ele>
        <time>2022-04-19T12:04:54.000Z</time>
      </trkpt>
      <trkpt lat="37.17627" lon="-3.59654">
        <ele>696.555468</ele>
        <time>2022-04-19T12:05:00.000Z</time>
      </trkpt>
      <trkpt lat="37.17626" lon="-3.59654">
        <ele>696.560472</ele>
        <time>2022-04-19T12:05:05.000Z</time>
      </trkpt>
      <trkpt lat="37.17626" lon="-3.59655">
        <ele>696.562652</ele>
        <time>2022-04-19T12:05:13.000Z</time>
      </trkpt>
      <trkpt lat="37.17632" lon="-3.59657">
        <ele>696.586472</ele>
        <time>2022-04-19T12:05:46.000Z</time>
      </trkpt>
      <trkpt lat="37.17635" lon="-3.59654">
        <ele>696.604217</ele>
        <time>2022-04-19T12:05:49.000Z</time>
      </trkpt>
      <trkpt lat="37.17634" lon="-3.59654">
        <ele>696.609036</ele>
        <time>2022-04-19T12:05:51.000Z</time>
      </trkpt>
      <trkpt lat="37.17634" lon="-3.59652">
        <ele>696.615878</ele>
        <time>2022-04-19T12:05:54.000Z</time>
      </trkpt>
      <trkpt lat="37.17634" lon="-3.59653">
        <ele>696.619989</ele>
        <time>2022-04-19T12:05:58.000Z</time>
      </trkpt>
      <trkpt lat="37.17631" lon="-3.5966">
        <ele>696.64577</ele>
        <time>2022-04-19T12:05:59.000Z</time>
      </trkpt>
      <trkpt lat="37.17633" lon="-3.5966">
        <ele>696.654973</ele>
        <time>2022-04-19T12:06:02.000Z</time>
      </trkpt>
      <trkpt lat="37.17633" lon="-3.59659">
        <ele>696.656767</ele>
        <time>2022-04-19T12:06:04.000Z</time>
      </trkpt>
      <trkpt lat="37.1763" lon="-3.5966">
        <ele>696.67307</ele>
        <time>2022-04-19T12:06:11.000Z</time>
      </trkpt>
      <trkpt lat="37.17626" lon="-3.59658">
        <ele>696.690193</ele>
        <time>2022-04-19T12:06:18.000Z</time>
      </trkpt>
      <trkpt lat="37.17628" lon="-3.59655">
        <ele>696.705458</ele>
        <time>2022-04-19T12:06:25.000Z</time>
      </trkpt>
      <trkpt lat="37.17628" lon="-3.59653">
        <ele>696.712544</ele>
        <time>2022-04-19T12:06:28.000Z</time>
      </trkpt>
      <trkpt lat="37.17628" lon="-3.59646">
        <ele>696.735937</ele>
        <time>2022-04-19T12:06:32.000Z</time>
      </trkpt>
      <trkpt lat="37.1766" lon="-3.59611">
        <ele>696.921418</ele>
        <time>2022-04-19T12:07:25.000Z</time>
      </trkpt>
      <trkpt lat="37.17664" lon="-3.59603">
        <ele>696.956836</ele>
        <time>2022-04-19T12:07:27.000Z</time>
      </trkpt>
      <trkpt lat="37.17655" lon="-3.59627">
        <ele>697.048689</ele>
        <time>2022-04-19T12:07:33.000Z</time>
      </trkpt>
      <trkpt lat="37.17654" lon="-3.59629">
        <ele>697.057732</ele>
        <time>2022-04-19T12:07:35.000Z</time>
      </trkpt>
      <trkpt lat="37.1765" lon="-3.59634">
        <ele>697.081045</ele>
        <time>2022-04-19T12:07:38.000Z</time>
      </trkpt>
      <trkpt lat="37.17646" lon="-3.59637">
        <ele>697.105845</ele>
        <time>2022-04-19T12:07:40.000Z</time>
      </trkpt>
      <trkpt lat="37.17639" lon="-3.59661">
        <ele>697.193358</ele>
        <time>2022-04-19T12:07:41.000Z</time>
      </trkpt>
      <trkpt lat="37.17635" lon="-3.59667">
        <ele>697.208444</ele>
        <time>2022-04-19T12:07:43.000Z</time>
      </trkpt>
      <trkpt lat="37.17635" lon="-3.59661">
        <ele>697.21789</ele>
        <time>2022-04-19T12:07:44.000Z</time>
      </trkpt>
      <trkpt lat="37.17632" lon="-3.59655">
        <ele>697.228712</ele>
        <time>2022-04-19T12:07:46.000Z</time>
      </trkpt>
      <trkpt lat="37.17636" lon="-3.59652">
        <ele>697.236238</ele>
        <time>2022-04-19T12:07:52.000Z</time>
      </trkpt>
      <trkpt lat="37.17634" lon="-3.59656">
        <ele>697.242929</ele>
        <time>2022-04-19T12:07:56.000Z</time>
      </trkpt>
      <trkpt lat="37.17634" lon="-3.59652">
        <ele>697.248909</ele>
        <time>2022-04-19T12:07:57.000Z</time>
      </trkpt>
      <trkpt lat="37.17634" lon="-3.59651">
        <ele>697.251011</ele>
        <time>2022-04-19T12:07:58.000Z</time>
      </trkpt>
      <trkpt lat="37.17633" lon="-3.59656">
        <ele>697.259364</ele>
        <time>2022-04-19T12:08:01.000Z</time>
      </trkpt>
      <trkpt lat="37.17634" lon="-3.59655">
        <ele>697.262543</ele>
        <time>2022-04-19T12:08:04.000Z</time>
      </trkpt>
      <trkpt lat="37.17633" lon="-3.59661">
        <ele>697.271488</ele>
        <time>2022-04-19T12:08:06.000Z</time>
      </trkpt>
      <trkpt lat="37.17631" lon="-3.59664">
        <ele>697.277223</ele>
        <time>2022-04-19T12:08:09.000Z</time>
      </trkpt>
      <trkpt lat="37.17631" lon="-3.59661">
        <ele>697.281678</ele>
        <time>2022-04-19T12:08:11.000Z</time>
      </trkpt>
      <trkpt lat="37.17631" lon="-3.59665">
        <ele>697.287783</ele>
        <time>2022-04-19T12:08:12.000Z</time>
      </trkpt>
      <trkpt lat="37.17631" lon="-3.59666">
        <ele>697.289647</ele>
        <time>2022-04-19T12:08:13.000Z</time>
      </trkpt>
      <trkpt lat="37.1763" lon="-3.59667">
        <ele>697.291889</ele>
        <time>2022-04-19T12:08:17.000Z</time>
      </trkpt>
      <trkpt lat="37.1763" lon="-3.59672">
        <ele>697.299499</ele>
        <time>2022-04-19T12:08:21.000Z</time>
      </trkpt>
      <trkpt lat="37.17632" lon="-3.59679">
        <ele>697.310751</ele>
        <time>2022-04-19T12:08:27.000Z</time>
      </trkpt>
      <trkpt lat="37.17631" lon="-3.59691">
        <ele>697.329484</ele>
        <time>2022-04-19T12:08:33.000Z</time>
      </trkpt>
      <trkpt lat="37.17634" lon="-3.59683">
        <ele>697.342262</ele>
        <time>2022-04-19T12:08:38.000Z</time>
      </trkpt>
      <trkpt lat="37.17634" lon="-3.59683">
        <ele>697.342728</ele>
        <time>2022-04-19T12:08:40.000Z</time>
      </trkpt>
      <trkpt lat="37.17634" lon="-3.59682">
        <ele>697.343882</ele>
        <time>2022-04-19T12:08:41.000Z</time>
      </trkpt>
      <trkpt lat="37.17635" lon="-3.5968">
        <ele>697.348316</ele>
        <time>2022-04-19T12:08:43.000Z</time>
      </trkpt>
      <trkpt lat="37.17636" lon="-3.59677">
        <ele>697.352725</ele>
        <time>2022-04-19T12:08:45.000Z</time>
      </trkpt>
      <trkpt lat="37.17637" lon="-3.59662">
        <ele>697.376035</ele>
        <time>2022-04-19T12:08:47.000Z</time>
      </trkpt>
      <trkpt lat="37.17634" lon="-3.59643">
        <ele>697.405813</ele>
        <time>2022-04-19T12:08:51.000Z</time>
      </trkpt>
      <trkpt lat="37.17634" lon="-3.59646">
        <ele>697.410024</ele>
        <time>2022-04-19T12:08:53.000Z</time>
      </trkpt>
      <trkpt lat="37.17634" lon="-3.59647">
        <ele>697.411325</ele>
        <time>2022-04-19T12:08:54.000Z</time>
      </trkpt>
      <trkpt lat="37.17634" lon="-3.59648">
        <ele>697.413199</ele>
        <time>2022-04-19T12:08:58.000Z</time>
      </trkpt>
      <trkpt lat="37.17635" lon="-3.59655">
        <ele>697.424975</ele>
        <time>2022-04-19T12:09:02.000Z</time>
      </trkpt>
      <trkpt lat="37.17634" lon="-3.59658">
        <ele>697.429278</ele>
        <time>2022-04-19T12:09:04.000Z</time>
      </trkpt>
      <trkpt lat="37.17635" lon="-3.59657">
        <ele>697.431016</ele>
        <time>2022-04-19T12:09:05.000Z</time>
      </trkpt>
      <trkpt lat="37.17635" lon="-3.59664">
        <ele>697.442041</ele>
        <time>2022-04-19T12:09:07.000Z</time>
      </trkpt>
      <trkpt lat="37.1763" lon="-3.59674">
        <ele>697.459958</ele>
        <time>2022-04-19T12:09:08.000Z</time>
      </trkpt>
      <trkpt lat="37.17628" lon="-3.5968">
        <ele>697.470426</ele>
        <time>2022-04-19T12:09:12.000Z</time>
      </trkpt>
      <trkpt lat="37.17628" lon="-3.59671">
        <ele>697.485181</ele>
        <time>2022-04-19T12:09:13.000Z</time>
      </trkpt>
      <trkpt lat="37.17629" lon="-3.59663">
        <ele>697.497887</ele>
        <time>2022-04-19T12:09:15.000Z</time>
      </trkpt>
      <trkpt lat="37.1763" lon="-3.59659">
        <ele>697.503839</ele>
        <time>2022-04-19T12:09:16.000Z</time>
      </trkpt>
      <trkpt lat="37.17632" lon="-3.59653">
        <ele>697.513673</ele>
        <time>2022-04-19T12:09:22.000Z</time>
      </trkpt>
      <trkpt lat="37.17634" lon="-3.59651">
        <ele>697.519396</ele>
        <time>2022-04-19T12:09:28.000Z</time>
      </trkpt>
      <trkpt lat="37.17633" lon="-3.59652">
        <ele>697.522589</ele>
        <time>2022-04-19T12:09:30.000Z</time>
      </trkpt>
      <trkpt lat="37.17631" lon="-3.59653">
        <ele>697.526184</ele>
        <time>2022-04-19T12:09:33.000Z</time>
      </trkpt>
      <trkpt lat="37.17631" lon="-3.59653">
        <ele>697.528045</ele>
        <time>2022-04-19T12:09:35.000Z</time>
      </trkpt>
      <trkpt lat="37.17631" lon="-3.59653">
        <ele>697.528045</ele>
        <time>2022-04-19T12:09:39.000Z</time>
      </trkpt>
      <trkpt lat="37.17631" lon="-3.59655">
        <ele>697.531771</ele>
        <time>2022-04-19T12:09:42.000Z</time>
      </trkpt>
      <trkpt lat="37.17643" lon="-3.5964">
        <ele>697.576629</ele>
        <time>2022-04-19T12:09:49.000Z</time>
      </trkpt>
      <trkpt lat="37.17641" lon="-3.59646">
        <ele>697.59501</ele>
        <time>2022-04-19T12:09:57.000Z</time>
      </trkpt>
      <trkpt lat="37.17639" lon="-3.5964">
        <ele>697.614125</ele>
        <time>2022-04-19T12:10:05.000Z</time>
      </trkpt>
      <trkpt lat="37.17636" lon="-3.59644">
        <ele>697.630248</ele>
        <time>2022-04-19T12:10:11.000Z</time>
      </trkpt>
      <trkpt lat="37.17632" lon="-3.59649">
        <ele>697.650297</ele>
        <time>2022-04-19T12:10:17.000Z</time>
      </trkpt>
      <trkpt lat="37.17634" lon="-3.59652">
        <ele>697.661073</ele>
        <time>2022-04-19T12:10:24.000Z</time>
      </trkpt>
      <trkpt lat="37.1764" lon="-3.59655">
        <ele>697.684657</ele>
        <time>2022-04-19T12:10:30.000Z</time>
      </trkpt>
      <trkpt lat="37.1764" lon="-3.59655">
        <ele>697.685548</ele>
        <time>2022-04-19T12:10:35.000Z</time>
      </trkpt>
      <trkpt lat="37.1764" lon="-3.59655">
        <ele>697.686195</ele>
        <time>2022-04-19T12:10:41.000Z</time>
      </trkpt>
      <trkpt lat="37.1764" lon="-3.59656">
        <ele>697.688771</ele>
        <time>2022-04-19T12:10:44.000Z</time>
      </trkpt>
      <trkpt lat="37.1764" lon="-3.59656">
        <ele>697.688771</ele>
        <time>2022-04-19T12:10:46.000Z</time>
      </trkpt>
      <trkpt lat="37.17639" lon="-3.59655">
        <ele>697.693442</ele>
        <time>2022-04-19T12:10:53.000Z</time>
      </trkpt>
      <trkpt lat="37.17639" lon="-3.59651">
        <ele>697.702378</ele>
        <time>2022-04-19T12:11:01.000Z</time>
      </trkpt>
      <trkpt lat="37.17638" lon="-3.5965">
        <ele>697.708203</ele>
        <time>2022-04-19T12:11:04.000Z</time>
      </trkpt>
      <trkpt lat="37.1764" lon="-3.59648">
        <ele>697.717088</ele>
        <time>2022-04-19T12:11:06.000Z</time>
      </trkpt>
      <trkpt lat="37.17641" lon="-3.59647">
        <ele>697.721485</ele>
        <time>2022-04-19T12:11:07.000Z</time>
      </trkpt>
      <trkpt lat="37.17641" lon="-3.59646">
        <ele>697.725049</ele>
        <time>2022-04-19T12:11:08.000Z</time>
      </trkpt>
      <trkpt lat="37.17641" lon="-3.59646">
        <ele>697.726198</ele>
        <time>2022-04-19T12:11:09.000Z</time>
      </trkpt>
      <trkpt lat="37.17636" lon="-3.59651">
        <ele>697.748454</ele>
        <time>2022-04-19T12:11:14.000Z</time>
      </trkpt>
      <trkpt lat="37.17636" lon="-3.5965">
        <ele>697.750492</ele>
        <time>2022-04-19T12:11:15.000Z</time>
      </trkpt>
      <trkpt lat="37.17636" lon="-3.59646">
        <ele>697.761474</ele>
        <time>2022-04-19T12:11:21.000Z</time>
      </trkpt>
      <trkpt lat="37.17635" lon="-3.59647">
        <ele>697.766926</ele>
        <time>2022-04-19T12:11:27.000Z</time>
      </trkpt>
      <trkpt lat="37.17634" lon="-3.59647">
        <ele>697.770376</ele>
        <time>2022-04-19T12:11:31.000Z</time>
      </trkpt>
      <trkpt lat="37.17634" lon="-3.59647">
        <ele>697.772096</ele>
        <time>2022-04-19T12:11:34.000Z</time>
      </trkpt>
      <trkpt lat="37.17633" lon="-3.59648">
        <ele>697.774037</ele>
        <time>2022-04-19T12:11:35.000Z</time>
      </trkpt>
      <trkpt lat="37.17633" lon="-3.59648">
        <ele>697.774037</ele>
        <time>2022-04-19T12:11:42.000Z</time>
      </trkpt>
      <trkpt lat="37.17633" lon="-3.59648">
        <ele>697.774037</ele>
        <time>2022-04-19T12:11:46.000Z</time>
      </trkpt>
      <trkpt lat="37.17633" lon="-3.59648">
        <ele>697.774037</ele>
        <time>2022-04-19T12:11:47.000Z</time>
      </trkpt>
      <trkpt lat="37.17632" lon="-3.5965">
        <ele>697.782403</ele>
        <time>2022-04-19T12:12:10.000Z</time>
      </trkpt>
      <trkpt lat="37.17632" lon="-3.5965">
        <ele>697.783908</ele>
        <time>2022-04-19T12:12:20.000Z</time>
      </trkpt>
      <trkpt lat="37.17635" lon="-3.5965">
        <ele>697.792888</ele>
        <time>2022-04-19T12:12:31.000Z</time>
      </trkpt>
      <trkpt lat="37.17634" lon="-3.59652">
        <ele>697.798536</ele>
        <time>2022-04-19T12:12:34.000Z</time>
      </trkpt>
      <trkpt lat="37.17633" lon="-3.59653">
        <ele>697.801751</ele>
        <time>2022-04-19T12:12:36.000Z</time>
      </trkpt>
      <trkpt lat="37.17636" lon="-3.5965">
        <ele>697.812477</ele>
        <time>2022-04-19T12:12:40.000Z</time>
      </trkpt>
      <trkpt lat="37.17634" lon="-3.59651">
        <ele>697.81766</ele>
        <time>2022-04-19T12:12:55.000Z</time>
      </trkpt>
      <trkpt lat="37.17636" lon="-3.59649">
        <ele>697.826236</ele>
        <time>2022-04-19T12:13:11.000Z</time>
      </trkpt>
      <trkpt lat="37.17633" lon="-3.59653">
        <ele>697.841494</ele>
        <time>2022-04-19T12:13:18.000Z</time>
      </trkpt>
      <trkpt lat="37.17632" lon="-3.59656">
        <ele>697.849727</ele>
        <time>2022-04-19T12:13:23.000Z</time>
      </trkpt>
      <trkpt lat="37.17633" lon="-3.59656">
        <ele>697.853969</ele>
        <time>2022-04-19T12:13:30.000Z</time>
      </trkpt>
      <trkpt lat="37.17633" lon="-3.59655">
        <ele>697.85922</ele>
        <time>2022-04-19T12:13:38.000Z</time>
      </trkpt>
      <trkpt lat="37.17636" lon="-3.59652">
        <ele>697.872355</ele>
        <time>2022-04-19T12:13:46.000Z</time>
      </trkpt>
      <trkpt lat="37.17634" lon="-3.59654">
        <ele>697.881571</ele>
        <time>2022-04-19T12:13:51.000Z</time>
      </trkpt>
      <trkpt lat="37.17634" lon="-3.59653">
        <ele>697.885469</ele>
        <time>2022-04-19T12:13:56.000Z</time>
      </trkpt>
      <trkpt lat="37.17634" lon="-3.59653">
        <ele>697.885469</ele>
        <time>2022-04-19T12:14:03.000Z</time>
      </trkpt>
      <trkpt lat="37.17635" lon="-3.59653">
        <ele>697.887375</ele>
        <time>2022-04-19T12:14:11.000Z</time>
      </trkpt>
      <trkpt lat="37.17633" lon="-3.5965">
        <ele>697.898092</ele>
        <time>2022-04-19T12:14:42.000Z</time>
      </trkpt>
      <trkpt lat="37.17633" lon="-3.59651">
        <ele>697.900765</ele>
        <time>2022-04-19T12:14:50.000Z</time>
      </trkpt>
      <trkpt lat="37.1763" lon="-3.59655">
        <ele>697.914699</ele>
        <time>2022-04-19T12:14:56.000Z</time>
      </trkpt>
      <trkpt lat="37.1763" lon="-3.59655">
        <ele>697.914699</ele>
        <time>2022-04-19T12:15:05.000Z</time>
      </trkpt>
      <trkpt lat="37.1763" lon="-3.59655">
        <ele>697.914699</ele>
        <time>2022-04-19T12:15:09.000Z</time>
      </trkpt>
      <trkpt lat="37.17631" lon="-3.59655">
        <ele>697.918522</ele>
        <time>2022-04-19T12:15:24.000Z</time>
      </trkpt>
      <trkpt lat="37.17629" lon="-3.5965">
        <ele>697.933133</ele>
        <time>2022-04-19T12:15:42.000Z</time>
      </trkpt>
      <trkpt lat="37.17628" lon="-3.59653">
        <ele>697.940288</ele>
        <time>2022-04-19T12:15:50.000Z</time>
      </trkpt>
      <trkpt lat="37.17629" lon="-3.59652">
        <ele>697.943523</ele>
        <time>2022-04-19T12:15:56.000Z</time>
      </trkpt>
      <trkpt lat="37.17629" lon="-3.59653">
        <ele>697.945471</ele>
        <time>2022-04-19T12:16:01.000Z</time>
      </trkpt>
      <trkpt lat="37.17628" lon="-3.59653">
        <ele>697.948482</ele>
        <time>2022-04-19T12:16:09.000Z</time>
      </trkpt>
      <trkpt lat="37.17627" lon="-3.59654">
        <ele>697.954386</ele>
        <time>2022-04-19T12:16:14.000Z</time>
      </trkpt>
      <trkpt lat="37.17629" lon="-3.59657">
        <ele>697.966188</ele>
        <time>2022-04-19T12:16:20.000Z</time>
      </trkpt>
      <trkpt lat="37.17628" lon="-3.59657">
        <ele>697.967929</ele>
        <time>2022-04-19T12:16:27.000Z</time>
      </trkpt>
      <trkpt lat="37.17627" lon="-3.59656">
        <ele>697.973381</ele>
        <time>2022-04-19T12:16:31.000Z</time>
      </trkpt>
      <trkpt lat="37.17625" lon="-3.59659">
        <ele>697.983672</ele>
        <time>2022-04-19T12:16:33.000Z</time>
      </trkpt>
      <trkpt lat="37.17622" lon="-3.59662">
        <ele>697.997915</ele>
        <time>2022-04-19T12:16:37.000Z</time>
      </trkpt>
      <trkpt lat="37.17624" lon="-3.5966">
        <ele>698.007869</ele>
        <time>2022-04-19T12:16:43.000Z</time>
      </trkpt>
      <trkpt lat="37.17625" lon="-3.59658">
        <ele>698.01387</ele>
        <time>2022-04-19T12:16:47.000Z</time>
      </trkpt>
      <trkpt lat="37.17627" lon="-3.59657">
        <ele>698.021559</ele>
        <time>2022-04-19T12:16:55.000Z</time>
      </trkpt>
      <trkpt lat="37.17627" lon="-3.59657">
        <ele>698.022879</ele>
        <time>2022-04-19T12:16:56.000Z</time>
      </trkpt>
      <trkpt lat="37.17629" lon="-3.59653">
        <ele>698.035405</ele>
        <time>2022-04-19T12:17:00.000Z</time>
      </trkpt>
      <trkpt lat="37.17629" lon="-3.59652">
        <ele>698.037597</ele>
        <time>2022-04-19T12:17:04.000Z</time>
      </trkpt>
      <trkpt lat="37.17629" lon="-3.59652">
        <ele>698.037597</ele>
        <time>2022-04-19T12:17:05.000Z</time>
      </trkpt>
      <trkpt lat="37.17629" lon="-3.59652">
        <ele>698.037871</ele>
        <time>2022-04-19T12:17:12.000Z</time>
      </trkpt>
      <trkpt lat="37.17629" lon="-3.59653">
        <ele>698.039515</ele>
        <time>2022-04-19T12:17:17.000Z</time>
      </trkpt>
      <trkpt lat="37.17629" lon="-3.59654">
        <ele>698.041456</ele>
        <time>2022-04-19T12:17:20.000Z</time>
      </trkpt>
      <trkpt lat="37.17629" lon="-3.59654">
        <ele>698.04173</ele>
        <time>2022-04-19T12:17:24.000Z</time>
      </trkpt>
      <trkpt lat="37.17629" lon="-3.59653">
        <ele>698.043101</ele>
        <time>2022-04-19T12:17:29.000Z</time>
      </trkpt>
      <trkpt lat="37.17628" lon="-3.59654">
        <ele>698.046454</ele>
        <time>2022-04-19T12:17:36.000Z</time>
      </trkpt>
      <trkpt lat="37.17628" lon="-3.59654">
        <ele>698.046894</ele>
        <time>2022-04-19T12:17:37.000Z</time>
      </trkpt>
      <trkpt lat="37.17627" lon="-3.59657">
        <ele>698.056252</ele>
        <time>2022-04-19T12:17:45.000Z</time>
      </trkpt>
      <trkpt lat="37.17626" lon="-3.59656">
        <ele>698.060109</ele>
        <time>2022-04-19T12:17:51.000Z</time>
      </trkpt>
      <trkpt lat="37.17626" lon="-3.59657">
        <ele>698.063295</ele>
        <time>2022-04-19T12:18:00.000Z</time>
      </trkpt>
      <trkpt lat="37.17625" lon="-3.59658">
        <ele>698.066813</ele>
        <time>2022-04-19T12:18:03.000Z</time>
      </trkpt>
      <trkpt lat="37.17624" lon="-3.59658">
        <ele>698.070296</ele>
        <time>2022-04-19T12:18:07.000Z</time>
      </trkpt>
      <trkpt lat="37.17625" lon="-3.59657">
        <ele>698.074179</ele>
        <time>2022-04-19T12:18:10.000Z</time>
      </trkpt>
      <trkpt lat="37.17625" lon="-3.59656">
        <ele>698.075347</ele>
        <time>2022-04-19T12:18:11.000Z</time>
      </trkpt>
      <trkpt lat="37.17623" lon="-3.59658">
        <ele>698.083597</ele>
        <time>2022-04-19T12:18:15.000Z</time>
      </trkpt>
      <trkpt lat="37.17622" lon="-3.59657">
        <ele>698.086675</ele>
        <time>2022-04-19T12:18:17.000Z</time>
      </trkpt>
      <trkpt lat="37.17622" lon="-3.59658">
        <ele>698.090962</ele>
        <time>2022-04-19T12:18:24.000Z</time>
      </trkpt>
      <trkpt lat="37.17622" lon="-3.59662">
        <ele>698.101116</ele>
        <time>2022-04-19T12:18:47.000Z</time>
      </trkpt>
      <trkpt lat="37.17622" lon="-3.5966">
        <ele>698.105014</ele>
        <time>2022-04-19T12:18:52.000Z</time>
      </trkpt>
      <trkpt lat="37.17621" lon="-3.5966">
        <ele>698.107784</ele>
        <time>2022-04-19T12:18:54.000Z</time>
      </trkpt>
      <trkpt lat="37.17621" lon="-3.59661">
        <ele>698.112071</ele>
        <time>2022-04-19T12:18:57.000Z</time>
      </trkpt>
      <trkpt lat="37.1762" lon="-3.59662">
        <ele>698.115864</ele>
        <time>2022-04-19T12:18:59.000Z</time>
      </trkpt>
      <trkpt lat="37.17618" lon="-3.59663">
        <ele>698.121154</ele>
        <time>2022-04-19T12:19:04.000Z</time>
      </trkpt>
      <trkpt lat="37.17619" lon="-3.59661">
        <ele>698.125127</ele>
        <time>2022-04-19T12:19:10.000Z</time>
      </trkpt>
      <trkpt lat="37.17619" lon="-3.59662">
        <ele>698.127506</ele>
        <time>2022-04-19T12:19:11.000Z</time>
      </trkpt>
      <trkpt lat="37.1762" lon="-3.59663">
        <ele>698.130094</ele>
        <time>2022-04-19T12:19:16.000Z</time>
      </trkpt>
      <trkpt lat="37.1762" lon="-3.59663">
        <ele>698.132132</ele>
        <time>2022-04-19T12:19:18.000Z</time>
      </trkpt>
      <trkpt lat="37.17618" lon="-3.59663">
        <ele>698.136735</ele>
        <time>2022-04-19T12:19:26.000Z</time>
      </trkpt>
      <trkpt lat="37.17618" lon="-3.5966">
        <ele>698.143627</ele>
        <time>2022-04-19T12:19:33.000Z</time>
      </trkpt>
      <trkpt lat="37.17621" lon="-3.59663">
        <ele>698.156046</ele>
        <time>2022-04-19T12:19:37.000Z</time>
      </trkpt>
      <trkpt lat="37.17621" lon="-3.59664">
        <ele>698.158871</ele>
        <time>2022-04-19T12:19:41.000Z</time>
      </trkpt>
      <trkpt lat="37.17621" lon="-3.59661">
        <ele>698.167099</ele>
        <time>2022-04-19T12:19:42.000Z</time>
      </trkpt>
      <trkpt lat="37.17622" lon="-3.5966">
        <ele>698.168227</ele>
        <time>2022-04-19T12:19:45.000Z</time>
      </trkpt>
      <trkpt lat="37.17624" lon="-3.5966">
        <ele>698.168792</ele>
        <time>2022-04-19T12:19:49.000Z</time>
      </trkpt>
      <trkpt lat="37.17624" lon="-3.5966">
        <ele>698.168792</ele>
        <time>2022-04-19T12:19:53.000Z</time>
      </trkpt>
      <trkpt lat="37.17624" lon="-3.59661">
        <ele>698.16912</ele>
        <time>2022-04-19T12:20:02.000Z</time>
      </trkpt>
      <trkpt lat="37.17621" lon="-3.59667">
        <ele>698.170531</ele>
        <time>2022-04-19T12:20:07.000Z</time>
      </trkpt>
      <trkpt lat="37.17625" lon="-3.5966">
        <ele>698.172275</ele>
        <time>2022-04-19T12:20:13.000Z</time>
      </trkpt>
      <trkpt lat="37.17625" lon="-3.59658">
        <ele>698.172808</ele>
        <time>2022-04-19T12:20:14.000Z</time>
      </trkpt>
      <trkpt lat="37.17624" lon="-3.59654">
        <ele>698.173492</ele>
        <time>2022-04-19T12:20:15.000Z</time>
      </trkpt>
      <trkpt lat="37.17623" lon="-3.59654">
        <ele>698.173673</ele>
        <time>2022-04-19T12:20:17.000Z</time>
      </trkpt>
      <trkpt lat="37.17624" lon="-3.59659">
        <ele>698.174739</ele>
        <time>2022-04-19T12:20:21.000Z</time>
      </trkpt>
      <trkpt lat="37.17624" lon="-3.59664">
        <ele>698.17564</ele>
        <time>2022-04-19T12:20:26.000Z</time>
      </trkpt>
      <trkpt lat="37.17621" lon="-3.59663">
        <ele>698.176413</ele>
        <time>2022-04-19T12:20:28.000Z</time>
      </trkpt>
      <trkpt lat="37.17624" lon="-3.5965">
        <ele>698.179235</ele>
        <time>2022-04-19T12:20:42.000Z</time>
      </trkpt>
      <trkpt lat="37.17621" lon="-3.59652">
        <ele>698.180046</ele>
        <time>2022-04-19T12:20:44.000Z</time>
      </trkpt>
      <trkpt lat="37.17628" lon="-3.59661">
        <ele>698.182773</ele>
        <time>2022-04-19T12:20:50.000Z</time>
      </trkpt>
      <trkpt lat="37.1762" lon="-3.59666">
        <ele>698.185034</ele>
        <time>2022-04-19T12:21:10.000Z</time>
      </trkpt>
      <trkpt lat="37.17622" lon="-3.59662">
        <ele>698.185976</ele>
        <time>2022-04-19T12:21:11.000Z</time>
      </trkpt>
      <trkpt lat="37.17625" lon="-3.5966">
        <ele>698.186866</ele>
        <time>2022-04-19T12:21:16.000Z</time>
      </trkpt>
      <trkpt lat="37.17609" lon="-3.59677">
        <ele>698.192459</ele>
        <time>2022-04-19T12:21:23.000Z</time>
      </trkpt>
      <trkpt lat="37.17608" lon="-3.59678">
        <ele>698.192636</ele>
        <time>2022-04-19T12:21:24.000Z</time>
      </trkpt>
      <trkpt lat="37.17608" lon="-3.59677">
        <ele>698.192798</ele>
        <time>2022-04-19T12:21:25.000Z</time>
      </trkpt>
      <trkpt lat="37.17611" lon="-3.59676">
        <ele>698.193588</ele>
        <time>2022-04-19T12:21:29.000Z</time>
      </trkpt>
      <trkpt lat="37.17613" lon="-3.59678">
        <ele>698.194011</ele>
        <time>2022-04-19T12:21:34.000Z</time>
      </trkpt>
      <trkpt lat="37.17612" lon="-3.59676">
        <ele>698.194268</ele>
        <time>2022-04-19T12:21:41.000Z</time>
      </trkpt>
      <trkpt lat="37.17612" lon="-3.59676">
        <ele>698.194268</ele>
        <time>2022-04-19T12:21:45.000Z</time>
      </trkpt>
      <trkpt lat="37.17612" lon="-3.59676">
        <ele>698.194268</ele>
        <time>2022-04-19T12:21:48.000Z</time>
      </trkpt>
      <trkpt lat="37.17612" lon="-3.59676">
        <ele>698.194268</ele>
        <time>2022-04-19T12:21:50.000Z</time>
      </trkpt>
      <trkpt lat="37.17617" lon="-3.5967">
        <ele>698.196057</ele>
        <time>2022-04-19T12:21:55.000Z</time>
      </trkpt>
      <trkpt lat="37.17618" lon="-3.59664">
        <ele>698.197294</ele>
        <time>2022-04-19T12:21:59.000Z</time>
      </trkpt>
      <trkpt lat="37.17617" lon="-3.59663">
        <ele>698.197523</ele>
        <time>2022-04-19T12:22:02.000Z</time>
      </trkpt>
      <trkpt lat="37.17618" lon="-3.59662">
        <ele>698.197956</ele>
        <time>2022-04-19T12:22:03.000Z</time>
      </trkpt>
      <trkpt lat="37.17621" lon="-3.59658">
        <ele>698.19906</ele>
        <time>2022-04-19T12:22:06.000Z</time>
      </trkpt>
      <trkpt lat="37.17624" lon="-3.59655">
        <ele>698.199886</ele>
        <time>2022-04-19T12:22:11.000Z</time>
      </trkpt>
      <trkpt lat="37.17624" lon="-3.59652">
        <ele>698.200417</ele>
        <time>2022-04-19T12:22:16.000Z</time>
      </trkpt>
      <trkpt lat="37.1762" lon="-3.59657">
        <ele>698.201648</ele>
        <time>2022-04-19T12:22:19.000Z</time>
      </trkpt>
      <trkpt lat="37.17622" lon="-3.59658">
        <ele>698.202121</ele>
        <time>2022-04-19T12:22:22.000Z</time>
      </trkpt>
      <trkpt lat="37.17623" lon="-3.59659">
        <ele>698.20241</ele>
        <time>2022-04-19T12:22:28.000Z</time>
      </trkpt>
      <trkpt lat="37.17623" lon="-3.5966">
        <ele>698.202607</ele>
        <time>2022-04-19T12:22:31.000Z</time>
      </trkpt>
      <trkpt lat="37.17621" lon="-3.59663">
        <ele>698.20347</ele>
        <time>2022-04-19T12:22:33.000Z</time>
      </trkpt>
      <trkpt lat="37.17612" lon="-3.59669">
        <ele>698.206065</ele>
        <time>2022-04-19T12:22:39.000Z</time>
      </trkpt>
      <trkpt lat="37.17612" lon="-3.59671">
        <ele>698.206486</ele>
        <time>2022-04-19T12:22:44.000Z</time>
      </trkpt>
      <trkpt lat="37.17609" lon="-3.59673">
        <ele>698.207282</ele>
        <time>2022-04-19T12:22:46.000Z</time>
      </trkpt>
      <trkpt lat="37.17554" lon="-3.59686">
        <ele>698.253603</ele>
        <time>2022-04-19T12:22:59.000Z</time>
      </trkpt>
      <trkpt lat="37.17613" lon="-3.59664">
        <ele>698.339026</ele>
        <time>2022-04-19T12:23:51.000Z</time>
      </trkpt>
      <trkpt lat="37.17617" lon="-3.59662">
        <ele>698.344596</ele>
        <time>2022-04-19T12:23:52.000Z</time>
      </trkpt>
      <trkpt lat="37.17617" lon="-3.59659">
        <ele>698.347357</ele>
        <time>2022-04-19T12:24:03.000Z</time>
      </trkpt>
      <trkpt lat="37.17622" lon="-3.59655">
        <ele>698.355123</ele>
        <time>2022-04-19T12:24:09.000Z</time>
      </trkpt>
      <trkpt lat="37.17624" lon="-3.59651">
        <ele>698.360978</ele>
        <time>2022-04-19T12:24:15.000Z</time>
      </trkpt>
      <trkpt lat="37.1762" lon="-3.59655">
        <ele>698.367903</ele>
        <time>2022-04-19T12:24:19.000Z</time>
      </trkpt>
      <trkpt lat="37.17619" lon="-3.59657">
        <ele>698.371136</ele>
        <time>2022-04-19T12:24:20.000Z</time>
      </trkpt>
      <trkpt lat="37.17615" lon="-3.59661">
        <ele>698.378565</ele>
        <time>2022-04-19T12:24:25.000Z</time>
      </trkpt>
      <trkpt lat="37.17614" lon="-3.59661">
        <ele>698.379822</ele>
        <time>2022-04-19T12:24:30.000Z</time>
      </trkpt>
      <trkpt lat="37.17613" lon="-3.59663">
        <ele>698.382267</ele>
        <time>2022-04-19T12:24:33.000Z</time>
      </trkpt>
      <trkpt lat="37.17611" lon="-3.59661">
        <ele>698.385347</ele>
        <time>2022-04-19T12:24:39.000Z</time>
      </trkpt>
      <trkpt lat="37.17615" lon="-3.5966">
        <ele>698.391227</ele>
        <time>2022-04-19T12:24:45.000Z</time>
      </trkpt>
      <trkpt lat="37.17619" lon="-3.59653">
        <ele>698.401063</ele>
        <time>2022-04-19T12:24:51.000Z</time>
      </trkpt>
      <trkpt lat="37.17622" lon="-3.59655">
        <ele>698.405143</ele>
        <time>2022-04-19T12:24:55.000Z</time>
      </trkpt>
      <trkpt lat="37.17622" lon="-3.59653">
        <ele>698.406952</ele>
        <time>2022-04-19T12:24:59.000Z</time>
      </trkpt>
      <trkpt lat="37.17622" lon="-3.59656">
        <ele>698.409848</ele>
        <time>2022-04-19T12:25:07.000Z</time>
      </trkpt>
      <trkpt lat="37.17618" lon="-3.5966">
        <ele>698.417842</ele>
        <time>2022-04-19T12:25:13.000Z</time>
      </trkpt>
      <trkpt lat="37.17606" lon="-3.5967">
        <ele>698.438324</ele>
        <time>2022-04-19T12:25:19.000Z</time>
      </trkpt>
      <trkpt lat="37.17606" lon="-3.59669">
        <ele>698.439308</ele>
        <time>2022-04-19T12:25:24.000Z</time>
      </trkpt>
      <trkpt lat="37.1761" lon="-3.59668">
        <ele>698.44581</ele>
        <time>2022-04-19T12:25:31.000Z</time>
      </trkpt>
      <trkpt lat="37.17615" lon="-3.59666">
        <ele>698.453068</ele>
        <time>2022-04-19T12:25:36.000Z</time>
      </trkpt>
      <trkpt lat="37.17617" lon="-3.59667">
        <ele>698.455434</ele>
        <time>2022-04-19T12:25:40.000Z</time>
      </trkpt>
      <trkpt lat="37.17613" lon="-3.59673">
        <ele>698.46405</ele>
        <time>2022-04-19T12:25:44.000Z</time>
      </trkpt>
      <trkpt lat="37.17612" lon="-3.59671">
        <ele>698.447406</ele>
        <time>2022-04-19T12:25:45.000Z</time>
      </trkpt>
      <trkpt lat="37.17613" lon="-3.5967">
        <ele>698.43114</ele>
        <time>2022-04-19T12:25:46.000Z</time>
      </trkpt>
      <trkpt lat="37.17615" lon="-3.59671">
        <ele>698.386718</ele>
        <time>2022-04-19T12:25:48.000Z</time>
      </trkpt>
      <trkpt lat="37.17617" lon="-3.59672">
        <ele>698.363632</ele>
        <time>2022-04-19T12:25:49.000Z</time>
      </trkpt>
      <trkpt lat="37.17621" lon="-3.59669">
        <ele>698.287943</ele>
        <time>2022-04-19T12:25:52.000Z</time>
      </trkpt>
      <trkpt lat="37.17618" lon="-3.5967">
        <ele>698.243556</ele>
        <time>2022-04-19T12:25:53.000Z</time>
      </trkpt>
      <trkpt lat="37.17622" lon="-3.59669">
        <ele>698.189692</ele>
        <time>2022-04-19T12:25:56.000Z</time>
      </trkpt>
      <trkpt lat="37.17625" lon="-3.59671">
        <ele>698.144491</ele>
        <time>2022-04-19T12:25:58.000Z</time>
      </trkpt>
      <trkpt lat="37.17625" lon="-3.59672">
        <ele>698.126332</ele>
        <time>2022-04-19T12:26:01.000Z</time>
      </trkpt>
      <trkpt lat="37.17626" lon="-3.5967">
        <ele>698.094251</ele>
        <time>2022-04-19T12:26:02.000Z</time>
      </trkpt>
      <trkpt lat="37.17628" lon="-3.59672">
        <ele>698.05621</ele>
        <time>2022-04-19T12:26:05.000Z</time>
      </trkpt>
      <trkpt lat="37.17626" lon="-3.59671">
        <ele>698.019734</ele>
        <time>2022-04-19T12:26:07.000Z</time>
      </trkpt>
      <trkpt lat="37.17624" lon="-3.5967">
        <ele>697.990203</ele>
        <time>2022-04-19T12:26:10.000Z</time>
      </trkpt>
      <trkpt lat="37.17623" lon="-3.59671">
        <ele>697.976093</ele>
        <time>2022-04-19T12:26:11.000Z</time>
      </trkpt>
      <trkpt lat="37.1762" lon="-3.5967">
        <ele>697.921159</ele>
        <time>2022-04-19T12:26:17.000Z</time>
      </trkpt>
      <trkpt lat="37.17618" lon="-3.59669">
        <ele>697.901329</ele>
        <time>2022-04-19T12:26:22.000Z</time>
      </trkpt>
      <trkpt lat="37.17618" lon="-3.5967">
        <ele>697.898069</ele>
        <time>2022-04-19T12:26:24.000Z</time>
      </trkpt>
      <trkpt lat="37.1762" lon="-3.59669">
        <ele>697.874233</ele>
        <time>2022-04-19T12:26:26.000Z</time>
      </trkpt>
      <trkpt lat="37.17621" lon="-3.59666">
        <ele>697.836572</ele>
        <time>2022-04-19T12:26:29.000Z</time>
      </trkpt>
      <trkpt lat="37.17621" lon="-3.59664">
        <ele>697.812397</ele>
        <time>2022-04-19T12:26:31.000Z</time>
      </trkpt>
      <trkpt lat="37.1762" lon="-3.59667">
        <ele>697.778216</ele>
        <time>2022-04-19T12:26:34.000Z</time>
      </trkpt>
      <trkpt lat="37.17624" lon="-3.59669">
        <ele>697.702267</ele>
        <time>2022-04-19T12:26:39.000Z</time>
      </trkpt>
      <trkpt lat="37.1763" lon="-3.59676">
        <ele>697.583669</ele>
        <time>2022-04-19T12:26:45.000Z</time>
      </trkpt>
      <trkpt lat="37.17634" lon="-3.59676">
        <ele>697.528684</ele>
        <time>2022-04-19T12:26:50.000Z</time>
      </trkpt>
      <trkpt lat="37.17635" lon="-3.59678">
        <ele>697.506618</ele>
        <time>2022-04-19T12:26:52.000Z</time>
      </trkpt>
      <trkpt lat="37.17635" lon="-3.59681">
        <ele>697.464368</ele>
        <time>2022-04-19T12:26:55.000Z</time>
      </trkpt>
      <trkpt lat="37.17632" lon="-3.59685">
        <ele>697.405834</ele>
        <time>2022-04-19T12:26:57.000Z</time>
      </trkpt>
      <trkpt lat="37.17622" lon="-3.59696">
        <ele>697.203003</ele>
        <time>2022-04-19T12:27:02.000Z</time>
      </trkpt>
      <trkpt lat="37.17619" lon="-3.59704">
        <ele>697.095397</ele>
        <time>2022-04-19T12:27:06.000Z</time>
      </trkpt>
      <trkpt lat="37.17615" lon="-3.59707">
        <ele>697.031898</ele>
        <time>2022-04-19T12:27:13.000Z</time>
      </trkpt>
      <trkpt lat="37.17614" lon="-3.59709">
        <ele>696.98753</ele>
        <time>2022-04-19T12:27:17.000Z</time>
      </trkpt>
      <trkpt lat="37.1761" lon="-3.59714">
        <ele>696.910948</ele>
        <time>2022-04-19T12:27:19.000Z</time>
      </trkpt>
      <trkpt lat="37.17599" lon="-3.59732">
        <ele>696.641108</ele>
        <time>2022-04-19T12:27:25.000Z</time>
      </trkpt>
      <trkpt lat="37.17589" lon="-3.5975">
        <ele>696.370698</ele>
        <time>2022-04-19T12:27:30.000Z</time>
      </trkpt>
      <trkpt lat="37.17576" lon="-3.5977">
        <ele>696.06215</ele>
        <time>2022-04-19T12:27:36.000Z</time>
      </trkpt>
      <trkpt lat="37.17569" lon="-3.59782">
        <ele>695.880994</ele>
        <time>2022-04-19T12:27:42.000Z</time>
      </trkpt>
      <trkpt lat="37.17568" lon="-3.59782">
        <ele>695.859661</ele>
        <time>2022-04-19T12:27:44.000Z</time>
      </trkpt>
      <trkpt lat="37.17564" lon="-3.59785">
        <ele>695.794245</ele>
        <time>2022-04-19T12:27:48.000Z</time>
      </trkpt>
      <trkpt lat="37.17555" lon="-3.598">
        <ele>695.509222</ele>
        <time>2022-04-19T12:27:53.000Z</time>
      </trkpt>
      <trkpt lat="37.17541" lon="-3.59823">
        <ele>695.024452</ele>
        <time>2022-04-19T12:27:58.000Z</time>
      </trkpt>
      <trkpt lat="37.17531" lon="-3.59836">
        <ele>694.712857</ele>
        <time>2022-04-19T12:28:01.000Z</time>
      </trkpt>
      <trkpt lat="37.17521" lon="-3.59847">
        <ele>694.444559</ele>
        <time>2022-04-19T12:28:04.000Z</time>
      </trkpt>
      <trkpt lat="37.17518" lon="-3.59849">
        <ele>694.363949</ele>
        <time>2022-04-19T12:28:05.000Z</time>
      </trkpt>
      <trkpt lat="37.17507" lon="-3.59857">
        <ele>694.11138</ele>
        <time>2022-04-19T12:28:08.000Z</time>
      </trkpt>
      <trkpt lat="37.17497" lon="-3.59865">
        <ele>693.85107</ele>
        <time>2022-04-19T12:28:11.000Z</time>
      </trkpt>
      <trkpt lat="37.17472" lon="-3.59884">
        <ele>693.248794</ele>
        <time>2022-04-19T12:28:18.000Z</time>
      </trkpt>
      <trkpt lat="37.17461" lon="-3.59891">
        <ele>692.983656</ele>
        <time>2022-04-19T12:28:21.000Z</time>
      </trkpt>
      <trkpt lat="37.17444" lon="-3.59902">
        <ele>692.592424</ele>
        <time>2022-04-19T12:28:26.000Z</time>
      </trkpt>
      <trkpt lat="37.17439" lon="-3.59905">
        <ele>692.466862</ele>
        <time>2022-04-19T12:28:28.000Z</time>
      </trkpt>
      <trkpt lat="37.17433" lon="-3.59911">
        <ele>692.303807</ele>
        <time>2022-04-19T12:28:32.000Z</time>
      </trkpt>
      <trkpt lat="37.17432" lon="-3.59911">
        <ele>692.297318</ele>
        <time>2022-04-19T12:28:33.000Z</time>
      </trkpt>
      <trkpt lat="37.17432" lon="-3.59911">
        <ele>692.297318</ele>
        <time>2022-04-19T12:28:40.000Z</time>
      </trkpt>
      <trkpt lat="37.17432" lon="-3.59911">
        <ele>692.297318</ele>
        <time>2022-04-19T12:28:49.000Z</time>
      </trkpt>
      <trkpt lat="37.17432" lon="-3.59911">
        <ele>692.297318</ele>
        <time>2022-04-19T12:28:56.000Z</time>
      </trkpt>
      <trkpt lat="37.17432" lon="-3.59911">
        <ele>692.297318</ele>
        <time>2022-04-19T12:28:59.000Z</time>
      </trkpt>
      <trkpt lat="37.17432" lon="-3.59911">
        <ele>692.297318</ele>
        <time>2022-04-19T12:29:03.000Z</time>
      </trkpt>
      <trkpt lat="37.17432" lon="-3.59911">
        <ele>692.297318</ele>
        <time>2022-04-19T12:29:16.000Z</time>
      </trkpt>
      <trkpt lat="37.17427" lon="-3.59913">
        <ele>692.186565</ele>
        <time>2022-04-19T12:29:27.000Z</time>
      </trkpt>
      <trkpt lat="37.17424" lon="-3.59914">
        <ele>692.116745</ele>
        <time>2022-04-19T12:29:28.000Z</time>
      </trkpt>
      <trkpt lat="37.17421" lon="-3.59916">
        <ele>692.040834</ele>
        <time>2022-04-19T12:29:29.000Z</time>
      </trkpt>
      <trkpt lat="37.17411" lon="-3.59921">
        <ele>691.781242</ele>
        <time>2022-04-19T12:29:32.000Z</time>
      </trkpt>
      <trkpt lat="37.17408" lon="-3.59923">
        <ele>691.693258</ele>
        <time>2022-04-19T12:29:33.000Z</time>
      </trkpt>
      <trkpt lat="37.17394" lon="-3.59933">
        <ele>691.250677</ele>
        <time>2022-04-19T12:29:38.000Z</time>
      </trkpt>
      <trkpt lat="37.17381" lon="-3.5994">
        <ele>690.875379</ele>
        <time>2022-04-19T12:29:42.000Z</time>
      </trkpt>
      <trkpt lat="37.17374" lon="-3.59944">
        <ele>690.695236</ele>
        <time>2022-04-19T12:29:44.000Z</time>
      </trkpt>
      <trkpt lat="37.1736" lon="-3.59956">
        <ele>690.227501</ele>
        <time>2022-04-19T12:29:49.000Z</time>
      </trkpt>
      <trkpt lat="37.17343" lon="-3.59971">
        <ele>689.667416</ele>
        <time>2022-04-19T12:29:55.000Z</time>
      </trkpt>
      <trkpt lat="37.17339" lon="-3.59972">
        <ele>689.581049</ele>
        <time>2022-04-19T12:29:56.000Z</time>
      </trkpt>
      <trkpt lat="37.17336" lon="-3.59971">
        <ele>689.488657</ele>
        <time>2022-04-19T12:29:57.000Z</time>
      </trkpt>
      <trkpt lat="37.17317" lon="-3.59964">
        <ele>688.977847</ele>
        <time>2022-04-19T12:30:02.000Z</time>
      </trkpt>
      <trkpt lat="37.17312" lon="-3.59963">
        <ele>688.840649</ele>
        <time>2022-04-19T12:30:03.000Z</time>
      </trkpt>
      <trkpt lat="37.17296" lon="-3.59957">
        <ele>688.387606</ele>
        <time>2022-04-19T12:30:06.000Z</time>
      </trkpt>
      <trkpt lat="37.17291" lon="-3.59955">
        <ele>688.236476</ele>
        <time>2022-04-19T12:30:07.000Z</time>
      </trkpt>
      <trkpt lat="37.17275" lon="-3.59949">
        <ele>687.797559</ele>
        <time>2022-04-19T12:30:10.000Z</time>
      </trkpt>
      <trkpt lat="37.17267" lon="-3.59945">
        <ele>687.565412</ele>
        <time>2022-04-19T12:30:12.000Z</time>
      </trkpt>
      <trkpt lat="37.17263" lon="-3.59943">
        <ele>687.458295</ele>
        <time>2022-04-19T12:30:13.000Z</time>
      </trkpt>
      <trkpt lat="37.17255" lon="-3.59938">
        <ele>687.216002</ele>
        <time>2022-04-19T12:30:16.000Z</time>
      </trkpt>
      <trkpt lat="37.1725" lon="-3.59934">
        <ele>687.107787</ele>
        <time>2022-04-19T12:30:18.000Z</time>
      </trkpt>
      <trkpt lat="37.17247" lon="-3.59933">
        <ele>687.039595</ele>
        <time>2022-04-19T12:30:19.000Z</time>
      </trkpt>
      <trkpt lat="37.17237" lon="-3.59928">
        <ele>686.828627</ele>
        <time>2022-04-19T12:30:22.000Z</time>
      </trkpt>
      <trkpt lat="37.17233" lon="-3.59926">
        <ele>686.751242</ele>
        <time>2022-04-19T12:30:23.000Z</time>
      </trkpt>
      <trkpt lat="37.17216" lon="-3.59915">
        <ele>686.398345</ele>
        <time>2022-04-19T12:30:29.000Z</time>
      </trkpt>
      <trkpt lat="37.17211" lon="-3.59912">
        <ele>686.288637</ele>
        <time>2022-04-19T12:30:31.000Z</time>
      </trkpt>
      <trkpt lat="37.17202" lon="-3.59909">
        <ele>686.108125</ele>
        <time>2022-04-19T12:30:35.000Z</time>
      </trkpt>
      <trkpt lat="37.17201" lon="-3.59909">
        <ele>686.085056</ele>
        <time>2022-04-19T12:30:40.000Z</time>
      </trkpt>
      <trkpt lat="37.17201" lon="-3.59909">
        <ele>686.085056</ele>
        <time>2022-04-19T12:30:48.000Z</time>
      </trkpt>
      <trkpt lat="37.17201" lon="-3.59909">
        <ele>686.085056</ele>
        <time>2022-04-19T12:30:54.000Z</time>
      </trkpt>
      <trkpt lat="37.17201" lon="-3.59909">
        <ele>686.085056</ele>
        <time>2022-04-19T12:30:57.000Z</time>
      </trkpt>
      <trkpt lat="37.17194" lon="-3.59904">
        <ele>685.937196</ele>
        <time>2022-04-19T12:31:11.000Z</time>
      </trkpt>
      <trkpt lat="37.1718" lon="-3.59895">
        <ele>685.629821</ele>
        <time>2022-04-19T12:31:15.000Z</time>
      </trkpt>
      <trkpt lat="37.17165" lon="-3.59885">
        <ele>685.316191</ele>
        <time>2022-04-19T12:31:21.000Z</time>
      </trkpt>
      <trkpt lat="37.17163" lon="-3.59883">
        <ele>685.261289</ele>
        <time>2022-04-19T12:31:22.000Z</time>
      </trkpt>
      <trkpt lat="37.17161" lon="-3.5988">
        <ele>685.205469</ele>
        <time>2022-04-19T12:31:23.000Z</time>
      </trkpt>
      <trkpt lat="37.1716" lon="-3.59874">
        <ele>685.1109</ele>
        <time>2022-04-19T12:31:25.000Z</time>
      </trkpt>
      <trkpt lat="37.17161" lon="-3.59865">
        <ele>684.974416</ele>
        <time>2022-04-19T12:31:27.000Z</time>
      </trkpt>
      <trkpt lat="37.17165" lon="-3.59856">
        <ele>684.823205</ele>
        <time>2022-04-19T12:31:29.000Z</time>
      </trkpt>
      <trkpt lat="37.17169" lon="-3.59848">
        <ele>684.672872</ele>
        <time>2022-04-19T12:31:31.000Z</time>
      </trkpt>
      <trkpt lat="37.17171" lon="-3.59838">
        <ele>684.520573</ele>
        <time>2022-04-19T12:31:33.000Z</time>
      </trkpt>
      <trkpt lat="37.17171" lon="-3.59834">
        <ele>684.448798</ele>
        <time>2022-04-19T12:31:34.000Z</time>
      </trkpt>
      <trkpt lat="37.17169" lon="-3.59826">
        <ele>684.323205</ele>
        <time>2022-04-19T12:31:36.000Z</time>
      </trkpt>
      <trkpt lat="37.17165" lon="-3.59822">
        <ele>684.239879</ele>
        <time>2022-04-19T12:31:37.000Z</time>
      </trkpt>
      <trkpt lat="37.17158" lon="-3.59816">
        <ele>684.062883</ele>
        <time>2022-04-19T12:31:39.000Z</time>
      </trkpt>
      <trkpt lat="37.1715" lon="-3.59809">
        <ele>683.876321</ele>
        <time>2022-04-19T12:31:41.000Z</time>
      </trkpt>
      <trkpt lat="37.17141" lon="-3.598">
        <ele>683.703721</ele>
        <time>2022-04-19T12:31:43.000Z</time>
      </trkpt>
      <trkpt lat="37.17134" lon="-3.59791">
        <ele>683.565229</ele>
        <time>2022-04-19T12:31:45.000Z</time>
      </trkpt>
      <trkpt lat="37.17129" lon="-3.59787">
        <ele>683.493078</ele>
        <time>2022-04-19T12:31:46.000Z</time>
      </trkpt>
      <trkpt lat="37.17124" lon="-3.59783">
        <ele>683.419876</ele>
        <time>2022-04-19T12:31:47.000Z</time>
      </trkpt>
      <trkpt lat="37.17116" lon="-3.59776">
        <ele>683.286969</ele>
        <time>2022-04-19T12:31:49.000Z</time>
      </trkpt>
      <trkpt lat="37.17111" lon="-3.59771">
        <ele>683.213137</ele>
        <time>2022-04-19T12:31:50.000Z</time>
      </trkpt>
      <trkpt lat="37.17102" lon="-3.59762">
        <ele>683.059261</ele>
        <time>2022-04-19T12:31:52.000Z</time>
      </trkpt>
      <trkpt lat="37.17093" lon="-3.59754">
        <ele>682.911775</ele>
        <time>2022-04-19T12:31:54.000Z</time>
      </trkpt>
      <trkpt lat="37.17084" lon="-3.59745">
        <ele>682.770643</ele>
        <time>2022-04-19T12:31:56.000Z</time>
      </trkpt>
      <trkpt lat="37.17069" lon="-3.59732">
        <ele>682.532804</ele>
        <time>2022-04-19T12:31:59.000Z</time>
      </trkpt>
      <trkpt lat="37.17049" lon="-3.59712">
        <ele>682.206474</ele>
        <time>2022-04-19T12:32:03.000Z</time>
      </trkpt>
      <trkpt lat="37.17041" lon="-3.597">
        <ele>682.049759</ele>
        <time>2022-04-19T12:32:05.000Z</time>
      </trkpt>
      <trkpt lat="37.17025" lon="-3.59689">
        <ele>681.801417</ele>
        <time>2022-04-19T12:32:08.000Z</time>
      </trkpt>
      <trkpt lat="37.17014" lon="-3.5968">
        <ele>681.635405</ele>
        <time>2022-04-19T12:32:10.000Z</time>
      </trkpt>
      <trkpt lat="37.16999" lon="-3.59664">
        <ele>681.431519</ele>
        <time>2022-04-19T12:32:13.000Z</time>
      </trkpt>
      <trkpt lat="37.1697" lon="-3.59633">
        <ele>681.28013</ele>
        <time>2022-04-19T12:32:20.000Z</time>
      </trkpt>
      <trkpt lat="37.16956" lon="-3.59618">
        <ele>681.205287</ele>
        <time>2022-04-19T12:32:25.000Z</time>
      </trkpt>
      <trkpt lat="37.16954" lon="-3.59615">
        <ele>681.192315</ele>
        <time>2022-04-19T12:32:26.000Z</time>
      </trkpt>
      <trkpt lat="37.16949" lon="-3.59607">
        <ele>681.16127</ele>
        <time>2022-04-19T12:32:28.000Z</time>
      </trkpt>
      <trkpt lat="37.16948" lon="-3.59599">
        <ele>681.136079</ele>
        <time>2022-04-19T12:32:30.000Z</time>
      </trkpt>
      <trkpt lat="37.16947" lon="-3.59578">
        <ele>681.068399</ele>
        <time>2022-04-19T12:32:36.000Z</time>
      </trkpt>
      <trkpt lat="37.1694" lon="-3.5956">
        <ele>681.003651</ele>
        <time>2022-04-19T12:32:41.000Z</time>
      </trkpt>
      <trkpt lat="37.16938" lon="-3.59544">
        <ele>680.951957</ele>
        <time>2022-04-19T12:32:46.000Z</time>
      </trkpt>
      <trkpt lat="37.16939" lon="-3.59538">
        <ele>680.932405</ele>
        <time>2022-04-19T12:32:48.000Z</time>
      </trkpt>
      <trkpt lat="37.1694" lon="-3.5952">
        <ele>680.874317</ele>
        <time>2022-04-19T12:32:53.000Z</time>
      </trkpt>
      <trkpt lat="37.16935" lon="-3.5951">
        <ele>680.83623</ele>
        <time>2022-04-19T12:32:57.000Z</time>
      </trkpt>
      <trkpt lat="37.16929" lon="-3.59494">
        <ele>680.781363</ele>
        <time>2022-04-19T12:33:02.000Z</time>
      </trkpt>
      <trkpt lat="37.16925" lon="-3.59491">
        <ele>680.759959</ele>
        <time>2022-04-19T12:33:04.000Z</time>
      </trkpt>
      <trkpt lat="37.16921" lon="-3.59487">
        <ele>680.740821</ele>
        <time>2022-04-19T12:33:06.000Z</time>
      </trkpt>
      <trkpt lat="37.16921" lon="-3.59485">
        <ele>680.733215</ele>
        <time>2022-04-19T12:33:07.000Z</time>
      </trkpt>
      <trkpt lat="37.16921" lon="-3.59482">
        <ele>680.746738</ele>
        <time>2022-04-19T12:33:08.000Z</time>
      </trkpt>
      <trkpt lat="37.16923" lon="-3.59468">
        <ele>680.810476</ele>
        <time>2022-04-19T12:33:12.000Z</time>
      </trkpt>
      <trkpt lat="37.16927" lon="-3.59437">
        <ele>680.956339</ele>
        <time>2022-04-19T12:33:20.000Z</time>
      </trkpt>
      <trkpt lat="37.16929" lon="-3.59405">
        <ele>681.108915</ele>
        <time>2022-04-19T12:33:28.000Z</time>
      </trkpt>
      <trkpt lat="37.16932" lon="-3.5937">
        <ele>681.270359</ele>
        <time>2022-04-19T12:33:36.000Z</time>
      </trkpt>
      <trkpt lat="37.16934" lon="-3.59355">
        <ele>681.344607</ele>
        <time>2022-04-19T12:33:41.000Z</time>
      </trkpt>
      <trkpt lat="37.16937" lon="-3.59342">
        <ele>681.405547</ele>
        <time>2022-04-19T12:33:45.000Z</time>
      </trkpt>
      <trkpt lat="37.16937" lon="-3.59335">
        <ele>681.440022</ele>
        <time>2022-04-19T12:33:47.000Z</time>
      </trkpt>
      <trkpt lat="37.16937" lon="-3.59328">
        <ele>681.473145</ele>
        <time>2022-04-19T12:33:49.000Z</time>
      </trkpt>
      <trkpt lat="37.16938" lon="-3.5931">
        <ele>681.553845</ele>
        <time>2022-04-19T12:33:54.000Z</time>
      </trkpt>
      <trkpt lat="37.16939" lon="-3.59283">
        <ele>681.679394</ele>
        <time>2022-04-19T12:34:03.000Z</time>
      </trkpt>
      <trkpt lat="37.1694" lon="-3.59277">
        <ele>681.710413</ele>
        <time>2022-04-19T12:34:07.000Z</time>
      </trkpt>
      <trkpt lat="37.16939" lon="-3.59276">
        <ele>681.715531</ele>
        <time>2022-04-19T12:34:08.000Z</time>
      </trkpt>
      <trkpt lat="37.16929" lon="-3.59278">
        <ele>681.777553</ele>
        <time>2022-04-19T12:34:14.000Z</time>
      </trkpt>
      <trkpt lat="37.16922" lon="-3.59282">
        <ele>681.854941</ele>
        <time>2022-04-19T12:34:19.000Z</time>
      </trkpt>
      <trkpt lat="37.16916" lon="-3.59284">
        <ele>681.914552</ele>
        <time>2022-04-19T12:34:25.000Z</time>
      </trkpt>
      <trkpt lat="37.16914" lon="-3.59284">
        <ele>681.934868</ele>
        <time>2022-04-19T12:34:26.000Z</time>
      </trkpt>
      <trkpt lat="37.169" lon="-3.5929">
        <ele>682.090017</ele>
        <time>2022-04-19T12:34:34.000Z</time>
      </trkpt>
      <trkpt lat="37.16894" lon="-3.5929">
        <ele>682.1525</ele>
        <time>2022-04-19T12:34:37.000Z</time>
      </trkpt>
      <trkpt lat="37.16892" lon="-3.59286">
        <ele>682.191647</ele>
        <time>2022-04-19T12:34:39.000Z</time>
      </trkpt>
      <trkpt lat="37.16887" lon="-3.59262">
        <ele>682.395558</ele>
        <time>2022-04-19T12:34:47.000Z</time>
      </trkpt>
      <trkpt lat="37.16882" lon="-3.59239">
        <ele>682.592595</ele>
        <time>2022-04-19T12:34:53.000Z</time>
      </trkpt>
      <trkpt lat="37.16881" lon="-3.59235">
        <ele>682.626765</ele>
        <time>2022-04-19T12:34:54.000Z</time>
      </trkpt>
      <trkpt lat="37.16871" lon="-3.59209">
        <ele>682.868597</ele>
        <time>2022-04-19T12:35:01.000Z</time>
      </trkpt>
      <trkpt lat="37.16853" lon="-3.59171">
        <ele>683.231767</ele>
        <time>2022-04-19T12:35:11.000Z</time>
      </trkpt>
      <trkpt lat="37.16842" lon="-3.59148">
        <ele>683.454487</ele>
        <time>2022-04-19T12:35:18.000Z</time>
      </trkpt>
      <trkpt lat="37.16837" lon="-3.5914">
        <ele>683.533354</ele>
        <time>2022-04-19T12:35:21.000Z</time>
      </trkpt>
      <trkpt lat="37.16834" lon="-3.59136">
        <ele>683.584888</ele>
        <time>2022-04-19T12:35:23.000Z</time>
      </trkpt>
      <trkpt lat="37.16823" lon="-3.59122">
        <ele>683.748569</ele>
        <time>2022-04-19T12:35:28.000Z</time>
      </trkpt>
      <trkpt lat="37.16822" lon="-3.5912">
        <ele>683.777745</ele>
        <time>2022-04-19T12:35:29.000Z</time>
      </trkpt>
      <trkpt lat="37.16813" lon="-3.59105">
        <ele>683.943019</ele>
        <time>2022-04-19T12:35:34.000Z</time>
      </trkpt>
      <trkpt lat="37.16807" lon="-3.59096">
        <ele>684.050638</ele>
        <time>2022-04-19T12:35:37.000Z</time>
      </trkpt>
      <trkpt lat="37.16801" lon="-3.59087">
        <ele>684.147896</ele>
        <time>2022-04-19T12:35:40.000Z</time>
      </trkpt>
      <trkpt lat="37.16794" lon="-3.59076">
        <ele>684.272173</ele>
        <time>2022-04-19T12:35:44.000Z</time>
      </trkpt>
      <trkpt lat="37.1678" lon="-3.59055">
        <ele>684.517998</ele>
        <time>2022-04-19T12:35:51.000Z</time>
      </trkpt>
      <trkpt lat="37.16779" lon="-3.59052">
        <ele>684.548691</ele>
        <time>2022-04-19T12:35:52.000Z</time>
      </trkpt>
      <trkpt lat="37.16777" lon="-3.59049">
        <ele>684.582029</ele>
        <time>2022-04-19T12:35:53.000Z</time>
      </trkpt>
      <trkpt lat="37.16763" lon="-3.59028">
        <ele>684.821763</ele>
        <time>2022-04-19T12:36:00.000Z</time>
      </trkpt>
      <trkpt lat="37.16751" lon="-3.59008">
        <ele>685.044639</ele>
        <time>2022-04-19T12:36:07.000Z</time>
      </trkpt>
      <trkpt lat="37.16746" lon="-3.59001">
        <ele>685.125382</ele>
        <time>2022-04-19T12:36:10.000Z</time>
      </trkpt>
      <trkpt lat="37.1674" lon="-3.5899">
        <ele>685.240739</ele>
        <time>2022-04-19T12:36:14.000Z</time>
      </trkpt>
      <trkpt lat="37.16737" lon="-3.58984">
        <ele>685.308126</ele>
        <time>2022-04-19T12:36:16.000Z</time>
      </trkpt>
      <trkpt lat="37.16731" lon="-3.58976">
        <ele>685.40747</ele>
        <time>2022-04-19T12:36:19.000Z</time>
      </trkpt>
      <trkpt lat="37.16728" lon="-3.58971">
        <ele>685.4569</ele>
        <time>2022-04-19T12:36:21.000Z</time>
      </trkpt>
      <trkpt lat="37.16727" lon="-3.58969">
        <ele>685.483821</ele>
        <time>2022-04-19T12:36:22.000Z</time>
      </trkpt>
      <trkpt lat="37.16725" lon="-3.58965">
        <ele>685.52761</ele>
        <time>2022-04-19T12:36:24.000Z</time>
      </trkpt>
      <trkpt lat="37.16721" lon="-3.58965">
        <ele>685.571284</ele>
        <time>2022-04-19T12:36:26.000Z</time>
      </trkpt>
      <trkpt lat="37.16718" lon="-3.58967">
        <ele>685.614793</ele>
        <time>2022-04-19T12:36:28.000Z</time>
      </trkpt>
      <trkpt lat="37.16716" lon="-3.58967">
        <ele>685.632968</ele>
        <time>2022-04-19T12:36:29.000Z</time>
      </trkpt>
      <trkpt lat="37.16712" lon="-3.58968">
        <ele>685.653052</ele>
        <time>2022-04-19T12:36:32.000Z</time>
      </trkpt>
      <trkpt lat="37.1671" lon="-3.58968">
        <ele>685.652791</ele>
        <time>2022-04-19T12:36:34.000Z</time>
      </trkpt>
      <trkpt lat="37.1671" lon="-3.58969">
        <ele>685.652649</ele>
        <time>2022-04-19T12:36:42.000Z</time>
      </trkpt>
      <trkpt lat="37.16708" lon="-3.5897">
        <ele>685.652383</ele>
        <time>2022-04-19T12:36:43.000Z</time>
      </trkpt>
      <trkpt lat="37.16703" lon="-3.58975">
        <ele>685.651155</ele>
        <time>2022-04-19T12:36:47.000Z</time>
      </trkpt>
      <trkpt lat="37.16703" lon="-3.58975">
        <ele>685.651058</ele>
        <time>2022-04-19T12:36:51.000Z</time>
      </trkpt>
      <trkpt lat="37.16703" lon="-3.58975">
        <ele>685.651058</ele>
        <time>2022-04-19T12:37:00.000Z</time>
      </trkpt>
      <trkpt lat="37.16702" lon="-3.58975">
        <ele>685.650956</ele>
        <time>2022-04-19T12:37:21.000Z</time>
      </trkpt>
      <trkpt lat="37.16702" lon="-3.58975">
        <ele>685.650937</ele>
        <time>2022-04-19T12:37:28.000Z</time>
      </trkpt>
      <trkpt lat="37.167" lon="-3.58972">
        <ele>685.650364</ele>
        <time>2022-04-19T12:37:30.000Z</time>
      </trkpt>
      <trkpt lat="37.16699" lon="-3.5897">
        <ele>685.649983</ele>
        <time>2022-04-19T12:37:31.000Z</time>
      </trkpt>
      <trkpt lat="37.16699" lon="-3.58968">
        <ele>685.649629</ele>
        <time>2022-04-19T12:37:32.000Z</time>
      </trkpt>
      <trkpt lat="37.16706" lon="-3.58958">
        <ele>685.647688</ele>
        <time>2022-04-19T12:37:36.000Z</time>
      </trkpt>
      <trkpt lat="37.16705" lon="-3.58955">
        <ele>685.647229</ele>
        <time>2022-04-19T12:37:37.000Z</time>
      </trkpt>
      <trkpt lat="37.16705" lon="-3.58952">
        <ele>685.64677</ele>
        <time>2022-04-19T12:37:38.000Z</time>
      </trkpt>
      <trkpt lat="37.16698" lon="-3.58943">
        <ele>685.644941</ele>
        <time>2022-04-19T12:37:41.000Z</time>
      </trkpt>
      <trkpt lat="37.16685" lon="-3.58926">
        <ele>685.641545</ele>
        <time>2022-04-19T12:37:45.000Z</time>
      </trkpt>
      <trkpt lat="37.16682" lon="-3.58922">
        <ele>685.640668</ele>
        <time>2022-04-19T12:37:46.000Z</time>
      </trkpt>
      <trkpt lat="37.16664" lon="-3.58906">
        <ele>685.636582</ele>
        <time>2022-04-19T12:37:51.000Z</time>
      </trkpt>
      <trkpt lat="37.16647" lon="-3.58889">
        <ele>685.632697</ele>
        <time>2022-04-19T12:37:57.000Z</time>
      </trkpt>
      <trkpt lat="37.16634" lon="-3.58873">
        <ele>685.629155</ele>
        <time>2022-04-19T12:38:02.000Z</time>
      </trkpt>
      <trkpt lat="37.16631" lon="-3.5887">
        <ele>685.628521</ele>
        <time>2022-04-19T12:38:03.000Z</time>
      </trkpt>
      <trkpt lat="37.16615" lon="-3.58849">
        <ele>685.624125</ele>
        <time>2022-04-19T12:38:09.000Z</time>
      </trkpt>
      <trkpt lat="37.16607" lon="-3.58838">
        <ele>685.621986</ele>
        <time>2022-04-19T12:38:12.000Z</time>
      </trkpt>
      <trkpt lat="37.16589" lon="-3.58811">
        <ele>685.74931</ele>
        <time>2022-04-19T12:38:20.000Z</time>
      </trkpt>
      <trkpt lat="37.16579" lon="-3.58799">
        <ele>685.849689</ele>
        <time>2022-04-19T12:38:24.000Z</time>
      </trkpt>
      <trkpt lat="37.16573" lon="-3.58783">
        <ele>685.946152</ele>
        <time>2022-04-19T12:38:28.000Z</time>
      </trkpt>
      <trkpt lat="37.16564" lon="-3.5876">
        <ele>686.089341</ele>
        <time>2022-04-19T12:38:34.000Z</time>
      </trkpt>
      <trkpt lat="37.16557" lon="-3.58726">
        <ele>686.289192</ele>
        <time>2022-04-19T12:38:42.000Z</time>
      </trkpt>
      <trkpt lat="37.16556" lon="-3.58709">
        <ele>686.390292</ele>
        <time>2022-04-19T12:38:46.000Z</time>
      </trkpt>
      <trkpt lat="37.16553" lon="-3.58686">
        <ele>686.516992</ele>
        <time>2022-04-19T12:38:51.000Z</time>
      </trkpt>
      <trkpt lat="37.16546" lon="-3.58646">
        <ele>686.754126</ele>
        <time>2022-04-19T12:39:00.000Z</time>
      </trkpt>
      <trkpt lat="37.16542" lon="-3.58611">
        <ele>686.92956</ele>
        <time>2022-04-19T12:39:08.000Z</time>
      </trkpt>
      <trkpt lat="37.16537" lon="-3.58571">
        <ele>687.060561</ele>
        <time>2022-04-19T12:39:17.000Z</time>
      </trkpt>
      <trkpt lat="37.16533" lon="-3.58549">
        <ele>687.131571</ele>
        <time>2022-04-19T12:39:22.000Z</time>
      </trkpt>
      <trkpt lat="37.1653" lon="-3.58531">
        <ele>687.189779</ele>
        <time>2022-04-19T12:39:26.000Z</time>
      </trkpt>
      <trkpt lat="37.16521" lon="-3.5848">
        <ele>687.361172</ele>
        <time>2022-04-19T12:39:38.000Z</time>
      </trkpt>
      <trkpt lat="37.16514" lon="-3.58441">
        <ele>687.488189</ele>
        <time>2022-04-19T12:39:47.000Z</time>
      </trkpt>
      <trkpt lat="37.16507" lon="-3.58407">
        <ele>687.603508</ele>
        <time>2022-04-19T12:39:55.000Z</time>
      </trkpt>
      <trkpt lat="37.16502" lon="-3.58381">
        <ele>687.738759</ele>
        <time>2022-04-19T12:40:01.000Z</time>
      </trkpt>
      <trkpt lat="37.16498" lon="-3.58369">
        <ele>687.815554</ele>
        <time>2022-04-19T12:40:04.000Z</time>
      </trkpt>
      <trkpt lat="37.16491" lon="-3.58343">
        <ele>687.975134</ele>
        <time>2022-04-19T12:40:10.000Z</time>
      </trkpt>
      <trkpt lat="37.16486" lon="-3.58326">
        <ele>688.085305</ele>
        <time>2022-04-19T12:40:14.000Z</time>
      </trkpt>
      <trkpt lat="37.16476" lon="-3.58292">
        <ele>688.302072</ele>
        <time>2022-04-19T12:40:22.000Z</time>
      </trkpt>
      <trkpt lat="37.16475" lon="-3.58288">
        <ele>688.3268</ele>
        <time>2022-04-19T12:40:23.000Z</time>
      </trkpt>
      <trkpt lat="37.16467" lon="-3.58268">
        <ele>688.454522</ele>
        <time>2022-04-19T12:40:29.000Z</time>
      </trkpt>
      <trkpt lat="37.16463" lon="-3.58257">
        <ele>688.524162</ele>
        <time>2022-04-19T12:40:33.000Z</time>
      </trkpt>
      <trkpt lat="37.16463" lon="-3.58256">
        <ele>688.532677</ele>
        <time>2022-04-19T12:40:36.000Z</time>
      </trkpt>
      <trkpt lat="37.16461" lon="-3.58255">
        <ele>688.547728</ele>
        <time>2022-04-19T12:40:38.000Z</time>
      </trkpt>
      <trkpt lat="37.16454" lon="-3.58239">
        <ele>688.654692</ele>
        <time>2022-04-19T12:40:44.000Z</time>
      </trkpt>
      <trkpt lat="37.16453" lon="-3.58224">
        <ele>688.743547</ele>
        <time>2022-04-19T12:40:47.000Z</time>
      </trkpt>
      <trkpt lat="37.16452" lon="-3.58218">
        <ele>688.775132</ele>
        <time>2022-04-19T12:40:48.000Z</time>
      </trkpt>
      <trkpt lat="37.16446" lon="-3.58199">
        <ele>688.897884</ele>
        <time>2022-04-19T12:40:52.000Z</time>
      </trkpt>
      <trkpt lat="37.16444" lon="-3.58189">
        <ele>688.962481</ele>
        <time>2022-04-19T12:40:54.000Z</time>
      </trkpt>
      <trkpt lat="37.16442" lon="-3.58184">
        <ele>689.000202</ele>
        <time>2022-04-19T12:40:55.000Z</time>
      </trkpt>
      <trkpt lat="37.16438" lon="-3.5817">
        <ele>689.112149</ele>
        <time>2022-04-19T12:40:58.000Z</time>
      </trkpt>
      <trkpt lat="37.16435" lon="-3.58165">
        <ele>689.149967</ele>
        <time>2022-04-19T12:40:59.000Z</time>
      </trkpt>
      <trkpt lat="37.16431" lon="-3.58156">
        <ele>689.231861</ele>
        <time>2022-04-19T12:41:01.000Z</time>
      </trkpt>
      <trkpt lat="37.16422" lon="-3.58131">
        <ele>689.42515</ele>
        <time>2022-04-19T12:41:06.000Z</time>
      </trkpt>
      <trkpt lat="37.16417" lon="-3.58117">
        <ele>689.540137</ele>
        <time>2022-04-19T12:41:09.000Z</time>
      </trkpt>
      <trkpt lat="37.16412" lon="-3.58097">
        <ele>689.693359</ele>
        <time>2022-04-19T12:41:13.000Z</time>
      </trkpt>
      <trkpt lat="37.16408" lon="-3.58087">
        <ele>689.77051</ele>
        <time>2022-04-19T12:41:15.000Z</time>
      </trkpt>
      <trkpt lat="37.16399" lon="-3.58053">
        <ele>690.035966</ele>
        <time>2022-04-19T12:41:22.000Z</time>
      </trkpt>
      <trkpt lat="37.16396" lon="-3.58038">
        <ele>690.145214</ele>
        <time>2022-04-19T12:41:25.000Z</time>
      </trkpt>
      <trkpt lat="37.1639" lon="-3.58009">
        <ele>690.365245</ele>
        <time>2022-04-19T12:41:32.000Z</time>
      </trkpt>
      <trkpt lat="37.16381" lon="-3.57986">
        <ele>690.553517</ele>
        <time>2022-04-19T12:41:38.000Z</time>
      </trkpt>
      <trkpt lat="37.16379" lon="-3.57977">
        <ele>690.619508</ele>
        <time>2022-04-19T12:41:40.000Z</time>
      </trkpt>
      <trkpt lat="37.16376" lon="-3.57969">
        <ele>690.683874</ele>
        <time>2022-04-19T12:41:42.000Z</time>
      </trkpt>
      <trkpt lat="37.16371" lon="-3.57951">
        <ele>690.821162</ele>
        <time>2022-04-19T12:41:46.000Z</time>
      </trkpt>
      <trkpt lat="37.16365" lon="-3.57935">
        <ele>690.952265</ele>
        <time>2022-04-19T12:41:50.000Z</time>
      </trkpt>
      <trkpt lat="37.16362" lon="-3.57921">
        <ele>691.058705</ele>
        <time>2022-04-19T12:41:53.000Z</time>
      </trkpt>
      <trkpt lat="37.16358" lon="-3.57906">
        <ele>691.170962</ele>
        <time>2022-04-19T12:41:56.000Z</time>
      </trkpt>
      <trkpt lat="37.16351" lon="-3.57886">
        <ele>691.332482</ele>
        <time>2022-04-19T12:42:01.000Z</time>
      </trkpt>
      <trkpt lat="37.16342" lon="-3.57858">
        <ele>691.549209</ele>
        <time>2022-04-19T12:42:08.000Z</time>
      </trkpt>
      <trkpt lat="37.1634" lon="-3.57846">
        <ele>691.636627</ele>
        <time>2022-04-19T12:42:11.000Z</time>
      </trkpt>
      <trkpt lat="37.16339" lon="-3.57838">
        <ele>691.695661</ele>
        <time>2022-04-19T12:42:13.000Z</time>
      </trkpt>
      <trkpt lat="37.16338" lon="-3.57826">
        <ele>691.784933</ele>
        <time>2022-04-19T12:42:16.000Z</time>
      </trkpt>
      <trkpt lat="37.16335" lon="-3.57813">
        <ele>691.883106</ele>
        <time>2022-04-19T12:42:21.000Z</time>
      </trkpt>
      <trkpt lat="37.16335" lon="-3.57812">
        <ele>691.893674</ele>
        <time>2022-04-19T12:42:22.000Z</time>
      </trkpt>
      <trkpt lat="37.16337" lon="-3.5781">
        <ele>691.9187</ele>
        <time>2022-04-19T12:42:25.000Z</time>
      </trkpt>
      <trkpt lat="37.16351" lon="-3.57807">
        <ele>692.046357</ele>
        <time>2022-04-19T12:42:31.000Z</time>
      </trkpt>
      <trkpt lat="37.16369" lon="-3.57802">
        <ele>692.212908</ele>
        <time>2022-04-19T12:42:37.000Z</time>
      </trkpt>
      <trkpt lat="37.16381" lon="-3.57804">
        <ele>692.362002</ele>
        <time>2022-04-19T12:42:41.000Z</time>
      </trkpt>
      <trkpt lat="37.16388" lon="-3.57806">
        <ele>692.451254</ele>
        <time>2022-04-19T12:42:43.000Z</time>
      </trkpt>
      <trkpt lat="37.16412" lon="-3.57807">
        <ele>692.752136</ele>
        <time>2022-04-19T12:42:50.000Z</time>
      </trkpt>
      <trkpt lat="37.16427" lon="-3.57809">
        <ele>692.945894</ele>
        <time>2022-04-19T12:42:56.000Z</time>
      </trkpt>
      <trkpt lat="37.16432" lon="-3.57809">
        <ele>693.011666</ele>
        <time>2022-04-19T12:42:58.000Z</time>
      </trkpt>
      <trkpt lat="37.16436" lon="-3.57808">
        <ele>693.058729</ele>
        <time>2022-04-19T12:43:00.000Z</time>
      </trkpt>
      <trkpt lat="37.16436" lon="-3.57808">
        <ele>693.063022</ele>
        <time>2022-04-19T12:43:02.000Z</time>
      </trkpt>
      <trkpt lat="37.16437" lon="-3.57804">
        <ele>693.097465</ele>
        <time>2022-04-19T12:43:08.000Z</time>
      </trkpt>
      <trkpt lat="37.16436" lon="-3.57798">
        <ele>693.158352</ele>
        <time>2022-04-19T12:43:10.000Z</time>
      </trkpt>
      <trkpt lat="37.16433" lon="-3.57778">
        <ele>693.369922</ele>
        <time>2022-04-19T12:43:15.000Z</time>
      </trkpt>
      <trkpt lat="37.16429" lon="-3.57759">
        <ele>693.566188</ele>
        <time>2022-04-19T12:43:19.000Z</time>
      </trkpt>
      <trkpt lat="37.16426" lon="-3.5775">
        <ele>693.662579</ele>
        <time>2022-04-19T12:43:21.000Z</time>
      </trkpt>
      <trkpt lat="37.16422" lon="-3.57728">
        <ele>693.890945</ele>
        <time>2022-04-19T12:43:26.000Z</time>
      </trkpt>
      <trkpt lat="37.16418" lon="-3.57715">
        <ele>694.023142</ele>
        <time>2022-04-19T12:43:29.000Z</time>
      </trkpt>
      <trkpt lat="37.16412" lon="-3.57689">
        <ele>694.296936</ele>
        <time>2022-04-19T12:43:35.000Z</time>
      </trkpt>
      <trkpt lat="37.16411" lon="-3.57685">
        <ele>694.345672</ele>
        <time>2022-04-19T12:43:36.000Z</time>
      </trkpt>
      <trkpt lat="37.16409" lon="-3.57681">
        <ele>694.391547</ele>
        <time>2022-04-19T12:43:37.000Z</time>
      </trkpt>
      <trkpt lat="37.16402" lon="-3.5765">
        <ele>694.922476</ele>
        <time>2022-04-19T12:43:44.000Z</time>
      </trkpt>
      <trkpt lat="37.16398" lon="-3.57633">
        <ele>695.273636</ele>
        <time>2022-04-19T12:43:48.000Z</time>
      </trkpt>
      <trkpt lat="37.16396" lon="-3.57625">
        <ele>695.445625</ele>
        <time>2022-04-19T12:43:50.000Z</time>
      </trkpt>
      <trkpt lat="37.16395" lon="-3.57621">
        <ele>695.53183</ele>
        <time>2022-04-19T12:43:51.000Z</time>
      </trkpt>
      <trkpt lat="37.16393" lon="-3.57609">
        <ele>695.7807</ele>
        <time>2022-04-19T12:43:54.000Z</time>
      </trkpt>
      <trkpt lat="37.16388" lon="-3.57588">
        <ele>696.229689</ele>
        <time>2022-04-19T12:43:59.000Z</time>
      </trkpt>
      <trkpt lat="37.16383" lon="-3.57555">
        <ele>696.916506</ele>
        <time>2022-04-19T12:44:07.000Z</time>
      </trkpt>
      <trkpt lat="37.16382" lon="-3.57547">
        <ele>697.073433</ele>
        <time>2022-04-19T12:44:09.000Z</time>
      </trkpt>
      <trkpt lat="37.16374" lon="-3.57496">
        <ele>698.122429</ele>
        <time>2022-04-19T12:44:20.000Z</time>
      </trkpt>
      <trkpt lat="37.16374" lon="-3.57492">
        <ele>698.21739</ele>
        <time>2022-04-19T12:44:21.000Z</time>
      </trkpt>
      <trkpt lat="37.16371" lon="-3.57466">
        <ele>698.745705</ele>
        <time>2022-04-19T12:44:28.000Z</time>
      </trkpt>
      <trkpt lat="37.16368" lon="-3.57457">
        <ele>698.95188</ele>
        <time>2022-04-19T12:44:34.000Z</time>
      </trkpt>
      <trkpt lat="37.16368" lon="-3.57456">
        <ele>698.959848</ele>
        <time>2022-04-19T12:44:41.000Z</time>
      </trkpt>
      <trkpt lat="37.16368" lon="-3.57456">
        <ele>698.959848</ele>
        <time>2022-04-19T12:44:47.000Z</time>
      </trkpt>
      <trkpt lat="37.16368" lon="-3.57456">
        <ele>698.964658</ele>
        <time>2022-04-19T12:44:52.000Z</time>
      </trkpt>
      <trkpt lat="37.16374" lon="-3.5745">
        <ele>699.175748</ele>
        <time>2022-04-19T12:44:56.000Z</time>
      </trkpt>
      <trkpt lat="37.16375" lon="-3.57447">
        <ele>699.288639</ele>
        <time>2022-04-19T12:44:58.000Z</time>
      </trkpt>
      <trkpt lat="37.16375" lon="-3.5744">
        <ele>699.511834</ele>
        <time>2022-04-19T12:45:01.000Z</time>
      </trkpt>
      <trkpt lat="37.16371" lon="-3.5742">
        <ele>700.159618</ele>
        <time>2022-04-19T12:45:07.000Z</time>
      </trkpt>
      <trkpt lat="37.16371" lon="-3.57417">
        <ele>700.266307</ele>
        <time>2022-04-19T12:45:08.000Z</time>
      </trkpt>
      <trkpt lat="37.16371" lon="-3.57414">
        <ele>700.357584</ele>
        <time>2022-04-19T12:45:09.000Z</time>
      </trkpt>
      <trkpt lat="37.16368" lon="-3.57389">
        <ele>701.136099</ele>
        <time>2022-04-19T12:45:16.000Z</time>
      </trkpt>
      <trkpt lat="37.16365" lon="-3.57373">
        <ele>701.660685</ele>
        <time>2022-04-19T12:45:20.000Z</time>
      </trkpt>
      <trkpt lat="37.16364" lon="-3.57369">
        <ele>701.776016</ele>
        <time>2022-04-19T12:45:21.000Z</time>
      </trkpt>
      <trkpt lat="37.16357" lon="-3.57346">
        <ele>702.568597</ele>
        <time>2022-04-19T12:45:27.000Z</time>
      </trkpt>
      <trkpt lat="37.16354" lon="-3.57334">
        <ele>702.942669</ele>
        <time>2022-04-19T12:45:30.000Z</time>
      </trkpt>
      <trkpt lat="37.16352" lon="-3.57327">
        <ele>703.178749</ele>
        <time>2022-04-19T12:45:32.000Z</time>
      </trkpt>
      <trkpt lat="37.16351" lon="-3.57323">
        <ele>703.317383</ele>
        <time>2022-04-19T12:45:33.000Z</time>
      </trkpt>
      <trkpt lat="37.16348" lon="-3.57316">
        <ele>703.554813</ele>
        <time>2022-04-19T12:45:35.000Z</time>
      </trkpt>
      <trkpt lat="37.16347" lon="-3.5731">
        <ele>703.762157</ele>
        <time>2022-04-19T12:45:37.000Z</time>
      </trkpt>
      <trkpt lat="37.16347" lon="-3.57307">
        <ele>703.849959</ele>
        <time>2022-04-19T12:45:38.000Z</time>
      </trkpt>
      <trkpt lat="37.16347" lon="-3.57304">
        <ele>703.941659</ele>
        <time>2022-04-19T12:45:39.000Z</time>
      </trkpt>
      <trkpt lat="37.16346" lon="-3.57293">
        <ele>704.306458</ele>
        <time>2022-04-19T12:45:42.000Z</time>
      </trkpt>
      <trkpt lat="37.16347" lon="-3.57279">
        <ele>704.721577</ele>
        <time>2022-04-19T12:45:45.000Z</time>
      </trkpt>
      <trkpt lat="37.16346" lon="-3.57263">
        <ele>705.233935</ele>
        <time>2022-04-19T12:45:50.000Z</time>
      </trkpt>
      <trkpt lat="37.16345" lon="-3.5726">
        <ele>705.335507</ele>
        <time>2022-04-19T12:45:51.000Z</time>
      </trkpt>
      <trkpt lat="37.16344" lon="-3.57246">
        <ele>705.779584</ele>
        <time>2022-04-19T12:45:55.000Z</time>
      </trkpt>
      <trkpt lat="37.16343" lon="-3.57243">
        <ele>705.877607</ele>
        <time>2022-04-19T12:45:56.000Z</time>
      </trkpt>
      <trkpt lat="37.16341" lon="-3.57232">
        <ele>706.193592</ele>
        <time>2022-04-19T12:46:00.000Z</time>
      </trkpt>
      <trkpt lat="37.16341" lon="-3.57228">
        <ele>706.193592</ele>
        <time>2022-04-19T12:46:01.000Z</time>
      </trkpt>
      <trkpt lat="37.16339" lon="-3.57223">
        <ele>706.193592</ele>
        <time>2022-04-19T12:46:03.000Z</time>
      </trkpt>
      <trkpt lat="37.16339" lon="-3.57214">
        <ele>706.193592</ele>
        <time>2022-04-19T12:46:06.000Z</time>
      </trkpt>
      <trkpt lat="37.16338" lon="-3.57202">
        <ele>706.193592</ele>
        <time>2022-04-19T12:46:10.000Z</time>
      </trkpt>
      <trkpt lat="37.16336" lon="-3.57198">
        <ele>706.193592</ele>
        <time>2022-04-19T12:46:12.000Z</time>
      </trkpt>
      <trkpt lat="37.16336" lon="-3.57196">
        <ele>706.193592</ele>
        <time>2022-04-19T12:46:13.000Z</time>
      </trkpt>
      <trkpt lat="37.16333" lon="-3.57184">
        <ele>706.193592</ele>
        <time>2022-04-19T12:46:18.000Z</time>
      </trkpt>
      <trkpt lat="37.1633" lon="-3.57172">
        <ele>706.193592</ele>
        <time>2022-04-19T12:46:22.000Z</time>
      </trkpt>
      <trkpt lat="37.1633" lon="-3.57161">
        <ele>706.193592</ele>
        <time>2022-04-19T12:46:26.000Z</time>
      </trkpt>
      <trkpt lat="37.16331" lon="-3.57157">
        <ele>706.193592</ele>
        <time>2022-04-19T12:46:28.000Z</time>
      </trkpt>
      <trkpt lat="37.16331" lon="-3.57157">
        <ele>706.193592</ele>
        <time>2022-04-19T12:46:31.000Z</time>
      </trkpt>
      <trkpt lat="37.16335" lon="-3.57155">
        <ele>706.193592</ele>
        <time>2022-04-19T12:46:36.000Z</time>
      </trkpt>
      <trkpt lat="37.16336" lon="-3.57155">
        <ele>706.193592</ele>
        <time>2022-04-19T12:46:38.000Z</time>
      </trkpt>
      <trkpt lat="37.16338" lon="-3.57155">
        <ele>706.193592</ele>
        <time>2022-04-19T12:46:40.000Z</time>
      </trkpt>
      <trkpt lat="37.16341" lon="-3.57152">
        <ele>706.193592</ele>
        <time>2022-04-19T12:46:43.000Z</time>
      </trkpt>
      <trkpt lat="37.16343" lon="-3.5715">
        <ele>706.193592</ele>
        <time>2022-04-19T12:46:45.000Z</time>
      </trkpt>
      <trkpt lat="37.16344" lon="-3.57148">
        <ele>706.193592</ele>
        <time>2022-04-19T12:46:47.000Z</time>
      </trkpt>
      <trkpt lat="37.16348" lon="-3.57142">
        <ele>706.193592</ele>
        <time>2022-04-19T12:46:51.000Z</time>
      </trkpt>
      <trkpt lat="37.16349" lon="-3.5714">
        <ele>706.193592</ele>
        <time>2022-04-19T12:46:52.000Z</time>
      </trkpt>
      <trkpt lat="37.16351" lon="-3.5714">
        <ele>706.193592</ele>
        <time>2022-04-19T12:46:54.000Z</time>
      </trkpt>
      <trkpt lat="37.16353" lon="-3.5714">
        <ele>706.193592</ele>
        <time>2022-04-19T12:46:56.000Z</time>
      </trkpt>
      <trkpt lat="37.16357" lon="-3.57144">
        <ele>706.193592</ele>
        <time>2022-04-19T12:47:07.000Z</time>
      </trkpt>
      <trkpt lat="37.16357" lon="-3.57145">
        <ele>706.193592</ele>
        <time>2022-04-19T12:47:08.000Z</time>
      </trkpt>
      <trkpt lat="37.16358" lon="-3.57145">
        <ele>706.193592</ele>
        <time>2022-04-19T12:47:09.000Z</time>
      </trkpt>
      <trkpt lat="37.16359" lon="-3.57146">
        <ele>706.193592</ele>
        <time>2022-04-19T12:47:12.000Z</time>
      </trkpt>
      <trkpt lat="37.16359" lon="-3.57146">
        <ele>706.193592</ele>
        <time>2022-04-19T12:47:19.000Z</time>
      </trkpt>
      <trkpt lat="37.16359" lon="-3.57146">
        <ele>706.193592</ele>
        <time>2022-04-19T12:47:25.000Z</time>
      </trkpt>
      <trkpt lat="37.16359" lon="-3.57145">
        <ele>706.193592</ele>
        <time>2022-04-19T12:47:28.000Z</time>
      </trkpt>
      <trkpt lat="37.16359" lon="-3.57145">
        <ele>706.193592</ele>
        <time>2022-04-19T12:47:32.000Z</time>
      </trkpt>
      <trkpt lat="37.16361" lon="-3.57144">
        <ele>706.193592</ele>
        <time>2022-04-19T12:47:35.000Z</time>
      </trkpt>
      <trkpt lat="37.16366" lon="-3.5714">
        <ele>706.193592</ele>
        <time>2022-04-19T12:47:38.000Z</time>
      </trkpt>
      <trkpt lat="37.16368" lon="-3.57138">
        <ele>706.193592</ele>
        <time>2022-04-19T12:47:40.000Z</time>
      </trkpt>
      <trkpt lat="37.16372" lon="-3.57132">
        <ele>706.193592</ele>
        <time>2022-04-19T12:47:46.000Z</time>
      </trkpt>
    </trkseg>
  </trk>
</gpx>